# Wetter Temperatur Luftdruck Luftfeuchtigkeit Sichtweite Windgeschwindigkeit Windrichtung Zeit
1 Mist 5 1006 100 1100 3.09 150 09:28 02.10.2022
2 Rain 4 1006 93 10000 3.09 120 07:41 02.10.2022
3 Clear 3 1007 93 10000 4.12 130 02:55 02.10.2022
4 Clear 3 1007 93 10000 3.09 150 00:50 02.10.2022
5 Clear 3 1007 93 10000 3.09 140 00:22 02.10.2022
6 Clear 4 1007 87 10000 2.57 160 22:53 01.10.2022
7 Clear 4 1007 93 10000 3.09 150 20:53 01.10.2022
8 Clouds 4 1008 93 10000 2.57 150 18:50 01.10.2022
9 Clouds 5 1008 75 10000 1.03 170 16:36 01.10.2022
10 Clouds 4 1008 81 10000 2.06 220 14:41 01.10.2022
11 Clouds 5 1008 81 10000 3.09 220 13:32 01.10.2022
12 Clouds 4 1008 87 10000 3.09 230 12:33 01.10.2022
13 Clouds 4 1008 87 10000 4.12 210 11:21 01.10.2022
14 Clear 4 1008 81 10000 2.57 250 10:32 01.10.2022
15 Clouds 3 1008 93 10000 1.54 220 09:28 01.10.2022
16 Clouds 3 1008 93 10000 2.06 230 08:58 01.10.2022
17 Clouds 2 1008 100 9000 2.06 240 05:28 01.10.2022
18 Clouds 2 1008 100 10000 1.03 210 03:32 01.10.2022
19 Clouds 2 1008 100 10000 1.03 220 00:29 01.10.2022
20 Clouds 3 1008 93 10000 1.54 190 22:48 30.09.2022
21 Clouds 3 1008 93 10000 1.03 110 21:29 30.09.2022
22 Clouds 3 1008 93 10000 1.03 100 20:44 30.09.2022
23 Clouds 3 1008 93 10000 1.54 70 20:18 30.09.2022
24 Clouds 3 1008 93 10000 1.54 80 17:38 30.09.2022
25 Clouds 4 1008 87 10000 2.06 70 15:56 30.09.2022
26 Clouds 4 1008 87 10000 3.09 80 13:30 30.09.2022
27 Clouds 4 1008 81 10000 2.57 80 11:58 30.09.2022
28 Clouds 3 1008 87 10000 2.57 70 10:40 30.09.2022
29 Clouds 2 1008 86 10000 2.57 70 08:37 30.09.2022
30 Clouds 1 1009 93 10000 3.6 60 06:26 30.09.2022
31 Clear 1 1010 86 10000 4.12 70 02:39 30.09.2022
32 Clear 3 1011 87 10000 5.14 70 22:40 29.09.2022
33 Clear 4 1011 81 10000 5.14 70 21:28 29.09.2022
34 Clear 4 1011 81 10000 5.66 70 20:57 29.09.2022
35 Clear 6 1012 70 10000 4.63 70 18:45 29.09.2022
36 Clear 7 1011 65 10000 4.12 80 17:24 29.09.2022
37 Clear 9 1012 53 10000 4.63 80 16:28 29.09.2022
38 Clear 9 1012 53 10000 5.14 80 15:36 29.09.2022
39 Clear 10 1012 57 10000 5.66 70 14:29 29.09.2022
40 Clouds 8 1014 81 10000 4.12 80 10:29 29.09.2022
41 Clouds 5 1015 93 10000 4.12 70 06:58 29.09.2022
42 Clear 7 1016 87 10000 3.09 80 02:49 29.09.2022
43 Clouds 7 1016 93 10000 2.57 70 23:55 28.09.2022
44 Clouds 8 1016 87 10000 2.57 100 22:44 28.09.2022
45 Clouds 8 1016 87 10000 3.09 100 21:29 28.09.2022
46 Clouds 8 1016 87 10000 2.57 100 20:24 28.09.2022
47 Clouds 8 1016 87 10000 2.06 100 18:41 28.09.2022
48 Clouds 8 1015 87 10000 4.12 120 15:26 28.09.2022
49 Clouds 8 1016 87 10000 3.6 110 13:26 28.09.2022
50 Clouds 7 1016 93 10000 4.12 120 10:59 28.09.2022
51 Clouds 7 1016 93 10000 3.09 100 09:18 28.09.2022
52 Clouds 7 1015 93 10000 3.6 140 07:19 28.09.2022
53 Mist 7 1015 100 4200 2.57 100 02:36 28.09.2022
54 Clouds 7 1015 100 8000 2.57 100 01:33 28.09.2022
55 Clouds 7 1015 100 10000 3.09 100 23:20 27.09.2022
56 Clouds 7 1015 100 10000 2.57 90 21:44 27.09.2022
57 Clouds 8 1015 93 10000 3.09 80 20:38 27.09.2022
58 Clouds 8 1015 93 10000 2.57 70 19:48 27.09.2022
59 Clouds 8 1015 93 10000 2.57 70 18:40 27.09.2022
60 Clouds 8 1015 100 6000 3.09 70 17:44 27.09.2022
61 Clouds 8 1014 93 9000 2.57 60 15:31 27.09.2022
62 Rain 8 1015 93 2600 3.09 70 14:55 27.09.2022
63 Clouds 8 1014 100 10000 2.57 90 12:42 27.09.2022
64 Fog 8 1014 100 10000 4.12 70 11:32 27.09.2022
65 Clouds 7 1014 93 10000 3.6 50 08:49 27.09.2022
66 Rain 6 1014 100 10000 3.09 60 06:39 27.09.2022
67 Clear 5 1013 100 10000 3.09 80 01:57 27.09.2022
68 Fog 5 1013 93 1600 2.57 70 01:27 27.09.2022
69 Clear 6 1013 93 10000 3.09 90 23:26 26.09.2022
70 Clear 7 1013 87 10000 3.09 90 22:34 26.09.2022
71 Clouds 8 1012 87 10000 3.09 100 20:45 26.09.2022
72 Clouds 8 1012 87 10000 2.57 110 19:30 26.09.2022
73 Clouds 9 1011 81 10000 3.09 110 18:31 26.09.2022
74 Clouds 8 1011 93 10000 2.57 120 16:34 26.09.2022
75 Clouds 8 1010 87 10000 3.09 100 14:28 26.09.2022
76 Clouds 7 1010 87 10000 3.6 100 11:29 26.09.2022
77 Clouds 6 1010 93 10000 3.6 110 10:38 26.09.2022
78 Clouds 6 1009 93 10000 3.09 100 10:20 26.09.2022
79 Clouds 6 1009 93 10000 3.09 100 09:54 26.09.2022
80 Clouds 6 1009 93 10000 3.09 100 09:24 26.09.2022
81 Drizzle 5 1009 100 7000 3.09 80 07:37 26.09.2022
82 Clear 4 1009 87 10000 2.57 70 02:51 26.09.2022
83 Clouds 7 1011 70 10000 4.12 110 23:46 25.09.2022
84 Clouds 7 1011 75 10000 2.57 100 21:54 25.09.2022
85 Clouds 7 1011 75 10000 2.57 100 21:34 25.09.2022
86 Clouds 8 1011 65 10000 2.57 100 20:45 25.09.2022
87 Clouds 7 1012 75 10000 3.09 100 19:32 25.09.2022
88 Clouds 8 1012 70 10000 3.6 110 18:40 25.09.2022
89 Clouds 8 1012 70 10000 3.09 110 18:20 25.09.2022
90 Clouds 10 1012 57 10000 3.6 140 16:35 25.09.2022
91 Clouds 11 1012 53 10000 3.09 170 15:44 25.09.2022
92 Clouds 11 1013 53 10000 3.09 130 14:22 25.09.2022
93 Clear 11 1014 57 10000 3.6 140 12:51 25.09.2022
94 Clear 8 1015 76 10000 3.09 120 10:29 25.09.2022
95 Clear 5 1015 93 10000 3.6 120 08:24 25.09.2022
96 Clear 4 1015 100 10000 3.6 110 05:36 25.09.2022
97 Clear 5 1016 93 10000 3.09 120 01:32 25.09.2022
98 Clear 6 1016 93 10000 4.12 120 22:35 24.09.2022
99 Clear 8 1017 81 10000 3.6 120 20:54 24.09.2022
100 Clouds 10 1017 71 10000 2.57 140 19:22 24.09.2022
101 Clouds 11 1017 71 10000 2.06 110 17:19 24.09.2022
102 Clouds 11 1017 66 10000 2.06 120 16:23 24.09.2022
103 Clouds 11 1017 66 10000 2.06 120 16:23 24.09.2022
104 Clear 12 1017 62 10000 4.12 150 15:19 24.09.2022
105 Clear 11 1017 66 10000 4.63 150 13:23 24.09.2022
106 Clear 11 1017 71 10000 4.12 150 12:40 24.09.2022
107 Clear 9 1018 81 10000 3.09 130 10:19 24.09.2022
108 Clear 8 1017 87 10000 3.6 130 09:22 24.09.2022
109 Clear 8 1017 81 10000 3.6 130 08:43 24.09.2022
110 Clear 6 1017 93 10000 4.63 120 05:55 24.09.2022
111 Clear 6 1017 87 10000 4.12 120 04:31 24.09.2022
112 Clear 6 1017 81 10000 3.6 120 23:47 23.09.2022
113 Clear 8 1017 81 10000 3.6 140 21:44 23.09.2022
114 Clear 8 1017 81 10000 3.6 140 21:24 23.09.2022
115 Clear 8 1017 87 10000 3.6 140 20:54 23.09.2022
116 Clouds 10 1017 76 10000 3.09 140 19:20 23.09.2022
117 Clouds 12 1016 71 10000 3.09 160 17:50 23.09.2022
118 Clouds 12 1016 66 10000 4.63 160 13:41 23.09.2022
119 Clouds 10 1017 76 10000 3.09 160 10:24 23.09.2022
120 Clouds 9 1016 87 10000 4.63 150 07:43 23.09.2022
121 Clouds 9 1017 93 10000 4.12 170 02:32 23.09.2022
122 Clouds 9 1017 93 10000 5.14 190 23:29 22.09.2022
123 Clouds 9 1017 100 6000 3.09 160 22:28 22.09.2022
124 Clouds 9 1017 93 10000 3.6 170 21:35 22.09.2022
125 Clouds 10 1017 87 10000 3.09 170 20:23 22.09.2022
126 Clouds 10 1017 87 10000 3.6 180 18:57 22.09.2022
127 Clouds 14 1017 67 10000 3.09 200 15:23 22.09.2022
128 Clouds 10 1017 87 10000 3.6 220 10:51 22.09.2022
129 Clouds 9 1017 87 10000 3.6 200 10:19 22.09.2022
130 Clouds 8 1016 100 10000 4.63 210 07:55 22.09.2022
131 Clouds 9 1016 93 10000 4.12 220 04:56 22.09.2022
132 Clouds 8 1017 100 10000 4.12 210 00:36 22.09.2022
133 Clouds 8 1017 87 10000 4.63 200 22:29 21.09.2022
134 Clouds 7 1018 87 10000 6.17 210 21:18 21.09.2022
135 Clear 8 1018 76 10000 6.69 220 18:50 21.09.2022
136 Clear 9 1018 66 10000 7.2 220 17:41 21.09.2022
137 Clear 10 1019 57 10000 6.17 210 15:35 21.09.2022
138 Clear 9 1020 53 10000 5.66 210 13:39 21.09.2022
139 Clear 8 1020 61 10000 5.14 210 11:34 21.09.2022
140 Clouds 8 1021 54 10000 3.01 211 10:52 21.09.2022
141 Fog 4 1020 75 10000 3.6 220 09:39 21.09.2022
142 Fog 3 1020 80 10000 2.06 210 08:24 21.09.2022
143 Clear 1 1019 80 10000 2.57 340 02:54 21.09.2022
144 Clear 2 1019 80 10000 3.09 340 02:34 21.09.2022
145 Clear 1 1019 86 10000 3.09 340 01:50 21.09.2022
146 Clear 3 1018 75 10000 3.6 330 23:58 20.09.2022
147 Clear 4 1017 75 10000 3.09 330 21:40 20.09.2022
148 Clear 4 1017 75 10000 2.06 340 20:32 20.09.2022
149 Clouds 7 1016 61 10000 3.6 10 17:54 20.09.2022
150 Clouds 9 1014 57 10000 5.14 340 15:33 20.09.2022
151 Clouds 9 1013 61 10000 5.66 350 13:59 20.09.2022
152 Clouds 7 1012 70 10000 6.17 350 11:28 20.09.2022
153 Clouds 6 1010 81 10000 5.14 360 08:30 20.09.2022
154 Clouds 6 1010 75 10000 6.69 350 07:32 20.09.2022
155 Clouds 6 1009 81 10000 6.17 360 04:33 20.09.2022
156 Clouds 7 1008 81 10000 6.17 360 01:29 20.09.2022
157 Clouds 8 1008 76 10000 5.66 360 22:33 19.09.2022
158 Clouds 8 1008 81 10000 5.66 360 21:28 19.09.2022
159 Clouds 8 1008 81 10000 6.17 10 20:39 19.09.2022
160 Clouds 9 1008 81 10000 5.14 360 18:43 19.09.2022
161 Clouds 10 1007 76 10000 6.17 10 16:37 19.09.2022
162 Clouds 10 1006 81 10000 5.66 20 13:45 19.09.2022
163 Clouds 10 1006 81 10000 5.14 10 11:43 19.09.2022
164 Clouds 9 1005 87 10000 5.14 10 09:35 19.09.2022
165 Clouds 9 1004 87 10000 4.63 20 08:20 19.09.2022
166 Clouds 9 1003 93 10000 4.12 10 02:46 19.09.2022
167 Clouds 10 1002 87 10000 4.12 10 23:26 18.09.2022
168 Clouds 9 1002 93 10000 3.6 360 21:53 18.09.2022
169 Clouds 10 1001 93 10000 3.6 10 20:34 18.09.2022
170 Rain 9 1001 100 10000 4.12 360 18:42 18.09.2022
171 Rain 10 1001 87 10000 4.12 360 17:45 18.09.2022
172 Clouds 10 1000 87 10000 4.63 10 16:32 18.09.2022
173 Clouds 10 999 87 10000 5.14 10 14:39 18.09.2022
174 Clouds 10 999 87 10000 6.17 20 12:56 18.09.2022
175 Clouds 10 998 87 10000 5.66 20 11:51 18.09.2022
176 Rain 9 996 100 10000 5.14 20 06:45 18.09.2022
177 Rain 10 994 100 10000 5.14 20 01:32 18.09.2022
178 Rain 10 994 100 10000 5.14 20 00:48 18.09.2022
179 Rain 10 994 93 10000 5.14 20 22:23 17.09.2022
180 Rain 10 994 93 10000 5.66 20 20:48 17.09.2022
181 Rain 10 994 93 10000 5.14 20 19:28 17.09.2022
182 Rain 10 993 100 10000 6.17 30 17:19 17.09.2022
183 Rain 10 993 93 10000 6.17 20 13:59 17.09.2022
184 Rain 9 993 100 10000 5.66 20 12:33 17.09.2022
185 Clouds 9 993 93 10000 6.17 20 10:47 17.09.2022
186 Clouds 9 994 93 10000 6.17 30 06:29 17.09.2022
187 Clouds 10 994 93 10000 7.72 40 03:34 17.09.2022
188 Clouds 11 995 87 10000 6.69 50 23:23 16.09.2022
189 Clouds 11 995 87 10000 6.69 60 21:33 16.09.2022
190 Clouds 11 995 87 10000 7.2 50 20:41 16.09.2022
191 Clouds 12 994 87 10000 6.17 50 18:18 16.09.2022
192 Clouds 12 994 93 6000 7.72 50 16:18 16.09.2022
193 Clouds 12 994 87 10000 6.17 60 14:40 16.09.2022
194 Clouds 12 994 87 10000 5.66 60 12:31 16.09.2022
195 Clouds 11 994 93 10000 5.66 60 09:34 16.09.2022
196 Rain 10 994 100 10000 5.66 60 07:21 16.09.2022
197 Rain 10 994 100 10000 5.66 60 06:47 16.09.2022
198 Clouds 10 994 100 10000 5.66 60 05:19 16.09.2022
199 Rain 10 995 100 10000 5.14 70 23:50 15.09.2022
200 Rain 10 995 100 10000 5.14 70 21:24 15.09.2022
201 Rain 10 996 100 5000 4.12 80 20:25 15.09.2022
202 Clouds 10 996 100 4500 4.63 70 18:53 15.09.2022
203 Clouds 11 996 93 10000 4.63 80 17:34 15.09.2022
204 Rain 11 996 93 10000 4.63 80 16:57 15.09.2022
205 Clouds 11 996 93 10000 4.63 80 14:58 15.09.2022
206 Clouds 10 996 100 10000 3.6 90 12:49 15.09.2022
207 Rain 10 996 100 10000 4.12 90 10:34 15.09.2022
208 Rain 10 997 93 10000 4.12 80 08:57 15.09.2022
209 Rain 10 998 100 6000 3.6 70 04:24 15.09.2022
210 Rain 10 999 93 10000 3.6 80 02:18 15.09.2022
211 Clear 11 999 87 10000 4.12 110 22:26 14.09.2022
212 Clouds 12 999 87 10000 3.6 100 20:19 14.09.2022
213 Rain 12 1000 93 10000 3.6 90 19:32 14.09.2022
214 Rain 12 1000 93 10000 4.12 90 17:26 14.09.2022
215 Rain 12 1000 93 10000 4.12 110 15:56 14.09.2022
216 Clouds 12 1000 93 10000 3.6 120 14:34 14.09.2022
217 Drizzle 11 1001 93 10000 4.12 130 11:40 14.09.2022
218 Clouds 10 1001 93 10000 3.6 130 09:48 14.09.2022
219 Clouds 10 1001 93 10000 3.6 130 09:48 14.09.2022
220 Clouds 9 1001 93 10000 2.57 80 07:39 14.09.2022
221 Clouds 9 1001 93 10000 2.06 100 06:47 14.09.2022
222 Clouds 9 1002 93 10000 3.09 140 04:33 14.09.2022
223 Clear 9 1003 93 10000 3.6 170 01:48 14.09.2022
224 Clear 9 1003 93 10000 3.6 170 01:27 14.09.2022
225 Clear 10 1003 93 10000 3.09 180 00:50 14.09.2022
226 Clouds 10 1003 93 10000 3.09 180 23:54 13.09.2022
227 Clouds 11 1003 87 10000 3.6 180 23:36 13.09.2022
228 Clouds 11 1003 87 10000 4.12 190 23:18 13.09.2022
229 Clouds 12 1003 87 10000 4.63 190 21:50 13.09.2022
230 Clouds 12 1003 87 10000 4.12 180 19:45 13.09.2022
231 Rain 12 1003 93 10000 5.14 190 17:44 13.09.2022
232 Rain 12 1004 93 10000 3.6 180 15:55 13.09.2022
233 Rain 12 1004 87 10000 4.63 180 14:36 13.09.2022
234 Clouds 12 1005 87 10000 4.12 170 12:32 13.09.2022
235 Clouds 9 1006 100 9000 3.09 140 08:43 13.09.2022
236 Fog 7 1007 100 350 3.09 160 05:45 13.09.2022
237 Clouds 9 1009 81 10000 2.06 210 00:19 13.09.2022
238 Clouds 10 1010 81 10000 1.54 240 22:50 12.09.2022
239 Clouds 11 1010 76 10000 2.57 240 21:37 12.09.2022
240 Clouds 11 1010 81 10000 1.54 210 20:25 12.09.2022
241 Clouds 12 1010 82 10000 1.03 170 18:44 12.09.2022
242 Clouds 13 1010 71 10000 1.03 0 16:32 12.09.2022
243 Clouds 13 1010 76 10000 1.54 240 14:36 12.09.2022
244 Clouds 11 1010 87 10000 1.54 280 11:29 12.09.2022
245 Clouds 11 1010 87 10000 2.57 210 09:46 12.09.2022
246 Clouds 10 1010 93 10000 3.6 210 04:50 12.09.2022
247 Clouds 10 1010 93 10000 3.09 190 04:20 12.09.2022
248 Clouds 10 1012 93 10000 3.6 200 23:34 11.09.2022
249 Clouds 9 1013 93 10000 4.63 220 22:18 11.09.2022
250 Clear 9 1013 87 10000 3.6 220 20:48 11.09.2022
251 Clear 10 1013 81 10000 4.12 230 19:56 11.09.2022
252 Clear 11 1013 76 10000 4.12 220 19:23 11.09.2022
253 Clouds 13 1013 76 10000 4.63 220 18:20 11.09.2022
254 Clouds 14 1013 76 10000 4.12 210 16:36 11.09.2022
255 Clouds 14 1014 71 10000 4.63 200 14:33 11.09.2022
256 Clouds 14 1014 76 10000 5.14 200 12:40 11.09.2022
257 Clouds 10 1015 100 10000 2.06 190 08:48 11.09.2022
258 Fog 9 1015 100 450 1.54 180 06:56 11.09.2022
259 Fog 9 1016 100 450 2.06 220 00:50 11.09.2022
260 Clouds 8 1016 100 10000 2.06 230 22:55 10.09.2022
261 Clouds 9 1016 93 10000 2.57 220 21:25 10.09.2022
262 Clouds 11 1016 87 10000 3.6 230 19:47 10.09.2022
263 Clouds 11 1016 87 10000 3.6 230 19:28 10.09.2022
264 Clouds 13 1016 82 10000 4.12 230 18:51 10.09.2022
265 Clouds 14 1016 71 10000 3.6 220 15:49 10.09.2022
266 Clouds 14 1017 71 10000 2.06 240 14:42 10.09.2022
267 Clouds 11 1017 93 10000 3.09 220 12:52 10.09.2022
268 Clouds 9 1017 100 7000 2.57 200 10:46 10.09.2022
269 Fog 8 1017 100 400 1.54 180 09:28 10.09.2022
270 Fog 8 1017 100 300 2.06 180 08:28 10.09.2022
271 Mist 8 1017 100 4700 2.57 210 06:41 10.09.2022
272 Fog 9 1018 100 500 2.57 200 00:19 10.09.2022
273 Fog 9 1018 100 600 2.57 210 23:31 09.09.2022
274 Clouds 10 1018 93 10000 2.57 220 21:50 09.09.2022
275 Clouds 10 1018 93 10000 2.06 220 20:41 09.09.2022
276 Clouds 10 1019 93 10000 3.09 180 19:24 09.09.2022
277 Clouds 11 1019 81 10000 5.14 190 18:38 09.09.2022
278 Clouds 11 1019 81 10000 6.17 200 16:23 09.09.2022
279 Clouds 11 1020 81 10000 5.66 210 13:48 09.09.2022
280 Clouds 11 1021 81 10000 4.63 210 11:58 09.09.2022
281 Clouds 10 1021 93 10000 4.12 210 09:22 09.09.2022
282 Clouds 7 1022 93 10000 3.6 220 04:29 09.09.2022
283 Clear 6 1022 93 10000 3.6 220 00:46 09.09.2022
284 Clear 6 1022 93 10000 3.6 230 21:52 08.09.2022
285 Clear 7 1022 87 10000 3.6 220 20:51 08.09.2022
286 Clear 7 1022 87 10000 3.6 220 20:29 08.09.2022
287 Clear 9 1022 76 10000 4.12 220 19:39 08.09.2022
288 Clouds 12 1022 58 10000 4.12 220 17:40 08.09.2022
289 Clouds 12 1023 54 10000 4.63 230 16:19 08.09.2022
290 Clouds 12 1023 54 10000 4.12 230 13:56 08.09.2022
291 Clouds 10 1024 61 10000 4.12 210 12:50 08.09.2022
292 Clouds 10 1024 61 10000 4.12 220 11:36 08.09.2022
293 Clouds 7 1024 70 10000 3.09 220 09:58 08.09.2022
294 Clouds 4 1024 81 10000 2.06 230 07:45 08.09.2022
295 Clouds 3 1024 80 10000 2.06 250 05:30 08.09.2022
296 Clear 3 1025 80 10000 1.03 260 02:36 08.09.2022
297 Clear 3 1025 80 10000 1.54 290 02:18 08.09.2022
298 Clouds 6 1025 70 10000 1.54 300 00:21 08.09.2022
299 Clouds 7 1025 65 10000 1.54 290 21:58 07.09.2022
300 Clouds 7 1025 65 10000 1.03 0 21:38 07.09.2022
301 Clouds 6 1025 75 10000 1.03 0 20:30 07.09.2022
302 Clouds 7 1025 65 10000 1.54 30 19:23 07.09.2022
303 Clouds 8 1025 61 10000 2.57 30 16:30 07.09.2022
304 Clouds 6 1025 75 10000 4.12 50 11:32 07.09.2022
305 Clouds 6 1025 70 10000 5.14 60 10:36 07.09.2022
306 Clouds 5 1024 81 10000 5.14 30 08:33 07.09.2022
307 Clouds 3 1023 93 10000 3.09 10 06:31 07.09.2022
308 Clear 5 1021 81 10000 3.09 10 00:49 07.09.2022
309 Clear 6 1021 81 10000 3.09 10 21:58 06.09.2022
310 Clear 6 1020 87 10000 3.09 10 21:36 06.09.2022
311 Clouds 8 1020 76 10000 4.63 20 19:39 06.09.2022
312 Clouds 10 1020 71 10000 5.14 30 18:40 06.09.2022
313 Clouds 10 1019 61 10000 6.17 20 17:50 06.09.2022
314 Clouds 11 1019 66 10000 4.12 20 16:47 06.09.2022
315 Clouds 11 1019 66 10000 4.12 20 16:24 06.09.2022
316 Clouds 10 1019 76 10000 4.63 360 14:27 06.09.2022
317 Clouds 9 1019 81 10000 4.12 340 13:44 06.09.2022
318 Clouds 9 1019 87 10000 4.12 350 13:18 06.09.2022
319 Clouds 10 1018 71 10000 4.63 340 10:55 06.09.2022
320 Clear 10 1018 71 10000 5.14 330 09:22 06.09.2022
321 Clear 8 1018 81 10000 3.6 330 07:53 06.09.2022
322 Clear 8 1018 76 10000 3.09 320 06:19 06.09.2022
323 Clear 9 1020 71 10000 2.57 320 01:20 06.09.2022
324 Rain 9 1021 87 10000 2.57 290 22:53 05.09.2022
325 Clear 10 1021 81 10000 3.09 230 21:38 05.09.2022
326 Clear 10 1022 81 10000 2.57 240 20:20 05.09.2022
327 Clear 12 1022 66 10000 2.57 240 18:53 05.09.2022
328 Clear 12 1022 66 10000 3.09 250 18:24 05.09.2022
329 Clouds 14 1023 54 10000 3.09 260 17:50 05.09.2022
330 Clear 14 1024 54 10000 3.6 240 15:53 05.09.2022
331 Clear 15 1025 51 10000 4.63 250 14:34 05.09.2022
332 Clouds 13 1026 58 10000 4.12 260 12:51 05.09.2022
333 Clouds 12 1028 66 10000 4.12 260 10:35 05.09.2022
334 Clouds 8 1028 93 10000 1.54 280 08:36 05.09.2022
335 Clear 7 1029 93 10000 1.03 0 03:47 05.09.2022
336 Clear 9 1029 81 10000 4.12 340 00:18 05.09.2022
337 Clear 9 1029 81 10000 3.6 330 22:28 04.09.2022
338 Clear 9 1029 76 10000 2.57 330 21:49 04.09.2022
339 Clouds 10 1029 71 10000 2.06 320 19:50 04.09.2022
340 Clouds 11 1029 62 10000 2.57 330 18:33 04.09.2022
341 Clouds 11 1028 62 10000 1.54 360 17:26 04.09.2022
342 Clouds 11 1029 57 10000 3.09 10 15:23 04.09.2022
343 Clouds 10 1029 61 10000 3.09 360 14:24 04.09.2022
344 Clouds 8 1028 65 10000 3.09 350 12:26 04.09.2022
345 Clouds 7 1028 70 10000 4.12 20 10:59 04.09.2022
346 Clouds 6 1028 75 10000 3.6 10 09:24 04.09.2022
347 Clouds 6 1027 70 10000 3.09 10 06:27 04.09.2022
348 Clouds 6 1026 75 10000 5.66 30 02:31 04.09.2022
349 Clouds 8 1025 70 10000 4.63 360 22:26 03.09.2022
350 Clouds 8 1024 70 10000 5.14 20 21:25 03.09.2022
351 Clouds 8 1024 70 10000 3.6 10 20:51 03.09.2022
352 Clouds 10 1023 71 10000 4.63 360 17:37 03.09.2022
353 Rain 9 1023 81 10000 4.12 350 16:49 03.09.2022
354 Clouds 9 1023 71 10000 5.14 360 14:47 03.09.2022
355 Clouds 9 1023 71 10000 4.12 360 14:28 03.09.2022
356 Clouds 9 1023 71 10000 5.66 360 13:44 03.09.2022
357 Clouds 9 1023 71 10000 5.66 360 11:31 03.09.2022
358 Clouds 7 1022 75 10000 5.14 360 08:57 03.09.2022
359 Clouds 7 1022 75 10000 4.63 350 07:23 03.09.2022
360 Clouds 7 1022 81 10000 4.63 350 04:45 03.09.2022
361 Clouds 7 1022 87 10000 5.14 360 00:48 03.09.2022
362 Clouds 7 1022 87 10000 4.63 350 23:28 02.09.2022
363 Clouds 7 1022 93 10000 4.12 350 21:36 02.09.2022
364 Clouds 7 1022 93 10000 4.12 360 20:40 02.09.2022
365 Clouds 7 1022 93 10000 4.63 360 19:47 02.09.2022
366 Clouds 8 1022 93 5000 4.63 10 18:43 02.09.2022
367 Clouds 8 1022 93 5000 4.63 10 18:24 02.09.2022
368 Rain 8 1023 87 10000 4.63 350 16:51 02.09.2022
369 Rain 8 1023 81 10000 5.14 360 15:48 02.09.2022
370 Clouds 9 1024 66 10000 5.14 360 12:56 02.09.2022
371 Clouds 8 1024 70 10000 5.66 350 10:25 02.09.2022
372 Clouds 8 1024 70 10000 5.66 350 10:25 02.09.2022
373 Clouds 8 1025 70 10000 5.66 360 09:41 02.09.2022
374 Clouds 7 1025 75 10000 4.12 360 08:35 02.09.2022
375 Clouds 6 1025 81 10000 4.12 360 06:42 02.09.2022
376 Clear 5 1025 81 10000 5.14 10 03:53 02.09.2022
377 Clear 6 1025 75 10000 3.6 360 22:54 01.09.2022
378 Clear 6 1025 75 10000 2.57 360 21:45 01.09.2022
379 Clear 6 1025 75 10000 2.57 360 21:25 01.09.2022
380 Clear 7 1025 70 10000 3.09 360 20:46 01.09.2022
381 Clouds 9 1025 57 10000 4.12 10 19:20 01.09.2022
382 Clear 10 1025 53 10000 6.69 20 17:48 01.09.2022
383 Clouds 11 1024 50 10000 7.2 20 16:29 01.09.2022
384 Clouds 10 1025 49 10000 6.17 30 14:33 01.09.2022
385 Clouds 11 1025 53 10000 6.17 20 12:59 01.09.2022
386 Clouds 9 1025 61 10000 6.17 40 11:54 01.09.2022
387 Clouds 8 1025 65 10000 6.17 40 11:33 01.09.2022
388 Clouds 9 1025 61 10000 4.63 30 10:40 01.09.2022
389 Clouds 7 1026 81 10000 3.6 20 08:30 01.09.2022
390 Clouds 5 1025 93 10000 3.09 360 06:23 01.09.2022
391 Clouds 7 1025 81 10000 4.12 10 01:33 01.09.2022
392 Clouds 8 1024 81 10000 3.6 10 00:18 01.09.2022
393 Clouds 9 1024 76 10000 3.6 360 21:44 31.08.2022
394 Clouds 10 1023 71 10000 2.57 350 19:50 31.08.2022
395 Clouds 11 1023 66 10000 2.06 20 18:18 31.08.2022
396 Clouds 12 1023 58 10000 4.12 60 16:23 31.08.2022
397 Rain 12 1023 54 10000 5.14 50 14:35 31.08.2022
398 Clouds 12 1023 54 10000 3.6 40 12:23 31.08.2022
399 Clouds 11 1023 57 10000 3.09 30 11:26 31.08.2022
400 Clear 9 1023 61 10000 2.57 50 08:54 31.08.2022
401 Clear 6 1023 87 10000 2.06 10 05:26 31.08.2022
402 Clear 7 1025 70 10000 1.03 290 23:21 30.08.2022
403 Clear 7 1025 75 10000 1.03 70 21:43 30.08.2022
404 Clear 7 1025 75 10000 1.03 0 20:57 30.08.2022
405 Clouds 10 1025 53 10000 2.57 10 18:32 30.08.2022
406 Clouds 10 1026 57 10000 4.12 350 15:23 30.08.2022
407 Clouds 10 1027 57 10000 4.12 10 13:24 30.08.2022
408 Clouds 10 1027 57 10000 4.12 20 13:24 30.08.2022
409 Clouds 9 1027 57 10000 4.12 30 11:22 30.08.2022
410 Clouds 9 1027 61 10000 4.12 20 10:49 30.08.2022
411 Clouds 7 1027 81 10000 3.6 20 07:42 30.08.2022
412 Clouds 7 1025 81 10000 2.57 360 02:33 30.08.2022
413 Clear 8 1023 81 10000 4.63 40 23:20 29.08.2022
414 Clear 9 1023 81 10000 4.12 20 22:24 29.08.2022
415 Clear 10 1022 81 10000 3.6 10 21:25 29.08.2022
416 Clear 12 1022 71 10000 2.57 10 19:52 29.08.2022
417 Clouds 14 1021 67 10000 5.14 350 17:52 29.08.2022
418 Clouds 14 1021 67 10000 5.14 350 17:24 29.08.2022
419 Clouds 14 1020 62 10000 2.57 350 16:37 29.08.2022
420 Clear 16 1020 55 10000 4.12 320 14:45 29.08.2022
421 Clouds 15 1020 58 10000 3.6 340 12:53 29.08.2022
422 Clouds 14 1019 58 10000 3.6 340 11:19 29.08.2022
423 Clouds 12 1019 71 10000 3.09 350 09:45 29.08.2022
424 Clear 10 1018 81 10000 3.09 330 08:28 29.08.2022
425 Clear 9 1016 81 10000 1.54 310 02:49 29.08.2022
426 Clear 11 1015 71 10000 2.06 300 23:55 28.08.2022
427 Clear 12 1014 71 10000 1.03 0 22:36 28.08.2022
428 Clear 13 1014 66 10000 1.54 280 21:40 28.08.2022
429 Clear 14 1013 62 10000 2.06 260 20:43 28.08.2022
430 Clear 16 1013 55 10000 2.06 240 19:20 28.08.2022
431 Clear 17 1013 51 10000 3.6 260 18:20 28.08.2022
432 Clear 17 1013 51 10000 3.6 270 16:57 28.08.2022
433 Clouds 17 1013 48 10000 5.66 250 15:55 28.08.2022
434 Clear 17 1013 48 10000 5.14 250 14:21 28.08.2022
435 Clear 16 1012 58 10000 5.14 220 12:31 28.08.2022
436 Clear 12 1012 82 10000 3.09 230 10:40 28.08.2022
437 Clear 11 1012 87 10000 3.09 230 09:40 28.08.2022
438 Clear 10 1012 93 10000 3.6 220 08:32 28.08.2022
439 Clear 9 1012 100 10000 3.09 220 07:34 28.08.2022
440 Clouds 14 1011 100 10000 3.6 230 01:28 28.08.2022
441 Clouds 15 1011 100 10000 3.09 230 00:22 28.08.2022
442 Clouds 15 1011 100 10000 4.12 220 22:31 27.08.2022
443 Clouds 15 1012 94 10000 5.66 220 20:53 27.08.2022
444 Clouds 15 1012 94 6000 5.66 210 19:38 27.08.2022
445 Clouds 16 1013 82 10000 4.63 210 16:37 27.08.2022
446 Rain 16 1012 88 10000 5.66 210 15:31 27.08.2022
447 Clouds 18 1013 72 10000 6.17 200 14:18 27.08.2022
448 Clouds 17 1014 82 10000 6.17 190 12:22 27.08.2022
449 Clouds 17 1014 82 10000 5.14 210 10:30 27.08.2022
450 Clear 17 1014 82 10000 3.09 180 09:40 27.08.2022
451 Clear 13 1015 94 10000 2.06 150 06:55 27.08.2022
452 Clear 13 1017 87 10000 3.6 170 02:27 27.08.2022
453 Clear 14 1018 82 10000 3.09 190 23:51 26.08.2022
454 Clear 15 1018 82 10000 4.63 190 21:59 26.08.2022
455 Clear 16 1019 72 10000 4.12 200 20:23 26.08.2022
456 Clear 19 1019 59 10000 6.69 190 18:32 26.08.2022
457 Clear 21 1020 56 10000 5.66 210 16:40 26.08.2022
458 Clear 21 1020 56 10000 7.2 220 15:26 26.08.2022
459 Clear 22 1021 52 10000 7.2 210 13:26 26.08.2022
460 Clear 21 1021 52 10000 7.2 220 12:34 26.08.2022
461 Clear 19 1022 63 10000 7.2 210 11:22 26.08.2022
462 Clear 18 1022 67 10000 6.17 200 09:53 26.08.2022
463 Clouds 11 1023 100 6000 3.09 160 04:56 26.08.2022
464 Clear 13 1023 94 10000 3.09 170 00:55 26.08.2022
465 Clear 14 1023 82 10000 4.12 210 22:45 25.08.2022
466 Clear 15 1023 77 10000 4.12 210 20:57 25.08.2022
467 Clear 18 1023 67 10000 4.63 210 19:47 25.08.2022
468 Clear 19 1022 68 10000 5.14 220 18:36 25.08.2022
469 Clear 20 1022 63 10000 6.17 220 17:32 25.08.2022
470 Clear 21 1023 60 10000 6.17 210 16:45 25.08.2022
471 Clear 21 1023 60 10000 5.66 210 15:37 25.08.2022
472 Clear 21 1023 60 10000 4.63 210 14:30 25.08.2022
473 Clear 18 1024 67 10000 5.14 210 11:34 25.08.2022
474 Clear 17 1024 67 10000 4.12 220 10:45 25.08.2022
475 Clear 12 1024 87 10000 3.09 220 07:55 25.08.2022
476 Fog 9 1024 100 450 1.54 210 03:54 25.08.2022
477 Clear 12 1025 93 10000 0.51 240 23:38 24.08.2022
478 Clear 12 1025 87 10000 1.03 0 23:18 24.08.2022
479 Clear 11 1025 93 10000 1.03 190 21:56 24.08.2022
480 Clear 13 1025 82 10000 1.03 190 21:30 24.08.2022
481 Clear 15 1025 72 10000 2.06 160 19:56 24.08.2022
482 Clear 16 1025 67 10000 1.54 130 17:28 24.08.2022
483 Clear 16 1026 55 10000 1.54 210 15:54 24.08.2022
484 Clear 16 1026 55 10000 1.54 220 15:35 24.08.2022
485 Clouds 16 1027 58 10000 0.51 350 12:52 24.08.2022
486 Clouds 16 1027 58 10000 0.51 350 12:52 24.08.2022
487 Clear 15 1027 58 10000 1.54 90 11:21 24.08.2022
488 Clear 12 1026 71 10000 3.09 60 08:58 24.08.2022
489 Fog 10 1025 87 10000 1.54 20 06:40 24.08.2022
490 Clear 10 1024 100 10000 2.06 260 00:55 24.08.2022
491 Clear 12 1023 87 10000 1.03 0 22:41 23.08.2022
492 Clear 12 1022 87 10000 3.09 240 21:55 23.08.2022
493 Clouds 14 1022 76 10000 1.54 240 20:49 23.08.2022
494 Clear 15 1021 72 10000 4.12 240 19:24 23.08.2022
495 Clear 16 1021 63 10000 6.17 230 18:18 23.08.2022
496 Clear 16 1021 63 10000 6.69 230 17:28 23.08.2022
497 Clear 17 1021 55 10000 7.2 240 16:26 23.08.2022
498 Clear 17 1020 51 10000 8.23 220 14:30 23.08.2022
499 Clouds 17 1020 51 10000 8.75 230 12:46 23.08.2022
500 Clouds 16 1020 55 10000 8.23 220 11:19 23.08.2022
501 Clouds 15 1020 58 10000 8.23 220 10:33 23.08.2022
502 Clear 14 1020 62 10000 6.69 220 09:38 23.08.2022
503 Clear 14 1019 62 10000 5.66 240 08:47 23.08.2022
504 Clear 13 1019 66 10000 5.66 230 08:19 23.08.2022
505 Clear 12 1019 71 10000 4.63 230 07:33 23.08.2022
506 Clear 11 1018 76 10000 5.14 230 06:23 23.08.2022
507 Clear 11 1016 76 10000 5.14 230 01:49 23.08.2022
508 Clear 12 1015 76 10000 4.12 240 00:27 23.08.2022
509 Clear 13 1015 76 10000 4.63 240 23:32 22.08.2022
510 Clear 14 1013 71 10000 5.66 220 22:25 22.08.2022
511 Clear 15 1012 67 10000 3.6 240 20:44 22.08.2022
512 Clear 17 1012 59 10000 6.17 240 19:44 22.08.2022
513 Clouds 18 1011 72 10000 7.2 220 18:37 22.08.2022
514 Clouds 19 1009 63 10000 9.26 210 15:55 22.08.2022
515 Clouds 20 1008 68 10000 8.23 220 15:18 22.08.2022
516 Clouds 18 1008 82 10000 7.2 200 12:53 22.08.2022
517 Rain 16 1008 94 10000 4.63 200 09:27 22.08.2022
518 Rain 16 1008 100 10000 5.14 170 06:58 22.08.2022
519 Clouds 17 1009 88 10000 5.14 150 02:28 22.08.2022
520 Clear 18 1009 82 10000 5.14 170 00:36 22.08.2022
521 Clouds 18 1010 82 10000 6.17 170 23:32 21.08.2022
522 Clouds 20 1010 72 10000 5.66 150 21:55 21.08.2022
523 Clouds 21 1010 68 10000 6.69 160 21:19 21.08.2022
524 Clouds 22 1010 60 10000 6.69 160 19:58 21.08.2022
525 Clear 23 1010 60 10000 6.17 160 18:36 21.08.2022
526 Clear 24 1011 56 10000 5.66 160 16:48 21.08.2022
527 Clouds 24 1011 56 10000 7.2 160 15:52 21.08.2022
528 Clouds 24 1012 56 10000 7.72 170 14:41 21.08.2022
529 Clouds 24 1012 56 10000 8.23 170 13:48 21.08.2022
530 Clouds 25 1012 53 10000 8.75 170 12:55 21.08.2022
531 Clear 23 1013 60 10000 7.72 170 10:36 21.08.2022
532 Clear 22 1013 64 10000 7.72 160 08:57 21.08.2022
533 Clear 21 1013 68 10000 6.69 160 08:39 21.08.2022
534 Clear 20 1014 72 10000 7.2 160 07:53 21.08.2022
535 Clear 19 1014 77 10000 5.66 160 05:39 21.08.2022
536 Clear 21 1015 68 10000 6.69 170 00:54 21.08.2022
537 Clear 21 1015 73 10000 5.14 160 23:20 20.08.2022
538 Clouds 22 1016 68 10000 4.12 150 21:46 20.08.2022
539 Clear 23 1016 64 10000 3.6 160 20:50 20.08.2022
540 Clear 24 1016 60 10000 3.6 160 19:42 20.08.2022
541 Clear 25 1016 57 10000 5.14 180 18:45 20.08.2022
542 Clear 26 1016 53 10000 5.14 180 18:25 20.08.2022
543 Clouds 26 1016 57 10000 6.69 190 17:20 20.08.2022
544 Clouds 27 1016 65 10000 6.17 170 15:52 20.08.2022
545 Clouds 26 1017 69 10000 4.63 170 13:39 20.08.2022
546 Clouds 24 1018 73 10000 4.12 160 11:53 20.08.2022
547 Clouds 22 1018 83 10000 4.12 170 10:39 20.08.2022
548 Clouds 20 1018 88 10000 2.57 160 09:18 20.08.2022
549 Clouds 19 1018 94 10000 2.06 170 06:40 20.08.2022
550 Clouds 18 1018 100 10000 4.12 180 04:40 20.08.2022
551 Clouds 19 1018 94 10000 5.14 180 00:53 20.08.2022
552 Clouds 20 1017 94 10000 3.6 140 23:21 19.08.2022
553 Clouds 20 1017 94 10000 3.6 170 22:35 19.08.2022
554 Clouds 21 1017 88 10000 3.09 200 20:30 19.08.2022
555 Clear 23 1017 78 10000 3.6 180 18:51 19.08.2022
556 Clouds 22 1018 83 10000 3.6 180 15:54 19.08.2022
557 Clouds 19 1018 94 10000 3.09 150 13:40 19.08.2022
558 Clouds 18 1018 100 10000 3.6 130 11:39 19.08.2022
559 Fog 17 1018 100 600 3.09 100 10:29 19.08.2022
560 Mist 14 1019 100 4000 4.12 70 07:21 19.08.2022
561 Clouds 13 1020 87 10000 5.14 80 01:24 19.08.2022
562 Clouds 12 1020 93 10000 5.14 70 00:31 19.08.2022
563 Clear 12 1021 87 10000 4.63 70 23:48 18.08.2022
564 Clear 12 1021 87 10000 4.63 60 22:52 18.08.2022
565 Clear 13 1021 82 10000 4.12 60 22:18 18.08.2022
566 Clouds 12 1021 87 10000 4.12 60 21:40 18.08.2022
567 Clear 13 1021 82 10000 3.6 70 20:27 18.08.2022
568 Clouds 14 1021 76 10000 4.12 80 19:30 18.08.2022
569 Clouds 15 1021 72 10000 4.63 100 17:55 18.08.2022
570 Clouds 16 1021 67 10000 4.12 80 17:18 18.08.2022
571 Clouds 16 1021 67 10000 4.12 60 14:57 18.08.2022
572 Clouds 14 1021 71 10000 4.12 40 14:19 18.08.2022
573 Clouds 15 1021 72 10000 3.6 50 13:34 18.08.2022
574 Clouds 13 1020 82 10000 3.09 10 11:51 18.08.2022
575 Clouds 12 1018 87 10000 3.6 360 09:43 18.08.2022
576 Clouds 12 1017 87 10000 3.6 350 08:42 18.08.2022
577 Clouds 12 1015 93 10000 4.63 340 07:19 18.08.2022
578 Clouds 13 1011 100 10000 3.09 300 04:37 18.08.2022
579 Rain 18 1008 100 10000 5.66 170 23:35 17.08.2022
580 Thunderstorm 19 1008 100 10000 6.17 200 21:46 17.08.2022
581 Thunderstorm 19 1009 88 10000 6.17 240 20:20 17.08.2022
582 Thunderstorm 24 1008 73 10000 5.66 160 19:29 17.08.2022
583 Clouds 25 1009 64 10000 7.2 170 17:36 17.08.2022
584 Clear 25 1010 64 10000 4.63 170 16:35 17.08.2022
585 Clear 25 1010 64 10000 6.69 190 15:28 17.08.2022
586 Clouds 27 1011 57 10000 7.2 190 13:30 17.08.2022
587 Clouds 26 1011 61 10000 7.2 180 11:38 17.08.2022
588 Clear 23 1012 73 10000 5.14 170 09:31 17.08.2022
589 Clear 21 1012 83 10000 5.14 160 08:24 17.08.2022
590 Clouds 18 1014 94 10000 1.54 200 03:36 17.08.2022
591 Rain 20 1015 77 10000 4.63 180 00:19 17.08.2022
592 Clear 20 1015 82 10000 4.63 170 22:35 16.08.2022
593 Rain 22 1015 78 10000 5.14 170 20:52 16.08.2022
594 Clear 24 1015 64 10000 4.12 180 19:53 16.08.2022
595 Clear 26 1015 53 10000 3.6 190 18:40 16.08.2022
596 Clear 26 1015 50 10000 5.66 210 17:43 16.08.2022
597 Clear 27 1016 53 10000 5.66 200 15:48 16.08.2022
598 Clouds 27 1016 53 10000 6.17 200 14:55 16.08.2022
599 Clouds 26 1016 57 10000 6.69 200 14:37 16.08.2022
600 Clouds 26 1016 53 10000 6.69 200 12:44 16.08.2022
601 Clear 24 1016 64 10000 4.12 150 10:37 16.08.2022
602 Clear 22 1016 68 10000 2.57 150 09:44 16.08.2022
603 Clear 19 1017 77 10000 3.09 150 08:47 16.08.2022
604 Clear 18 1017 77 10000 3.6 140 07:33 16.08.2022
605 Clear 17 1017 82 10000 3.6 150 02:19 16.08.2022
606 Clear 18 1017 77 10000 3.6 150 22:30 15.08.2022
607 Clear 18 1017 77 10000 3.6 150 22:30 15.08.2022
608 Clear 19 1017 68 10000 2.57 160 21:54 15.08.2022
609 Clear 19 1018 72 10000 3.09 190 20:52 15.08.2022
610 Clear 20 1018 72 10000 3.09 210 20:19 15.08.2022
611 Clear 21 1017 68 10000 3.6 190 18:41 15.08.2022
612 Clear 23 1017 60 10000 4.12 200 17:23 15.08.2022
613 Clouds 23 1017 64 10000 5.14 170 16:21 15.08.2022
614 Clear 22 1018 56 10000 3.6 150 13:56 15.08.2022
615 Clouds 22 1019 49 10000 3.09 120 12:37 15.08.2022
616 Clear 18 1019 59 10000 4.63 110 10:18 15.08.2022
617 Clear 16 1019 67 10000 4.12 120 08:27 15.08.2022
618 Clear 12 1020 82 10000 2.57 80 06:20 15.08.2022
619 Clear 12 1020 82 10000 1.54 200 02:19 15.08.2022
620 Clear 14 1019 76 10000 1.03 250 22:39 14.08.2022
621 Clear 15 1019 62 10000 2.57 210 21:39 14.08.2022
622 Clear 18 1018 48 10000 1.03 0 20:21 14.08.2022
623 Clear 18 1018 48 10000 2.06 310 19:30 14.08.2022
624 Clear 19 1018 45 10000 2.57 290 18:19 14.08.2022
625 Clear 19 1018 45 10000 3.09 260 16:54 14.08.2022
626 Clear 20 1018 42 10000 3.09 290 15:50 14.08.2022
627 Clear 18 1018 48 10000 3.09 290 14:34 14.08.2022
628 Clouds 19 1018 45 10000 3.09 270 13:50 14.08.2022
629 Clouds 19 1018 45 10000 3.09 270 13:22 14.08.2022
630 Clouds 18 1018 51 10000 3.6 200 12:34 14.08.2022
631 Clouds 17 1018 55 10000 3.09 230 10:55 14.08.2022
632 Clear 14 1018 82 10000 2.57 220 08:52 14.08.2022
633 Clouds 13 1017 94 10000 3.6 240 06:22 14.08.2022
634 Clouds 13 1017 94 10000 4.12 230 03:36 14.08.2022
635 Clouds 13 1017 94 10000 6.17 230 00:33 14.08.2022
636 Clouds 13 1017 94 10000 4.63 210 22:56 13.08.2022
637 Clouds 13 1018 87 10000 5.66 210 21:43 13.08.2022
638 Clouds 14 1018 76 10000 5.14 200 20:46 13.08.2022
639 Clouds 15 1018 67 10000 6.17 220 19:45 13.08.2022
640 Clear 17 1018 51 10000 6.17 210 18:19 13.08.2022
641 Clear 18 1019 48 10000 7.2 210 15:40 13.08.2022
642 Clear 17 1019 48 10000 4.12 230 14:32 13.08.2022
643 Clouds 17 1020 48 10000 6.17 210 13:46 13.08.2022
644 Clouds 16 1020 51 10000 5.66 210 11:53 13.08.2022
645 Clear 15 1020 54 10000 3.6 200 10:31 13.08.2022
646 Clear 14 1020 62 10000 2.57 230 09:19 13.08.2022
647 Clear 9 1020 81 10000 1.54 250 05:57 13.08.2022
648 Clear 11 1019 66 10000 2.57 290 00:30 13.08.2022
649 Clear 12 1018 58 10000 2.57 290 22:23 12.08.2022
650 Clear 14 1017 54 10000 2.57 280 20:58 12.08.2022
651 Clear 16 1017 47 10000 2.57 270 19:43 12.08.2022
652 Clear 16 1017 44 10000 4.63 290 18:52 12.08.2022
653 Clear 17 1016 41 10000 5.14 270 17:36 12.08.2022
654 Clear 18 1016 42 10000 6.17 280 16:24 12.08.2022
655 Clear 18 1014 42 10000 6.69 280 14:44 12.08.2022
656 Clear 17 1014 48 10000 6.17 270 12:56 12.08.2022
657 Clouds 16 1013 55 10000 5.66 260 11:19 12.08.2022
658 Clear 14 1012 67 10000 5.14 250 08:31 12.08.2022
659 Clear 11 1012 81 10000 4.12 240 06:56 12.08.2022
660 Clear 10 1010 81 10000 3.6 240 03:20 12.08.2022
661 Clear 11 1009 76 10000 2.57 240 00:27 12.08.2022
662 Clear 12 1009 71 10000 2.57 240 23:35 11.08.2022
663 Clear 14 1008 62 10000 4.63 250 22:28 11.08.2022
664 Clear 14 1009 58 10000 5.66 250 21:43 11.08.2022
665 Clear 15 1008 58 10000 5.66 250 20:59 11.08.2022
666 Clear 16 1008 51 10000 6.17 250 20:20 11.08.2022
667 Clear 17 1008 48 10000 6.69 250 19:32 11.08.2022
668 Clear 19 1007 39 10000 7.2 260 17:48 11.08.2022
669 Clear 19 1007 39 10000 7.72 260 16:37 11.08.2022
670 Clear 20 1006 39 10000 6.69 260 15:25 11.08.2022
671 Clear 21 1005 49 10000 7.2 250 13:37 11.08.2022
672 Clouds 19 1005 32 10000 7.2 240 10:58 11.08.2022
673 Rain 16 1005 94 10000 6.17 220 07:47 11.08.2022
674 Rain 16 1006 88 10000 7.72 200 03:54 11.08.2022
675 Rain 17 1007 88 10000 5.66 210 01:33 11.08.2022
676 Rain 17 1009 82 10000 6.17 220 22:36 10.08.2022
677 Clear 17 1010 82 10000 7.2 220 21:34 10.08.2022
678 Clear 17 1010 82 10000 6.69 210 20:55 10.08.2022
679 Clear 17 1010 88 10000 8.23 220 19:31 10.08.2022
680 Clear 18 1011 82 10000 7.72 210 18:23 10.08.2022
681 Rain 18 1012 77 10000 7.72 220 16:41 10.08.2022
682 Clouds 20 1013 72 10000 8.75 200 13:36 10.08.2022
683 Clouds 18 1014 82 10000 7.72 200 12:44 10.08.2022
684 Clouds 17 1015 82 10000 7.72 200 09:55 10.08.2022
685 Clouds 16 1016 88 10000 6.69 200 08:35 10.08.2022
686 Clouds 15 1017 94 10000 5.14 190 07:20 10.08.2022
687 Clouds 14 1018 100 10000 4.12 200 03:32 10.08.2022
688 Rain 14 1020 94 10000 4.63 220 23:51 09.08.2022
689 Rain 14 1020 94 10000 4.63 220 23:24 09.08.2022
690 Rain 14 1020 88 10000 5.14 200 21:36 09.08.2022
691 Rain 15 1021 77 10000 4.12 210 20:36 09.08.2022
692 Clear 17 1021 59 10000 6.69 220 18:45 09.08.2022
693 Clear 18 1021 59 10000 6.69 220 17:31 09.08.2022
694 Clear 19 1021 52 10000 7.72 220 16:41 09.08.2022
695 Clear 19 1021 55 10000 7.72 220 15:58 09.08.2022
696 Clear 19 1021 52 10000 7.72 210 13:51 09.08.2022
697 Clear 18 1023 31 10000 6.17 220 09:56 09.08.2022
698 Clear 16 1023 63 10000 5.66 210 08:50 09.08.2022
699 Clear 15 1023 67 10000 3.6 190 07:53 09.08.2022
700 Clear 11 1023 81 10000 2.57 210 04:25 09.08.2022
701 Clear 12 1023 82 10000 1.03 240 23:35 08.08.2022
702 Clear 12 1023 82 10000 2.06 250 22:55 08.08.2022
703 Clear 14 1022 67 10000 2.57 190 22:18 08.08.2022
704 Clear 13 1022 71 10000 0.51 0 21:22 08.08.2022
705 Clear 16 1022 58 10000 1.54 280 19:51 08.08.2022
706 Clear 17 1021 51 10000 2.06 290 18:50 08.08.2022
707 Clear 17 1020 48 10000 3.6 320 16:44 08.08.2022
708 Clear 17 1020 44 10000 3.09 340 15:40 08.08.2022
709 Clouds 16 1019 63 10000 3.09 330 13:55 08.08.2022
710 Clouds 15 1019 67 10000 5.66 340 12:27 08.08.2022
711 Clouds 15 1017 67 10000 3.09 290 09:48 08.08.2022
712 Fog 10 1014 100 10000 1.54 270 06:51 08.08.2022
713 Clear 9 1012 100 10000 1.54 260 02:56 08.08.2022
714 Clear 11 1011 93 10000 2.57 200 22:42 07.08.2022
715 Clear 12 1010 87 10000 3.09 190 21:40 07.08.2022
716 Clouds 12 1010 87 10000 3.09 180 20:26 07.08.2022
717 Rain 12 1010 87 10000 2.06 190 19:56 07.08.2022
718 Rain 12 1010 87 10000 4.63 210 19:38 07.08.2022
719 Clouds 13 1009 87 10000 1.54 250 18:23 07.08.2022
720 Rain 14 1009 44 10000 4.12 200 16:54 07.08.2022
721 Clouds 14 1008 82 10000 3.6 200 16:35 07.08.2022
722 Rain 14 1008 76 10000 1.54 260 15:20 07.08.2022
723 Rain 17 1006 55 10000 5.14 260 13:26 07.08.2022
724 Clouds 16 1006 58 10000 5.66 260 11:54 07.08.2022
725 Clouds 14 1005 62 10000 6.17 260 10:34 07.08.2022
726 Clouds 11 1000 87 10000 6.17 270 07:36 07.08.2022
727 Rain 11 995 100 4300 2.57 140 03:20 07.08.2022
728 Clouds 12 996 93 10000 5.66 190 00:31 07.08.2022
729 Clear 14 997 88 10000 5.14 170 22:24 06.08.2022
730 Clouds 15 998 88 10000 5.66 200 20:42 06.08.2022
731 Clouds 16 998 88 10000 6.17 210 19:41 06.08.2022
732 Rain 16 998 100 10000 2.57 10 18:28 06.08.2022
733 Rain 16 999 100 3900 2.57 10 17:32 06.08.2022
734 Rain 16 1002 94 10000 4.63 50 14:43 06.08.2022
735 Rain 16 1003 94 10000 3.6 50 13:44 06.08.2022
736 Clouds 16 1005 94 10000 2.57 50 11:33 06.08.2022
737 Rain 16 1005 94 10000 3.6 90 10:32 06.08.2022
738 Rain 15 1006 100 10000 1.03 0 08:32 06.08.2022
739 Fog 15 1007 100 650 2.06 170 03:52 06.08.2022
740 Rain 16 1008 100 10000 1.54 210 23:36 05.08.2022
741 Clear 16 1009 100 10000 2.06 180 22:23 05.08.2022
742 Clouds 18 1009 88 10000 5.14 220 19:33 05.08.2022
743 Clouds 18 1009 88 10000 4.12 210 18:44 05.08.2022
744 Clouds 18 1009 88 10000 5.66 210 17:54 05.08.2022
745 Clouds 19 1010 82 10000 7.2 200 16:49 05.08.2022
746 Clouds 19 1010 82 10000 7.2 200 16:49 05.08.2022
747 Rain 19 1010 82 10000 7.72 200 15:22 05.08.2022
748 Clouds 19 1009 82 10000 6.69 190 14:19 05.08.2022
749 Clouds 19 1009 82 10000 7.2 200 13:23 05.08.2022
750 Clouds 18 1009 88 10000 8.23 200 12:28 05.08.2022
751 Clouds 18 1009 82 10000 3.6 130 10:49 05.08.2022
752 Rain 16 1009 94 10000 4.63 170 08:25 05.08.2022
753 Clouds 16 1009 94 10000 5.14 190 06:41 05.08.2022
754 Clouds 16 1010 94 10000 6.17 200 00:34 05.08.2022
755 Clouds 16 1010 94 10000 5.66 190 22:29 04.08.2022
756 Clouds 16 1009 94 10000 5.66 190 21:26 04.08.2022
757 Clouds 16 1009 100 10000 3.6 220 20:43 04.08.2022
758 Clouds 17 1009 94 10000 3.6 220 19:40 04.08.2022
759 Clouds 17 1009 94 10000 4.12 220 18:36 04.08.2022
760 Clouds 17 1008 94 10000 5.66 220 17:38 04.08.2022
761 Clouds 18 1007 94 10000 5.66 220 14:18 04.08.2022
762 Drizzle 17 1007 100 10000 7.2 220 12:44 04.08.2022
763 Drizzle 17 1006 100 5000 4.63 200 10:51 04.08.2022
764 Clouds 17 1006 94 10000 5.66 180 07:53 04.08.2022
765 Clouds 16 1006 100 8000 5.66 190 04:43 04.08.2022
766 Clouds 16 1007 100 10000 4.63 180 02:29 04.08.2022
767 Clouds 15 1008 100 6000 4.63 160 23:45 03.08.2022
768 Clouds 15 1008 94 10000 6.17 170 22:30 03.08.2022
769 Clouds 15 1009 94 10000 5.14 160 20:50 03.08.2022
770 Clouds 14 1009 100 10000 5.14 160 19:44 03.08.2022
771 Clouds 14 1009 100 6000 4.12 150 18:36 03.08.2022
772 Clouds 14 1010 88 6000 4.63 170 16:24 03.08.2022
773 Clouds 17 1010 63 10000 6.17 190 14:51 03.08.2022
774 Clouds 19 1010 55 10000 7.72 190 12:32 03.08.2022
775 Clear 14 1009 71 10000 4.12 210 08:50 03.08.2022
776 Clouds 12 1008 100 10000 3.09 220 04:47 03.08.2022
777 Clouds 13 1007 100 10000 3.6 230 03:30 03.08.2022
778 Clouds 14 1007 94 10000 3.09 200 01:35 03.08.2022
779 Clouds 15 1007 88 10000 4.12 190 23:23 02.08.2022
780 Clouds 16 1007 82 10000 4.63 190 21:55 02.08.2022
781 Clear 16 1006 82 10000 5.14 190 21:30 02.08.2022
782 Clouds 18 1006 77 10000 2.06 140 18:59 02.08.2022
783 Clear 18 1007 72 10000 2.57 160 16:27 02.08.2022
784 Rain 18 1008 77 10000 2.57 170 12:53 02.08.2022
785 Clouds 17 1008 88 10000 0.51 0 09:42 02.08.2022
786 Mist 15 1009 100 3000 1.54 160 07:56 02.08.2022
787 Clouds 15 1009 100 10000 2.57 190 07:25 02.08.2022
788 Rain 15 1009 94 6000 2.06 150 04:55 02.08.2022
789 Clear 16 1010 77 10000 2.57 210 23:52 01.08.2022
790 Clear 18 1010 72 10000 2.57 140 22:50 01.08.2022
791 Clear 19 1010 68 10000 2.57 120 20:53 01.08.2022
792 Clear 21 1010 56 10000 2.06 100 19:34 01.08.2022
793 Clear 21 1010 56 10000 2.57 80 18:42 01.08.2022
794 Clear 21 1011 52 10000 1.03 0 16:54 01.08.2022
795 Clear 21 1011 52 10000 1.54 260 16:28 01.08.2022
796 Clouds 21 1012 49 10000 2.06 210 15:30 01.08.2022
797 Clouds 21 1012 52 10000 2.06 210 14:43 01.08.2022
798 Clouds 20 1012 55 10000 1.03 0 12:51 01.08.2022
799 Clouds 18 1013 63 10000 1.54 110 10:29 01.08.2022
800 Clouds 16 1013 72 10000 1.54 180 08:39 01.08.2022
801 Clear 12 1013 93 10000 0.51 0 06:21 01.08.2022
802 Clouds 12 1013 93 10000 1.03 0 04:20 01.08.2022
803 Clear 13 1013 94 10000 1.54 220 00:49 01.08.2022
804 Clouds 14 1012 88 10000 2.06 220 22:41 31.07.2022
805 Clouds 14 1012 82 10000 1.54 230 21:33 31.07.2022
806 Clouds 15 1012 82 10000 1.54 240 19:56 31.07.2022
807 Clouds 15 1012 77 10000 1.54 220 18:35 31.07.2022
808 Clouds 16 1011 72 10000 2.57 250 15:45 31.07.2022
809 Clouds 15 1011 77 10000 2.06 300 13:44 31.07.2022
810 Clouds 14 1011 82 10000 2.57 300 12:28 31.07.2022
811 Clouds 12 1011 87 10000 2.57 330 09:55 31.07.2022
812 Clouds 11 1011 93 10000 2.57 330 08:18 31.07.2022
813 Clouds 10 1012 100 10000 3.09 360 03:28 31.07.2022
814 Clouds 11 1013 87 10000 3.09 360 23:46 30.07.2022
815 Clouds 12 1014 82 10000 3.6 20 22:19 30.07.2022
816 Clouds 12 1014 76 10000 4.12 20 21:49 30.07.2022
817 Clouds 12 1014 76 10000 3.6 20 20:57 30.07.2022
818 Clouds 13 1014 71 10000 4.12 20 19:59 30.07.2022
819 Clouds 13 1014 71 10000 5.14 20 18:53 30.07.2022
820 Clouds 13 1015 71 10000 4.12 20 17:44 30.07.2022
821 Clouds 13 1015 71 10000 5.14 20 15:54 30.07.2022
822 Clouds 13 1015 71 10000 5.66 30 15:24 30.07.2022
823 Clouds 13 1016 66 10000 5.14 20 13:19 30.07.2022
824 Clouds 13 1017 66 10000 6.69 40 12:19 30.07.2022
825 Clouds 13 1017 66 10000 5.14 30 10:31 30.07.2022
826 Clouds 12 1017 66 10000 5.66 20 09:56 30.07.2022
827 Clouds 11 1018 71 10000 5.66 30 07:55 30.07.2022
828 Clouds 10 1020 87 10000 2.06 360 03:55 30.07.2022
829 Clouds 11 1020 81 10000 4.12 40 02:25 30.07.2022
830 Clear 13 1021 76 10000 3.09 10 22:44 29.07.2022
831 Clouds 14 1021 71 10000 2.57 360 21:24 29.07.2022
832 Clear 14 1021 71 10000 2.06 360 20:41 29.07.2022
833 Clear 15 1022 67 10000 4.63 30 18:26 29.07.2022
834 Clouds 15 1022 62 10000 5.14 20 15:38 29.07.2022
835 Clouds 14 1022 62 10000 5.66 30 13:37 29.07.2022
836 Clouds 13 1022 66 10000 6.17 20 11:28 29.07.2022
837 Clouds 12 1021 76 10000 6.17 40 08:50 29.07.2022
838 Clouds 12 1021 76 10000 7.2 50 08:18 29.07.2022
839 Clouds 12 1019 82 10000 4.63 20 01:58 29.07.2022
840 Clouds 12 1018 82 10000 3.6 10 22:53 28.07.2022
841 Clear 13 1017 76 10000 3.09 360 21:28 28.07.2022
842 Clouds 13 1016 76 10000 3.09 360 20:34 28.07.2022
843 Clouds 13 1016 76 10000 5.14 10 19:44 28.07.2022
844 Clouds 14 1015 71 10000 3.6 360 19:24 28.07.2022
845 Clouds 14 1015 76 10000 3.6 10 17:44 28.07.2022
846 Clouds 14 1014 76 10000 5.14 360 16:57 28.07.2022
847 Clouds 15 1014 67 10000 4.63 350 16:28 28.07.2022
848 Clouds 16 1012 58 10000 3.6 340 13:30 28.07.2022
849 Clouds 14 1011 67 10000 4.63 350 11:42 28.07.2022
850 Clouds 13 1007 71 10000 4.12 320 06:46 28.07.2022
851 Clear 12 1006 76 10000 3.09 320 05:33 28.07.2022
852 Clouds 11 1004 93 10000 3.09 300 02:40 28.07.2022
853 Clouds 14 1001 100 10000 2.06 270 22:45 27.07.2022
854 Clouds 15 1000 94 10000 3.6 280 21:29 27.07.2022
855 Rain 16 999 94 10000 4.63 210 19:44 27.07.2022
856 Clouds 17 998 88 10000 3.6 200 18:39 27.07.2022
857 Clouds 17 998 88 10000 3.6 230 15:52 27.07.2022
858 Clouds 20 998 68 10000 7.2 210 15:20 27.07.2022
859 Clouds 19 998 68 10000 7.2 200 14:40 27.07.2022
860 Clouds 16 997 94 10000 2.06 0 12:50 27.07.2022
861 Clouds 17 996 88 10000 5.14 180 08:44 27.07.2022
862 Clouds 17 996 94 10000 5.14 190 07:24 27.07.2022
863 Clouds 17 996 100 10000 5.66 190 02:42 27.07.2022
864 Rain 18 996 94 10000 5.66 180 22:39 26.07.2022
865 Clouds 18 996 94 10000 6.17 170 21:23 26.07.2022
866 Clouds 18 997 94 10000 7.2 170 20:43 26.07.2022
867 Rain 19 998 94 10000 6.17 160 18:44 26.07.2022
868 Rain 18 998 100 4700 4.63 100 18:19 26.07.2022
869 Rain 18 999 94 10000 3.6 170 16:32 26.07.2022
870 Rain 19 999 94 10000 4.12 170 15:36 26.07.2022
871 Rain 19 1000 94 10000 6.17 200 13:46 26.07.2022
872 Clouds 18 1000 94 10000 4.63 170 11:39 26.07.2022
873 Clouds 16 999 100 10000 6.17 160 09:32 26.07.2022
874 Rain 15 1001 100 10000 3.6 140 06:26 26.07.2022
875 Rain 16 1004 88 10000 3.6 130 00:44 26.07.2022
876 Clouds 16 1004 88 10000 2.06 140 23:33 25.07.2022
877 Rain 17 1005 82 10000 1.03 0 22:26 25.07.2022
878 Rain 17 1005 88 10000 1.03 190 21:43 25.07.2022
879 Rain 17 1005 88 10000 3.09 150 20:42 25.07.2022
880 Rain 19 1005 72 10000 4.12 130 19:46 25.07.2022
881 Rain 19 1006 72 10000 3.09 150 18:19 25.07.2022
882 Clear 20 1006 63 10000 4.12 140 17:27 25.07.2022
883 Clear 20 1006 63 10000 4.12 140 17:27 25.07.2022
884 Clouds 18 1007 77 10000 3.09 140 15:20 25.07.2022
885 Clear 21 1008 45 10000 5.66 180 12:22 25.07.2022
886 Clear 19 1009 59 10000 3.09 160 09:58 25.07.2022
887 Clear 14 1010 71 10000 2.57 70 04:38 25.07.2022
888 Clear 15 1011 62 10000 2.06 70 23:54 24.07.2022
889 Clear 15 1011 58 10000 2.06 60 23:18 24.07.2022
890 Clear 16 1011 55 10000 2.06 50 22:29 24.07.2022
891 Clear 16 1011 55 10000 1.54 360 21:23 24.07.2022
892 Clear 18 1011 48 10000 1.54 360 20:50 24.07.2022
893 Clear 18 1011 48 10000 1.54 360 20:26 24.07.2022
894 Clear 19 1012 45 10000 2.57 10 18:46 24.07.2022
895 Clear 19 1012 42 10000 2.57 360 16:29 24.07.2022
896 Clear 19 1013 42 10000 1.54 0 15:50 24.07.2022
897 Clear 19 1013 45 10000 2.57 0 14:35 24.07.2022
898 Clear 18 1013 48 10000 3.6 330 12:54 24.07.2022
899 Clouds 17 1013 51 10000 1.54 10 11:40 24.07.2022
900 Clouds 17 1013 51 10000 4.12 340 11:18 24.07.2022
901 Clouds 16 1013 63 10000 2.06 10 08:33 24.07.2022
902 Clear 15 1013 67 10000 3.09 60 07:52 24.07.2022
903 Clear 12 1013 76 10000 2.57 360 05:49 24.07.2022
904 Clear 14 1012 67 10000 3.6 360 00:30 24.07.2022
905 Clear 17 1010 55 10000 3.09 10 22:21 23.07.2022
906 Clear 18 1010 55 10000 2.57 340 20:28 23.07.2022
907 Clear 20 1009 45 10000 4.63 320 18:50 23.07.2022
908 Clear 20 1009 42 10000 4.63 330 17:29 23.07.2022
909 Clear 21 1009 40 10000 3.6 330 16:35 23.07.2022
910 Clouds 20 1009 45 10000 4.12 320 15:31 23.07.2022
911 Clouds 20 1009 45 10000 4.12 330 14:59 23.07.2022
912 Clear 20 1009 45 10000 4.12 320 14:28 23.07.2022
913 Clear 20 1009 42 10000 4.63 350 13:36 23.07.2022
914 Clear 17 1010 51 10000 3.09 310 10:49 23.07.2022
915 Clear 17 1010 51 10000 2.57 360 10:21 23.07.2022
916 Clear 15 1010 58 10000 4.12 330 08:39 23.07.2022
917 Clear 13 1010 66 10000 3.09 340 03:39 23.07.2022
918 Clear 14 1011 71 10000 2.06 310 01:27 23.07.2022
919 Clear 17 1011 59 10000 2.06 300 22:42 22.07.2022
920 Clear 20 1010 48 10000 2.57 280 20:52 22.07.2022
921 Clear 20 1010 48 10000 3.09 290 19:35 22.07.2022
922 Clouds 21 1010 44 10000 3.11 289 18:28 22.07.2022
923 Clouds 21 1010 44 10000 3.11 289 18:28 22.07.2022
924 Clear 22 1010 49 10000 4.63 290 16:55 22.07.2022
925 Clear 23 1009 46 10000 5.66 270 14:54 22.07.2022
926 Clouds 22 1009 64 10000 5.14 220 11:22 22.07.2022
927 Clear 21 1009 68 10000 2.57 210 09:26 22.07.2022
928 Clear 20 1010 72 10000 2.06 230 08:32 22.07.2022
929 Clear 17 1010 88 10000 2.06 320 05:19 22.07.2022
930 Clear 18 1010 88 10000 1.54 280 00:48 22.07.2022
931 Clear 20 1010 77 10000 4.12 220 22:25 21.07.2022
932 Clouds 19 1011 77 10000 3.09 160 21:29 21.07.2022
933 Rain 21 1011 64 10000 4.12 160 19:26 21.07.2022
934 Rain 23 1012 53 10000 4.12 190 17:39 21.07.2022
935 Clear 23 1012 53 10000 4.12 190 17:19 21.07.2022
936 Clear 24 1013 49 10000 4.63 190 14:55 21.07.2022
937 Clear 24 1013 49 10000 4.63 190 14:29 21.07.2022
938 Clear 23 1014 40 10000 5.14 200 12:28 21.07.2022
939 Clear 22 1015 43 10000 4.12 180 10:56 21.07.2022
940 Clear 21 1015 49 10000 3.09 210 09:27 21.07.2022
941 Clear 19 1015 68 10000 3.09 190 08:49 21.07.2022
942 Clear 17 1016 77 10000 2.57 200 07:32 21.07.2022
943 Clear 14 1016 94 10000 2.57 230 03:55 21.07.2022
944 Clear 16 1016 82 10000 1.03 0 00:24 21.07.2022
945 Clear 19 1016 68 10000 3.09 130 22:21 20.07.2022
946 Clear 20 1016 63 10000 2.57 90 20:51 20.07.2022
947 Clear 22 1015 56 10000 2.57 100 19:49 20.07.2022
948 Clouds 21 1016 60 10000 3.09 100 19:20 20.07.2022
949 Clouds 21 1016 60 10000 3.09 90 18:33 20.07.2022
950 Clouds 22 1016 52 10000 3.09 100 17:54 20.07.2022
951 Clouds 22 1016 52 10000 2.57 360 16:19 20.07.2022
952 Clouds 22 1016 52 10000 2.06 340 14:57 20.07.2022
953 Clear 22 1016 52 10000 3.09 20 13:57 20.07.2022
954 Clouds 20 1016 63 10000 3.6 360 11:32 20.07.2022
955 Clear 17 1015 77 10000 3.09 320 07:50 20.07.2022
956 Clear 13 1014 94 10000 4.12 340 02:45 20.07.2022
957 Clear 14 1014 88 10000 3.6 340 00:46 20.07.2022
958 Clear 15 1013 77 10000 3.09 340 23:37 19.07.2022
959 Clear 15 1013 77 10000 3.09 330 22:22 19.07.2022
960 Clear 17 1013 67 10000 2.06 320 21:18 19.07.2022
961 Clear 18 1012 59 10000 2.06 330 20:23 19.07.2022
962 Rain 19 1012 59 10000 3.6 110 18:43 19.07.2022
963 Clouds 19 1012 52 10000 2.06 300 17:57 19.07.2022
964 Clear 18 1011 59 10000 2.57 60 16:26 19.07.2022
965 Clouds 17 1011 63 10000 2.06 210 14:36 19.07.2022
966 Clouds 16 1010 72 10000 3.6 140 11:38 19.07.2022
967 Clouds 14 1010 82 10000 4.12 180 10:31 19.07.2022
968 Clouds 15 1010 72 10000 2.06 160 08:48 19.07.2022
969 Clouds 15 1010 72 10000 2.06 160 08:22 19.07.2022
970 Clouds 13 1010 87 10000 2.57 140 07:18 19.07.2022
971 Clear 12 1010 93 10000 2.06 140 05:26 19.07.2022
972 Clouds 12 1010 93 10000 2.57 150 04:46 19.07.2022
973 Rain 13 1010 94 10000 2.57 150 00:34 19.07.2022
974 Clouds 14 1010 82 10000 2.06 160 23:22 18.07.2022
975 Clear 14 1010 82 10000 2.06 170 22:56 18.07.2022
976 Clear 14 1010 76 10000 2.57 180 21:53 18.07.2022
977 Clear 15 1010 77 10000 2.06 130 20:50 18.07.2022
978 Clouds 15 1010 77 10000 2.06 210 19:24 18.07.2022
979 Clear 17 1010 55 10000 3.6 220 16:52 18.07.2022
980 Clear 17 1010 55 10000 2.57 240 15:42 18.07.2022
981 Clouds 15 1010 62 10000 2.57 220 13:45 18.07.2022
982 Clouds 16 1010 58 10000 3.6 220 12:37 18.07.2022
983 Clouds 15 1009 67 10000 3.09 240 10:37 18.07.2022
984 Clouds 13 1009 94 10000 4.12 230 08:50 18.07.2022
985 Clouds 12 1009 93 10000 4.12 230 06:54 18.07.2022
986 Clouds 15 1007 82 10000 2.57 170 23:31 17.07.2022
987 Clouds 15 1007 82 10000 2.57 110 22:32 17.07.2022
988 Clouds 15 1007 82 10000 1.54 90 21:44 17.07.2022
989 Clouds 16 1007 77 10000 0.51 0 20:54 17.07.2022
990 Clouds 16 1007 77 10000 2.06 240 20:35 17.07.2022
991 Clouds 16 1007 72 10000 1.03 0 19:26 17.07.2022
992 Clouds 17 1007 72 10000 1.03 0 18:26 17.07.2022
993 Clouds 17 1007 67 10000 2.57 190 17:37 17.07.2022
994 Clouds 17 1006 82 10000 4.63 110 16:50 17.07.2022
995 Clouds 17 1006 82 10000 4.63 110 16:25 17.07.2022
996 Rain 19 1006 55 10000 4.12 190 14:20 17.07.2022
997 Clouds 19 1006 55 10000 3.6 210 13:24 17.07.2022
998 Clouds 18 1006 63 10000 3.6 190 10:34 17.07.2022
999 Clouds 17 1006 67 10000 2.06 170 08:43 17.07.2022
1000 Clear 11 1004 93 10000 1.54 230 02:43 17.07.2022
1001 Clear 12 1004 87 10000 3.09 230 01:47 17.07.2022
1002 Clear 14 1003 88 10000 3.6 210 23:19 16.07.2022
1003 Clear 16 1002 77 10000 2.06 180 20:59 16.07.2022
1004 Clouds 17 1002 67 10000 2.06 260 18:59 16.07.2022
1005 Rain 19 1001 59 10000 3.6 170 17:53 16.07.2022
1006 Clouds 19 1001 59 10000 2.57 230 16:24 16.07.2022
1007 Rain 17 1001 82 10000 2.06 140 13:47 16.07.2022
1008 Clouds 18 1000 67 10000 1.03 0 10:35 16.07.2022
1009 Clear 17 1000 72 10000 1.03 0 09:29 16.07.2022
1010 Clear 16 999 82 10000 1.03 0 08:42 16.07.2022
1011 Clouds 15 999 94 10000 1.03 0 07:41 16.07.2022
1012 Rain 13 999 100 10000 1.54 290 03:40 16.07.2022
1013 Rain 14 999 100 10000 2.57 330 01:59 16.07.2022
1014 Clouds 15 999 94 10000 1.54 290 23:21 15.07.2022
1015 Rain 15 999 100 10000 1.54 230 22:37 15.07.2022
1016 Rain 15 999 100 9000 2.57 260 20:47 15.07.2022
1017 Rain 17 999 88 10000 2.06 230 19:51 15.07.2022
1018 Clouds 18 999 72 10000 1.03 250 18:32 15.07.2022
1019 Rain 18 999 77 10000 3.6 130 17:25 15.07.2022
1020 Clouds 20 998 55 10000 3.09 150 14:35 15.07.2022
1021 Clouds 21 998 56 10000 4.63 170 12:43 15.07.2022
1022 Clouds 20 998 59 10000 4.12 190 10:53 15.07.2022
1023 Clouds 18 997 88 10000 3.09 150 07:55 15.07.2022
1024 Clouds 15 996 94 10000 2.06 130 05:54 15.07.2022
1025 Clear 15 996 94 10000 2.57 180 00:47 15.07.2022
1026 Clear 17 995 82 10000 2.57 150 23:25 14.07.2022
1027 Clouds 17 996 82 10000 3.6 160 22:42 14.07.2022
1028 Rain 19 996 82 10000 2.57 120 21:41 14.07.2022
1029 Rain 19 996 82 10000 2.57 120 21:41 14.07.2022
1030 Rain 19 996 82 10000 1.54 110 21:23 14.07.2022
1031 Thunderstorm 19 996 82 10000 1.03 350 20:43 14.07.2022
1032 Clouds 19 996 82 10000 1.03 0 20:19 14.07.2022
1033 Clear 20 996 72 10000 2.06 210 18:38 14.07.2022
1034 Clear 21 996 68 10000 4.12 190 16:20 14.07.2022
1035 Clouds 22 996 60 10000 5.66 190 15:26 14.07.2022
1036 Clouds 21 997 73 10000 5.14 170 13:52 14.07.2022
1037 Clouds 21 998 73 10000 4.12 110 12:36 14.07.2022
1038 Clouds 22 997 68 10000 4.12 130 11:28 14.07.2022
1039 Clouds 21 998 77 10000 3.09 160 10:58 14.07.2022
1040 Clouds 20 998 88 10000 3.6 130 08:58 14.07.2022
1041 Clouds 17 1000 100 9000 3.09 100 05:18 14.07.2022
1042 Clouds 17 1001 100 10000 1.03 40 01:21 14.07.2022
1043 Clouds 17 1001 100 10000 1.03 40 01:21 14.07.2022
1044 Fog 17 1001 100 1200 1.54 60 00:51 14.07.2022
1045 Clouds 18 1002 100 10000 0.51 0 22:31 13.07.2022
1046 Clouds 18 1002 100 10000 0.51 0 21:47 13.07.2022
1047 Clouds 18 1003 100 9000 2.06 150 20:41 13.07.2022
1048 Rain 18 1004 100 10000 2.57 110 18:40 13.07.2022
1049 Rain 18 1004 100 10000 2.57 110 17:31 13.07.2022
1050 Clouds 18 1005 94 10000 4.12 100 16:19 13.07.2022
1051 Rain 20 1006 94 10000 2.06 90 14:47 13.07.2022
1052 Clouds 22 1007 78 10000 2.57 140 11:54 13.07.2022
1053 Clouds 21 1008 83 10000 2.06 140 10:45 13.07.2022
1054 Clouds 20 1008 88 10000 2.06 180 09:54 13.07.2022
1055 Rain 19 1009 94 10000 3.6 130 09:20 13.07.2022
1056 Rain 18 1010 88 10000 3.09 140 05:22 13.07.2022
1057 Clear 20 1012 72 10000 2.57 100 01:22 13.07.2022
1058 Clear 21 1013 64 10000 2.06 90 23:35 12.07.2022
1059 Clear 22 1013 60 10000 1.54 90 21:53 12.07.2022
1060 Clear 24 1013 53 10000 1.54 130 20:58 12.07.2022
1061 Clear 24 1013 53 10000 2.06 110 20:37 12.07.2022
1062 Clear 24 1014 53 10000 2.57 90 18:53 12.07.2022
1063 Clear 24 1014 49 10000 2.06 80 17:38 12.07.2022
1064 Clear 25 1015 46 10000 3.09 50 15:42 12.07.2022
1065 Clouds 24 1016 53 10000 0.51 0 13:55 12.07.2022
1066 Clear 23 1016 53 10000 2.06 270 11:59 12.07.2022
1067 Clear 23 1016 49 10000 1.03 0 10:47 12.07.2022
1068 Clear 22 1016 64 10000 1.54 310 09:22 12.07.2022
1069 Clouds 21 1017 68 10000 2.06 350 08:18 12.07.2022
1070 Clear 19 1017 88 10000 0.51 0 05:57 12.07.2022
1071 Clear 18 1017 94 10000 1.03 0 05:39 12.07.2022
1072 Clear 17 1017 94 10000 0.51 0 01:43 12.07.2022
1073 Clouds 19 1016 88 10000 2.06 340 22:52 11.07.2022
1074 Clear 19 1016 88 10000 1.03 10 21:45 11.07.2022
1075 Clear 20 1016 82 10000 1.03 0 20:33 11.07.2022
1076 Clear 20 1015 82 10000 1.54 350 19:33 11.07.2022
1077 Clouds 21 1015 73 10000 2.06 360 18:32 11.07.2022
1078 Clear 20 1015 82 10000 2.06 350 17:36 11.07.2022
1079 Rain 18 1015 94 10000 0.51 0 15:46 11.07.2022
1080 Clouds 18 1015 88 3300 5.14 50 13:39 11.07.2022
1081 Rain 21 1015 64 10000 1.54 360 11:38 11.07.2022
1082 Clouds 19 1014 77 10000 1.54 60 10:18 11.07.2022
1083 Clear 19 1014 77 10000 1.54 40 09:41 11.07.2022
1084 Clouds 18 1014 82 10000 1.54 70 08:33 11.07.2022
1085 Fog 13 1014 100 200 2.06 20 03:23 11.07.2022
1086 Clear 15 1013 94 10000 1.54 90 00:20 11.07.2022
1087 Clear 15 1013 100 10000 0.51 0 22:55 10.07.2022
1088 Clear 18 1013 82 10000 1.54 160 21:41 10.07.2022
1089 Clouds 19 1012 82 10000 2.06 20 20:47 10.07.2022
1090 Clouds 18 1012 88 10000 1.54 40 19:48 10.07.2022
1091 Clouds 18 1012 82 10000 3.09 80 18:43 10.07.2022
1092 Clouds 19 1011 82 10000 3.6 80 17:37 10.07.2022
1093 Clouds 18 1011 82 10000 1.54 70 16:45 10.07.2022
1094 Rain 19 1011 82 10000 2.57 50 15:24 10.07.2022
1095 Clouds 16 1011 94 9000 4.12 50 14:21 10.07.2022
1096 Rain 16 1010 94 10000 3.6 30 12:27 10.07.2022
1097 Rain 14 1010 100 10000 4.63 30 09:58 10.07.2022
1098 Clouds 14 1010 94 10000 4.63 30 08:44 10.07.2022
1099 Rain 14 1010 94 10000 4.63 30 07:30 10.07.2022
1100 Clear 14 1010 88 10000 3.6 50 01:31 10.07.2022
1101 Clear 16 1010 77 10000 3.6 70 22:43 09.07.2022
1102 Clear 16 1010 77 10000 3.6 60 22:19 09.07.2022
1103 Clear 16 1010 82 10000 2.06 10 20:46 09.07.2022
1104 Rain 15 1010 88 10000 2.06 210 18:37 09.07.2022
1105 Rain 18 1009 59 10000 3.09 110 17:45 09.07.2022
1106 Clouds 19 1009 48 10000 3.6 110 16:44 09.07.2022
1107 Clouds 19 1009 55 10000 3.6 50 15:41 09.07.2022
1108 Clear 19 1009 45 10000 0.51 0 14:36 09.07.2022
1109 Clear 18 1009 59 10000 1.54 180 13:50 09.07.2022
1110 Clouds 16 1010 77 10000 3.09 130 12:45 09.07.2022
1111 Clouds 16 1010 77 10000 3.09 90 11:22 09.07.2022
1112 Clouds 15 1009 82 10000 3.6 130 10:22 09.07.2022
1113 Clear 14 1009 88 10000 2.57 110 07:45 09.07.2022
1114 Clouds 12 1009 93 10000 2.06 90 04:59 09.07.2022
1115 Clear 12 1009 100 10000 2.06 110 02:34 09.07.2022
1116 Drizzle 14 1009 82 10000 2.57 190 22:54 08.07.2022
1117 Clear 14 1009 82 10000 3.09 190 21:58 08.07.2022
1118 Clouds 15 1009 77 10000 3.09 200 20:41 08.07.2022
1119 Rain 15 1009 77 10000 2.57 230 19:53 08.07.2022
1120 Rain 17 1009 59 10000 3.09 270 18:24 08.07.2022
1121 Clear 18 1008 51 10000 3.09 260 16:48 08.07.2022
1122 Clear 17 1008 51 10000 4.12 290 14:53 08.07.2022
1123 Clouds 17 1007 51 10000 5.66 260 13:41 08.07.2022
1124 Clouds 18 1006 51 10000 5.14 290 11:51 08.07.2022
1125 Clear 18 1006 51 10000 5.14 260 10:29 08.07.2022
1126 Clouds 15 1005 67 10000 3.09 270 08:33 08.07.2022
1127 Clouds 14 1004 82 10000 2.06 280 06:50 08.07.2022
1128 Clouds 12 1003 93 10000 1.54 230 01:31 08.07.2022
1129 Clouds 12 1003 93 10000 2.57 170 22:59 07.07.2022
1130 Clouds 12 1003 100 10000 2.57 200 22:34 07.07.2022
1131 Clouds 13 1003 87 10000 3.09 170 20:35 07.07.2022
1132 Rain 13 1004 100 10000 3.09 140 18:20 07.07.2022
1133 Rain 13 1005 94 10000 4.12 120 16:51 07.07.2022
1134 Rain 17 1004 59 10000 4.12 170 14:34 07.07.2022
1135 Clouds 17 1004 55 10000 7.2 210 13:18 07.07.2022
1136 Rain 18 1004 48 10000 5.14 200 12:24 07.07.2022
1137 Rain 18 1004 48 10000 5.14 200 12:24 07.07.2022
1138 Clouds 18 1004 48 10000 5.66 190 11:44 07.07.2022
1139 Rain 18 1004 48 10000 5.66 190 11:24 07.07.2022
1140 Rain 19 1004 42 10000 4.63 220 10:40 07.07.2022
1141 Clouds 18 1004 48 10000 3.09 230 10:22 07.07.2022
1142 Clear 14 1004 82 10000 2.57 200 06:40 07.07.2022
1143 Clear 12 1003 87 10000 3.09 210 01:43 07.07.2022
1144 Clouds 10 1003 82 10000 2.51 168 23:36 06.07.2022
1145 Clear 14 1003 71 10000 3.6 200 23:18 06.07.2022
1146 Clear 14 1003 71 10000 3.6 200 22:52 06.07.2022
1147 Clear 14 1003 71 10000 3.6 200 22:52 06.07.2022
1148 Clear 14 1003 71 10000 3.6 200 22:34 06.07.2022
1149 Clouds 17 1003 51 10000 6.17 210 20:33 06.07.2022
1150 Clear 18 1003 45 10000 7.72 220 19:33 06.07.2022
1151 Clear 19 1003 45 10000 7.2 210 17:22 06.07.2022
1152 Clear 19 1003 42 10000 7.72 210 17:22 06.07.2022
1153 Clouds 20 1003 42 10000 7.72 210 15:58 06.07.2022
1154 Clouds 19 1003 48 10000 7.2 210 13:21 06.07.2022
1155 Clouds 20 1003 42 10000 6.69 220 12:28 06.07.2022
1156 Clouds 19 1003 52 10000 5.14 230 11:44 06.07.2022
1157 Clouds 16 1003 67 10000 4.63 220 09:50 06.07.2022
1158 Clouds 15 1002 77 10000 5.14 230 07:44 06.07.2022
1159 Clouds 14 1002 88 10000 5.14 240 07:19 06.07.2022
1160 Clouds 14 1002 82 10000 4.12 170 00:38 06.07.2022
1161 Clear 15 1003 72 10000 5.14 190 22:43 05.07.2022
1162 Clear 17 1003 67 10000 6.69 190 20:57 05.07.2022
1163 Clouds 18 1003 63 10000 6.69 200 20:33 05.07.2022
1164 Clear 19 1003 59 10000 6.17 210 19:39 05.07.2022
1165 Clouds 19 1003 63 10000 7.2 210 17:55 05.07.2022
1166 Clouds 19 1003 63 10000 6.17 210 17:25 05.07.2022
1167 Clouds 20 1003 63 10000 6.69 220 16:33 05.07.2022
1168 Rain 18 1003 88 10000 6.69 210 14:54 05.07.2022
1169 Rain 17 1003 82 10000 1.03 0 13:36 05.07.2022
1170 Rain 24 1003 40 10000 4.12 180 12:24 05.07.2022
1171 Clear 24 1004 53 10000 2.57 190 10:46 05.07.2022
1172 Clear 23 1005 53 10000 3.09 160 09:57 05.07.2022
1173 Clear 22 1006 56 10000 3.09 100 08:23 05.07.2022
1174 Clear 19 1007 68 10000 5.14 60 06:59 05.07.2022
1175 Clear 18 1008 67 10000 1.03 0 04:37 05.07.2022
1176 Clear 17 1009 67 10000 2.06 130 01:33 05.07.2022
1177 Clear 18 1010 59 10000 3.6 190 23:37 04.07.2022
1178 Clear 19 1010 59 10000 2.57 180 22:56 04.07.2022
1179 Clear 19 1011 59 10000 3.09 180 22:18 04.07.2022
1180 Clear 21 1011 52 10000 4.12 200 20:56 04.07.2022
1181 Clear 22 1011 49 10000 5.14 200 20:36 04.07.2022
1182 Clear 22 1011 49 10000 5.14 190 19:56 04.07.2022
1183 Clear 23 1011 46 10000 5.66 210 19:37 04.07.2022
1184 Clear 23 1011 43 10000 5.14 210 18:35 04.07.2022
1185 Clear 24 1012 40 10000 5.66 220 16:54 04.07.2022
1186 Clear 25 1012 41 10000 5.14 240 15:35 04.07.2022
1187 Clear 25 1013 46 10000 4.63 220 13:47 04.07.2022
1188 Clear 24 1013 49 10000 5.14 210 12:42 04.07.2022
1189 Clouds 22 1013 56 10000 4.63 210 10:40 04.07.2022
1190 Clouds 22 1013 56 10000 4.63 210 10:22 04.07.2022
1191 Clouds 20 1013 72 10000 5.66 200 08:33 04.07.2022
1192 Clouds 18 1013 82 10000 6.17 200 05:57 04.07.2022
1193 Clear 16 1013 82 10000 4.63 200 00:44 04.07.2022
1194 Clear 16 1013 82 10000 4.63 200 00:44 04.07.2022
1195 Clear 17 1013 72 10000 6.17 200 23:38 03.07.2022
1196 Clear 19 1013 63 10000 4.63 200 22:28 03.07.2022
1197 Clear 21 1012 56 10000 5.66 220 20:45 03.07.2022
1198 Clear 22 1012 52 10000 6.17 220 19:42 03.07.2022
1199 Clear 22 1012 52 10000 6.17 220 19:23 03.07.2022
1200 Clear 23 1012 46 10000 6.69 220 17:46 03.07.2022
1201 Clear 23 1012 43 10000 7.72 220 17:18 03.07.2022
1202 Clear 25 1012 35 10000 7.2 210 15:26 03.07.2022
1203 Clear 25 1012 41 10000 8.75 220 14:37 03.07.2022
1204 Clear 24 1012 56 10000 7.2 200 13:49 03.07.2022
1205 Clouds 23 1012 64 10000 7.72 190 12:42 03.07.2022
1206 Clouds 22 1012 68 10000 8.23 200 11:40 03.07.2022
1207 Clouds 21 1012 83 10000 6.69 210 10:40 03.07.2022
1208 Clouds 19 1012 94 10000 5.14 220 09:59 03.07.2022
1209 Clouds 20 1012 94 10000 3.6 180 07:37 03.07.2022
1210 Clouds 20 1013 94 10000 3.09 180 05:22 03.07.2022
1211 Clouds 22 1013 83 10000 3.09 140 00:24 03.07.2022
1212 Clouds 22 1014 88 10000 3.6 160 22:36 02.07.2022
1213 Clear 22 1014 88 10000 3.6 180 21:38 02.07.2022
1214 Clouds 22 1014 83 10000 3.6 170 20:20 02.07.2022
1215 Thunderstorm 21 1015 88 10000 5.14 160 19:49 02.07.2022
1216 Clouds 28 1015 54 10000 4.63 200 17:58 02.07.2022
1217 Clear 28 1015 54 10000 5.66 200 17:37 02.07.2022
1218 Clear 28 1016 50 10000 6.17 180 15:32 02.07.2022
1219 Clear 26 1017 47 10000 5.66 190 12:24 02.07.2022
1220 Clear 26 1017 53 10000 4.63 210 11:28 02.07.2022
1221 Clear 27 1017 44 10000 5.66 190 10:48 02.07.2022
1222 Clear 27 1017 50 10000 4.12 190 09:49 02.07.2022
1223 Clear 25 1017 57 10000 2.06 130 08:36 02.07.2022
1224 Clear 25 1017 53 10000 3.6 140 08:18 02.07.2022
1225 Clear 24 1018 46 10000 2.57 360 02:52 02.07.2022
1226 Clear 24 1018 46 10000 2.06 340 00:27 02.07.2022
1227 Clear 26 1018 41 10000 1.54 360 22:59 01.07.2022
1228 Clear 27 1018 41 10000 1.54 350 22:19 01.07.2022
1229 Clear 28 1018 36 10000 1.54 340 21:37 01.07.2022
1230 Clear 28 1018 36 10000 1.54 320 20:57 01.07.2022
1231 Clear 30 1018 32 10000 2.06 260 19:47 01.07.2022
1232 Clear 30 1019 30 10000 2.57 240 18:42 01.07.2022
1233 Clear 30 1019 32 10000 4.12 220 16:35 01.07.2022
1234 Clear 31 1020 30 10000 3.09 200 13:55 01.07.2022
1235 Clear 30 1020 32 10000 2.57 180 13:22 01.07.2022
1236 Clouds 28 1021 44 10000 3.09 230 10:46 01.07.2022
1237 Clouds 28 1021 50 10000 3.09 230 10:18 01.07.2022
1238 Clear 23 1021 78 10000 1.54 250 05:58 01.07.2022
1239 Clear 22 1021 78 10000 1.54 200 01:30 01.07.2022
1240 Clear 23 1021 73 10000 0.51 0 23:28 30.06.2022
1241 Clear 24 1021 68 10000 1.54 240 22:45 30.06.2022
1242 Clear 24 1021 68 10000 1.54 240 22:45 30.06.2022
1243 Clear 24 1021 68 10000 1.54 240 22:27 30.06.2022
1244 Clear 25 1020 64 10000 2.57 240 21:50 30.06.2022
1245 Clear 27 1020 53 10000 3.6 230 20:31 30.06.2022
1246 Clouds 28 1020 50 10000 4.12 220 19:55 30.06.2022
1247 Clouds 29 1020 47 10000 4.63 220 19:32 30.06.2022
1248 Clear 29 1020 47 10000 5.66 210 18:43 30.06.2022
1249 Clear 30 1020 45 10000 4.63 210 17:49 30.06.2022
1250 Clouds 30 1020 45 10000 3.6 240 16:55 30.06.2022
1251 Clear 29 1020 44 10000 4.63 210 15:44 30.06.2022
1252 Clear 29 1021 44 10000 4.63 200 13:49 30.06.2022
1253 Clear 29 1021 42 10000 5.14 220 12:36 30.06.2022
1254 Clear 29 1021 44 10000 4.12 240 11:56 30.06.2022
1255 Clear 26 1021 53 10000 4.12 220 09:55 30.06.2022
1256 Clear 26 1021 57 10000 3.09 200 09:35 30.06.2022
1257 Clear 23 1021 64 10000 2.57 230 08:19 30.06.2022
1258 Clear 23 1021 64 10000 2.57 230 08:19 30.06.2022
1259 Clouds 23 1021 68 10000 2.57 250 07:24 30.06.2022
1260 Clear 21 1020 73 10000 1.03 0 02:38 30.06.2022
1261 Clear 22 1021 68 10000 2.57 240 23:36 29.06.2022
1262 Clear 24 1020 60 10000 2.06 250 22:41 29.06.2022
1263 Clear 24 1020 60 10000 2.57 230 21:43 29.06.2022
1264 Clear 26 1020 53 10000 3.6 230 20:34 29.06.2022
1265 Clear 28 1020 47 10000 3.6 230 19:48 29.06.2022
1266 Clear 29 1020 42 10000 4.12 250 17:54 29.06.2022
1267 Clear 29 1020 36 10000 5.14 220 16:51 29.06.2022
1268 Clear 29 1021 36 10000 4.63 190 15:32 29.06.2022
1269 Clear 28 1022 36 10000 4.63 180 13:20 29.06.2022
1270 Clear 26 1022 41 10000 4.12 160 11:57 29.06.2022
1271 Clear 24 1023 46 10000 4.12 130 09:35 29.06.2022
1272 Clear 23 1023 49 10000 3.09 130 08:46 29.06.2022
1273 Clear 18 1023 55 10000 3.6 140 05:42 29.06.2022
1274 Clear 18 1024 55 10000 3.6 140 02:21 29.06.2022
1275 Clear 19 1024 55 10000 3.09 140 00:38 29.06.2022
1276 Clear 21 1024 49 10000 3.6 130 23:26 28.06.2022
1277 Clear 22 1024 49 10000 3.09 130 22:48 28.06.2022
1278 Clear 23 1024 46 10000 3.09 120 21:55 28.06.2022
1279 Clear 23 1024 46 10000 3.6 130 21:33 28.06.2022
1280 Clear 24 1023 43 10000 4.63 120 20:51 28.06.2022
1281 Clear 26 1023 38 10000 5.14 120 19:43 28.06.2022
1282 Clear 26 1023 38 10000 5.14 120 19:23 28.06.2022
1283 Clear 26 1024 44 10000 4.63 130 17:44 28.06.2022
1284 Clear 26 1024 44 10000 4.12 140 16:29 28.06.2022
1285 Clear 26 1024 44 10000 4.12 140 15:53 28.06.2022
1286 Clear 25 1025 43 10000 4.63 130 14:21 28.06.2022
1287 Clear 25 1025 43 10000 4.63 130 13:54 28.06.2022
1288 Clear 24 1025 46 10000 5.66 130 13:20 28.06.2022
1289 Clear 23 1025 46 10000 5.66 110 11:37 28.06.2022
1290 Clear 20 1025 52 10000 6.17 110 09:41 28.06.2022
1291 Clear 20 1025 52 10000 6.17 120 08:45 28.06.2022
1292 Clear 18 1025 59 10000 6.69 110 07:58 28.06.2022
1293 Clear 18 1025 63 10000 6.69 110 07:19 28.06.2022
1294 Clear 18 1024 67 10000 5.14 110 01:33 28.06.2022
1295 Clear 21 1024 64 10000 4.12 120 23:44 27.06.2022
1296 Clear 21 1023 68 10000 4.63 100 22:54 27.06.2022
1297 Clear 23 1022 60 10000 4.63 110 21:38 27.06.2022
1298 Clear 24 1022 56 10000 4.12 100 20:54 27.06.2022
1299 Clear 26 1022 53 10000 5.14 110 19:40 27.06.2022
1300 Clear 26 1022 53 10000 4.63 120 18:33 27.06.2022
1301 Clear 26 1022 53 10000 5.14 100 16:36 27.06.2022
1302 Clouds 26 1022 53 10000 5.66 80 15:24 27.06.2022
1303 Clouds 25 1022 57 10000 5.66 130 13:39 27.06.2022
1304 Clouds 25 1022 57 10000 4.63 120 12:56 27.06.2022
1305 Clear 23 1022 60 10000 4.12 130 10:35 27.06.2022
1306 Clear 22 1022 64 10000 4.63 90 09:21 27.06.2022
1307 Clear 21 1022 68 10000 4.63 90 08:30 27.06.2022
1308 Clear 19 1021 77 10000 5.14 110 06:39 27.06.2022
1309 Clear 18 1021 59 10000 5.14 80 03:55 27.06.2022
1310 Clear 20 1020 55 10000 5.14 70 01:18 27.06.2022
1311 Clear 23 1020 49 10000 4.63 70 22:22 26.06.2022
1312 Clear 26 1019 47 10000 5.14 60 20:48 26.06.2022
1313 Clear 27 1018 44 10000 3.6 90 19:42 26.06.2022
1314 Clouds 28 1018 41 10000 1.54 0 18:31 26.06.2022
1315 Clouds 28 1018 44 10000 2.57 360 16:47 26.06.2022
1316 Clouds 28 1018 44 10000 2.57 330 15:26 26.06.2022
1317 Clear 27 1018 47 10000 2.57 30 13:41 26.06.2022
1318 Clear 27 1018 47 10000 2.57 350 13:20 26.06.2022
1319 Clear 26 1017 50 10000 2.06 0 11:26 26.06.2022
1320 Clear 23 1017 60 10000 3.09 220 10:26 26.06.2022
1321 Clear 22 1017 64 10000 3.09 180 09:22 26.06.2022
1322 Clear 19 1017 77 10000 1.03 0 07:41 26.06.2022
1323 Clear 17 1016 77 10000 4.12 170 01:54 26.06.2022
1324 Clear 19 1016 68 10000 5.14 200 00:21 26.06.2022
1325 Clear 19 1016 68 10000 3.6 210 23:49 25.06.2022
1326 Clear 20 1016 63 10000 3.6 210 22:57 25.06.2022
1327 Clear 20 1016 63 10000 4.63 220 22:27 25.06.2022
1328 Clear 23 1016 53 10000 5.66 210 21:40 25.06.2022
1329 Clear 23 1016 49 10000 4.63 220 21:18 25.06.2022
1330 Clear 24 1016 46 10000 4.63 220 20:27 25.06.2022
1331 Clear 26 1016 44 10000 7.2 220 19:21 25.06.2022
1332 Clear 28 1016 36 10000 4.63 200 17:56 25.06.2022
1333 Clear 27 1016 36 10000 3.09 220 17:22 25.06.2022
1334 Clear 27 1016 36 10000 4.63 230 15:26 25.06.2022
1335 Clear 26 1017 38 10000 3.09 0 13:27 25.06.2022
1336 Clear 25 1017 41 10000 3.09 190 12:37 25.06.2022
1337 Clear 24 1017 46 10000 3.6 230 10:34 25.06.2022
1338 Clear 23 1017 49 10000 3.09 220 08:58 25.06.2022
1339 Clear 22 1017 52 10000 2.06 190 08:35 25.06.2022
1340 Clear 20 1017 63 10000 2.06 170 07:45 25.06.2022
1341 Clear 15 1016 82 10000 2.06 220 03:30 25.06.2022
1342 Clear 18 1015 67 10000 2.06 250 00:33 25.06.2022
1343 Clear 19 1014 59 10000 2.57 220 22:51 24.06.2022
1344 Clear 22 1014 43 10000 1.54 260 21:31 24.06.2022
1345 Clear 22 1013 40 10000 1.54 280 20:25 24.06.2022
1346 Clear 22 1013 24 10000 2.57 300 19:52 24.06.2022
1347 Clear 22 1013 43 10000 2.57 250 19:19 24.06.2022
1348 Clear 22 1013 40 10000 3.6 290 18:48 24.06.2022
1349 Clear 22 1013 40 10000 3.6 290 18:30 24.06.2022
1350 Clear 23 1013 40 10000 4.12 260 16:57 24.06.2022
1351 Clear 20 1012 45 10000 3.6 250 15:28 24.06.2022
1352 Clouds 21 1012 42 10000 4.63 250 14:25 24.06.2022
1353 Clouds 20 1012 45 10000 4.63 260 13:53 24.06.2022
1354 Clouds 19 1011 48 10000 2.57 290 11:42 24.06.2022
1355 Clouds 18 1011 51 10000 4.63 260 10:43 24.06.2022
1356 Clouds 17 1010 55 10000 6.17 260 09:42 24.06.2022
1357 Clouds 16 1010 58 10000 5.66 260 08:58 24.06.2022
1358 Clouds 16 1010 58 10000 5.66 260 08:40 24.06.2022
1359 Clear 14 1009 71 10000 4.12 240 06:47 24.06.2022
1360 Rain 14 1009 71 10000 4.12 240 06:27 24.06.2022
1361 Rain 13 1008 71 10000 3.09 230 05:21 24.06.2022
1362 Clear 14 1006 82 10000 2.57 230 00:47 24.06.2022
1363 Clear 16 1005 72 10000 4.12 220 22:43 23.06.2022
1364 Clear 17 1004 72 10000 3.6 220 21:40 23.06.2022
1365 Clear 17 1004 72 10000 4.12 230 20:42 23.06.2022
1366 Clear 18 1004 67 10000 6.17 220 19:55 23.06.2022
1367 Clear 19 1003 59 10000 7.2 220 18:38 23.06.2022
1368 Clear 19 1003 59 10000 8.23 220 17:35 23.06.2022
1369 Clouds 18 1002 63 10000 7.72 210 16:32 23.06.2022
1370 Clouds 19 1002 55 10000 5.66 230 15:26 23.06.2022
1371 Clouds 18 1002 59 10000 7.72 240 14:36 23.06.2022
1372 Clouds 13 1001 87 10000 6.17 220 11:42 23.06.2022
1373 Rain 13 1001 94 10000 5.66 190 10:41 23.06.2022
1374 Rain 15 1001 72 10000 6.17 190 09:19 23.06.2022
1375 Clouds 9 1003 81 10000 2.57 160 04:48 23.06.2022
1376 Clear 10 1004 71 10000 2.57 70 00:27 23.06.2022
1377 Clear 10 1004 71 10000 3.09 70 23:52 22.06.2022
1378 Clouds 11 1004 62 10000 3.09 70 23:18 22.06.2022
1379 Clear 12 1005 62 10000 2.57 40 21:44 22.06.2022
1380 Clear 13 1005 58 10000 2.06 10 20:51 22.06.2022
1381 Clear 14 1005 54 10000 2.57 10 20:18 22.06.2022
1382 Clear 13 1006 58 10000 2.06 340 19:27 22.06.2022
1383 Clouds 14 1006 54 10000 2.06 280 17:33 22.06.2022
1384 Clouds 14 1006 54 10000 2.06 260 16:41 22.06.2022
1385 Clouds 14 1006 54 10000 2.06 260 16:41 22.06.2022
1386 Clouds 13 1006 58 10000 2.57 280 15:28 22.06.2022
1387 Clouds 13 1006 58 10000 3.6 280 14:41 22.06.2022
1388 Clouds 13 1006 58 10000 3.6 270 13:46 22.06.2022
1389 Clouds 13 1006 58 10000 3.6 270 13:24 22.06.2022
1390 Clouds 13 1005 66 10000 5.14 280 11:50 22.06.2022
1391 Clouds 13 1005 66 10000 5.14 280 11:50 22.06.2022
1392 Clouds 13 1005 62 10000 4.63 240 10:58 22.06.2022
1393 Clouds 12 1004 76 10000 5.14 260 10:26 22.06.2022
1394 Clouds 12 1003 82 10000 4.63 260 08:57 22.06.2022
1395 Clouds 13 1002 94 10000 5.14 210 06:39 22.06.2022
1396 Rain 12 1002 82 10000 3.09 120 01:52 22.06.2022
1397 Rain 13 1002 76 10000 2.06 170 00:56 22.06.2022
1398 Rain 15 1003 54 10000 2.06 220 22:40 21.06.2022
1399 Clear 16 1003 51 10000 4.12 230 20:40 21.06.2022
1400 Clear 18 1002 48 10000 4.63 220 19:18 21.06.2022
1401 Clouds 19 1002 48 10000 5.66 220 17:44 21.06.2022
1402 Clear 20 1002 45 10000 6.69 200 16:34 21.06.2022
1403 Clouds 19 1004 45 10000 5.66 190 11:56 21.06.2022
1404 Clouds 18 1004 48 10000 5.66 180 10:27 21.06.2022
1405 Clouds 17 1004 51 10000 5.14 160 08:54 21.06.2022
1406 Clear 15 1005 58 10000 3.6 160 07:35 21.06.2022
1407 Clear 10 1005 76 10000 3.6 140 04:40 21.06.2022
1408 Clear 12 1006 71 10000 2.57 150 23:27 20.06.2022
1409 Clear 14 1006 58 10000 2.57 150 21:59 20.06.2022
1410 Clear 14 1006 58 10000 2.57 140 21:32 20.06.2022
1411 Clear 15 1006 54 10000 3.09 130 20:25 20.06.2022
1412 Clear 16 1006 47 10000 2.57 100 18:56 20.06.2022
1413 Clear 16 1006 47 10000 3.6 80 18:24 20.06.2022
1414 Clouds 16 1006 47 10000 4.12 100 17:44 20.06.2022
1415 Clear 16 1007 51 10000 3.6 90 16:24 20.06.2022
1416 Clear 16 1007 47 10000 3.09 60 14:36 20.06.2022
1417 Clouds 13 1008 58 10000 1.54 0 11:47 20.06.2022
1418 Clouds 12 1008 66 10000 1.54 80 09:55 20.06.2022
1419 Clouds 11 1008 66 10000 1.03 0 08:46 20.06.2022
1420 Clouds 11 1007 62 10000 1.03 0 07:36 20.06.2022
1421 Clouds 9 1007 76 10000 1.54 70 04:30 20.06.2022
1422 Clear 9 1006 71 10000 3.09 80 01:32 20.06.2022
1423 Clear 11 1006 66 10000 3.6 60 23:48 19.06.2022
1424 Clear 13 1005 58 10000 3.09 50 22:19 19.06.2022
1425 Clear 14 1005 54 10000 3.09 40 21:42 19.06.2022
1426 Clear 14 1004 54 10000 4.12 30 20:49 19.06.2022
1427 Clear 15 1004 47 10000 5.66 50 19:49 19.06.2022
1428 Clear 15 1004 47 10000 5.66 50 19:24 19.06.2022
1429 Clouds 16 1003 47 10000 5.66 40 18:32 19.06.2022
1430 Clear 16 1003 47 10000 6.17 40 17:42 19.06.2022
1431 Clear 16 1003 41 10000 4.63 40 16:47 19.06.2022
1432 Clear 16 1003 41 10000 4.63 40 16:23 19.06.2022
1433 Clear 17 1002 41 10000 6.17 60 15:29 19.06.2022
1434 Clear 16 1002 44 10000 5.66 60 14:41 19.06.2022
1435 Clear 15 1002 47 10000 4.63 20 13:52 19.06.2022
1436 Clouds 14 1002 54 10000 5.66 60 12:19 19.06.2022
1437 Clouds 14 1002 54 10000 5.66 40 10:52 19.06.2022
1438 Clear 12 1001 58 10000 7.2 50 08:55 19.06.2022
1439 Clear 13 1001 54 10000 7.2 60 08:31 19.06.2022
1440 Clear 12 1000 62 10000 6.17 70 06:54 19.06.2022
1441 Clear 10 1001 76 10000 5.14 80 03:38 19.06.2022
1442 Clear 11 1001 66 10000 5.66 70 00:28 19.06.2022
1443 Clear 11 1001 66 10000 5.14 70 23:59 18.06.2022
1444 Clear 12 1001 58 10000 5.14 70 23:34 18.06.2022
1445 Clear 14 1002 50 10000 3.6 70 22:23 18.06.2022
1446 Clear 15 1002 47 10000 4.12 70 20:51 18.06.2022
1447 Clear 15 1003 47 10000 3.6 80 20:18 18.06.2022
1448 Clear 16 1003 44 10000 5.14 70 18:57 18.06.2022
1449 Clear 16 1003 47 10000 5.14 60 18:38 18.06.2022
1450 Clear 16 1004 47 10000 3.6 80 17:29 18.06.2022
1451 Clouds 16 1004 47 10000 3.09 100 15:57 18.06.2022
1452 Clear 16 1005 47 10000 4.12 80 14:54 18.06.2022
1453 Clear 15 1005 47 10000 3.6 80 14:35 18.06.2022
1454 Clear 15 1006 47 10000 3.6 80 12:30 18.06.2022
1455 Rain 14 1007 54 10000 3.6 70 11:20 18.06.2022
1456 Clouds 12 1008 62 10000 2.57 80 09:39 18.06.2022
1457 Clouds 12 1008 66 10000 3.6 70 08:46 18.06.2022
1458 Clear 11 1009 66 10000 2.57 80 07:34 18.06.2022
1459 Clear 8 1010 81 10000 4.12 80 05:20 18.06.2022
1460 Clouds 8 1011 81 10000 3.09 60 01:50 18.06.2022
1461 Clouds 8 1011 81 10000 3.6 60 01:21 18.06.2022
1462 Clear 9 1011 76 10000 3.6 60 00:23 18.06.2022
1463 Clear 9 1011 76 10000 3.6 60 00:23 18.06.2022
1464 Clouds 10 1012 71 10000 3.09 60 23:36 17.06.2022
1465 Clear 11 1012 71 10000 2.57 60 22:29 17.06.2022
1466 Clouds 13 1012 62 10000 2.06 360 20:29 17.06.2022
1467 Clouds 13 1012 62 10000 2.57 340 19:24 17.06.2022
1468 Clouds 13 1012 62 10000 2.57 340 19:24 17.06.2022
1469 Clouds 13 1013 62 10000 3.09 360 17:56 17.06.2022
1470 Clouds 14 1013 58 10000 5.14 320 16:44 17.06.2022
1471 Clouds 14 1013 58 10000 5.14 320 16:25 17.06.2022
1472 Clouds 14 1013 54 10000 3.09 360 15:37 17.06.2022
1473 Clouds 14 1013 58 10000 5.14 10 14:23 17.06.2022
1474 Clouds 14 1013 58 10000 4.12 320 13:58 17.06.2022
1475 Clouds 14 1013 58 10000 4.12 320 13:38 17.06.2022
1476 Clouds 12 1013 66 10000 3.6 350 12:24 17.06.2022
1477 Clouds 12 1013 66 10000 4.12 360 11:54 17.06.2022
1478 Clouds 11 1013 66 10000 3.6 10 11:33 17.06.2022
1479 Clouds 9 1013 76 10000 4.63 350 08:56 17.06.2022
1480 Clouds 10 1013 71 10000 4.63 10 08:25 17.06.2022
1481 Clouds 8 1013 81 10000 4.63 10 06:42 17.06.2022
1482 Clouds 7 1012 87 10000 4.63 360 03:45 17.06.2022
1483 Clouds 7 1012 87 10000 5.14 10 01:55 17.06.2022
1484 Clouds 8 1011 87 10000 4.63 360 23:35 16.06.2022
1485 Clouds 8 1011 87 10000 5.66 360 22:41 16.06.2022
1486 Clouds 9 1010 81 10000 6.17 360 21:21 16.06.2022
1487 Clouds 9 1010 81 10000 4.63 360 20:51 16.06.2022
1488 Clouds 9 1010 81 10000 4.63 360 20:27 16.06.2022
1489 Clouds 10 1010 76 10000 5.66 360 19:31 16.06.2022
1490 Clouds 10 1009 87 10000 5.66 10 17:54 16.06.2022
1491 Clouds 10 1009 87 10000 5.66 360 17:33 16.06.2022
1492 Rain 10 1009 87 10000 4.63 350 16:24 16.06.2022
1493 Rain 10 1009 87 10000 5.14 10 15:21 16.06.2022
1494 Rain 9 1008 93 10000 5.66 360 14:27 16.06.2022
1495 Rain 9 1008 93 10000 6.17 360 12:56 16.06.2022
1496 Rain 8 1007 100 10000 6.17 360 12:34 16.06.2022
1497 Rain 8 1007 93 10000 5.66 350 11:49 16.06.2022
1498 Rain 8 1007 93 10000 6.69 360 10:42 16.06.2022
1499 Rain 8 1007 87 10000 6.69 360 09:43 16.06.2022
1500 Rain 8 1006 87 10000 6.69 350 09:19 16.06.2022
1501 Rain 7 1007 93 10000 6.69 10 07:57 16.06.2022
1502 Rain 7 1007 93 10000 7.2 10 06:49 16.06.2022
1503 Rain 7 1008 93 10000 6.17 10 04:27 16.06.2022
1504 Rain 7 1008 93 10000 5.14 360 01:53 16.06.2022
1505 Rain 8 1008 87 10000 6.17 10 01:32 16.06.2022
1506 Rain 8 1009 61 10000 5.14 10 00:31 16.06.2022
1507 Rain 8 1009 93 10000 5.66 10 22:59 15.06.2022
1508 Rain 9 1010 87 10000 5.66 20 21:55 15.06.2022
1509 Rain 10 1010 81 10000 5.66 20 21:20 15.06.2022
1510 Clouds 10 1009 76 10000 7.2 30 20:37 15.06.2022
1511 Clouds 10 1009 81 10000 7.72 10 20:18 15.06.2022
1512 Clouds 12 1010 76 10000 6.17 10 18:47 15.06.2022
1513 Clouds 12 1010 46 10000 6.17 20 17:54 15.06.2022
1514 Clouds 13 1009 76 10000 6.17 20 16:35 15.06.2022
1515 Clouds 13 1010 76 10000 6.17 20 15:23 15.06.2022
1516 Clouds 14 1008 76 10000 7.2 20 13:37 15.06.2022
1517 Clouds 16 1008 72 10000 6.69 20 12:51 15.06.2022
1518 Clouds 17 1008 67 10000 5.14 10 11:37 15.06.2022
1519 Clouds 17 1008 72 10000 4.63 20 10:23 15.06.2022
1520 Clouds 17 1008 67 10000 5.14 20 09:34 15.06.2022
1521 Clouds 17 1008 67 10000 4.63 40 08:27 15.06.2022
1522 Clear 15 1007 77 10000 4.63 40 06:33 15.06.2022
1523 Clear 12 1007 93 10000 3.09 20 03:28 15.06.2022
1524 Clear 12 1007 87 10000 2.57 50 01:37 15.06.2022
1525 Clear 13 1007 82 10000 3.6 40 00:41 15.06.2022
1526 Clouds 14 1007 82 10000 4.12 20 23:38 14.06.2022
1527 Clouds 14 1007 82 10000 3.09 60 22:51 14.06.2022
1528 Clouds 17 1006 59 10000 3.6 30 21:47 14.06.2022
1529 Clouds 17 1006 59 10000 3.6 30 21:26 14.06.2022
1530 Clouds 18 1006 55 10000 3.09 220 20:48 14.06.2022
1531 Clouds 19 1006 48 10000 4.63 220 19:59 14.06.2022
1532 Clear 20 1005 42 10000 2.57 190 18:45 14.06.2022
1533 Clear 20 1005 39 10000 3.6 230 17:29 14.06.2022
1534 Clear 21 1005 45 10000 4.63 200 16:43 14.06.2022
1535 Clear 19 1005 48 10000 4.63 230 15:49 14.06.2022
1536 Clear 19 1005 45 10000 5.66 210 14:57 14.06.2022
1537 Clouds 18 1005 51 10000 5.14 220 14:19 14.06.2022
1538 Rain 19 1005 45 10000 4.12 190 13:32 14.06.2022
1539 Rain 18 1005 48 10000 3.6 240 12:25 14.06.2022
1540 Clouds 20 1005 45 10000 4.12 280 10:59 14.06.2022
1541 Clouds 20 1005 45 10000 4.12 280 10:59 14.06.2022
1542 Clouds 20 1005 52 10000 3.6 240 10:33 14.06.2022
1543 Clouds 17 1005 67 10000 3.6 210 09:28 14.06.2022
1544 Clouds 16 1004 72 10000 3.09 210 08:41 14.06.2022
1545 Clear 14 1004 82 10000 2.06 200 06:54 14.06.2022
1546 Clear 12 1004 93 10000 2.06 220 04:27 14.06.2022
1547 Clear 13 1003 82 10000 2.06 230 01:50 14.06.2022
1548 Clear 14 1003 76 10000 3.09 230 00:27 14.06.2022
1549 Clear 15 1002 67 10000 2.57 170 22:59 13.06.2022
1550 Clear 16 1002 63 10000 2.57 170 22:23 13.06.2022
1551 Clear 17 1002 55 10000 3.09 150 21:41 13.06.2022
1552 Clear 17 1002 63 10000 3.09 170 19:59 13.06.2022
1553 Clear 18 1002 59 10000 4.12 110 19:18 13.06.2022
1554 Clouds 16 1002 72 10000 2.57 120 17:56 13.06.2022
1555 Rain 17 1002 59 10000 4.12 120 17:25 13.06.2022
1556 Rain 19 1002 48 10000 4.63 130 16:31 13.06.2022
1557 Rain 21 1001 40 10000 3.09 0 14:51 13.06.2022
1558 Rain 21 1001 40 10000 3.09 0 14:31 13.06.2022
1559 Clouds 21 1001 42 10000 3.09 170 13:33 13.06.2022
1560 Clouds 20 1001 45 10000 1.54 140 12:23 13.06.2022
1561 Clouds 19 1001 55 10000 3.09 220 10:56 13.06.2022
1562 Clouds 18 1001 55 10000 3.09 190 10:26 13.06.2022
1563 Clouds 16 1002 72 10000 2.57 200 08:52 13.06.2022
1564 Clouds 13 1002 82 10000 4.63 220 06:37 13.06.2022
1565 Clear 12 1002 87 10000 4.12 210 05:35 13.06.2022
1566 Clear 11 1002 87 10000 2.57 210 01:55 13.06.2022
1567 Clear 11 1002 87 10000 4.12 220 01:34 13.06.2022
1568 Clear 14 1002 67 10000 1.54 180 23:48 12.06.2022
1569 Clear 15 1003 58 10000 3.09 180 22:39 12.06.2022
1570 Clear 16 1003 58 10000 3.6 220 21:46 12.06.2022
1571 Clear 17 1003 55 10000 4.63 230 20:53 12.06.2022
1572 Clouds 18 1002 55 10000 4.12 230 19:59 12.06.2022
1573 Clouds 18 1002 55 10000 4.12 230 19:25 12.06.2022
1574 Clouds 18 1003 59 10000 3.09 220 17:36 12.06.2022
1575 Clouds 18 1003 51 10000 3.09 300 15:54 12.06.2022
1576 Clouds 18 1003 55 10000 4.12 260 14:51 12.06.2022
1577 Clouds 17 1003 63 10000 4.12 210 14:19 12.06.2022
1578 Clouds 17 1003 67 10000 5.14 230 13:46 12.06.2022
1579 Clouds 15 1004 77 10000 5.14 240 12:31 12.06.2022
1580 Clouds 15 1003 77 10000 4.12 260 11:19 12.06.2022
1581 Clouds 14 1003 82 10000 4.63 240 10:20 12.06.2022
1582 Clouds 14 1003 82 10000 6.17 210 08:51 12.06.2022
1583 Rain 14 1003 82 10000 6.17 210 08:29 12.06.2022
1584 Clouds 15 1003 77 10000 6.17 210 06:49 12.06.2022
1585 Clear 14 1004 82 10000 5.14 180 04:26 12.06.2022
1586 Clouds 13 1005 87 10000 5.14 200 02:27 12.06.2022
1587 Clear 13 1005 82 10000 6.69 190 01:35 12.06.2022
1588 Clear 14 1005 82 10000 6.17 180 00:48 12.06.2022
1589 Clear 14 1006 82 10000 6.17 180 00:19 12.06.2022
1590 Clouds 14 1007 82 10000 5.14 190 23:21 11.06.2022
1591 Clouds 15 1007 88 10000 6.69 210 22:37 11.06.2022
1592 Clouds 16 1007 94 10000 3.6 180 21:18 11.06.2022
1593 Rain 17 1008 82 10000 5.14 170 20:27 11.06.2022
1594 Rain 18 1008 67 10000 5.14 190 19:36 11.06.2022
1595 Clouds 18 1009 63 10000 5.66 210 18:45 11.06.2022
1596 Clouds 18 1009 63 10000 5.66 210 18:27 11.06.2022
1597 Clear 20 1009 48 10000 6.69 210 17:48 11.06.2022
1598 Rain 20 1009 48 10000 6.69 210 17:26 11.06.2022
1599 Clear 21 1010 37 10000 6.17 200 16:43 11.06.2022
1600 Clear 22 1010 32 10000 4.63 180 16:18 11.06.2022
1601 Clear 22 1011 28 10000 4.63 190 14:44 11.06.2022
1602 Clear 20 1012 30 10000 6.17 200 13:52 11.06.2022
1603 Clear 20 1012 27 10000 4.12 180 12:19 11.06.2022
1604 Clear 20 1012 27 10000 4.12 180 12:19 11.06.2022
1605 Clear 19 1013 29 10000 4.12 220 10:31 11.06.2022
1606 Clear 19 1014 34 10000 3.6 170 09:41 11.06.2022
1607 Clear 18 1014 48 10000 3.09 170 08:44 11.06.2022
1608 Clear 14 1015 58 10000 2.06 190 06:33 11.06.2022
1609 Clear 13 1015 58 10000 1.54 210 05:44 11.06.2022
1610 Clear 11 1015 66 10000 1.03 250 03:18 11.06.2022
1611 Clear 11 1015 62 10000 2.06 250 01:51 11.06.2022
1612 Clear 11 1015 62 10000 2.06 250 01:25 11.06.2022
1613 Clear 13 1014 47 10000 1.03 0 23:26 10.06.2022
1614 Clear 16 1014 38 10000 1.54 310 22:20 10.06.2022
1615 Clear 17 1014 36 10000 1.03 300 21:27 10.06.2022
1616 Clear 18 1014 29 10000 2.06 300 20:37 10.06.2022
1617 Clear 17 1014 33 10000 2.06 280 20:19 10.06.2022
1618 Clear 18 1014 31 10000 3.09 240 19:19 10.06.2022
1619 Clear 18 1013 31 10000 3.09 260 18:30 10.06.2022
1620 Clear 18 1014 31 10000 2.06 0 17:43 10.06.2022
1621 Clear 18 1014 31 10000 3.6 230 17:21 10.06.2022
1622 Clear 18 1014 34 10000 3.09 300 16:25 10.06.2022
1623 Clear 17 1014 33 10000 2.57 0 15:37 10.06.2022
1624 Clear 17 1014 33 10000 2.57 300 13:57 10.06.2022
1625 Clear 16 1014 36 10000 3.6 320 12:50 10.06.2022
1626 Clear 15 1014 38 10000 3.09 300 11:43 10.06.2022
1627 Clear 14 1013 41 10000 2.06 0 10:45 10.06.2022
1628 Clear 14 1013 44 10000 4.12 360 09:54 10.06.2022
1629 Clear 13 1013 50 10000 3.6 340 08:42 10.06.2022
1630 Clear 11 1013 57 10000 3.6 350 07:26 10.06.2022
1631 Clear 10 1012 57 10000 4.63 340 06:44 10.06.2022
1632 Clear 10 1012 57 10000 4.63 340 06:25 10.06.2022
1633 Clear 9 1011 61 10000 5.66 340 03:55 10.06.2022
1634 Clear 11 1010 53 10000 4.12 340 01:41 10.06.2022
1635 Clear 12 1009 58 10000 3.6 360 00:32 10.06.2022
1636 Clear 13 1008 54 10000 2.06 300 23:39 09.06.2022
1637 Clear 15 1008 47 10000 1.03 290 22:18 09.06.2022
1638 Clear 15 1008 47 10000 1.54 290 21:33 09.06.2022
1639 Clear 16 1007 47 10000 1.54 310 20:54 09.06.2022
1640 Clear 15 1007 54 10000 1.03 0 20:21 09.06.2022
1641 Clear 15 1007 51 10000 2.06 340 19:19 09.06.2022
1642 Clear 15 1007 54 10000 2.06 360 18:21 09.06.2022
1643 Clear 16 1007 51 10000 4.12 330 16:50 09.06.2022
1644 Clouds 16 1006 47 10000 5.14 330 15:48 09.06.2022
1645 Clouds 16 1006 47 10000 5.14 330 15:48 09.06.2022
1646 Clear 16 1006 51 10000 3.09 30 14:35 09.06.2022
1647 Rain 15 1006 58 10000 3.09 20 13:51 09.06.2022
1648 Rain 15 1006 58 10000 3.09 20 13:27 09.06.2022
1649 Clouds 14 1007 67 10000 3.6 360 11:54 09.06.2022
1650 Clouds 13 1007 71 10000 4.63 350 11:18 09.06.2022
1651 Clouds 13 1006 71 10000 3.6 10 09:43 09.06.2022
1652 Clouds 13 1006 71 10000 3.6 10 09:23 09.06.2022
1653 Clouds 13 1006 66 10000 5.14 20 07:45 09.06.2022
1654 Clear 12 1007 71 10000 4.12 20 06:28 09.06.2022
1655 Clear 12 1006 76 10000 4.12 10 02:38 09.06.2022
1656 Rain 13 1007 71 10000 2.57 20 23:36 08.06.2022
1657 Rain 14 1007 62 10000 3.6 20 22:58 08.06.2022
1658 Rain 14 1007 62 10000 3.6 360 22:26 08.06.2022
1659 Clear 15 1007 54 10000 3.09 350 21:52 08.06.2022
1660 Clear 16 1006 51 10000 2.57 10 20:59 08.06.2022
1661 Clear 17 1007 33 10000 2.57 320 19:56 08.06.2022
1662 Clear 18 1006 42 10000 4.12 220 19:27 08.06.2022
1663 Clear 19 1006 45 10000 5.14 220 18:42 08.06.2022
1664 Clear 19 1007 34 10000 1.54 120 16:39 08.06.2022
1665 Clear 18 1008 36 10000 1.03 0 15:27 08.06.2022
1666 Rain 15 1009 44 10000 2.57 240 13:44 08.06.2022
1667 Clear 17 1010 36 10000 6.69 220 11:51 08.06.2022
1668 Clear 17 1010 36 10000 6.69 220 11:25 08.06.2022
1669 Clouds 15 1010 44 10000 5.66 220 09:48 08.06.2022
1670 Clouds 15 1010 47 10000 4.63 210 09:20 08.06.2022
1671 Clear 13 1010 47 10000 3.09 200 08:18 08.06.2022
1672 Clear 9 1011 71 10000 1.54 240 05:36 08.06.2022
1673 Clear 8 1011 65 10000 2.06 250 03:20 08.06.2022
1674 Clear 9 1011 57 10000 3.6 220 00:28 08.06.2022
1675 Clear 11 1010 43 10000 1.03 290 23:25 07.06.2022
1676 Clear 13 1010 37 10000 1.54 310 22:42 07.06.2022
1677 Clear 14 1010 33 10000 1.54 300 22:20 07.06.2022
1678 Clear 15 1010 30 10000 1.54 290 21:28 07.06.2022
1679 Clear 15 1010 30 10000 2.06 290 20:52 07.06.2022
1680 Clear 15 1010 30 10000 2.57 280 20:31 07.06.2022
1681 Clear 16 1010 29 10000 3.6 290 19:24 07.06.2022
1682 Clear 16 1010 29 10000 4.12 270 17:57 07.06.2022
1683 Clear 16 1010 25 10000 4.12 250 17:21 07.06.2022
1684 Clear 16 1010 26 10000 3.6 290 16:41 07.06.2022
1685 Clear 16 1010 25 10000 4.63 280 15:43 07.06.2022
1686 Clear 16 1010 25 10000 4.63 280 15:23 07.06.2022
1687 Clear 16 1009 29 10000 3.6 270 14:46 07.06.2022
1688 Clear 16 1009 26 10000 5.14 280 13:58 07.06.2022
1689 Clear 15 1009 33 10000 4.63 270 13:29 07.06.2022
1690 Clear 16 1009 33 10000 4.63 270 12:44 07.06.2022
1691 Clouds 14 1009 47 10000 5.14 290 11:22 07.06.2022
1692 Clouds 13 1008 58 10000 3.09 270 10:19 07.06.2022
1693 Clouds 11 1008 76 10000 3.09 230 08:36 07.06.2022
1694 Clear 9 1008 81 10000 3.09 230 07:22 07.06.2022
1695 Clear 8 1009 76 10000 4.12 180 05:48 07.06.2022
1696 Clear 6 1011 81 10000 4.63 170 02:48 07.06.2022
1697 Clear 7 1013 75 10000 4.63 210 00:35 07.06.2022
1698 Clear 9 1013 66 10000 4.63 210 23:34 06.06.2022
1699 Clear 9 1013 66 10000 5.66 220 22:41 06.06.2022
1700 Clear 10 1014 57 10000 5.66 220 21:41 06.06.2022
1701 Clear 13 1014 43 10000 7.2 230 19:59 06.06.2022
1702 Clear 14 1014 47 10000 6.17 230 19:21 06.06.2022
1703 Clear 15 1014 35 10000 2.57 210 18:38 06.06.2022
1704 Clear 15 1014 38 10000 2.57 220 17:42 06.06.2022
1705 Clear 15 1015 35 10000 3.6 260 16:39 06.06.2022
1706 Clear 15 1015 35 10000 4.12 220 15:40 06.06.2022
1707 Clear 15 1015 35 10000 3.09 0 14:40 06.06.2022
1708 Clear 13 1016 37 10000 3.6 260 13:27 06.06.2022
1709 Clear 12 1016 40 10000 3.6 0 12:38 06.06.2022
1710 Clear 12 1016 40 10000 3.6 280 12:19 06.06.2022
1711 Clear 13 1016 37 10000 3.09 0 11:42 06.06.2022
1712 Clear 12 1016 40 10000 4.63 300 09:41 06.06.2022
1713 Clouds 11 1016 43 10000 4.12 290 08:35 06.06.2022
1714 Clouds 10 1015 49 10000 3.6 330 07:37 06.06.2022
1715 Clear 8 1015 57 10000 3.09 310 05:29 06.06.2022
1716 Clear 8 1015 57 10000 3.09 310 05:29 06.06.2022
1717 Clear 8 1015 57 10000 3.09 310 05:29 06.06.2022
1718 Clear 6 1014 65 10000 2.06 320 03:46 06.06.2022
1719 Clear 7 1013 56 10000 1.54 300 01:29 06.06.2022
1720 Clear 8 1013 53 10000 2.57 310 00:42 06.06.2022
1721 Clear 9 1012 53 10000 2.06 300 23:44 05.06.2022
1722 Clear 10 1012 49 10000 2.06 300 22:47 05.06.2022
1723 Clear 12 1011 43 10000 2.06 290 20:59 05.06.2022
1724 Clear 14 1010 35 10000 4.12 300 19:50 05.06.2022
1725 Clouds 14 1010 38 10000 5.14 330 18:30 05.06.2022
1726 Clear 14 1010 35 10000 1.54 220 17:55 05.06.2022
1727 Clouds 13 1010 50 10000 5.66 340 17:27 05.06.2022
1728 Rain 13 1010 50 10000 5.66 340 16:52 05.06.2022
1729 Clear 13 1010 37 10000 6.69 250 16:34 05.06.2022
1730 Clear 15 1009 33 10000 4.12 260 14:34 05.06.2022
1731 Clear 14 1009 44 10000 3.09 270 12:57 05.06.2022
1732 Clear 14 1009 47 10000 5.66 230 11:49 05.06.2022
1733 Clouds 15 1008 51 10000 4.63 250 10:42 05.06.2022
1734 Clouds 14 1008 50 10000 4.63 250 10:20 05.06.2022
1735 Clear 13 1008 58 10000 4.63 240 08:40 05.06.2022
1736 Clear 12 1008 71 10000 4.12 230 07:48 05.06.2022
1737 Clear 10 1008 76 10000 3.6 240 05:23 05.06.2022
1738 Clear 10 1008 76 10000 3.09 230 04:30 05.06.2022
1739 Clear 12 1007 71 10000 3.09 250 01:33 05.06.2022
1740 Clear 12 1007 87 10000 4.12 230 00:39 05.06.2022
1741 Clear 13 1007 87 10000 3.09 240 22:36 04.06.2022
1742 Clear 14 1007 82 10000 3.6 220 20:33 04.06.2022
1743 Clouds 15 1007 72 10000 4.63 230 18:51 04.06.2022
1744 Clouds 15 1007 77 10000 1.03 0 16:47 04.06.2022
1745 Clouds 13 1008 76 3000 3.6 0 16:18 04.06.2022
1746 Clouds 16 1007 72 10000 2.57 240 14:53 04.06.2022
1747 Rain 13 1008 87 10000 3.09 260 12:38 04.06.2022
1748 Rain 14 1007 88 10000 2.57 240 11:19 04.06.2022
1749 Clouds 15 1007 77 10000 3.09 210 10:44 04.06.2022
1750 Clouds 13 1007 87 10000 2.57 200 09:44 04.06.2022
1751 Clouds 12 1007 87 10000 3.09 240 08:43 04.06.2022
1752 Clouds 12 1007 93 10000 3.09 230 07:41 04.06.2022
1753 Clear 11 1007 93 10000 1.54 220 05:29 04.06.2022
1754 Clear 11 1007 93 10000 2.06 190 01:42 04.06.2022
1755 Clouds 10 1007 100 10000 1.54 170 23:59 03.06.2022
1756 Clear 11 1007 93 10000 1.54 90 22:40 03.06.2022
1757 Clouds 11 1007 93 10000 1.54 100 21:30 03.06.2022
1758 Rain 11 1007 93 10000 1.03 50 20:37 03.06.2022
1759 Rain 11 1007 93 10000 1.03 50 20:37 03.06.2022
1760 Rain 11 1007 93 10000 1.03 50 20:37 03.06.2022
1761 Rain 11 1007 93 10000 1.54 270 18:28 03.06.2022
1762 Rain 14 1007 88 10000 2.57 120 16:47 03.06.2022
1763 Rain 14 1008 88 10000 2.57 170 15:37 03.06.2022
1764 Rain 14 1008 88 10000 5.14 80 13:28 03.06.2022
1765 Clouds 13 1009 87 10000 5.66 70 11:40 03.06.2022
1766 Rain 11 1010 100 10000 4.12 70 09:45 03.06.2022
1767 Rain 11 1011 100 10000 4.12 110 08:58 03.06.2022
1768 Clouds 13 1010 82 10000 4.63 90 07:27 03.06.2022
1769 Clear 12 1010 87 10000 4.12 90 06:35 03.06.2022
1770 Clear 11 1010 93 10000 4.12 110 05:52 03.06.2022
1771 Clouds 12 1010 93 10000 4.12 90 00:30 03.06.2022
1772 Clouds 12 1010 93 10000 4.63 70 22:45 02.06.2022
1773 Clouds 12 1010 93 10000 4.12 80 21:51 02.06.2022
1774 Rain 13 1011 87 10000 4.63 100 20:22 02.06.2022
1775 Rain 13 1011 87 10000 4.63 100 20:22 02.06.2022
1776 Rain 13 1011 87 10000 4.63 100 20:22 02.06.2022
1777 Rain 15 1011 77 10000 3.6 70 19:50 02.06.2022
1778 Rain 15 1011 77 10000 3.6 70 19:31 02.06.2022
1779 Clear 19 1012 48 10000 7.72 60 17:32 02.06.2022
1780 Rain 19 1013 45 10000 5.66 90 16:27 02.06.2022
1781 Clear 20 1014 42 10000 7.72 80 14:22 02.06.2022
1782 Clear 21 1014 37 10000 6.69 60 13:30 02.06.2022
1783 Clear 20 1016 37 10000 5.14 90 12:21 02.06.2022
1784 Clear 19 1017 42 10000 4.63 80 10:20 02.06.2022
1785 Clear 18 1018 45 10000 5.14 80 09:28 02.06.2022
1786 Clouds 18 1018 48 10000 4.12 90 08:27 02.06.2022
1787 Clear 17 1019 59 10000 3.09 80 07:33 02.06.2022
1788 Clear 13 1020 76 10000 2.57 50 04:54 02.06.2022
1789 Clear 12 1020 76 10000 2.57 80 02:48 02.06.2022
1790 Clear 14 1020 67 10000 1.54 160 23:50 01.06.2022
1791 Clouds 13 1020 71 10000 1.54 160 22:32 01.06.2022
1792 Clouds 15 1020 62 10000 1.03 100 21:37 01.06.2022
1793 Clouds 16 1020 58 10000 1.54 140 20:58 01.06.2022
1794 Clear 16 1019 58 10000 2.06 170 20:37 01.06.2022
1795 Clear 16 1019 58 10000 2.06 180 19:25 01.06.2022
1796 Clear 17 1019 48 10000 4.12 170 17:44 01.06.2022
1797 Clouds 17 1019 51 10000 5.66 180 16:38 01.06.2022
1798 Clouds 16 1019 63 10000 4.12 120 14:54 01.06.2022
1799 Clouds 16 1019 67 10000 4.63 100 13:53 01.06.2022
1800 Clouds 14 1019 76 10000 5.14 100 12:26 01.06.2022
1801 Clouds 14 1019 76 10000 5.14 100 12:26 01.06.2022
1802 Rain 12 1019 76 10000 4.63 100 09:41 01.06.2022
1803 Rain 12 1019 76 10000 5.14 100 08:52 01.06.2022
1804 Clouds 11 1019 81 10000 6.69 90 07:24 01.06.2022
1805 Clear 13 1019 54 10000 5.66 90 05:52 01.06.2022
1806 Clear 15 1020 41 10000 4.63 70 00:40 01.06.2022
1807 Clear 16 1020 44 10000 5.14 80 23:28 31.05.2022
1808 Clear 17 1020 44 10000 3.6 90 22:37 31.05.2022
1809 Clear 19 1020 45 10000 6.69 100 21:46 31.05.2022
1810 Clear 20 1019 42 10000 6.17 100 20:45 31.05.2022
1811 Clear 21 1019 37 10000 5.14 90 20:18 31.05.2022
1812 Clear 21 1019 40 10000 6.69 90 18:53 31.05.2022
1813 Clear 22 1020 37 10000 6.69 90 17:50 31.05.2022
1814 Clear 21 1020 40 10000 6.69 100 16:57 31.05.2022
1815 Clear 21 1021 42 10000 7.2 80 15:41 31.05.2022
1816 Clear 20 1021 45 10000 6.69 90 14:18 31.05.2022
1817 Clouds 19 1022 52 10000 6.69 90 12:20 31.05.2022
1818 Clouds 18 1022 55 10000 6.69 100 10:55 31.05.2022
1819 Clouds 17 1022 63 10000 5.66 70 09:31 31.05.2022
1820 Clear 14 1022 71 10000 5.14 70 07:25 31.05.2022
1821 Clouds 14 1022 71 10000 4.12 80 05:20 31.05.2022
1822 Clear 15 1022 62 10000 3.6 90 00:52 31.05.2022
1823 Clear 15 1021 62 10000 3.6 130 23:27 30.05.2022
1824 Clear 16 1021 58 10000 3.6 110 22:56 30.05.2022
1825 Clear 17 1021 55 10000 2.57 90 21:52 30.05.2022
1826 Clear 17 1020 55 10000 3.09 110 21:32 30.05.2022
1827 Clear 19 1019 48 10000 4.12 90 20:20 30.05.2022
1828 Clear 20 1019 45 10000 2.57 120 18:41 30.05.2022
1829 Clear 21 1018 40 10000 5.66 60 17:36 30.05.2022
1830 Clear 21 1018 40 10000 5.66 60 16:41 30.05.2022
1831 Clear 21 1018 40 10000 5.66 60 16:41 30.05.2022
1832 Clear 20 1019 45 10000 6.69 80 14:49 30.05.2022
1833 Clear 18 1018 45 10000 6.69 60 12:24 30.05.2022
1834 Clear 16 1017 51 10000 5.14 60 10:41 30.05.2022
1835 Clear 14 1017 58 10000 4.63 30 09:21 30.05.2022
1836 Clouds 11 1017 71 10000 3.6 30 07:18 30.05.2022
1837 Clear 10 1016 76 10000 3.6 30 05:48 30.05.2022
1838 Clouds 10 1014 81 10000 6.17 40 01:42 30.05.2022
1839 Clouds 11 1013 81 10000 4.63 40 22:57 29.05.2022
1840 Clouds 11 1013 81 10000 4.63 30 22:36 29.05.2022
1841 Clouds 12 1012 76 10000 5.66 30 20:54 29.05.2022
1842 Clouds 13 1011 71 10000 5.66 30 19:32 29.05.2022
1843 Clouds 13 1011 71 10000 4.63 10 18:44 29.05.2022
1844 Clouds 14 1010 67 10000 6.69 40 17:31 29.05.2022
1845 Clear 17 1009 51 10000 5.14 360 15:48 29.05.2022
1846 Clouds 18 1009 48 10000 7.2 30 14:58 29.05.2022
1847 Clouds 18 1008 48 10000 7.2 20 13:53 29.05.2022
1848 Clouds 17 1008 51 10000 5.14 50 11:41 29.05.2022
1849 Clouds 15 1008 62 10000 4.12 80 10:38 29.05.2022
1850 Clouds 12 1007 87 10000 6.17 70 08:51 29.05.2022
1851 Rain 11 1006 87 10000 5.14 60 05:54 29.05.2022
1852 Clear 11 1005 81 10000 5.14 60 04:44 29.05.2022
1853 Clear 11 1005 87 10000 5.14 60 03:41 29.05.2022
1854 Clear 10 1003 87 10000 3.6 10 23:49 28.05.2022
1855 Clear 10 1003 87 10000 3.6 10 23:26 28.05.2022
1856 Clouds 9 1003 87 10000 3.6 350 22:33 28.05.2022
1857 Clouds 10 1003 81 10000 3.09 340 21:34 28.05.2022
1858 Clouds 12 1002 71 10000 2.57 20 19:41 28.05.2022
1859 Clouds 11 1002 71 10000 2.06 50 18:47 28.05.2022
1860 Clear 11 1001 71 10000 3.09 90 17:36 28.05.2022
1861 Clouds 10 1000 76 10000 3.6 80 16:37 28.05.2022
1862 Clouds 10 1000 76 10000 3.6 120 15:39 28.05.2022
1863 Rain 10 999 71 10000 3.6 120 14:18 28.05.2022
1864 Clouds 10 997 66 10000 4.12 100 12:44 28.05.2022
1865 Clouds 9 997 71 10000 3.6 110 12:18 28.05.2022
1866 Clouds 8 996 76 10000 3.6 150 10:51 28.05.2022
1867 Clouds 8 995 70 10000 3.09 130 09:57 28.05.2022
1868 Clouds 7 994 87 10000 3.09 120 08:45 28.05.2022
1869 Clouds 7 993 93 10000 2.57 150 07:23 28.05.2022
1870 Clouds 6 991 93 10000 1.54 120 05:24 28.05.2022
1871 Drizzle 5 990 100 3100 1.03 0 02:38 28.05.2022
1872 Clouds 6 990 93 10000 2.06 330 00:32 28.05.2022
1873 Clouds 6 990 93 10000 3.6 320 22:51 27.05.2022
1874 Clouds 7 990 87 10000 3.09 340 21:43 27.05.2022
1875 Clouds 7 990 87 10000 3.6 340 20:49 27.05.2022
1876 Clouds 7 990 87 10000 3.6 340 20:23 27.05.2022
1877 Rain 7 990 87 10000 3.09 340 19:41 27.05.2022
1878 Clouds 6 991 93 10000 3.09 350 19:21 27.05.2022
1879 Clouds 7 991 87 10000 6.69 30 17:34 27.05.2022
1880 Clouds 7 991 93 10000 7.2 20 16:36 27.05.2022
1881 Clouds 7 991 93 10000 4.12 10 15:22 27.05.2022
1882 Rain 8 991 93 10000 5.66 20 13:44 27.05.2022
1883 Clouds 9 992 81 10000 4.12 360 12:35 27.05.2022
1884 Clouds 9 992 81 10000 5.14 10 11:33 27.05.2022
1885 Clouds 9 993 87 10000 4.63 20 10:52 27.05.2022
1886 Clouds 8 993 87 10000 5.66 20 10:22 27.05.2022
1887 Clouds 8 994 87 10000 5.14 10 09:31 27.05.2022
1888 Rain 8 995 93 10000 4.63 10 07:41 27.05.2022
1889 Rain 9 996 93 10000 3.6 10 05:27 27.05.2022
1890 Clear 12 999 43 10000 3.09 20 01:47 27.05.2022
1891 Clear 13 1000 37 10000 2.57 20 23:55 26.05.2022
1892 Clear 13 1000 37 10000 2.57 50 22:29 26.05.2022
1893 Clear 15 1001 30 10000 2.06 70 21:33 26.05.2022
1894 Clear 17 1002 33 10000 5.14 70 19:49 26.05.2022
1895 Clear 17 1002 36 10000 5.14 80 19:18 26.05.2022
1896 Clear 17 1002 36 10000 5.14 80 19:18 26.05.2022
1897 Clear 18 1002 29 10000 4.12 90 17:36 26.05.2022
1898 Clear 18 1003 25 10000 5.66 90 16:31 26.05.2022
1899 Clear 18 1003 22 10000 5.14 100 15:33 26.05.2022
1900 Clear 18 1004 20 10000 5.14 100 14:21 26.05.2022
1901 Clear 18 1005 27 10000 4.63 110 12:20 26.05.2022
1902 Clear 17 1005 36 10000 5.66 100 11:21 26.05.2022
1903 Clear 14 1006 41 10000 6.17 150 09:39 26.05.2022
1904 Clear 13 1006 50 10000 6.17 110 08:51 26.05.2022
1905 Clear 11 1007 50 10000 6.17 110 06:51 26.05.2022
1906 Clear 11 1008 46 10000 4.63 100 02:54 26.05.2022
1907 Clear 14 1008 35 10000 4.12 120 00:19 26.05.2022
1908 Clear 15 1008 35 10000 4.12 120 22:58 25.05.2022
1909 Clear 17 1008 33 10000 3.6 120 21:44 25.05.2022
1910 Clear 19 1008 32 10000 3.09 130 20:50 25.05.2022
1911 Clear 20 1008 30 10000 3.09 130 19:56 25.05.2022
1912 Clear 21 1008 26 10000 3.6 140 18:48 25.05.2022
1913 Clear 21 1009 26 10000 4.63 160 17:26 25.05.2022
1914 Clear 22 1009 26 10000 5.14 160 16:34 25.05.2022
1915 Clear 22 1009 26 10000 6.17 180 15:36 25.05.2022
1916 Clear 23 1010 24 10000 6.17 180 14:50 25.05.2022
1917 Clear 23 1010 24 10000 6.17 180 14:32 25.05.2022
1918 Clear 22 1010 26 10000 4.12 210 13:23 25.05.2022
1919 Clouds 19 1011 32 10000 4.7 170 11:50 25.05.2022
1920 Clear 19 1011 32 10000 5.14 170 10:42 25.05.2022
1921 Clear 18 1012 31 10000 5.14 160 09:45 25.05.2022
1922 Clouds 14 1012 41 10000 3.92 167 07:42 25.05.2022
1923 Clear 11 1013 40 10000 3.6 130 05:57 25.05.2022
1924 Clear 11 1013 50 10000 3.6 140 02:44 25.05.2022
1925 Clear 13 1012 43 10000 4.63 120 23:52 24.05.2022
1926 Clear 15 1012 35 10000 3.09 120 22:59 24.05.2022
1927 Clear 16 1012 33 10000 3.09 130 21:58 24.05.2022
1928 Clear 16 1012 33 10000 3.09 130 21:37 24.05.2022
1929 Clear 16 1012 33 10000 2.57 140 21:19 24.05.2022
1930 Clear 19 1012 25 10000 3.6 170 19:28 24.05.2022
1931 Clear 19 1012 27 10000 4.12 220 18:38 24.05.2022
1932 Clear 19 1012 25 10000 4.12 230 16:40 24.05.2022
1933 Clear 20 1012 24 10000 4.12 240 15:52 24.05.2022
1934 Clear 20 1012 26 10000 5.14 230 14:41 24.05.2022
1935 Clear 19 1012 29 10000 5.66 220 13:48 24.05.2022
1936 Clear 18 1012 31 10000 5.14 200 12:31 24.05.2022
1937 Clear 16 1013 33 10000 4.63 190 09:52 24.05.2022
1938 Clear 15 1013 38 10000 2.57 190 08:57 24.05.2022
1939 Clear 14 1013 47 10000 2.06 170 08:38 24.05.2022
1940 Clear 10 1013 57 10000 3.09 150 06:41 24.05.2022
1941 Clear 7 1012 65 10000 3.6 130 03:41 24.05.2022
1942 Clear 9 1012 57 10000 2.57 160 01:47 24.05.2022
1943 Clear 11 1012 46 10000 2.57 180 00:34 24.05.2022
1944 Clear 12 1011 46 10000 3.09 230 22:25 23.05.2022
1945 Clear 13 1011 43 10000 2.06 240 21:53 23.05.2022
1946 Clear 14 1011 44 10000 2.57 230 20:53 23.05.2022
1947 Clouds 16 1011 38 10000 2.57 190 19:56 23.05.2022
1948 Clouds 16 1011 51 10000 3.09 130 19:27 23.05.2022
1949 Clear 16 1011 55 10000 4.12 110 18:41 23.05.2022
1950 Clear 16 1011 58 10000 4.63 100 17:56 23.05.2022
1951 Clouds 17 1011 51 10000 4.12 100 16:40 23.05.2022
1952 Clouds 16 1011 58 10000 3.6 110 14:20 23.05.2022
1953 Clouds 11 1012 76 10000 4.63 90 11:57 23.05.2022
1954 Clouds 10 1012 81 10000 4.12 90 10:58 23.05.2022
1955 Clouds 8 1012 93 10000 3.09 90 09:48 23.05.2022
1956 Clouds 7 1012 100 10000 3.6 100 08:47 23.05.2022
1957 Mist 7 1012 93 5000 4.63 100 07:37 23.05.2022
1958 Clouds 6 1012 100 500 4.12 80 06:41 23.05.2022
1959 Fog 7 1012 100 400 4.63 80 03:52 23.05.2022
1960 Fog 8 1011 100 150 3.6 80 02:18 23.05.2022
1961 Fog 8 1011 100 250 3.6 90 01:32 23.05.2022
1962 Clear 10 1011 93 10000 2.57 150 23:18 22.05.2022
1963 Clear 11 1011 87 10000 2.57 160 22:33 22.05.2022
1964 Clear 11 1011 93 10000 3.6 160 21:53 22.05.2022
1965 Clouds 13 1011 87 10000 3.09 100 20:50 22.05.2022
1966 Clouds 13 1011 76 10000 1.54 340 20:23 22.05.2022
1967 Clouds 13 1010 82 10000 2.06 270 19:39 22.05.2022
1968 Clouds 13 1011 82 9000 3.09 280 18:52 22.05.2022
1969 Rain 13 1010 82 10000 4.12 250 18:21 22.05.2022
1970 Rain 14 1010 71 10000 5.14 230 17:26 22.05.2022
1971 Thunderstorm 18 1010 42 10000 1.54 340 15:57 22.05.2022
1972 Clouds 19 1010 39 10000 1.54 0 14:47 22.05.2022
1973 Clouds 18 1010 45 10000 3.09 350 13:22 22.05.2022
1974 Clear 17 1010 44 10000 3.09 180 12:48 22.05.2022
1975 Clear 16 1010 44 10000 2.57 220 11:29 22.05.2022
1976 Clear 13 1010 54 10000 2.06 200 09:40 22.05.2022
1977 Clear 11 1010 57 10000 4.12 210 07:54 22.05.2022
1978 Clear 10 1010 66 10000 2.57 210 07:20 22.05.2022
1979 Clouds 9 1011 71 10000 2.06 0 04:49 22.05.2022
1980 Rain 9 1011 66 10000 4.12 210 01:21 22.05.2022
1981 Rain 10 1011 57 10000 4.63 210 00:26 22.05.2022
1982 Clear 10 1012 61 10000 3.6 220 23:47 21.05.2022
1983 Rain 11 1012 53 10000 3.09 220 22:24 21.05.2022
1984 Clouds 13 1012 40 10000 3.09 210 21:39 21.05.2022
1985 Clear 14 1012 38 10000 5.14 220 20:48 21.05.2022
1986 Clear 14 1012 38 10000 5.66 210 20:19 21.05.2022
1987 Clear 14 1012 38 10000 5.66 220 19:24 21.05.2022
1988 Clear 14 1012 44 10000 4.12 190 17:35 21.05.2022
1989 Clear 12 1012 58 10000 4.12 170 15:38 21.05.2022
1990 Rain 13 1013 54 10000 4.63 200 14:36 21.05.2022
1991 Rain 12 1013 62 10000 4.12 180 13:36 21.05.2022
1992 Rain 14 1013 44 10000 5.14 190 12:40 21.05.2022
1993 Clear 15 1013 41 10000 5.14 170 11:54 21.05.2022
1994 Clear 12 1013 46 10000 3.6 150 10:22 21.05.2022
1995 Clouds 9 1013 61 10000 3.6 130 09:20 21.05.2022
1996 Clouds 8 1013 65 10000 2.57 130 08:47 21.05.2022
1997 Clouds 7 1015 88 10000 1.64 123 06:22 21.05.2022
1998 Clear 9 1014 53 10000 2.57 160 02:24 21.05.2022
1999 Clear 11 1015 43 10000 2.06 140 23:44 20.05.2022
2000 Clear 11 1015 43 10000 2.57 160 22:41 20.05.2022
2001 Clear 11 1015 43 10000 2.57 140 22:18 20.05.2022
2002 Clear 11 1015 43 10000 1.54 130 21:19 20.05.2022
2003 Clear 12 1015 40 10000 1.03 0 20:51 20.05.2022
2004 Clear 12 1015 37 10000 1.54 190 19:55 20.05.2022
2005 Clear 12 1015 35 10000 3.09 220 18:58 20.05.2022
2006 Clear 12 1016 37 10000 4.12 230 18:24 20.05.2022
2007 Clear 13 1016 35 10000 5.66 230 16:28 20.05.2022
2008 Clear 15 1016 28 10000 4.12 210 15:54 20.05.2022
2009 Clear 14 1016 30 10000 4.12 230 15:32 20.05.2022
2010 Clear 15 1016 28 10000 5.14 250 14:27 20.05.2022
2011 Clear 14 1017 28 10000 3.6 190 13:31 20.05.2022
2012 Clear 12 1018 37 10000 4.12 230 10:48 20.05.2022
2013 Clear 11 1019 37 10000 4.63 220 09:32 20.05.2022
2014 Clear 9 1019 46 10000 3.6 240 08:37 20.05.2022
2015 Clear 6 1019 60 10000 2.57 230 06:44 20.05.2022
2016 Clear 5 1019 65 10000 3.09 230 05:52 20.05.2022
2017 Clear 5 1019 65 10000 1.54 140 02:52 20.05.2022
2018 Clear 6 1019 56 10000 3.6 130 23:47 19.05.2022
2019 Clear 6 1019 56 10000 3.6 120 22:37 19.05.2022
2020 Clear 8 1019 45 10000 2.57 110 21:51 19.05.2022
2021 Clear 8 1019 45 10000 2.57 110 21:24 19.05.2022
2022 Clear 10 1019 37 10000 2.57 100 20:52 19.05.2022
2023 Clear 10 1019 40 10000 1.54 70 19:57 19.05.2022
2024 Clear 11 1019 34 10000 1.03 0 19:19 19.05.2022
2025 Clear 10 1019 37 10000 1.54 310 17:46 19.05.2022
2026 Clear 11 1019 37 10000 3.09 10 15:58 19.05.2022
2027 Clear 10 1020 37 10000 2.57 0 14:49 19.05.2022
2028 Clear 9 1020 39 10000 3.09 350 14:20 19.05.2022
2029 Clouds 8 1020 45 10000 3.09 20 12:19 19.05.2022
2030 Clouds 5 1020 52 10000 4.12 320 10:31 19.05.2022
2031 Clouds 5 1020 52 10000 3.09 320 08:46 19.05.2022
2032 Clouds 3 1020 60 10000 3.09 360 07:24 19.05.2022
2033 Clear 0 1019 69 10000 2.57 330 04:23 19.05.2022
2034 Clear 1 1018 64 10000 3.09 340 01:28 19.05.2022
2035 Clear 2 1017 60 10000 2.06 20 23:43 18.05.2022
2036 Clear 3 1017 55 10000 2.57 40 22:44 18.05.2022
2037 Clear 4 1017 52 10000 3.6 30 21:45 18.05.2022
2038 Clear 6 1016 42 10000 3.09 10 21:23 18.05.2022
2039 Clear 6 1016 42 10000 5.14 30 20:21 18.05.2022
2040 Clear 7 1016 36 10000 5.66 360 18:56 18.05.2022
2041 Clear 8 1016 33 10000 5.66 350 17:57 18.05.2022
2042 Clear 8 1016 36 10000 6.69 10 17:37 18.05.2022
2043 Clear 8 1015 33 10000 7.2 350 17:18 18.05.2022
2044 Clear 8 1015 36 10000 7.2 360 15:58 18.05.2022
2045 Clear 8 1015 33 10000 6.69 350 15:35 18.05.2022
2046 Clear 8 1015 39 10000 7.2 340 14:21 18.05.2022
2047 Clear 7 1015 39 10000 7.2 340 12:55 18.05.2022
2048 Clear 7 1015 39 10000 7.2 340 12:24 18.05.2022
2049 Clouds 7 1015 49 10000 5.14 350 11:33 18.05.2022
2050 Clouds 7 1015 52 10000 5.66 350 10:43 18.05.2022
2051 Clouds 6 1014 65 10000 5.14 330 08:19 18.05.2022
2052 Clouds 6 1014 70 10000 5.66 340 07:27 18.05.2022
2053 Clouds 2 1013 75 10000 3.09 230 03:40 18.05.2022
2054 Rain 3 1014 69 10000 3.6 250 00:51 18.05.2022
2055 Clouds 3 1015 69 10000 3.6 220 23:33 17.05.2022
2056 Clear 4 1017 65 10000 1.54 240 21:21 17.05.2022
2057 Clouds 4 1017 65 10000 2.06 230 20:43 17.05.2022
2058 Clouds 4 1018 65 10000 2.57 270 19:31 17.05.2022
2059 Clouds 4 1019 60 10000 4.12 270 18:46 17.05.2022
2060 Rain 5 1019 52 10000 4.63 280 17:34 17.05.2022
2061 Clear 6 1019 45 10000 3.6 270 16:55 17.05.2022
2062 Clouds 5 1020 45 10000 3.09 300 15:49 17.05.2022
2063 Clouds 5 1021 45 10000 2.57 350 14:52 17.05.2022
2064 Clouds 5 1021 45 10000 2.57 350 14:28 17.05.2022
2065 Clouds 4 1022 52 10000 3.09 330 12:37 17.05.2022
2066 Clouds 4 1022 56 10000 3.6 340 10:23 17.05.2022
2067 Clouds 3 1022 75 10000 5.66 10 08:51 17.05.2022
2068 Clouds 2 1022 80 10000 5.14 20 07:41 17.05.2022
2069 Snow 1 1021 93 10000 5.14 360 06:21 17.05.2022
2070 Clouds 2 1018 93 10000 5.14 10 00:47 17.05.2022
2071 Snow 2 1018 93 10000 5.14 360 23:35 16.05.2022
2072 Snow 2 1017 93 10000 5.66 360 22:33 16.05.2022
2073 Snow 2 1016 93 8000 5.14 360 20:56 16.05.2022
2074 Snow 2 1015 93 4900 5.14 350 20:33 16.05.2022
2075 Rain 3 1014 93 10000 4.63 350 18:41 16.05.2022
2076 Clouds 5 1013 81 10000 4.12 340 16:41 16.05.2022
2077 Clouds 6 1012 75 10000 5.66 330 14:48 16.05.2022
2078 Clouds 6 1012 75 10000 4.63 320 13:34 16.05.2022
2079 Clouds 6 1012 75 10000 3.6 330 12:34 16.05.2022
2080 Clouds 6 1011 70 10000 6.17 320 10:34 16.05.2022
2081 Clouds 5 1010 81 10000 5.14 330 07:47 16.05.2022
2082 Clouds 4 1009 81 10000 4.12 320 05:40 16.05.2022
2083 Clear 6 1007 81 10000 3.09 360 00:44 16.05.2022
2084 Clear 8 1007 70 10000 2.57 350 22:42 15.05.2022
2085 Clear 8 1006 70 10000 1.54 350 21:54 15.05.2022
2086 Clear 9 1006 66 10000 1.54 350 21:34 15.05.2022
2087 Clear 9 1006 66 10000 3.09 20 20:38 15.05.2022
2088 Clouds 9 1005 61 10000 3.6 350 18:37 15.05.2022
2089 Clear 10 1005 61 10000 4.12 310 16:52 15.05.2022
2090 Clear 11 1004 62 10000 5.14 310 14:26 15.05.2022
2091 Clouds 12 1003 58 10000 4.63 280 13:44 15.05.2022
2092 Clouds 13 1002 50 10000 1.54 0 11:55 15.05.2022
2093 Clear 13 1002 58 10000 2.57 340 10:43 15.05.2022
2094 Clear 10 1001 66 10000 3.09 320 08:57 15.05.2022
2095 Clear 8 1001 76 10000 2.57 340 07:22 15.05.2022
2096 Clear 7 1000 81 10000 5.14 350 06:42 15.05.2022
2097 Clear 7 999 65 10000 2.06 300 02:38 15.05.2022
2098 Clear 11 999 46 10000 2.06 270 23:59 14.05.2022
2099 Clear 11 999 46 10000 1.54 260 23:35 14.05.2022
2100 Clear 11 999 46 10000 1.54 260 23:35 14.05.2022
2101 Clear 12 999 46 10000 1.03 0 21:45 14.05.2022
2102 Clear 12 999 46 10000 1.03 0 21:24 14.05.2022
2103 Clear 14 999 38 10000 1.54 310 19:54 14.05.2022
2104 Clear 15 999 33 10000 2.57 170 19:20 14.05.2022
2105 Clouds 16 999 33 10000 2.06 150 18:51 14.05.2022
2106 Clouds 16 999 33 10000 2.06 150 18:51 14.05.2022
2107 Clear 16 999 33 10000 2.06 220 17:42 14.05.2022
2108 Clear 15 999 35 10000 3.09 210 15:55 14.05.2022
2109 Clear 16 999 33 10000 3.09 0 14:37 14.05.2022
2110 Clear 15 999 33 10000 2.06 0 12:51 14.05.2022
2111 Clear 15 999 35 10000 3.09 0 11:37 14.05.2022
2112 Clear 14 999 35 10000 2.06 160 10:24 14.05.2022
2113 Clear 13 999 43 10000 2.06 180 09:56 14.05.2022
2114 Clear 12 999 46 10000 2.06 130 08:59 14.05.2022
2115 Clear 9 999 61 10000 2.06 110 07:23 14.05.2022
2116 Clear 2 998 93 10000 1.03 120 03:45 14.05.2022
2117 Clear 7 998 81 10000 1.54 210 00:21 14.05.2022
2118 Clear 7 998 81 10000 2.06 140 23:23 13.05.2022
2119 Clear 8 998 70 10000 1.03 150 22:52 13.05.2022
2120 Clear 7 997 81 10000 0 0 22:20 13.05.2022
2121 Clear 9 997 76 10000 2.06 30 20:57 13.05.2022
2122 Clouds 9 997 76 10000 3.6 330 20:29 13.05.2022
2123 Clouds 10 997 76 10000 1.03 60 19:43 13.05.2022
2124 Rain 10 997 66 10000 2.57 50 18:44 13.05.2022
2125 Rain 11 996 57 10000 5.14 250 17:29 13.05.2022
2126 Clear 13 996 47 10000 2.06 360 16:23 13.05.2022
2127 Clouds 13 995 43 10000 2.57 310 15:43 13.05.2022
2128 Clear 14 995 38 10000 2.57 250 13:57 13.05.2022
2129 Clear 14 994 38 10000 2.57 220 12:33 13.05.2022
2130 Clear 14 994 41 10000 3.09 330 11:29 13.05.2022
2131 Clear 12 994 43 10000 1.54 0 09:43 13.05.2022
2132 Clear 12 994 43 10000 1.54 0 09:43 13.05.2022
2133 Clear 11 994 50 10000 1.54 150 08:50 13.05.2022
2134 Clear 10 994 53 10000 1.03 0 07:49 13.05.2022
2135 Clear 8 993 61 10000 3.09 360 06:35 13.05.2022
2136 Clear 6 992 70 10000 2.57 350 04:48 13.05.2022
2137 Clear 7 991 87 10000 3.09 230 00:42 13.05.2022
2138 Clear 8 991 81 10000 3.6 230 22:47 12.05.2022
2139 Clouds 9 991 76 10000 3.6 220 21:59 12.05.2022
2140 Clear 10 990 71 10000 4.12 230 20:38 12.05.2022
2141 Clouds 11 990 62 10000 3.6 240 19:23 12.05.2022
2142 Clear 13 990 50 10000 2.06 270 17:27 12.05.2022
2143 Clear 14 990 47 10000 2.06 0 16:23 12.05.2022
2144 Clear 12 990 58 10000 2.06 230 14:42 12.05.2022
2145 Clouds 10 990 76 10000 1.54 0 13:47 12.05.2022
2146 Clouds 6 990 100 10000 1.03 180 11:23 12.05.2022
2147 Fog 5 990 100 200 3.09 150 09:31 12.05.2022
2148 Fog 4 990 100 150 3.6 110 08:51 12.05.2022
2149 Fog 4 990 100 150 3.09 130 07:40 12.05.2022
2150 Fog 3 991 100 200 2.57 140 06:34 12.05.2022
2151 Fog 4 991 100 300 2.57 210 02:59 12.05.2022
2152 Fog 4 992 100 700 3.6 230 00:39 12.05.2022
2153 Clouds 5 992 93 10000 2.06 260 22:39 11.05.2022
2154 Clouds 6 992 100 10000 4.12 270 21:52 11.05.2022
2155 Clouds 6 992 100 10000 4.12 270 21:24 11.05.2022
2156 Clouds 7 991 100 6000 4.12 230 18:58 11.05.2022
2157 Rain 8 991 93 10000 3.09 180 16:55 11.05.2022
2158 Rain 8 991 93 10000 3.6 160 15:38 11.05.2022
2159 Rain 7 992 100 10000 3.6 150 14:39 11.05.2022
2160 Rain 7 992 100 3000 3.6 160 14:19 11.05.2022
2161 Rain 7 993 100 4000 4.12 150 11:54 11.05.2022
2162 Rain 7 993 100 7000 4.12 150 11:23 11.05.2022
2163 Rain 7 995 100 10000 4.12 150 08:46 11.05.2022
2164 Rain 7 997 93 10000 4.12 170 05:31 11.05.2022
2165 Rain 7 997 93 10000 4.12 170 05:31 11.05.2022
2166 Rain 7 1000 75 10000 6.69 190 00:45 11.05.2022
2167 Clear 6 1001 81 10000 5.66 200 22:32 10.05.2022
2168 Clear 6 1000 81 10000 5.66 220 21:57 10.05.2022
2169 Clear 7 1001 75 10000 5.66 220 20:58 10.05.2022
2170 Clear 10 1001 61 10000 6.17 200 19:47 10.05.2022
2171 Clear 10 1002 61 10000 11.83 210 17:59 10.05.2022
2172 Clear 11 1002 57 10000 9.77 210 17:29 10.05.2022
2173 Clear 12 1003 54 10000 9.77 200 15:31 10.05.2022
2174 Clear 11 1005 53 10000 8.23 210 12:45 10.05.2022
2175 Clouds 10 1006 57 10000 7.2 210 11:51 10.05.2022
2176 Clouds 9 1006 57 10000 6.69 190 11:20 10.05.2022
2177 Clouds 9 1006 57 10000 6.69 190 10:53 10.05.2022
2178 Clear 9 1007 66 10000 5.14 210 09:26 10.05.2022
2179 Clouds 6 1008 81 10000 7.2 220 07:22 10.05.2022
2180 Rain 4 1009 93 10000 6.69 220 03:57 10.05.2022
2181 Clear 3 1010 80 10000 6.69 210 00:57 10.05.2022
2182 Clouds 3 1011 87 10000 6.69 200 22:56 09.05.2022
2183 Clouds 5 1013 70 10000 7.72 210 21:50 09.05.2022
2184 Rain 6 1013 60 10000 8.23 200 20:52 09.05.2022
2185 Clouds 7 1014 61 10000 7.2 200 19:23 09.05.2022
2186 Clear 8 1015 57 10000 8.23 220 17:51 09.05.2022
2187 Clear 8 1016 53 10000 8.23 220 16:33 09.05.2022
2188 Clear 8 1017 53 10000 7.2 230 15:52 09.05.2022
2189 Clear 8 1017 53 10000 8.23 210 15:21 09.05.2022
2190 Clear 8 1017 49 10000 7.72 230 14:29 09.05.2022
2191 Clear 9 1017 46 10000 8.23 220 13:49 09.05.2022
2192 Clear 9 1017 36 10000 6.69 210 12:21 09.05.2022
2193 Clear 8 1018 36 10000 5.66 220 11:18 09.05.2022
2194 Clear 8 1018 36 10000 6.69 240 10:42 09.05.2022
2195 Clear 5 1018 48 10000 4.12 210 08:36 09.05.2022
2196 Clear 4 1018 52 10000 3.09 210 07:53 09.05.2022
2197 Clear 1 1018 64 10000 2.06 300 03:19 09.05.2022
2198 Clear 3 1017 51 10000 3.09 290 23:34 08.05.2022
2199 Clear 3 1017 51 10000 2.57 280 22:52 08.05.2022
2200 Clear 5 1017 45 10000 2.57 250 21:48 08.05.2022
2201 Clear 5 1017 45 10000 2.57 250 21:48 08.05.2022
2202 Clear 5 1017 45 10000 2.57 260 20:35 08.05.2022
2203 Clear 6 1016 38 10000 2.57 270 19:43 08.05.2022
2204 Clear 7 1016 36 10000 4.63 300 18:52 08.05.2022
2205 Clear 8 1016 31 10000 4.12 280 17:52 08.05.2022
2206 Clear 7 1016 31 10000 4.12 280 16:42 08.05.2022
2207 Clear 6 1015 45 10000 4.12 280 15:26 08.05.2022
2208 Clear 7 1015 39 10000 5.14 280 14:39 08.05.2022
2209 Clear 8 1013 36 10000 4.12 300 12:21 08.05.2022
2210 Clouds 7 1012 42 10000 4.12 300 10:27 08.05.2022
2211 Clear 5 1012 45 10000 4.12 320 09:56 08.05.2022
2212 Clear 5 1011 45 10000 5.66 290 08:52 08.05.2022
2213 Clear 2 1009 55 10000 4.12 290 06:51 08.05.2022
2214 Clear 1 1007 59 10000 3.09 270 03:25 08.05.2022
2215 Clear 1 1007 59 10000 3.09 280 02:23 08.05.2022
2216 Clear 2 1005 55 10000 3.09 260 00:20 08.05.2022
2217 Clear 3 1005 48 10000 3.6 290 23:46 07.05.2022
2218 Clear 4 1005 41 10000 3.09 300 22:46 07.05.2022
2219 Clear 5 1004 38 10000 4.12 300 21:57 07.05.2022
2220 Clear 5 1004 41 10000 4.63 300 21:33 07.05.2022
2221 Clear 7 1003 42 10000 5.14 290 20:27 07.05.2022
2222 Clear 9 1001 36 10000 6.69 280 18:59 07.05.2022
2223 Clear 10 1000 34 10000 6.69 280 17:31 07.05.2022
2224 Clear 11 1000 32 10000 6.17 260 15:18 07.05.2022
2225 Clear 9 999 42 10000 6.17 230 12:34 07.05.2022
2226 Clear 7 999 70 10000 6.69 210 10:23 07.05.2022
2227 Clear 6 999 87 10000 5.66 210 08:37 07.05.2022
2228 Clouds 5 1000 93 10000 6.17 210 07:37 07.05.2022
2229 Clear 6 1000 81 10000 4.63 200 06:42 07.05.2022
2230 Rain 5 1000 75 10000 5.66 200 04:21 07.05.2022
2231 Clear 4 1003 75 10000 6.69 200 00:49 07.05.2022
2232 Clear 5 1004 75 10000 6.69 200 22:41 06.05.2022
2233 Clear 5 1005 75 10000 6.17 200 22:21 06.05.2022
2234 Clear 6 1005 70 10000 5.14 200 21:32 06.05.2022
2235 Clear 8 1006 57 10000 6.69 210 19:49 06.05.2022
2236 Clear 8 1006 57 10000 6.69 210 19:27 06.05.2022
2237 Clear 8 1006 57 10000 8.23 210 18:43 06.05.2022
2238 Clear 9 1007 53 10000 8.23 210 17:37 06.05.2022
2239 Clear 10 1007 46 10000 10.29 220 15:54 06.05.2022
2240 Clear 10 1007 46 10000 10.29 220 15:32 06.05.2022
2241 Clear 11 1008 43 10000 8.75 210 14:22 06.05.2022
2242 Clear 11 1008 40 10000 6.69 230 12:52 06.05.2022
2243 Clear 10 1008 43 10000 6.69 220 11:58 06.05.2022
2244 Clear 10 1008 43 10000 6.69 210 11:27 06.05.2022
2245 Clear 8 1008 53 10000 4.12 220 09:48 06.05.2022
2246 Clear 7 1008 56 10000 3.09 220 09:18 06.05.2022
2247 Clear 6 1008 60 10000 3.6 240 07:54 06.05.2022
2248 Clear 3 1008 80 10000 3.6 230 06:27 06.05.2022
2249 Clear 1 1007 93 10000 3.09 230 03:44 06.05.2022
2250 Clear 1 1007 93 10000 3.6 220 02:38 06.05.2022
2251 Clouds 4 1007 81 10000 5.66 220 23:24 05.05.2022
2252 Clear 5 1007 70 10000 4.12 170 21:50 05.05.2022
2253 Clear 6 1007 60 10000 4.12 170 20:37 05.05.2022
2254 Clouds 6 1008 60 10000 4.63 180 18:56 05.05.2022
2255 Rain 6 1009 52 10000 5.66 180 16:42 05.05.2022
2256 Rain 5 1010 60 10000 7.2 220 15:30 05.05.2022
2257 Rain 5 1010 60 10000 7.2 210 13:30 05.05.2022
2258 Rain 6 1011 56 10000 5.66 200 12:56 05.05.2022
2259 Rain 6 1011 45 10000 6.17 210 11:35 05.05.2022
2260 Clear 5 1011 45 10000 4.12 180 09:41 05.05.2022
2261 Clear 5 1011 45 10000 4.12 180 09:41 05.05.2022
2262 Clear 3 1012 60 10000 2.57 160 08:40 05.05.2022
2263 Clear 0 1012 59 10000 1.03 0 06:24 05.05.2022
2264 Clear -2 1012 68 10000 1.03 250 02:25 05.05.2022
2265 Clear -2 1012 68 10000 1.54 240 01:40 05.05.2022
2266 Clear -1 1012 64 10000 2.06 220 00:43 05.05.2022
2267 Clear 0 1012 51 10000 1.03 260 22:57 04.05.2022
2268 Clear 1 1012 47 10000 1.54 300 21:59 04.05.2022
2269 Clear 2 1012 44 10000 1.54 310 21:34 04.05.2022
2270 Clear 3 1012 41 10000 2.06 300 20:42 04.05.2022
2271 Clear 4 1012 38 10000 2.06 320 19:59 04.05.2022
2272 Clear 4 1011 35 10000 3.6 300 19:35 04.05.2022
2273 Clear 4 1011 35 10000 5.66 290 18:23 04.05.2022
2274 Clear 4 1011 35 10000 5.66 290 17:59 04.05.2022
2275 Clouds 4 1011 35 10000 4.63 310 16:30 04.05.2022
2276 Clear 4 1011 35 10000 5.14 280 15:32 04.05.2022
2277 Clear 4 1011 44 10000 5.66 310 14:38 04.05.2022
2278 Clouds 5 1011 33 10000 6.17 270 14:19 04.05.2022
2279 Clouds 4 1011 35 10000 5.14 300 12:36 04.05.2022
2280 Clouds 3 1011 41 10000 4.12 300 11:25 04.05.2022
2281 Clouds 2 1011 47 10000 3.09 300 09:50 04.05.2022
2282 Clouds 1 1010 51 10000 3.6 280 08:56 04.05.2022
2283 Clear 0 1010 59 10000 3.6 300 07:33 04.05.2022
2284 Clear -4 1009 68 10000 2.57 310 04:34 04.05.2022
2285 Clear -4 1009 58 10000 2.06 290 02:33 04.05.2022
2286 Clear -2 1008 54 10000 2.06 310 22:59 03.05.2022
2287 Clear -1 1007 64 10000 2.06 320 21:47 03.05.2022
2288 Clear -1 1007 64 10000 2.57 330 21:21 03.05.2022
2289 Clear -1 1007 64 10000 2.57 330 21:21 03.05.2022
2290 Clouds 0 1007 59 10000 3.09 350 20:39 03.05.2022
2291 Clear 1 1006 47 10000 3.6 320 19:21 03.05.2022
2292 Clear 1 1005 43 10000 5.66 320 18:42 03.05.2022
2293 Clear 2 1005 40 10000 6.17 340 17:20 03.05.2022
2294 Clear 2 1005 40 10000 6.17 340 17:20 03.05.2022
2295 Clouds 2 1004 51 10000 5.66 340 15:48 03.05.2022
2296 Clouds 1 1003 55 10000 5.14 340 14:22 03.05.2022
2297 Clouds 1 1001 55 10000 7.72 350 12:35 03.05.2022
2298 Clouds 0 1001 64 10000 7.72 340 11:24 03.05.2022
2299 Clouds 0 999 59 10000 8.23 330 10:25 03.05.2022
2300 Clouds -1 996 69 10000 9.77 340 08:18 03.05.2022
2301 Clouds -2 994 80 5000 8.23 340 06:45 03.05.2022
2302 Snow 0 988 93 3800 6.69 340 01:59 03.05.2022
2303 Clear 1 987 80 10000 3.09 290 22:56 02.05.2022
2304 Clear 1 987 74 10000 2.06 290 22:28 02.05.2022
2305 Clear 2 987 64 10000 3.09 290 21:27 02.05.2022
2306 Clear 5 986 52 10000 3.6 250 19:22 02.05.2022
2307 Clear 5 986 81 10000 3.09 210 18:25 02.05.2022
2308 Clouds 4 987 87 10000 3.6 250 17:38 02.05.2022
2309 Snow 2 987 93 10000 3.09 230 16:37 02.05.2022
2310 Snow 1 987 100 900 6.69 270 15:41 02.05.2022
2311 Clouds 4 987 93 10000 4.12 210 14:20 02.05.2022
2312 Snow 2 989 100 7000 6.17 210 12:52 02.05.2022
2313 Rain 4 990 87 10000 7.72 200 11:24 02.05.2022
2314 Rain 4 992 87 10000 5.66 190 09:32 02.05.2022
2315 Rain 4 994 81 10000 6.17 200 07:57 02.05.2022
2316 Clouds 2 997 93 10000 4.63 190 05:59 02.05.2022
2317 Snow 0 1004 86 6000 4.63 180 00:40 02.05.2022
2318 Snow 1 1005 69 10000 4.63 190 00:21 02.05.2022
2319 Clouds 2 1007 64 10000 4.63 180 22:49 01.05.2022
2320 Snow 2 1008 69 10000 5.66 210 21:41 01.05.2022
2321 Clear 3 1008 64 10000 4.63 210 20:29 01.05.2022
2322 Clear 4 1009 56 10000 5.14 210 19:20 01.05.2022
2323 Clouds 5 1009 52 10000 4.63 210 18:51 01.05.2022
2324 Clouds 4 1010 52 10000 4.12 220 17:47 01.05.2022
2325 Clouds 4 1011 48 10000 4.12 210 16:26 01.05.2022
2326 Clear 4 1011 41 10000 4.12 210 15:45 01.05.2022
2327 Clear 5 1012 38 10000 3.6 240 14:41 01.05.2022
2328 Rain 4 1014 38 10000 4.63 250 11:53 01.05.2022
2329 Clear 3 1015 41 10000 2.57 0 09:33 01.05.2022
2330 Clear 2 1015 44 10000 2.57 330 08:49 01.05.2022
2331 Clear -1 1016 59 10000 1.54 300 05:31 01.05.2022
2332 Clear 0 1016 51 10000 2.57 340 00:43 01.05.2022
2333 Clear 1 1016 47 10000 1.54 330 21:59 30.04.2022
2334 Clear 2 1016 44 10000 1.54 340 21:30 30.04.2022
2335 Clear 2 1016 44 10000 1.54 340 21:30 30.04.2022
2336 Clear 2 1016 44 10000 1.54 340 21:30 30.04.2022
2337 Clear 2 1016 44 10000 1.54 340 21:30 30.04.2022
2338 Clear 4 1016 32 10000 2.06 340 19:48 30.04.2022
2339 Clear 4 1016 32 10000 2.06 340 18:50 30.04.2022
2340 Clear 4 1016 32 10000 3.09 340 17:20 30.04.2022
2341 Clear 4 1015 35 10000 3.09 340 15:50 30.04.2022
2342 Clear 4 1015 35 10000 3.09 360 14:54 30.04.2022
2343 Clouds 3 1015 38 10000 3.6 360 13:41 30.04.2022
2344 Clouds 3 1015 44 10000 3.09 330 11:34 30.04.2022
2345 Clouds 3 1015 51 10000 3.6 350 10:55 30.04.2022
2346 Snow 2 1014 55 10000 3.6 340 09:51 30.04.2022
2347 Clear 0 1014 59 10000 3.6 30 07:35 30.04.2022
2348 Clear -3 1013 74 10000 1.54 200 03:45 30.04.2022
2349 Clear -1 1015 54 10000 2.57 220 23:54 29.04.2022
2350 Clear 0 1015 47 10000 2.57 260 22:35 29.04.2022
2351 Clear 0 1015 47 10000 2.06 250 21:54 29.04.2022
2352 Clear 1 1016 43 10000 2.06 260 21:19 29.04.2022
2353 Clouds 2 1016 40 10000 2.57 240 19:48 29.04.2022
2354 Clear 3 1016 38 10000 4.12 280 18:47 29.04.2022
2355 Clear 4 1016 35 10000 3.6 290 17:26 29.04.2022
2356 Clear 3 1017 30 10000 5.14 270 15:58 29.04.2022
2357 Clouds 3 1017 32 10000 5.14 300 14:34 29.04.2022
2358 Clouds 3 1019 80 10000 3.6 290 13:27 29.04.2022
2359 Clear 1 1017 37 10000 3.09 310 11:51 29.04.2022
2360 Clouds 0 1017 47 10000 4.12 290 09:48 29.04.2022
2361 Clear -2 1017 54 10000 3.09 310 07:42 29.04.2022
2362 Clear -2 1017 54 10000 3.09 310 07:23 29.04.2022
2363 Clear -3 1017 63 10000 3.09 310 05:55 29.04.2022
2364 Clear -3 1017 54 10000 2.06 290 00:47 29.04.2022
2365 Clear -2 1017 50 10000 2.57 300 23:48 28.04.2022
2366 Clear -2 1016 46 10000 2.57 300 22:45 28.04.2022
2367 Clear -1 1016 43 10000 2.06 280 21:47 28.04.2022
2368 Clear 0 1016 40 10000 2.06 300 21:22 28.04.2022
2369 Clear 0 1016 37 10000 4.63 310 20:35 28.04.2022
2370 Clear 1 1015 32 10000 4.63 310 19:46 28.04.2022
2371 Clear 1 1015 32 10000 4.63 310 19:23 28.04.2022
2372 Clear 1 1015 34 10000 3.6 320 18:36 28.04.2022
2373 Clear 2 1015 29 10000 6.17 320 17:26 28.04.2022
2374 Clear 2 1014 29 10000 4.63 340 16:41 28.04.2022
2375 Clear 2 1014 27 10000 6.17 310 16:19 28.04.2022
2376 Clear 2 1014 27 10000 5.66 310 15:29 28.04.2022
2377 Clear 3 1014 35 10000 5.14 270 14:36 28.04.2022
2378 Clear 2 1013 37 10000 5.14 270 12:55 28.04.2022
2379 Clouds 2 1013 44 10000 4.12 280 11:59 28.04.2022
2380 Snow 0 1013 64 10000 2.57 260 10:47 28.04.2022
2381 Snow 0 1013 64 10000 2.57 260 10:26 28.04.2022
2382 Clear -1 1012 64 10000 3.6 240 08:44 28.04.2022
2383 Clear -2 1012 63 10000 3.6 230 07:36 28.04.2022
2384 Clear -3 1012 68 10000 3.6 220 05:56 28.04.2022
2385 Clear -3 1012 68 10000 3.09 220 05:38 28.04.2022
2386 Clear -4 1012 68 10000 2.57 220 04:40 28.04.2022
2387 Clear -2 1014 68 10000 4.12 230 00:30 28.04.2022
2388 Clear -2 1014 74 10000 4.12 220 22:40 27.04.2022
2389 Clear -1 1014 64 10000 4.63 220 21:55 27.04.2022
2390 Clear -1 1015 64 10000 4.63 220 21:18 27.04.2022
2391 Clear 0 1015 51 10000 3.6 240 20:37 27.04.2022
2392 Clear 1 1015 40 10000 4.12 250 19:38 27.04.2022
2393 Clear 1 1015 40 10000 4.63 260 19:18 27.04.2022
2394 Clouds 1 1015 37 10000 3.6 260 18:22 27.04.2022
2395 Clouds 1 1015 37 10000 3.6 260 18:22 27.04.2022
2396 Clouds 1 1015 37 10000 3.6 260 18:22 27.04.2022
2397 Clouds 1 1015 37 10000 3.6 260 18:22 27.04.2022
2398 Clear 2 1016 34 10000 5.66 250 17:23 27.04.2022
2399 Clouds 1 1017 37 10000 4.63 240 15:21 27.04.2022
2400 Clear 0 1018 43 10000 4.12 260 12:25 27.04.2022
2401 Clouds -1 1018 43 10000 3.6 280 11:20 27.04.2022
2402 Clouds -1 1018 50 10000 3.09 280 09:43 27.04.2022
2403 Clear -4 1018 58 10000 1.54 320 07:18 27.04.2022
2404 Clear -6 1017 68 10000 2.06 320 04:45 27.04.2022
2405 Clear -6 1016 68 10000 2.57 330 01:34 27.04.2022
2406 Clouds -5 1015 63 10000 2.06 320 00:37 27.04.2022
2407 Clear -4 1015 58 10000 3.09 340 23:39 26.04.2022
2408 Clear -4 1015 63 10000 2.06 320 23:18 26.04.2022
2409 Clear -4 1014 63 10000 2.06 320 22:39 26.04.2022
2410 Clear -2 1014 46 10000 4.12 330 21:35 26.04.2022
2411 Clear -2 1013 50 10000 2.57 320 20:42 26.04.2022
2412 Clear 0 1013 40 10000 6.17 340 19:53 26.04.2022
2413 Clear 0 1012 37 10000 5.66 330 19:32 26.04.2022
2414 Clear 0 1012 40 10000 5.14 340 18:45 26.04.2022
2415 Clear 0 1011 47 10000 4.12 360 17:59 26.04.2022
2416 Clouds 0 1011 55 10000 2.57 300 16:49 26.04.2022
2417 Snow -1 1010 74 10000 3.6 330 13:59 26.04.2022
2418 Snow -1 1010 74 10000 3.6 330 13:32 26.04.2022
2419 Clouds 1 1009 47 10000 5.66 330 11:49 26.04.2022
2420 Clouds 0 1008 59 10000 5.66 330 10:37 26.04.2022
2421 Clouds -1 1007 69 10000 5.66 340 08:54 26.04.2022
2422 Clouds -1 1007 80 10000 5.66 340 06:57 26.04.2022
2423 Clouds -1 1006 93 10000 3.6 350 04:23 26.04.2022
2424 Snow 1 1004 100 10000 4.12 350 01:22 26.04.2022
2425 Snow 1 1004 100 10000 5.14 340 00:25 26.04.2022
2426 Rain 2 1004 100 10000 4.12 340 22:33 25.04.2022
2427 Rain 3 1004 93 10000 4.12 350 21:39 25.04.2022
2428 Rain 4 1004 87 10000 1.03 290 20:35 25.04.2022
2429 Rain 6 1004 70 10000 3.09 320 18:54 25.04.2022
2430 Clear 6 1005 65 10000 2.06 220 17:43 25.04.2022
2431 Clear 6 1005 65 10000 2.57 210 16:52 25.04.2022
2432 Rain 6 1006 65 10000 1.54 350 15:24 25.04.2022
2433 Rain 5 1006 75 10000 2.06 10 14:34 25.04.2022
2434 Rain 6 1007 65 10000 2.06 340 13:30 25.04.2022
2435 Clouds 6 1007 56 10000 2.57 260 11:37 25.04.2022
2436 Clear 4 1008 60 10000 3.6 250 10:20 25.04.2022
2437 Clear 3 1009 69 10000 3.6 230 08:33 25.04.2022
2438 Clear 2 1009 69 10000 3.6 220 06:27 25.04.2022
2439 Clear 2 1012 75 10000 2.06 230 02:20 25.04.2022
2440 Clear 3 1013 69 10000 3.09 230 23:58 24.04.2022
2441 Clear 3 1013 69 10000 3.6 230 23:30 24.04.2022
2442 Clear 4 1014 65 10000 4.12 230 22:40 24.04.2022
2443 Clear 4 1014 65 10000 4.12 230 21:58 24.04.2022
2444 Clear 4 1014 65 10000 4.63 230 21:23 24.04.2022
2445 Clear 5 1014 60 10000 6.17 220 20:47 24.04.2022
2446 Clear 5 1014 60 10000 6.17 220 20:47 24.04.2022
2447 Clear 6 1014 56 10000 5.14 220 20:21 24.04.2022
2448 Clear 7 1015 52 10000 4.63 220 18:58 24.04.2022
2449 Clear 8 1015 49 10000 5.14 220 17:55 24.04.2022
2450 Clear 9 1016 46 10000 6.17 210 17:22 24.04.2022
2451 Clear 9 1016 46 10000 6.17 210 16:56 24.04.2022
2452 Clear 9 1016 46 10000 4.63 220 16:29 24.04.2022
2453 Clear 9 1016 46 10000 4.63 220 16:29 24.04.2022
2454 Clear 9 1016 46 10000 6.17 220 15:52 24.04.2022
2455 Clear 8 1017 49 10000 5.14 230 14:40 24.04.2022
2456 Clear 8 1018 49 10000 5.66 220 13:38 24.04.2022
2457 Clear 8 1018 49 10000 5.66 220 13:18 24.04.2022
2458 Clear 7 1019 49 10000 5.66 210 11:50 24.04.2022
2459 Clear 7 1020 65 10000 4.12 250 10:59 24.04.2022
2460 Clear 5 1020 52 10000 4.63 210 09:47 24.04.2022
2461 Clear 3 1020 60 10000 3.6 230 08:23 24.04.2022
2462 Clear -1 1022 80 10000 2.06 240 05:46 24.04.2022
2463 Clear 1 1023 59 10000 1.03 240 02:48 24.04.2022
2464 Clear 2 1023 55 10000 1.54 270 00:47 24.04.2022
2465 Clear 1 1024 64 10000 1.03 270 23:55 23.04.2022
2466 Clear 1 1024 59 10000 0.51 260 23:25 23.04.2022
2467 Clear 2 1024 55 10000 0.51 230 22:39 23.04.2022
2468 Clear 2 1024 60 10000 0.51 350 21:41 23.04.2022
2469 Clear 2 1024 60 10000 1.03 20 21:22 23.04.2022
2470 Clear 5 1024 45 10000 1.54 50 19:56 23.04.2022
2471 Clear 5 1024 45 10000 2.57 20 19:20 23.04.2022
2472 Clear 5 1024 45 10000 2.57 20 18:54 23.04.2022
2473 Clear 5 1024 45 10000 2.57 340 18:32 23.04.2022
2474 Clear 5 1024 48 10000 3.6 340 17:46 23.04.2022
2475 Clouds 5 1025 45 10000 1.54 0 16:45 23.04.2022
2476 Clouds 5 1025 48 10000 2.57 20 15:43 23.04.2022
2477 Clouds 4 1026 56 10000 3.09 10 13:31 23.04.2022
2478 Clouds 4 1026 60 10000 4.12 20 11:29 23.04.2022
2479 Clear 3 1026 69 10000 4.63 10 09:41 23.04.2022
2480 Clouds 3 1026 80 10000 3.6 360 07:52 23.04.2022
2481 Clouds 3 1025 80 10000 3.09 360 03:57 23.04.2022
2482 Clear 3 1025 80 10000 3.09 350 02:34 23.04.2022
2483 Clear 4 1025 75 10000 1.54 340 23:34 22.04.2022
2484 Clear 4 1025 75 10000 2.57 350 22:40 22.04.2022
2485 Clear 4 1025 75 10000 2.57 340 21:55 22.04.2022
2486 Clear 4 1025 75 10000 2.57 340 21:55 22.04.2022
2487 Clouds 5 1025 70 10000 2.06 350 21:37 22.04.2022
2488 Clear 5 1025 70 10000 2.57 360 20:29 22.04.2022
2489 Clouds 6 1025 65 10000 3.09 350 19:23 22.04.2022
2490 Clouds 6 1025 65 10000 3.09 350 18:53 22.04.2022
2491 Clouds 7 1025 61 10000 3.6 340 18:20 22.04.2022
2492 Clear 7 1025 56 10000 4.12 360 16:53 22.04.2022
2493 Clear 7 1025 56 10000 5.66 360 15:56 22.04.2022
2494 Clouds 8 1025 53 10000 3.6 350 15:23 22.04.2022
2495 Clouds 8 1025 53 10000 4.63 350 14:21 22.04.2022
2496 Clouds 8 1024 53 10000 3.6 330 13:27 22.04.2022
2497 Clouds 7 1025 56 10000 4.63 30 12:30 22.04.2022
2498 Clouds 7 1024 56 10000 4.63 10 11:23 22.04.2022
2499 Clouds 7 1024 56 10000 5.14 350 10:53 22.04.2022
2500 Clouds 7 1024 61 10000 5.14 350 10:32 22.04.2022
2501 Clear 6 1024 65 10000 4.12 340 09:54 22.04.2022
2502 Clear 6 1024 65 10000 3.09 340 08:56 22.04.2022
2503 Clear 5 1024 70 10000 4.12 360 08:25 22.04.2022
2504 Clear 2 1024 80 10000 4.12 340 05:20 22.04.2022
2505 Clear 5 1024 65 10000 3.6 340 00:53 22.04.2022
2506 Clear 6 1024 65 10000 3.6 340 23:29 21.04.2022
2507 Clear 7 1024 61 10000 3.09 350 22:29 21.04.2022
2508 Clear 7 1024 61 10000 3.09 350 22:29 21.04.2022
2509 Clear 9 1023 53 10000 3.6 350 20:55 21.04.2022
2510 Clear 10 1023 49 10000 3.09 350 20:27 21.04.2022
2511 Clear 12 1023 46 10000 4.12 220 18:48 21.04.2022
2512 Clear 12 1023 46 10000 4.63 220 18:19 21.04.2022
2513 Clear 13 1023 43 10000 4.63 220 16:49 21.04.2022
2514 Clear 13 1024 43 10000 4.63 210 15:23 21.04.2022
2515 Clear 13 1024 43 10000 4.63 220 14:50 21.04.2022
2516 Clear 12 1025 46 10000 3.09 210 13:44 21.04.2022
2517 Clear 12 1025 50 10000 3.09 220 13:18 21.04.2022
2518 Clear 11 1026 53 10000 2.57 210 11:19 21.04.2022
2519 Clear 8 1026 65 10000 2.57 200 08:59 21.04.2022
2520 Clear 7 1026 70 10000 1.54 250 07:55 21.04.2022
2521 Clear 5 1026 75 10000 1.54 90 06:21 21.04.2022
2522 Clear 6 1027 70 10000 1.54 180 03:34 21.04.2022
2523 Clear 6 1027 70 10000 1.54 200 02:48 21.04.2022
2524 Clear 6 1027 70 10000 1.54 200 02:48 21.04.2022
2525 Clear 7 1027 65 10000 1.03 150 01:50 21.04.2022
2526 Clear 8 1027 65 10000 2.57 220 23:51 20.04.2022
2527 Clear 8 1027 65 10000 2.57 220 23:23 20.04.2022
2528 Clear 8 1026 65 10000 3.6 220 22:51 20.04.2022
2529 Clear 8 1026 65 10000 3.6 220 22:32 20.04.2022
2530 Clear 8 1026 65 10000 3.6 220 22:32 20.04.2022
2531 Clear 9 1026 57 10000 3.09 220 21:33 20.04.2022
2532 Clear 8 1026 61 10000 2.57 220 20:41 20.04.2022
2533 Clear 9 1026 57 10000 4.12 220 19:53 20.04.2022
2534 Clear 11 1026 46 10000 4.12 220 19:25 20.04.2022
2535 Clear 11 1026 46 10000 5.14 210 18:26 20.04.2022
2536 Clear 11 1026 46 10000 5.14 220 16:57 20.04.2022
2537 Clear 12 1026 43 10000 5.14 220 16:38 20.04.2022
2538 Clear 12 1027 46 10000 5.14 220 14:26 20.04.2022
2539 Clear 11 1026 53 10000 4.63 210 11:55 20.04.2022
2540 Clear 9 1026 61 10000 3.6 210 11:25 20.04.2022
2541 Clear 9 1026 61 10000 3.6 210 10:24 20.04.2022
2542 Clear 7 1026 70 10000 1.54 220 09:26 20.04.2022
2543 Clear 6 1026 75 10000 1.54 220 08:22 20.04.2022
2544 Clear 5 1026 81 10000 1.03 200 07:42 20.04.2022
2545 Clear 5 1026 81 10000 1.03 200 07:42 20.04.2022
2546 Clear 3 1025 93 10000 1.03 0 03:54 20.04.2022
2547 Clear 7 1025 70 10000 1.03 0 00:24 20.04.2022
2548 Clear 8 1025 65 10000 2.57 250 23:59 19.04.2022
2549 Clear 7 1024 70 10000 1.54 220 22:28 19.04.2022
2550 Clear 10 1024 61 10000 3.09 210 21:57 19.04.2022
2551 Clear 10 1024 57 10000 1.54 160 21:33 19.04.2022
2552 Clear 10 1023 61 10000 1.54 100 20:50 19.04.2022
2553 Clear 10 1023 61 10000 1.54 100 20:32 19.04.2022
2554 Clear 13 1023 50 10000 0.51 200 19:24 19.04.2022
2555 Clear 14 1023 47 10000 2.06 220 17:51 19.04.2022
2556 Clear 14 1023 44 10000 1.03 30 16:43 19.04.2022
2557 Clear 14 1023 44 10000 1.03 60 16:24 19.04.2022
2558 Clear 13 1023 50 10000 1.03 0 14:51 19.04.2022
2559 Clear 12 1023 50 10000 1.54 30 14:30 19.04.2022
2560 Clear 12 1023 54 10000 2.06 30 12:51 19.04.2022
2561 Clear 12 1023 54 10000 2.06 30 12:26 19.04.2022
2562 Clear 10 1023 61 10000 1.03 0 10:50 19.04.2022
2563 Clear 9 1022 61 10000 0.51 0 09:23 19.04.2022
2564 Clear 5 1021 75 10000 1.03 0 06:30 19.04.2022
2565 Clear 2 1020 93 10000 2.06 240 03:59 19.04.2022
2566 Clear 4 1020 87 10000 2.06 240 00:56 19.04.2022
2567 Clear 5 1019 81 10000 3.09 230 23:38 18.04.2022
2568 Clear 6 1019 75 10000 4.12 230 21:38 18.04.2022
2569 Clear 7 1019 70 10000 4.12 230 21:20 18.04.2022
2570 Clear 7 1019 65 10000 4.12 230 20:36 18.04.2022
2571 Clear 8 1019 61 10000 3.09 220 19:57 18.04.2022
2572 Clear 9 1018 57 10000 4.12 220 18:58 18.04.2022
2573 Clear 10 1018 53 10000 4.63 210 18:32 18.04.2022
2574 Clear 10 1018 57 10000 5.14 220 17:38 18.04.2022
2575 Clear 10 1019 53 10000 5.14 220 17:18 18.04.2022
2576 Clear 10 1019 53 10000 5.14 220 16:34 18.04.2022
2577 Clear 10 1019 53 10000 5.14 210 15:18 18.04.2022
2578 Clear 10 1019 53 10000 6.17 210 13:42 18.04.2022
2579 Clear 10 1019 53 10000 6.17 210 13:42 18.04.2022
2580 Clear 10 1019 53 10000 5.14 220 12:40 18.04.2022
2581 Clear 10 1020 53 10000 4.12 230 11:42 18.04.2022
2582 Clear 8 1020 65 10000 4.12 210 10:42 18.04.2022
2583 Clear 8 1020 65 10000 4.12 210 09:31 18.04.2022
2584 Clear 6 1020 70 10000 1.54 210 08:28 18.04.2022
2585 Clear 3 1020 87 10000 1.54 210 05:51 18.04.2022
2586 Clouds 5 1021 75 10000 1.54 90 01:34 18.04.2022
2587 Clouds 9 1021 57 10000 1.54 50 22:43 17.04.2022
2588 Clouds 7 1022 65 10000 1.03 270 21:50 17.04.2022
2589 Clouds 7 1022 65 10000 1.03 270 21:27 17.04.2022
2590 Clear 8 1022 61 10000 0.51 260 20:50 17.04.2022
2591 Clear 8 1022 61 10000 0.51 350 19:52 17.04.2022
2592 Clear 11 1022 50 10000 1.54 340 18:24 17.04.2022
2593 Clear 12 1022 46 10000 4.12 310 16:32 17.04.2022
2594 Clear 12 1022 46 10000 3.6 270 15:28 17.04.2022
2595 Clear 12 1022 46 10000 2.57 280 14:27 17.04.2022
2596 Clear 10 1022 53 10000 2.57 280 13:20 17.04.2022
2597 Clear 10 1022 53 10000 2.57 250 12:28 17.04.2022
2598 Clear 8 1022 61 10000 2.06 280 10:47 17.04.2022
2599 Clear 6 1022 70 10000 3.09 290 10:28 17.04.2022
2600 Clear 4 1022 75 10000 2.57 270 09:37 17.04.2022
2601 Clear 2 1022 80 10000 2.57 250 08:54 17.04.2022
2602 Clear 2 1022 80 10000 2.06 280 07:53 17.04.2022
2603 Clear 0 1022 86 10000 3.09 230 04:51 17.04.2022
2604 Clear 0 1022 86 10000 3.6 240 01:38 17.04.2022
2605 Clouds 1 1023 86 10000 4.63 230 23:54 16.04.2022
2606 Clouds 2 1023 80 10000 4.63 220 22:39 16.04.2022
2607 Clear 2 1023 75 10000 5.66 220 21:41 16.04.2022
2608 Clouds 3 1023 69 10000 5.14 220 20:35 16.04.2022
2609 Clouds 4 1024 65 10000 4.63 220 19:18 16.04.2022
2610 Clear 5 1024 52 10000 5.66 220 18:28 16.04.2022
2611 Clear 6 1024 45 10000 7.2 210 16:40 16.04.2022
2612 Clear 6 1025 42 10000 6.69 220 15:46 16.04.2022
2613 Clear 5 1025 48 10000 6.17 220 14:57 16.04.2022
2614 Clear 5 1025 48 10000 6.17 210 13:58 16.04.2022
2615 Clear 5 1026 45 10000 5.66 230 13:37 16.04.2022
2616 Clear 5 1026 45 10000 5.66 230 13:37 16.04.2022
2617 Clear 4 1026 52 10000 5.66 220 12:27 16.04.2022
2618 Clear 4 1027 56 10000 4.63 220 11:18 16.04.2022
2619 Clear 2 1027 60 10000 4.12 210 09:56 16.04.2022
2620 Clear 0 1028 64 10000 3.09 220 08:59 16.04.2022
2621 Clear 0 1028 64 10000 2.57 220 07:57 16.04.2022
2622 Clear 0 1028 59 10000 2.57 220 06:58 16.04.2022
2623 Clear -2 1029 68 10000 0.51 10 02:52 16.04.2022
2624 Clear -1 1029 64 10000 2.57 340 00:30 16.04.2022
2625 Clear 0 1029 59 10000 2.57 360 23:23 15.04.2022
2626 Clear 1 1029 55 10000 2.57 360 22:36 15.04.2022
2627 Clear 3 1029 48 10000 2.57 350 21:55 15.04.2022
2628 Clear 3 1029 48 10000 2.06 350 21:18 15.04.2022
2629 Clear 3 1028 48 10000 2.06 350 20:22 15.04.2022
2630 Clear 4 1028 44 10000 1.54 320 19:40 15.04.2022
2631 Clear 4 1028 44 10000 1.54 330 18:54 15.04.2022
2632 Clear 5 1028 41 10000 2.06 350 18:25 15.04.2022
2633 Rain 4 1028 44 10000 3.09 350 17:34 15.04.2022
2634 Clear 4 1028 56 10000 3.6 20 16:48 15.04.2022
2635 Rain 5 1027 45 10000 3.6 330 16:18 15.04.2022
2636 Rain 5 1027 45 10000 4.12 340 15:24 15.04.2022
2637 Clear 5 1027 41 10000 3.6 340 13:41 15.04.2022
2638 Clear 5 1027 41 10000 4.12 330 12:42 15.04.2022
2639 Clear 4 1029 81 10000 3.09 350 11:57 15.04.2022
2640 Clear 4 1027 52 10000 3.6 330 11:34 15.04.2022
2641 Clear 3 1027 55 10000 3.09 340 10:43 15.04.2022
2642 Clear 2 1027 60 10000 2.57 340 09:46 15.04.2022
2643 Clear 1 1027 64 10000 3.09 330 09:21 15.04.2022
2644 Clear -1 1026 80 10000 3.6 340 07:32 15.04.2022
2645 Clear -2 1025 86 10000 4.12 340 06:36 15.04.2022
2646 Clear -1 1023 80 10000 5.14 340 02:48 15.04.2022
2647 Clear 0 1022 80 10000 4.12 340 23:31 14.04.2022
2648 Clear 1 1021 80 10000 3.09 330 22:49 14.04.2022
2649 Clear 1 1021 80 10000 2.57 340 22:30 14.04.2022
2650 Clear 1 1021 80 10000 2.57 340 21:59 14.04.2022
2651 Clouds 2 1020 75 10000 2.57 330 20:43 14.04.2022
2652 Clear 3 1019 69 10000 4.63 340 19:23 14.04.2022
2653 Clear 4 1019 65 10000 2.57 360 18:22 14.04.2022
2654 Clouds 4 1018 70 10000 4.63 10 17:40 14.04.2022
2655 Snow 4 1018 70 10000 5.66 330 16:46 14.04.2022
2656 Clouds 4 1017 65 10000 2.57 20 15:24 14.04.2022
2657 Clouds 3 1017 75 10000 2.57 40 13:46 14.04.2022
2658 Clouds 3 1016 75 10000 2.57 10 12:56 14.04.2022
2659 Clouds 3 1016 75 10000 2.57 10 12:31 14.04.2022
2660 Clouds 3 1016 80 10000 2.06 40 11:29 14.04.2022
2661 Clouds 2 1016 86 10000 3.09 70 10:52 14.04.2022
2662 Clouds 2 1016 93 10000 2.57 50 10:26 14.04.2022
2663 Snow 1 1016 100 4000 1.54 70 08:54 14.04.2022
2664 Clouds 1 1016 93 9000 2.06 100 07:27 14.04.2022
2665 Snow 1 1016 80 10000 3.09 150 03:32 14.04.2022
2666 Snow 2 1017 69 10000 2.57 180 23:26 13.04.2022
2667 Clear 2 1018 69 10000 3.09 220 22:20 13.04.2022
2668 Clear 2 1018 69 10000 3.09 230 21:36 13.04.2022
2669 Clear 3 1018 64 10000 3.6 220 20:22 13.04.2022
2670 Clear 4 1018 60 10000 3.6 220 19:36 13.04.2022
2671 Clear 5 1018 56 10000 3.09 230 18:27 13.04.2022
2672 Clear 5 1019 56 10000 3.6 230 17:24 13.04.2022
2673 Clear 5 1019 52 10000 4.63 210 16:34 13.04.2022
2674 Clear 6 1019 48 10000 6.69 220 15:40 13.04.2022
2675 Clear 6 1019 52 10000 5.66 210 14:51 13.04.2022
2676 Clouds 6 1019 52 10000 5.14 210 14:26 13.04.2022
2677 Clouds 6 1020 52 10000 4.12 210 13:28 13.04.2022
2678 Clouds 5 1020 56 10000 3.6 200 12:25 13.04.2022
2679 Clear 4 1020 60 10000 3.6 210 10:54 13.04.2022
2680 Clear 2 1020 69 10000 3.09 210 09:44 13.04.2022
2681 Clear 1 1020 74 10000 3.09 210 08:43 13.04.2022
2682 Clear 0 1020 80 10000 1.54 210 06:52 13.04.2022
2683 Clear 0 1020 74 10000 1.03 0 06:26 13.04.2022
2684 Clear 1 1020 69 10000 1.03 0 05:36 13.04.2022
2685 Clear 3 1019 51 10000 2.57 140 00:22 13.04.2022
2686 Clear 3 1019 51 10000 2.06 130 23:45 12.04.2022
2687 Clear 4 1018 52 10000 1.54 70 22:19 12.04.2022
2688 Clear 3 1018 60 10000 1.03 70 21:18 12.04.2022
2689 Clear 3 1017 55 10000 1.03 80 20:41 12.04.2022
2690 Clear 4 1017 60 10000 1.54 20 19:49 12.04.2022
2691 Clear 5 1017 45 10000 1.54 330 19:30 12.04.2022
2692 Rain 5 1016 52 10000 0.51 0 18:26 12.04.2022
2693 Clear 6 1016 42 10000 1.54 310 17:28 12.04.2022
2694 Clear 6 1016 42 10000 1.54 310 17:28 12.04.2022
2695 Clear 5 1015 45 10000 2.06 290 16:22 12.04.2022
2696 Clear 5 1015 45 10000 2.57 300 15:33 12.04.2022
2697 Clouds 5 1014 48 10000 2.57 310 14:26 12.04.2022
2698 Clouds 5 1013 52 10000 3.09 330 13:36 12.04.2022
2699 Clouds 4 1013 56 10000 2.57 300 12:52 12.04.2022
2700 Clouds 4 1012 60 10000 2.57 280 11:46 12.04.2022
2701 Clouds 3 1011 69 10000 2.57 310 10:35 12.04.2022
2702 Clouds 2 1010 80 10000 2.57 280 09:18 12.04.2022
2703 Clear 1 1009 86 10000 2.57 260 07:55 12.04.2022
2704 Clouds -1 1007 93 10000 1.54 210 05:50 12.04.2022
2705 Clear -2 1007 100 10000 1.54 230 04:55 12.04.2022
2706 Clear 1 1004 93 10000 3.09 230 23:53 11.04.2022
2707 Clouds 1 1003 93 10000 3.6 240 22:44 11.04.2022
2708 Clouds 1 1002 93 10000 3.09 240 21:37 11.04.2022
2709 Clouds 1 1002 93 10000 3.09 240 20:55 11.04.2022
2710 Clouds 2 1001 86 10000 3.09 240 20:28 11.04.2022
2711 Clouds 2 1000 86 10000 3.09 260 19:37 11.04.2022
2712 Clouds 2 1000 86 10000 4.63 270 19:18 11.04.2022
2713 Clear 2 999 93 10000 4.12 270 18:40 11.04.2022
2714 Clouds 2 999 93 6000 4.12 270 17:56 11.04.2022
2715 Clouds 3 997 87 10000 5.14 270 16:54 11.04.2022
2716 Snow 2 995 100 10000 5.66 250 15:24 11.04.2022
2717 Snow 1 994 100 800 5.66 220 13:51 11.04.2022
2718 Snow 0 993 100 1500 6.17 210 12:43 11.04.2022
2719 Snow 0 993 100 1500 6.17 210 12:22 11.04.2022
2720 Snow -1 992 100 6000 6.69 210 10:58 11.04.2022
2721 Clouds -1 992 93 700 6.17 210 09:58 11.04.2022
2722 Fog -2 991 100 400 5.14 220 08:24 11.04.2022
2723 Fog -2 991 100 450 2.57 220 05:26 11.04.2022
2724 Fog 0 990 100 10000 1.54 180 00:49 11.04.2022
2725 Fog 0 990 100 1100 1.03 0 22:33 10.04.2022
2726 Clouds 0 990 100 10000 2.06 120 21:54 10.04.2022
2727 Clouds 0 990 100 10000 2.06 110 21:23 10.04.2022
2728 Clouds 1 990 93 10000 1.03 0 20:21 10.04.2022
2729 Clouds 1 990 93 10000 1.03 170 19:37 10.04.2022
2730 Clouds 3 990 69 10000 3.6 90 18:50 10.04.2022
2731 Clouds 3 990 69 10000 3.6 90 18:27 10.04.2022
2732 Clouds 3 990 75 10000 3.09 90 17:46 10.04.2022
2733 Clouds 3 990 69 10000 3.09 90 16:59 10.04.2022
2734 Clouds 4 990 60 10000 5.14 100 15:40 10.04.2022
2735 Clouds 4 990 60 10000 5.66 90 14:42 10.04.2022
2736 Clouds 4 990 60 10000 5.66 90 14:42 10.04.2022
2737 Clouds 4 990 65 10000 5.66 90 13:44 10.04.2022
2738 Clouds 3 990 69 10000 6.17 110 12:32 10.04.2022
2739 Clouds 3 990 75 10000 6.17 100 11:44 10.04.2022
2740 Clouds 2 990 80 10000 5.66 100 11:18 10.04.2022
2741 Clouds 2 990 80 10000 6.17 110 10:31 10.04.2022
2742 Clouds 1 990 86 10000 5.66 120 09:41 10.04.2022
2743 Clouds 1 990 86 10000 5.66 120 08:28 10.04.2022
2744 Clear 0 990 93 10000 5.66 120 07:56 10.04.2022
2745 Clouds 0 990 86 10000 5.66 120 06:59 10.04.2022
2746 Clouds -2 989 93 10000 4.12 110 03:37 10.04.2022
2747 Clouds -1 988 93 10000 4.12 130 02:18 10.04.2022
2748 Clear 0 988 93 10000 5.14 170 23:53 09.04.2022
2749 Clouds 0 987 93 10000 5.66 170 22:54 09.04.2022
2750 Clouds 0 987 93 10000 5.66 170 22:54 09.04.2022
2751 Clouds 0 987 100 10000 5.14 170 22:24 09.04.2022
2752 Clouds 0 985 93 10000 5.66 180 21:18 09.04.2022
2753 Clear 0 985 93 10000 5.66 180 20:27 09.04.2022
2754 Clouds 0 985 93 10000 7.2 190 19:56 09.04.2022
2755 Clouds 0 984 93 10000 6.69 190 19:37 09.04.2022
2756 Clouds 0 983 93 7000 9.26 210 18:23 09.04.2022
2757 Clouds 0 982 100 1200 10.29 210 17:48 09.04.2022
2758 Clouds 1 982 100 1200 8.75 220 16:56 09.04.2022
2759 Clouds 1 981 100 1200 3.09 220 16:29 09.04.2022
2760 Clouds 1 981 100 1300 2.06 230 15:49 09.04.2022
2761 Clouds 1 981 100 1900 0.51 220 15:25 09.04.2022
2762 Clouds 1 982 100 2200 2.57 40 14:25 09.04.2022
2763 Clouds 2 982 93 8000 4.12 50 13:24 09.04.2022
2764 Clouds 2 982 93 8000 4.12 50 12:53 09.04.2022
2765 Clouds 3 983 93 10000 5.66 60 11:44 09.04.2022
2766 Clouds 3 983 93 10000 6.17 70 10:41 09.04.2022
2767 Clouds 3 983 93 10000 5.66 60 10:18 09.04.2022
2768 Clouds 2 984 100 10000 5.66 60 09:21 09.04.2022
2769 Clouds 2 984 100 6000 4.12 70 07:49 09.04.2022
2770 Clouds 1 984 100 6000 4.12 80 03:22 09.04.2022
2771 Clouds 1 984 100 10000 4.63 90 00:32 09.04.2022
2772 Clouds 1 983 93 5000 5.66 100 22:58 08.04.2022
2773 Clouds 1 983 93 2300 6.69 80 21:35 08.04.2022
2774 Clouds 0 983 100 2300 7.72 80 20:41 08.04.2022
2775 Clouds 1 983 93 1200 8.23 90 19:41 08.04.2022
2776 Clouds 1 983 86 4400 10.29 80 18:38 08.04.2022
2777 Clouds 2 983 80 10000 11.32 80 17:59 08.04.2022
2778 Clouds 1 983 80 10000 12.35 70 17:27 08.04.2022
2779 Clouds 1 984 80 10000 11.83 70 16:52 08.04.2022
2780 Clouds 1 984 80 10000 12.35 70 16:22 08.04.2022
2781 Clouds 0 985 86 8000 11.83 60 15:28 08.04.2022
2782 Clouds 0 986 86 1200 11.83 60 14:40 08.04.2022
2783 Snow 0 987 86 2500 10.8 70 13:55 08.04.2022
2784 Snow 0 988 80 6000 10.8 70 13:30 08.04.2022
2785 Snow 0 988 80 10000 10.29 70 12:42 08.04.2022
2786 Clouds 0 989 74 10000 10.8 80 10:56 08.04.2022
2787 Clouds -2 990 80 10000 8.75 70 09:41 08.04.2022
2788 Clouds -2 991 74 10000 8.23 70 08:58 08.04.2022
2789 Clear -4 991 86 10000 6.69 60 07:42 08.04.2022
2790 Clear -5 992 86 10000 6.17 60 06:44 08.04.2022
2791 Clear -4 992 93 10000 4.63 70 02:29 08.04.2022
2792 Clear -3 992 86 10000 4.12 70 00:28 08.04.2022
2793 Clear -2 992 86 10000 4.12 80 23:41 07.04.2022
2794 Clear -2 992 86 10000 4.63 90 22:41 07.04.2022
2795 Clear -2 992 86 10000 4.63 90 22:22 07.04.2022
2796 Clouds -1 992 80 10000 4.63 90 21:56 07.04.2022
2797 Snow -1 992 86 3700 4.12 90 21:23 07.04.2022
2798 Snow -1 992 80 10000 4.63 90 20:42 07.04.2022
2799 Clouds -1 991 80 10000 4.63 90 18:58 07.04.2022
2800 Snow 0 991 69 10000 6.69 100 17:28 07.04.2022
2801 Snow 0 991 59 10000 6.17 100 16:45 07.04.2022
2802 Snow 1 991 51 10000 6.69 100 16:25 07.04.2022
2803 Clouds 1 990 51 10000 6.69 90 15:37 07.04.2022
2804 Clouds 0 990 51 10000 6.69 100 13:51 07.04.2022
2805 Snow 0 990 51 10000 6.69 100 13:23 07.04.2022
2806 Clouds -1 990 59 10000 7.2 90 11:49 07.04.2022
2807 Clouds -1 990 64 10000 6.17 80 10:30 07.04.2022
2808 Clear -4 991 74 10000 4.63 60 08:40 07.04.2022
2809 Clear -7 990 86 10000 4.63 60 06:58 07.04.2022
2810 Clear -7 990 86 10000 4.63 60 06:58 07.04.2022
2811 Clouds -5 990 79 10000 3.09 70 04:26 07.04.2022
2812 Clouds -3 990 80 10000 2.57 110 02:29 07.04.2022
2813 Clouds -3 989 80 10000 2.57 110 00:42 07.04.2022
2814 Clouds -2 989 80 10000 1.54 100 22:58 06.04.2022
2815 Clouds -2 989 74 10000 2.06 130 22:39 06.04.2022
2816 Clouds -1 988 80 10000 2.06 140 21:47 06.04.2022
2817 Clouds -1 988 93 8000 2.06 90 20:41 06.04.2022
2818 Clouds -1 988 100 10000 3.09 70 19:59 06.04.2022
2819 Snow -1 987 100 2200 2.57 90 18:53 06.04.2022
2820 Snow -1 987 100 1100 4.12 120 18:34 06.04.2022
2821 Snow 1 986 86 2600 6.69 70 17:35 06.04.2022
2822 Snow 1 985 80 10000 7.72 60 16:39 06.04.2022
2823 Snow 1 985 80 10000 7.72 50 15:49 06.04.2022
2824 Clouds 1 985 80 10000 7.72 50 15:30 06.04.2022
2825 Clouds 1 984 74 10000 7.2 80 13:30 06.04.2022
2826 Clouds 1 984 80 10000 7.2 70 12:28 06.04.2022
2827 Clouds 1 983 80 10000 7.2 70 10:54 06.04.2022
2828 Clouds 1 983 80 10000 8.23 70 10:31 06.04.2022
2829 Clouds 0 982 86 10000 8.23 70 09:42 06.04.2022
2830 Snow 0 982 86 10000 7.72 70 08:36 06.04.2022
2831 Snow 0 982 86 10000 7.72 70 08:36 06.04.2022
2832 Snow 0 982 86 10000 6.69 70 07:55 06.04.2022
2833 Snow 0 980 93 10000 7.72 70 04:31 06.04.2022
2834 Snow 0 979 93 9000 7.2 70 23:56 05.04.2022
2835 Snow 0 979 93 10000 7.2 70 23:22 05.04.2022
2836 Snow 0 980 93 10000 7.2 70 21:29 05.04.2022
2837 Snow 0 980 93 10000 7.2 70 20:44 05.04.2022
2838 Snow 0 980 93 4900 7.2 70 20:19 05.04.2022
2839 Snow 0 980 93 4700 6.69 70 18:24 05.04.2022
2840 Snow 0 979 93 3100 6.69 70 16:55 05.04.2022
2841 Snow 1 979 86 6000 7.2 90 16:35 05.04.2022
2842 Snow 1 979 86 4000 6.69 80 15:43 05.04.2022
2843 Snow 1 979 86 4000 6.69 80 15:43 05.04.2022
2844 Snow 1 979 86 4000 6.69 80 15:24 05.04.2022
2845 Snow 0 979 86 5000 6.17 80 13:38 05.04.2022
2846 Snow 0 978 86 3000 5.66 90 11:51 05.04.2022
2847 Snow 0 978 86 3000 5.66 90 11:33 05.04.2022
2848 Snow 0 978 86 4000 6.17 90 10:52 05.04.2022
2849 Snow -1 978 93 2500 5.14 80 08:55 05.04.2022
2850 Snow -4 978 93 1500 5.14 60 07:24 05.04.2022
2851 Snow -6 983 86 3800 8.23 30 02:39 05.04.2022
2852 Clear -6 987 73 10000 6.69 40 23:18 04.04.2022
2853 Clear -6 988 73 10000 6.17 40 22:29 04.04.2022
2854 Clear -7 989 73 10000 5.14 30 21:22 04.04.2022
2855 Clear -8 989 79 10000 5.14 30 20:53 04.04.2022
2856 Clear -6 989 68 10000 4.63 30 20:35 04.04.2022
2857 Clear -6 990 73 10000 4.12 30 19:26 04.04.2022
2858 Clear -3 990 63 10000 2.57 50 18:39 04.04.2022
2859 Snow -3 991 58 10000 3.6 40 16:41 04.04.2022
2860 Clouds -3 991 58 10000 3.6 40 16:23 04.04.2022
2861 Clouds -2 991 54 10000 1.54 20 15:33 04.04.2022
2862 Clouds -2 991 54 10000 1.03 0 14:46 04.04.2022
2863 Clouds -3 992 58 10000 3.09 40 13:40 04.04.2022
2864 Clouds -3 992 58 10000 1.54 50 12:26 04.04.2022
2865 Clouds -5 992 79 10000 1.54 70 11:29 04.04.2022
2866 Clear -7 993 93 10000 0.51 0 09:51 04.04.2022
2867 Snow -9 993 92 10000 0.51 0 05:33 04.04.2022
2868 Clouds -7 994 93 10000 3.6 350 02:47 04.04.2022
2869 Clear -5 995 93 10000 3.09 330 22:49 03.04.2022
2870 Clouds -5 995 93 10000 2.06 330 21:58 03.04.2022
2871 Clouds -4 995 93 10000 2.06 340 21:25 03.04.2022
2872 Clouds -4 996 86 10000 1.03 0 19:52 03.04.2022
2873 Clouds -3 996 74 10000 1.54 280 18:34 03.04.2022
2874 Clouds -3 996 80 10000 2.06 260 17:50 03.04.2022
2875 Snow -3 996 80 10000 2.06 260 17:32 03.04.2022
2876 Snow -3 996 80 10000 1.03 0 16:49 03.04.2022
2877 Snow -3 996 68 10000 2.06 320 15:42 03.04.2022
2878 Snow -3 997 74 10000 2.57 330 13:58 03.04.2022
2879 Snow -4 997 80 10000 2.06 330 12:58 03.04.2022
2880 Clouds -5 997 79 10000 1.54 330 11:33 03.04.2022
2881 Clouds -7 997 86 10000 1.54 320 09:41 03.04.2022
2882 Clouds -8 997 86 10000 3.6 320 08:52 03.04.2022
2883 Clear -10 998 92 10000 3.09 310 05:44 03.04.2022
2884 Clouds -7 999 86 10000 1.54 260 02:55 03.04.2022
2885 Clouds -6 999 93 10000 2.06 230 23:22 02.04.2022
2886 Clouds -5 999 86 10000 2.57 240 22:41 02.04.2022
2887 Clouds -5 999 93 10000 2.57 230 21:55 02.04.2022
2888 Clouds -4 999 86 10000 3.09 210 21:19 02.04.2022
2889 Clouds -3 1000 86 10000 3.09 210 20:35 02.04.2022
2890 Snow -2 999 74 10000 5.14 190 18:47 02.04.2022
2891 Clouds -1 999 69 10000 6.17 190 18:19 02.04.2022
2892 Clouds -2 1000 74 10000 5.66 210 16:45 02.04.2022
2893 Clouds -2 1001 80 10000 5.66 200 15:27 02.04.2022
2894 Clouds -3 1001 86 10000 5.66 210 14:52 02.04.2022
2895 Clouds -3 1001 86 10000 6.17 220 14:20 02.04.2022
2896 Clouds -3 1001 80 10000 6.17 220 13:29 02.04.2022
2897 Snow -4 1002 93 1000 7.72 200 11:56 02.04.2022
2898 Snow -4 1002 74 10000 6.17 200 09:57 02.04.2022
2899 Clouds -8 1004 92 10000 3.6 170 07:33 02.04.2022
2900 Clouds -8 1007 100 5000 3.09 170 04:25 02.04.2022
2901 Clear -7 1010 79 10000 3.6 200 00:27 02.04.2022
2902 Clear -6 1010 73 10000 4.12 200 23:53 01.04.2022
2903 Clear -5 1011 63 10000 4.63 210 22:34 01.04.2022
2904 Clear -4 1012 58 10000 4.63 220 20:54 01.04.2022
2905 Clear -3 1012 54 10000 4.12 210 20:32 01.04.2022
2906 Clear -2 1012 46 10000 3.6 210 19:39 01.04.2022
2907 Clear -2 1012 46 10000 3.6 210 19:39 01.04.2022
2908 Clear -2 1012 46 10000 2.06 220 19:18 01.04.2022
2909 Clear -2 1012 43 10000 2.06 230 18:35 01.04.2022
2910 Clear -2 1013 39 10000 3.09 210 17:36 01.04.2022
2911 Clear -2 1014 39 10000 2.57 280 15:45 01.04.2022
2912 Clear -2 1014 39 10000 3.09 250 14:47 01.04.2022
2913 Clear -2 1014 36 10000 3.6 240 13:38 01.04.2022
2914 Clouds -2 1015 46 10000 3.6 240 12:33 01.04.2022
2915 Clear -4 1015 63 10000 2.57 220 11:45 01.04.2022
2916 Clear -5 1014 63 10000 2.57 230 10:41 01.04.2022
2917 Clear -7 1014 67 10000 1.54 260 09:34 01.04.2022
2918 Clear -8 1014 73 10000 1.54 260 07:19 01.04.2022
2919 Clear -8 1014 73 10000 3.09 320 04:56 01.04.2022
2920 Clear -8 1014 73 10000 3.6 320 04:37 01.04.2022
2921 Clear -7 1013 67 10000 3.6 350 02:19 01.04.2022
2922 Clear -7 1013 67 10000 3.6 340 00:46 01.04.2022
2923 Clear -5 1012 58 10000 3.6 330 22:20 31.03.2022
2924 Clear -4 1012 58 10000 3.09 340 21:37 31.03.2022
2925 Clear -3 1012 58 10000 2.57 330 20:43 31.03.2022
2926 Clear -3 1012 58 10000 2.57 330 20:25 31.03.2022
2927 Clouds -2 1011 54 10000 2.57 350 18:57 31.03.2022
2928 Clear -2 1011 63 10000 2.06 40 17:55 31.03.2022
2929 Clear -1 1010 54 10000 3.6 350 16:45 31.03.2022
2930 Clouds -1 1010 54 10000 3.09 20 15:50 31.03.2022
2931 Clouds -1 1010 50 10000 4.12 70 15:21 31.03.2022
2932 Clouds -1 1010 54 10000 4.63 20 14:44 31.03.2022
2933 Clouds -2 1009 63 10000 4.12 360 12:48 31.03.2022
2934 Clouds -3 1008 68 10000 3.6 350 11:29 31.03.2022
2935 Clouds -4 1007 80 10000 3.09 360 10:19 31.03.2022
2936 Clouds -6 1006 86 10000 3.6 340 08:29 31.03.2022
2937 Clouds -6 1005 86 10000 4.12 340 07:24 31.03.2022
2938 Clear -5 1002 86 10000 3.6 340 00:46 31.03.2022
2939 Clouds -5 1001 86 10000 4.63 340 23:23 30.03.2022
2940 Clear -4 1000 74 10000 4.12 340 21:43 30.03.2022
2941 Clear -4 1000 74 10000 4.12 340 21:25 30.03.2022
2942 Clouds -3 999 74 10000 4.12 340 20:21 30.03.2022
2943 Clear -2 999 68 10000 4.63 340 19:36 30.03.2022
2944 Clear -2 999 68 10000 4.12 340 18:34 30.03.2022
2945 Clouds -1 998 64 10000 6.17 350 17:48 30.03.2022
2946 Clouds -1 998 64 10000 6.17 340 16:57 30.03.2022
2947 Clouds -1 998 64 10000 6.17 340 16:38 30.03.2022
2948 Clouds -1 998 59 10000 6.17 340 15:24 30.03.2022
2949 Clouds -1 997 64 10000 6.17 360 13:44 30.03.2022
2950 Clouds -1 997 59 10000 6.17 350 12:58 30.03.2022
2951 Clouds -2 997 63 10000 5.14 350 11:34 30.03.2022
2952 Clouds -2 997 63 10000 5.14 350 11:34 30.03.2022
2953 Clouds -3 996 68 10000 5.14 350 10:28 30.03.2022
2954 Clouds -4 995 74 10000 5.66 350 09:25 30.03.2022
2955 Clouds -5 995 79 10000 4.63 340 07:33 30.03.2022
2956 Snow -6 994 93 8000 4.12 330 05:41 30.03.2022
2957 Clouds -6 994 93 10000 3.6 340 03:59 30.03.2022
2958 Snow -4 994 80 10000 5.14 330 00:42 30.03.2022
2959 Clouds -4 994 80 10000 6.69 320 22:28 29.03.2022
2960 Clouds -3 994 68 10000 6.17 330 21:45 29.03.2022
2961 Clouds -3 994 68 10000 5.66 320 20:53 29.03.2022
2962 Clouds -3 995 74 10000 5.14 320 20:18 29.03.2022
2963 Clouds -3 995 80 10000 5.66 330 18:55 29.03.2022
2964 Clouds -3 995 86 4200 7.2 330 18:19 29.03.2022
2965 Snow -1 995 64 10000 6.69 330 17:22 29.03.2022
2966 Snow -1 995 64 10000 6.69 330 16:56 29.03.2022
2967 Snow -2 995 86 800 7.2 320 15:57 29.03.2022
2968 Snow -1 996 59 10000 7.2 330 14:52 29.03.2022
2969 Snow -2 996 63 10000 5.14 330 13:56 29.03.2022
2970 Snow -2 996 63 10000 7.2 330 12:51 29.03.2022
2971 Clouds -3 996 63 10000 5.14 330 11:43 29.03.2022
2972 Clouds -4 997 68 10000 6.17 330 10:28 29.03.2022
2973 Clouds -6 997 68 10000 6.17 330 09:33 29.03.2022
2974 Clear -10 998 79 10000 5.14 330 06:56 29.03.2022
2975 Clear -10 999 85 10000 4.63 320 03:49 29.03.2022
2976 Clear -9 1001 79 10000 5.14 330 23:54 28.03.2022
2977 Clear -8 1001 73 10000 4.63 340 23:19 28.03.2022
2978 Clear -8 1001 73 10000 4.12 340 22:47 28.03.2022
2979 Clear -8 1001 73 10000 4.12 340 22:22 28.03.2022
2980 Clear -7 1001 62 10000 3.09 350 20:53 28.03.2022
2981 Clear -6 1001 58 10000 2.57 350 19:59 28.03.2022
2982 Clear -5 1001 53 10000 3.6 10 19:40 28.03.2022
2983 Clouds -4 1001 50 10000 4.63 10 18:52 28.03.2022
2984 Clouds -4 1001 50 10000 4.63 20 18:19 28.03.2022
2985 Clouds -4 1000 50 10000 4.63 20 17:30 28.03.2022
2986 Clouds -4 1000 46 10000 6.69 20 15:48 28.03.2022
2987 Clouds -4 999 42 10000 6.17 20 14:24 28.03.2022
2988 Clouds -5 999 45 10000 6.17 20 13:33 28.03.2022
2989 Clouds -6 998 49 10000 7.72 50 11:54 28.03.2022
2990 Clouds -6 997 49 10000 5.66 50 10:39 28.03.2022
2991 Clear -8 997 53 10000 5.66 60 09:21 28.03.2022
2992 Clear -8 996 53 10000 5.66 50 08:45 28.03.2022
2993 Clear -8 996 53 10000 5.14 60 08:21 28.03.2022
2994 Clear -9 996 57 10000 5.66 60 07:23 28.03.2022
2995 Snow -8 997 79 5000 5.14 80 02:44 28.03.2022
2996 Snow -6 1000 49 10000 4.12 120 22:57 27.03.2022
2997 Snow -6 1002 53 10000 3.6 130 21:48 27.03.2022
2998 Snow -6 1002 53 10000 3.6 130 21:28 27.03.2022
2999 Snow -5 1004 49 10000 4.12 160 20:41 27.03.2022
3000 Clear -5 1006 49 10000 3.09 180 19:43 27.03.2022
3001 Clear -4 1007 46 10000 3.6 190 18:47 27.03.2022
3002 Clear -4 1007 46 10000 3.6 190 18:24 27.03.2022
3003 Clear -4 1009 42 10000 3.09 200 17:37 27.03.2022
3004 Clouds -3 1012 42 10000 3.09 210 15:51 27.03.2022
3005 Clear -4 1013 46 10000 4.12 210 13:59 27.03.2022
3006 Clear -3 1014 36 10000 2.06 0 13:25 27.03.2022
3007 Clear -4 1017 46 10000 2.06 300 11:41 27.03.2022
3008 Clear -7 1018 62 10000 2.06 320 09:49 27.03.2022
3009 Clear -10 1019 73 10000 4.12 330 07:40 27.03.2022
3010 Clear -10 1020 73 10000 4.63 320 04:49 27.03.2022
3011 Clear -9 1020 67 10000 4.12 320 00:26 27.03.2022
3012 Clear -8 1021 62 10000 3.6 320 22:52 26.03.2022
3013 Clear -8 1021 57 10000 3.09 320 22:22 26.03.2022
3014 Clear -8 1021 57 10000 2.57 320 21:30 26.03.2022
3015 Clear -6 1020 49 10000 4.12 320 19:38 26.03.2022
3016 Clear -5 1020 45 10000 4.63 340 18:44 26.03.2022
3017 Clouds -4 1019 39 10000 7.2 340 17:41 26.03.2022
3018 Clouds -4 1019 39 10000 6.69 340 16:40 26.03.2022
3019 Clouds -3 1018 46 10000 5.66 360 15:42 26.03.2022
3020 Clouds -3 1017 50 10000 6.69 360 13:56 26.03.2022
3021 Clouds -2 1016 46 10000 8.23 350 13:36 26.03.2022
3022 Clouds -3 1014 63 10000 6.17 360 11:50 26.03.2022
3023 Clouds -4 1013 74 10000 6.69 10 10:48 26.03.2022
3024 Clouds -4 1009 68 10000 7.2 10 08:50 26.03.2022
3025 Snow -5 1006 79 7000 6.17 360 06:39 26.03.2022
3026 Snow -5 1004 79 10000 6.17 10 05:30 26.03.2022
3027 Snow -4 997 80 10000 8.23 30 01:47 26.03.2022
3028 Clouds -4 995 86 10000 7.2 40 22:30 25.03.2022
3029 Clouds -3 995 80 10000 6.17 60 20:58 25.03.2022
3030 Clouds -3 995 80 10000 6.69 60 20:26 25.03.2022
3031 Clouds -3 996 86 10000 5.14 50 19:19 25.03.2022
3032 Clouds -2 996 80 10000 5.14 60 18:34 25.03.2022
3033 Clouds -2 997 86 10000 6.17 70 17:29 25.03.2022
3034 Clouds -2 997 86 10000 5.66 70 16:27 25.03.2022
3035 Clouds -2 999 86 10000 6.69 60 15:33 25.03.2022
3036 Clouds -2 1001 86 10000 4.63 80 13:28 25.03.2022
3037 Snow -2 1004 86 5000 4.63 90 10:50 25.03.2022
3038 Snow -3 1005 93 2500 3.6 90 09:28 25.03.2022
3039 Snow -3 1007 93 1000 4.12 90 08:43 25.03.2022
3040 Snow -4 1007 93 1500 4.12 110 07:32 25.03.2022
3041 Snow -4 1009 100 2000 4.12 110 06:29 25.03.2022
3042 Snow -4 1014 68 10000 3.09 130 02:28 25.03.2022
3043 Clear -3 1017 58 10000 5.14 150 22:56 24.03.2022
3044 Clear -3 1018 58 10000 4.12 150 21:56 24.03.2022
3045 Clear -2 1019 54 10000 2.57 160 20:51 24.03.2022
3046 Clear -1 1019 50 10000 3.09 130 19:49 24.03.2022
3047 Clear -1 1020 46 10000 3.09 120 18:34 24.03.2022
3048 Clear 0 1020 43 10000 1.54 110 17:32 24.03.2022
3049 Clear 1 1020 47 10000 2.57 50 15:56 24.03.2022
3050 Clear 1 1020 43 10000 3.09 40 14:51 24.03.2022
3051 Clear 1 1020 43 10000 3.09 50 14:21 24.03.2022
3052 Clear 1 1020 47 10000 3.6 30 13:26 24.03.2022
3053 Clear 0 1019 55 10000 5.14 20 11:59 24.03.2022
3054 Clear 0 1018 51 10000 6.69 20 10:28 24.03.2022
3055 Clouds -1 1016 64 10000 5.66 20 09:22 24.03.2022
3056 Clouds -1 1014 69 10000 4.63 20 07:39 24.03.2022
3057 Clouds 0 1009 80 10000 7.2 10 04:34 24.03.2022
3058 Clear 4 1004 81 10000 6.69 240 23:21 23.03.2022
3059 Clear 4 1005 81 10000 5.66 240 21:53 23.03.2022
3060 Clear 4 1005 81 10000 7.2 230 21:20 23.03.2022
3061 Clear 3 1006 80 10000 7.72 220 19:46 23.03.2022
3062 Clear 3 1007 80 10000 7.2 230 18:59 23.03.2022
3063 Clear 3 1008 80 10000 8.75 230 17:38 23.03.2022
3064 Clear 4 1009 70 10000 9.26 230 16:50 23.03.2022
3065 Clear 5 1011 65 10000 9.26 220 14:51 23.03.2022
3066 Clear 5 1011 65 10000 9.26 220 14:32 23.03.2022
3067 Clear 4 1013 70 10000 6.17 220 13:21 23.03.2022
3068 Clear -1 1015 93 10000 3.09 210 10:20 23.03.2022
3069 Fog -5 1016 100 10000 2.57 240 06:55 23.03.2022
3070 Clouds -6 1016 100 10000 2.57 240 05:27 23.03.2022
3071 Clear -3 1018 93 10000 2.57 240 00:35 23.03.2022
3072 Clear -3 1019 100 10000 3.09 250 23:41 22.03.2022
3073 Clear -1 1019 86 10000 3.09 240 21:30 22.03.2022
3074 Clear 0 1020 86 10000 3.09 240 20:49 22.03.2022
3075 Clear 1 1020 86 10000 5.14 230 19:51 22.03.2022
3076 Clear 1 1020 86 10000 5.14 230 19:23 22.03.2022
3077 Clear 2 1020 80 10000 5.66 220 18:38 22.03.2022
3078 Clear 4 1021 75 10000 5.66 220 17:37 22.03.2022
3079 Clear 6 1021 65 10000 5.66 230 16:27 22.03.2022
3080 Clear 6 1022 65 10000 6.69 220 15:23 22.03.2022
3081 Clear 6 1022 65 10000 7.2 220 14:47 22.03.2022
3082 Clear 6 1022 65 10000 7.2 220 14:27 22.03.2022
3083 Clear 7 1023 61 10000 6.17 210 13:35 22.03.2022
3084 Clear 5 1025 56 10000 5.66 210 11:52 22.03.2022
3085 Clear 3 1026 60 10000 5.14 210 10:40 22.03.2022
3086 Clear 0 1026 69 10000 3.09 210 08:36 22.03.2022
3087 Clear -1 1027 74 10000 1.54 270 06:53 22.03.2022
3088 Clear -1 1027 69 10000 1.54 250 03:49 22.03.2022
3089 Clear 1 1027 74 10000 2.57 320 00:28 22.03.2022
3090 Clear 4 1027 65 10000 3.6 290 22:42 21.03.2022
3091 Clear 5 1026 60 10000 3.6 270 20:57 21.03.2022
3092 Clear 5 1026 60 10000 4.63 260 20:38 21.03.2022
3093 Clear 6 1025 52 10000 4.12 260 19:58 21.03.2022
3094 Clear 6 1025 52 10000 4.12 260 19:33 21.03.2022
3095 Clear 7 1025 45 10000 3.09 250 18:22 21.03.2022
3096 Clear 9 1024 36 10000 4.12 270 17:19 21.03.2022
3097 Clear 9 1024 34 10000 3.6 260 16:44 21.03.2022
3098 Clear 10 1024 31 10000 4.63 270 15:52 21.03.2022
3099 Clear 10 1024 29 10000 5.14 280 15:19 21.03.2022
3100 Clear 10 1023 31 10000 4.63 270 14:25 21.03.2022
3101 Clear 7 1023 49 10000 4.63 230 12:40 21.03.2022
3102 Clear 6 1023 56 10000 6.69 230 11:52 21.03.2022
3103 Clear 4 1023 60 10000 6.69 220 10:40 21.03.2022
3104 Clear 3 1024 60 10000 6.69 200 08:30 21.03.2022
3105 Clear 2 1026 64 10000 4.12 220 06:48 21.03.2022
3106 Clear 3 1029 60 10000 3.09 240 02:51 21.03.2022
3107 Clear 4 1030 56 10000 3.6 240 00:19 21.03.2022
3108 Clear 4 1031 60 10000 3.09 230 22:44 20.03.2022
3109 Clear 5 1031 60 10000 3.09 230 21:52 20.03.2022
3110 Clear 5 1031 60 10000 3.09 230 21:52 20.03.2022
3111 Clear 5 1031 60 10000 3.6 230 21:25 20.03.2022
3112 Clear 5 1031 60 10000 3.6 230 20:43 20.03.2022
3113 Clear 5 1031 60 10000 3.6 230 19:59 20.03.2022
3114 Clear 5 1031 65 10000 3.6 230 19:31 20.03.2022
3115 Clear 5 1031 65 10000 4.63 220 18:22 20.03.2022
3116 Clear 6 1031 60 10000 4.63 230 17:33 20.03.2022
3117 Clear 7 1031 56 10000 4.63 230 16:57 20.03.2022
3118 Clear 8 1031 49 10000 5.66 230 15:34 20.03.2022
3119 Clear 7 1031 56 10000 5.14 230 14:34 20.03.2022
3120 Clear 8 1032 53 10000 4.12 240 12:30 20.03.2022
3121 Clear 6 1032 65 10000 5.66 220 11:22 20.03.2022
3122 Clear 5 1031 70 10000 6.17 230 08:59 20.03.2022
3123 Clear 3 1030 80 10000 6.17 230 07:26 20.03.2022
3124 Clear 3 1028 80 10000 6.17 230 04:23 20.03.2022
3125 Clear 4 1027 81 10000 6.17 230 01:50 20.03.2022
3126 Clear 5 1026 75 10000 5.66 230 00:39 20.03.2022
3127 Clear 5 1026 81 10000 6.17 240 23:19 19.03.2022
3128 Clear 6 1025 75 10000 6.69 230 21:27 19.03.2022
3129 Clear 5 1024 75 10000 6.17 230 20:39 19.03.2022
3130 Clear 5 1024 75 10000 6.69 230 18:58 19.03.2022
3131 Clear 5 1024 75 10000 6.17 230 18:23 19.03.2022
3132 Clear 5 1023 75 10000 7.72 220 17:35 19.03.2022
3133 Clear 5 1023 75 10000 7.72 220 17:35 19.03.2022
3134 Clear 6 1022 65 10000 9.26 220 15:43 19.03.2022
3135 Clear 6 1022 60 10000 9.26 230 14:34 19.03.2022
3136 Clear 5 1021 65 10000 9.77 230 12:59 19.03.2022
3137 Clear 5 1021 60 10000 10.8 230 12:39 19.03.2022
3138 Clear 5 1022 60 10000 10.29 230 11:51 19.03.2022
3139 Clear 4 1022 60 10000 9.77 230 10:45 19.03.2022
3140 Clear -1 1026 80 10000 7.72 210 06:29 19.03.2022
3141 Clear -3 1029 80 10000 7.72 220 03:24 19.03.2022
3142 Clear -2 1030 74 10000 5.14 220 01:41 19.03.2022
3143 Clear -1 1030 74 10000 4.63 230 23:36 18.03.2022
3144 Clear -1 1030 80 10000 3.6 240 22:26 18.03.2022
3145 Clear -1 1029 93 10000 3.09 240 21:19 18.03.2022
3146 Clouds 0 1028 100 10000 5.66 230 19:50 18.03.2022
3147 Clouds 1 1028 93 9000 4.63 230 19:21 18.03.2022
3148 Clouds 1 1026 100 9000 7.2 210 17:39 18.03.2022
3149 Mist 1 1025 100 3900 7.2 220 16:46 18.03.2022
3150 Mist 1 1024 100 2000 8.23 220 14:45 18.03.2022
3151 Fog 1 1024 93 600 8.23 210 14:20 18.03.2022
3152 Fog 0 1024 100 700 9.26 210 12:23 18.03.2022
3153 Clouds 0 1023 93 7000 8.23 210 10:39 18.03.2022
3154 Snow 0 1023 93 1800 8.23 200 09:23 18.03.2022
3155 Clear 1 1024 59 10000 9.26 200 07:45 18.03.2022
3156 Clear 0 1025 64 10000 5.66 170 05:46 18.03.2022
3157 Clear 2 1027 60 10000 7.72 190 02:50 18.03.2022
3158 Clear 3 1028 64 10000 9.26 210 00:21 18.03.2022
3159 Clear 4 1028 60 10000 8.75 210 22:56 17.03.2022
3160 Clear 4 1028 60 10000 9.26 210 22:22 17.03.2022
3161 Clear 4 1029 60 10000 8.75 210 21:47 17.03.2022
3162 Clear 4 1029 60 10000 8.75 210 21:19 17.03.2022
3163 Clear 4 1029 60 10000 8.23 210 20:32 17.03.2022
3164 Clear 4 1029 60 10000 8.75 200 19:41 17.03.2022
3165 Clear 4 1029 60 10000 8.75 210 18:57 17.03.2022
3166 Clear 4 1029 60 10000 9.26 210 17:55 17.03.2022
3167 Clear 5 1029 60 10000 7.2 200 16:34 17.03.2022
3168 Clear 5 1029 60 10000 7.72 200 15:44 17.03.2022
3169 Clear 5 1030 60 10000 8.23 200 15:21 17.03.2022
3170 Clear 6 1029 60 10000 7.72 200 13:48 17.03.2022
3171 Clear 5 1030 65 10000 7.2 220 12:48 17.03.2022
3172 Clear 4 1030 65 10000 5.14 210 11:47 17.03.2022
3173 Clear 4 1030 65 10000 5.66 210 11:22 17.03.2022
3174 Clear 1 1030 74 10000 7.2 200 09:41 17.03.2022
3175 Clouds -1 1030 80 10000 5.66 200 08:21 17.03.2022
3176 Clear -2 1030 86 10000 5.14 210 06:18 17.03.2022
3177 Clear -2 1030 86 10000 4.12 210 05:25 17.03.2022
3178 Clear 1 1029 69 10000 6.17 210 00:33 17.03.2022
3179 Clear 0 1029 74 10000 5.14 230 22:58 16.03.2022
3180 Clear 1 1029 69 10000 5.66 220 22:37 16.03.2022
3181 Clear 0 1029 74 10000 4.63 220 21:58 16.03.2022
3182 Clear 0 1028 74 10000 4.12 230 20:47 16.03.2022
3183 Clear 1 1028 74 10000 6.69 210 19:24 16.03.2022
3184 Clear 1 1027 74 10000 7.72 200 18:43 16.03.2022
3185 Clear 2 1027 64 10000 6.69 200 17:50 16.03.2022
3186 Clear 2 1027 64 10000 6.69 200 17:31 16.03.2022
3187 Clear 3 1027 60 10000 7.2 200 16:35 16.03.2022
3188 Clear 5 1027 52 10000 7.72 190 14:58 16.03.2022
3189 Clear 5 1027 56 10000 6.17 200 13:41 16.03.2022
3190 Clear 4 1027 60 10000 7.72 200 12:56 16.03.2022
3191 Clear 2 1027 69 10000 6.69 200 11:24 16.03.2022
3192 Clear 1 1027 80 10000 7.2 200 10:37 16.03.2022
3193 Clear -1 1027 93 10000 6.17 200 09:57 16.03.2022
3194 Clouds -3 1026 93 8000 4.12 200 08:24 16.03.2022
3195 Fog -5 1025 93 900 3.09 180 02:46 16.03.2022
3196 Clouds -5 1024 93 10000 3.09 220 22:56 15.03.2022
3197 Clouds -4 1024 93 10000 3.6 200 22:36 15.03.2022
3198 Clear -2 1024 86 10000 2.57 170 20:59 15.03.2022
3199 Clear -2 1024 86 10000 2.57 190 19:39 15.03.2022
3200 Clear -4 1024 74 10000 1.03 0 17:46 15.03.2022
3201 Clear -1 1024 69 10000 1.54 110 16:38 15.03.2022
3202 Clear -1 1024 69 10000 1.03 0 15:38 15.03.2022
3203 Clear -1 1024 69 10000 2.06 110 14:54 15.03.2022
3204 Clear -2 1024 80 10000 2.06 100 13:56 15.03.2022
3205 Clear -4 1024 86 10000 1.54 110 13:22 15.03.2022
3206 Clouds -5 1024 93 10000 2.57 120 11:33 15.03.2022
3207 Fog -7 1024 93 10000 0.51 0 10:27 15.03.2022
3208 Fog -8 1024 92 10000 1.54 90 09:20 15.03.2022
3209 Fog -9 1024 92 500 1.54 120 08:21 15.03.2022
3210 Fog -9 1024 92 700 2.57 100 07:36 15.03.2022
3211 Clear -10 1024 92 10000 3.09 80 05:55 15.03.2022
3212 Clouds -6 1024 93 10000 2.57 90 00:25 15.03.2022
3213 Clouds -6 1024 93 10000 2.06 90 23:27 14.03.2022
3214 Clouds -6 1024 93 10000 3.6 120 22:44 14.03.2022
3215 Clouds -5 1024 93 10000 2.57 120 21:51 14.03.2022
3216 Clouds -4 1024 93 10000 3.09 120 20:55 14.03.2022
3217 Clear -3 1024 86 10000 2.57 140 20:24 14.03.2022
3218 Clear -2 1024 80 10000 2.57 150 19:22 14.03.2022
3219 Clear -2 1024 80 10000 2.57 130 17:55 14.03.2022
3220 Clear -2 1024 80 10000 2.06 100 17:25 14.03.2022
3221 Clear 0 1024 69 10000 1.54 130 16:26 14.03.2022
3222 Clear 0 1024 69 10000 1.03 50 14:41 14.03.2022
3223 Clear -3 1024 86 10000 0.51 0 12:55 14.03.2022
3224 Clear -5 1024 93 10000 0.51 0 10:57 14.03.2022
3225 Clouds -5 1024 93 10000 0.51 180 09:56 14.03.2022
3226 Clouds -7 1024 93 10000 2.06 50 09:22 14.03.2022
3227 Clouds -7 1024 93 10000 2.06 50 08:57 14.03.2022
3228 Fog -9 1024 92 6000 1.03 0 07:43 14.03.2022
3229 Fog -10 1024 92 450 1.03 280 05:46 14.03.2022
3230 Fog -8 1023 100 550 1.03 0 02:51 14.03.2022
3231 Fog -5 1023 93 300 1.03 220 01:29 14.03.2022
3232 Clear -6 1023 100 10000 1.54 260 22:56 13.03.2022
3233 Clear -4 1023 93 10000 2.57 240 21:31 13.03.2022
3234 Clear -5 1023 86 10000 2.06 250 20:59 13.03.2022
3235 Clear -3 1023 86 10000 2.57 240 20:37 13.03.2022
3236 Clear -1 1023 80 10000 2.57 220 20:19 13.03.2022
3237 Clear -1 1023 80 10000 3.6 230 19:39 13.03.2022
3238 Clear 0 1022 74 10000 4.12 210 19:18 13.03.2022
3239 Clear 0 1022 74 10000 3.6 200 18:38 13.03.2022
3240 Clear 1 1022 74 10000 2.06 210 17:47 13.03.2022
3241 Clear 2 1022 69 10000 2.06 220 17:20 13.03.2022
3242 Clear 2 1022 69 10000 3.6 220 16:30 13.03.2022
3243 Clear 4 1022 65 10000 4.63 220 15:47 13.03.2022
3244 Clear 5 1022 60 10000 4.12 210 14:56 13.03.2022
3245 Clear 5 1022 60 10000 3.6 190 13:45 13.03.2022
3246 Clear 5 1023 60 10000 1.54 200 12:57 13.03.2022
3247 Clear 3 1023 69 10000 2.06 170 11:53 13.03.2022
3248 Clear 2 1023 75 10000 3.09 180 11:32 13.03.2022
3249 Clear 1 1023 74 10000 2.06 120 10:47 13.03.2022
3250 Clear 1 1023 74 10000 2.06 120 10:22 13.03.2022
3251 Clouds 0 1023 80 10000 1.54 110 09:40 13.03.2022
3252 Clouds -2 1023 86 10000 2.57 90 08:45 13.03.2022
3253 Clear -3 1023 93 10000 2.06 110 07:41 13.03.2022
3254 Clouds -5 1022 93 7000 2.57 90 05:40 13.03.2022
3255 Fog -2 1022 93 900 1.54 120 02:39 13.03.2022
3256 Mist -1 1023 93 4800 1.54 220 23:56 12.03.2022
3257 Clear -2 1023 93 10000 2.57 240 22:27 12.03.2022
3258 Clear 1 1023 80 10000 3.09 230 20:34 12.03.2022
3259 Clear 3 1022 75 10000 2.57 220 19:47 12.03.2022
3260 Clear 4 1022 70 10000 2.57 220 18:58 12.03.2022
3261 Clear 4 1022 65 10000 3.09 230 18:22 12.03.2022
3262 Clear 4 1022 70 10000 3.09 230 17:23 12.03.2022
3263 Clear 6 1022 65 10000 3.09 230 16:23 12.03.2022
3264 Clear 6 1022 65 10000 3.09 220 15:22 12.03.2022
3265 Clear 7 1022 61 10000 3.09 210 14:27 12.03.2022
3266 Clear 5 1023 65 10000 2.06 210 12:45 12.03.2022
3267 Clear 5 1023 70 10000 1.54 200 11:56 12.03.2022
3268 Clear 4 1023 75 10000 1.54 190 11:34 12.03.2022
3269 Clear 3 1023 75 10000 1.54 210 10:52 12.03.2022
3270 Clear 1 1023 86 10000 1.54 220 09:44 12.03.2022
3271 Clear 0 1023 93 10000 2.57 250 08:53 12.03.2022
3272 Fog -1 1022 100 750 1.03 250 06:53 12.03.2022
3273 Clear 0 1022 93 10000 2.06 260 01:44 12.03.2022
3274 Clear 1 1022 86 10000 2.06 230 23:51 11.03.2022
3275 Clear 1 1022 86 10000 1.54 270 22:45 11.03.2022
3276 Clear 1 1021 86 10000 2.57 230 21:26 11.03.2022
3277 Clear 1 1021 80 10000 1.03 0 20:51 11.03.2022
3278 Clear 1 1021 80 10000 1.03 0 20:26 11.03.2022
3279 Clear 3 1021 75 10000 2.57 250 19:36 11.03.2022
3280 Clear 3 1021 75 10000 2.57 230 18:43 11.03.2022
3281 Clear 3 1020 75 10000 4.12 210 17:26 11.03.2022
3282 Clear 3 1020 75 10000 3.6 220 16:26 11.03.2022
3283 Clear 3 1020 75 10000 3.09 210 15:51 11.03.2022
3284 Clear 3 1020 75 10000 3.09 240 13:45 11.03.2022
3285 Clear 2 1020 75 10000 3.6 210 12:41 11.03.2022
3286 Clear 1 1020 80 10000 2.06 240 12:19 11.03.2022
3287 Clear 1 1020 80 10000 3.6 240 11:28 11.03.2022
3288 Clear -2 1019 93 10000 3.6 240 09:36 11.03.2022
3289 Clear -3 1019 93 10000 3.6 250 08:28 11.03.2022
3290 Clear -4 1018 93 10000 3.09 240 07:48 11.03.2022
3291 Clear -4 1018 93 10000 2.06 230 06:44 11.03.2022
3292 Clear -4 1017 100 10000 2.06 210 04:40 11.03.2022
3293 Clear -4 1017 100 10000 3.6 230 01:48 11.03.2022
3294 Clear -2 1016 93 10000 4.12 220 22:33 10.03.2022
3295 Clear -2 1016 93 10000 5.14 220 21:54 10.03.2022
3296 Clear -2 1016 100 10000 4.63 230 21:25 10.03.2022
3297 Clear -1 1016 93 10000 5.66 230 20:36 10.03.2022
3298 Clouds -1 1016 93 10000 6.69 230 19:20 10.03.2022
3299 Clouds 0 1015 93 10000 9.26 220 17:55 10.03.2022
3300 Clouds 0 1015 93 10000 9.77 220 16:53 10.03.2022
3301 Clouds 0 1016 93 9000 10.8 220 15:29 10.03.2022
3302 Clouds 0 1016 86 10000 12.35 220 13:46 10.03.2022
3303 Clouds -1 1017 100 10000 10.8 220 12:41 10.03.2022
3304 Clouds -1 1017 100 6000 9.77 220 11:28 10.03.2022
3305 Clouds -1 1018 93 2000 9.77 210 09:42 10.03.2022
3306 Mist -3 1019 100 1400 8.23 200 07:48 10.03.2022
3307 Clouds -3 1020 93 9000 7.72 200 05:32 10.03.2022
3308 Clouds -4 1022 93 10000 9.26 210 02:33 10.03.2022
3309 Clouds -5 1024 93 8000 8.23 200 23:32 09.03.2022
3310 Clouds -5 1025 93 10000 8.23 210 22:22 09.03.2022
3311 Clouds -6 1025 93 10000 8.23 200 21:44 09.03.2022
3312 Clouds -6 1026 93 9000 7.72 200 20:36 09.03.2022
3313 Clouds -6 1026 93 10000 7.72 200 18:41 09.03.2022
3314 Clouds -6 1026 93 10000 7.2 210 17:28 09.03.2022
3315 Clouds -6 1026 93 10000 7.2 210 16:36 09.03.2022
3316 Clouds -6 1026 93 10000 6.17 210 15:32 09.03.2022
3317 Clouds -6 1027 93 10000 6.17 200 13:58 09.03.2022
3318 Clouds -6 1027 93 10000 7.2 210 12:59 09.03.2022
3319 Clouds -7 1027 93 10000 6.69 210 12:19 09.03.2022
3320 Clouds -7 1027 93 10000 6.17 220 11:36 09.03.2022
3321 Clouds -7 1027 93 7000 6.69 210 10:39 09.03.2022
3322 Clouds -7 1026 93 8000 5.66 220 08:59 09.03.2022
3323 Clouds -7 1026 93 10000 5.66 220 08:25 09.03.2022
3324 Fog -7 1025 100 1100 4.12 230 03:50 09.03.2022
3325 Fog -7 1024 100 1200 2.57 240 00:52 09.03.2022
3326 Clouds -7 1023 100 10000 3.09 230 23:18 08.03.2022
3327 Clouds -7 1023 100 10000 2.57 260 22:44 08.03.2022
3328 Clouds -6 1023 93 10000 2.06 260 21:24 08.03.2022
3329 Clouds -6 1022 93 10000 2.57 260 20:49 08.03.2022
3330 Clouds -6 1022 93 10000 2.06 260 19:53 08.03.2022
3331 Clouds -6 1021 93 10000 2.06 260 18:44 08.03.2022
3332 Clouds -6 1021 93 10000 2.06 250 17:37 08.03.2022
3333 Clouds -6 1020 93 10000 1.03 0 16:29 08.03.2022
3334 Clouds -6 1019 93 10000 1.03 0 14:20 08.03.2022
3335 Clouds -6 1018 93 10000 1.54 260 12:44 08.03.2022
3336 Clouds -6 1018 93 10000 0.51 310 11:45 08.03.2022
3337 Clouds -7 1017 93 10000 1.54 60 10:50 08.03.2022
3338 Clouds -7 1017 93 10000 0.51 0 09:57 08.03.2022
3339 Fog -8 1016 92 800 2.06 140 07:32 08.03.2022
3340 Clouds -8 1015 92 5000 2.06 120 05:43 08.03.2022
3341 Clouds -8 1015 92 4700 4.12 170 23:51 07.03.2022
3342 Snow -8 1015 86 4000 3.6 150 21:57 07.03.2022
3343 Snow -8 1015 86 4000 3.6 150 21:32 07.03.2022
3344 Snow -8 1016 86 2000 3.09 160 20:46 07.03.2022
3345 Snow -9 1016 92 2300 4.12 160 19:55 07.03.2022
3346 Snow -9 1016 92 3100 4.63 160 19:31 07.03.2022
3347 Snow -8 1016 79 4100 5.14 160 18:42 07.03.2022
3348 Snow -8 1016 73 4300 5.14 160 17:48 07.03.2022
3349 Snow -7 1016 62 10000 4.63 160 16:55 07.03.2022
3350 Clouds -7 1017 67 10000 4.63 170 15:35 07.03.2022
3351 Clouds -6 1017 63 10000 4.12 170 13:24 07.03.2022
3352 Clouds -6 1018 68 10000 4.12 150 12:23 07.03.2022
3353 Clouds -7 1019 73 10000 3.6 170 10:38 07.03.2022
3354 Clouds -7 1019 73 10000 3.6 170 10:38 07.03.2022
3355 Clouds -7 1018 86 10000 4.12 130 08:48 07.03.2022
3356 Clouds -5 1016 86 10000 3.09 90 03:49 07.03.2022
3357 Snow -4 1014 93 10000 1.03 80 00:22 07.03.2022
3358 Clouds -4 1014 93 10000 1.54 40 23:35 06.03.2022
3359 Clouds -4 1013 93 10000 1.54 20 22:40 06.03.2022
3360 Clouds -4 1012 93 10000 1.54 360 21:46 06.03.2022
3361 Clouds -4 1012 93 10000 1.54 350 20:31 06.03.2022
3362 Clouds -4 1011 93 10000 2.06 20 19:51 06.03.2022
3363 Clouds -4 1010 93 10000 3.09 30 18:51 06.03.2022
3364 Clouds -4 1010 93 10000 2.57 20 17:57 06.03.2022
3365 Clouds -4 1009 93 10000 3.09 30 17:21 06.03.2022
3366 Clouds -3 1008 93 10000 3.09 60 16:41 06.03.2022
3367 Clouds -4 1007 93 10000 2.06 30 15:45 06.03.2022
3368 Clouds -4 1006 93 10000 3.09 40 14:49 06.03.2022
3369 Clouds -4 1006 93 10000 3.09 40 14:30 06.03.2022
3370 Clouds -3 1005 93 3500 1.54 80 12:50 06.03.2022
3371 Mist -3 1005 93 2800 1.54 100 11:56 06.03.2022
3372 Clouds -4 1004 93 9000 2.06 170 10:52 06.03.2022
3373 Clouds -4 1004 93 10000 3.09 120 09:43 06.03.2022
3374 Clouds -5 1004 93 10000 2.57 110 08:29 06.03.2022
3375 Clouds -5 1004 93 10000 2.06 120 07:34 06.03.2022
3376 Clouds -5 1004 93 10000 2.06 90 04:45 06.03.2022
3377 Snow -5 1005 100 7000 1.03 210 00:43 06.03.2022
3378 Snow -5 1005 100 7000 1.03 210 00:23 06.03.2022
3379 Snow -4 1006 100 3500 0.51 110 23:19 05.03.2022
3380 Snow -4 1006 100 2100 0 0 22:42 05.03.2022
3381 Fog -4 1006 93 1000 0.51 0 21:36 05.03.2022
3382 Fog -4 1006 93 2000 0.51 0 20:57 05.03.2022
3383 Mist -4 1007 93 2900 1.03 0 19:23 05.03.2022
3384 Fog -4 1007 93 1000 2.06 250 18:50 05.03.2022
3385 Fog -4 1008 93 900 3.09 250 17:41 05.03.2022
3386 Clouds -4 1008 93 10000 3.6 230 16:20 05.03.2022
3387 Snow -5 1009 100 2700 4.12 210 15:30 05.03.2022
3388 Snow -5 1009 100 2600 4.12 210 14:42 05.03.2022
3389 Snow -5 1009 100 2600 4.12 210 14:24 05.03.2022
3390 Snow -5 1010 100 3500 4.63 200 12:55 05.03.2022
3391 Clouds -5 1011 93 10000 4.12 190 11:39 05.03.2022
3392 Snow -5 1012 86 10000 4.12 190 11:18 05.03.2022
3393 Snow -6 1012 93 10000 5.14 190 09:40 05.03.2022
3394 Clouds -6 1013 86 10000 4.12 180 08:49 05.03.2022
3395 Clouds -7 1014 86 10000 4.63 170 07:23 05.03.2022
3396 Clear -7 1015 79 10000 4.63 160 05:41 05.03.2022
3397 Clouds -7 1019 79 10000 3.09 160 01:25 05.03.2022
3398 Clear -7 1021 79 10000 2.57 190 23:30 04.03.2022
3399 Clear -6 1021 73 10000 3.09 200 22:40 04.03.2022
3400 Clear -6 1021 73 10000 3.6 200 21:45 04.03.2022
3401 Clear -6 1022 73 10000 3.6 200 20:48 04.03.2022
3402 Clear -5 1022 63 10000 3.09 200 19:39 04.03.2022
3403 Clear -5 1022 63 10000 3.09 200 18:59 04.03.2022
3404 Clear -5 1022 68 10000 3.09 210 18:36 04.03.2022
3405 Clear -4 1022 63 10000 2.57 190 17:29 04.03.2022
3406 Clear -3 1023 58 10000 2.06 180 16:26 04.03.2022
3407 Clear -3 1023 63 10000 2.06 200 15:27 04.03.2022
3408 Clear -2 1023 54 10000 2.57 250 13:38 04.03.2022
3409 Clear -3 1023 58 10000 2.57 280 12:51 04.03.2022
3410 Clear -4 1024 63 10000 2.06 280 11:37 04.03.2022
3411 Clear -5 1024 73 10000 2.57 310 10:30 04.03.2022
3412 Clear -7 1023 79 10000 4.12 320 09:28 04.03.2022
3413 Clear -9 1023 92 10000 5.14 340 08:20 04.03.2022
3414 Clear -9 1022 92 10000 4.63 330 06:55 04.03.2022
3415 Clear -7 1022 86 10000 4.12 340 02:52 04.03.2022
3416 Clear -5 1021 79 10000 3.09 330 23:43 03.03.2022
3417 Clear -5 1021 86 10000 3.09 310 22:18 03.03.2022
3418 Clear -5 1020 86 10000 2.57 310 21:36 03.03.2022
3419 Clear -4 1020 74 10000 3.09 310 20:50 03.03.2022
3420 Clear -3 1019 63 10000 2.06 310 19:34 03.03.2022
3421 Clouds -2 1019 63 10000 2.06 320 18:33 03.03.2022
3422 Clear -2 1019 63 10000 2.06 330 17:39 03.03.2022
3423 Clear -2 1019 63 10000 2.06 310 17:18 03.03.2022
3424 Clear 0 1019 55 10000 4.12 320 15:46 03.03.2022
3425 Clear 0 1018 55 10000 5.14 330 14:45 03.03.2022
3426 Clear 0 1018 55 10000 5.14 330 14:27 03.03.2022
3427 Clouds 0 1018 55 10000 4.63 340 12:43 03.03.2022
3428 Clear -1 1017 59 10000 5.14 330 11:31 03.03.2022
3429 Clear -2 1017 63 10000 4.63 340 10:38 03.03.2022
3430 Clear -3 1015 68 10000 4.63 330 08:43 03.03.2022
3431 Clear -3 1015 74 10000 5.14 330 06:58 03.03.2022
3432 Clear -2 1013 68 10000 5.66 330 05:44 03.03.2022
3433 Clear -1 1010 74 10000 4.63 320 00:30 03.03.2022
3434 Clear 0 1009 80 10000 5.66 320 23:18 02.03.2022
3435 Clear 0 1008 86 10000 5.66 320 22:42 02.03.2022
3436 Clear 0 1007 86 10000 3.6 330 21:23 02.03.2022
3437 Clear 1 1006 93 10000 4.63 320 20:30 02.03.2022
3438 Clear 1 1006 93 10000 4.63 320 20:30 02.03.2022
3439 Clouds 1 1004 93 10000 5.14 330 19:43 02.03.2022
3440 Snow 1 1004 93 10000 5.14 330 19:24 02.03.2022
3441 Snow 0 1003 100 10000 2.57 260 18:39 02.03.2022
3442 Snow 0 1003 100 4100 3.6 240 17:45 02.03.2022
3443 Snow 0 1002 100 4100 4.12 230 16:54 02.03.2022
3444 Snow 0 1002 100 5000 4.63 220 16:25 02.03.2022
3445 Snow 0 1001 86 2800 6.69 210 14:39 02.03.2022
3446 Clouds 2 1001 69 10000 7.72 210 13:18 02.03.2022
3447 Clouds 2 1001 69 10000 7.2 210 12:39 02.03.2022
3448 Clouds 2 1001 64 10000 7.72 220 11:28 02.03.2022
3449 Clear 1 1001 69 10000 6.69 230 10:58 02.03.2022
3450 Clear 0 1001 74 10000 6.69 220 09:40 02.03.2022
3451 Clear -1 1001 80 10000 6.17 220 08:50 02.03.2022
3452 Clear -1 1002 80 10000 7.72 220 07:25 02.03.2022
3453 Clear -1 1002 80 10000 6.69 220 05:42 02.03.2022
3454 Clear -1 1005 80 10000 6.17 220 00:51 02.03.2022
3455 Clear -1 1005 80 10000 6.17 220 23:40 01.03.2022
3456 Clear -3 1005 86 10000 4.63 230 22:42 01.03.2022
3457 Clear -3 1006 93 10000 4.63 230 21:55 01.03.2022
3458 Clear -2 1006 86 10000 6.17 220 20:44 01.03.2022
3459 Clear -2 1006 86 10000 6.17 220 20:22 01.03.2022
3460 Clear -2 1006 86 10000 6.69 230 19:21 01.03.2022
3461 Clear -2 1006 93 10000 6.17 220 18:26 01.03.2022
3462 Clear -2 1006 86 10000 6.69 230 17:55 01.03.2022
3463 Clouds -1 1006 86 6000 7.2 220 16:50 01.03.2022
3464 Clouds -1 1005 93 5000 7.72 220 15:51 01.03.2022
3465 Snow -1 1006 93 10000 6.69 220 14:54 01.03.2022
3466 Snow -1 1006 93 7000 7.2 210 14:33 01.03.2022
3467 Snow -1 1007 93 2000 7.2 210 13:26 01.03.2022
3468 Snow -1 1007 86 10000 5.66 210 12:38 01.03.2022
3469 Clouds -1 1008 86 10000 5.66 200 11:44 01.03.2022
3470 Clouds -2 1009 86 10000 6.17 190 09:53 01.03.2022
3471 Clouds -3 1010 93 10000 6.17 200 08:31 01.03.2022
3472 Clouds -3 1010 93 10000 6.17 190 07:35 01.03.2022
3473 Clouds -2 1013 93 10000 5.14 210 03:29 01.03.2022
3474 Clear -2 1014 86 10000 2.57 140 00:58 01.03.2022
3475 Clouds -2 1016 86 10000 3.6 190 23:47 28.02.2022
3476 Clear -2 1017 86 10000 3.6 210 22:50 28.02.2022
3477 Clear -1 1017 80 10000 5.14 210 21:48 28.02.2022
3478 Clear -1 1017 80 10000 5.66 210 20:56 28.02.2022
3479 Clear 0 1018 86 10000 4.63 200 19:51 28.02.2022
3480 Clear 0 1019 86 10000 4.63 190 19:22 28.02.2022
3481 Clear 0 1019 86 10000 5.14 190 18:35 28.02.2022
3482 Clear 1 1019 80 10000 3.6 170 17:23 28.02.2022
3483 Clear 3 1020 69 10000 4.12 200 16:32 28.02.2022
3484 Clear 4 1020 65 10000 5.14 220 15:21 28.02.2022
3485 Clear 4 1020 60 10000 6.17 210 14:29 28.02.2022
3486 Clear 5 1020 56 10000 3.09 240 13:24 28.02.2022
3487 Clear 5 1020 52 10000 3.6 250 12:31 28.02.2022
3488 Clear 4 1020 60 10000 3.09 270 11:21 28.02.2022
3489 Clear 4 1020 60 10000 4.63 270 10:24 28.02.2022
3490 Clear 3 1019 64 10000 5.14 260 09:53 28.02.2022
3491 Clear 3 1019 64 10000 5.14 260 09:24 28.02.2022
3492 Clear 2 1019 69 10000 5.66 260 08:22 28.02.2022
3493 Clear 2 1018 75 10000 5.66 260 06:44 28.02.2022
3494 Clear 1 1016 80 10000 6.17 250 04:31 28.02.2022
3495 Clear 1 1014 74 10000 7.2 240 01:42 28.02.2022
3496 Clear 0 1012 80 10000 7.72 230 22:57 27.02.2022
3497 Clear 0 1012 80 10000 6.69 230 22:32 27.02.2022
3498 Clear -1 1011 86 10000 9.26 220 21:42 27.02.2022
3499 Clear -1 1012 86 10000 8.23 220 20:54 27.02.2022
3500 Clear -1 1012 86 10000 8.23 220 20:25 27.02.2022
3501 Clouds -1 1013 93 10000 8.75 210 19:50 27.02.2022
3502 Clouds -1 1013 93 10000 8.75 210 19:24 27.02.2022
3503 Clouds -1 1013 86 10000 9.26 210 18:38 27.02.2022
3504 Clear -1 1013 86 10000 8.75 220 17:53 27.02.2022
3505 Clear 0 1014 80 10000 8.23 220 16:31 27.02.2022
3506 Clear 0 1015 80 10000 8.75 210 15:42 27.02.2022
3507 Clear 1 1015 74 10000 9.77 220 12:53 27.02.2022
3508 Clear 1 1015 74 10000 10.8 220 12:29 27.02.2022
3509 Clouds 0 1016 86 10000 11.32 210 10:47 27.02.2022
3510 Clouds 0 1016 86 10000 10.29 220 09:58 27.02.2022
3511 Clouds 0 1015 86 7000 9.77 220 09:27 27.02.2022
3512 Clouds 0 1015 86 7000 9.77 220 08:54 27.02.2022
3513 Clear -1 1015 93 10000 9.26 220 06:43 27.02.2022
3514 Clouds -2 1015 93 9000 10.29 220 04:26 27.02.2022
3515 Snow -4 1017 80 5000 11.83 220 00:34 27.02.2022
3516 Snow -6 1019 73 10000 9.77 200 22:51 26.02.2022
3517 Clear -7 1020 67 10000 8.75 200 21:38 26.02.2022
3518 Clear -8 1020 73 10000 8.23 200 20:48 26.02.2022
3519 Clear -8 1021 73 10000 6.69 200 19:59 26.02.2022
3520 Clear -8 1021 73 10000 6.69 200 19:59 26.02.2022
3521 Clear -8 1021 73 10000 6.69 200 19:34 26.02.2022
3522 Clear -7 1021 73 10000 7.2 210 18:46 26.02.2022
3523 Clear -7 1022 79 10000 4.12 200 17:40 26.02.2022
3524 Clear -7 1022 79 10000 5.14 200 16:48 26.02.2022
3525 Clear -6 1022 79 10000 5.14 210 15:48 26.02.2022
3526 Clear -5 1022 68 10000 5.14 210 15:20 26.02.2022
3527 Clear -6 1021 73 10000 4.63 220 14:52 26.02.2022
3528 Clear -6 1021 73 10000 4.63 220 14:25 26.02.2022
3529 Clear -6 1021 68 10000 2.57 240 13:18 26.02.2022
3530 Clear -5 1020 63 10000 1.54 270 11:54 26.02.2022
3531 Clear -6 1020 68 10000 1.03 0 11:28 26.02.2022
3532 Clear -7 1019 73 10000 2.06 340 10:31 26.02.2022
3533 Clear -9 1016 85 10000 3.09 330 08:45 26.02.2022
3534 Clear -8 1013 79 10000 5.14 330 06:46 26.02.2022
3535 Clouds -3 1003 80 10000 5.66 330 00:38 26.02.2022
3536 Clouds -3 999 86 10000 5.66 330 22:45 25.02.2022
3537 Clouds -3 998 86 10000 4.63 330 21:37 25.02.2022
3538 Snow -3 997 86 10000 5.14 330 21:18 25.02.2022
3539 Clouds -3 996 86 10000 4.63 330 20:31 25.02.2022
3540 Clouds -2 993 80 10000 4.12 310 18:35 25.02.2022
3541 Clouds -2 991 93 10000 2.06 260 17:21 25.02.2022
3542 Clouds -2 990 93 10000 2.57 230 16:21 25.02.2022
3543 Clouds -2 990 86 10000 3.6 220 15:42 25.02.2022
3544 Clouds -2 989 86 10000 3.6 210 15:19 25.02.2022
3545 Clouds -2 989 93 10000 5.14 220 14:41 25.02.2022
3546 Clouds -2 988 93 10000 5.14 210 13:36 25.02.2022
3547 Clouds -2 987 93 10000 6.69 210 12:42 25.02.2022
3548 Clouds -2 986 93 10000 4.63 220 11:23 25.02.2022
3549 Clouds -2 986 86 10000 7.2 220 10:28 25.02.2022
3550 Clouds -3 985 93 10000 7.2 210 09:52 25.02.2022
3551 Clouds -3 985 93 10000 7.2 210 08:44 25.02.2022
3552 Clouds -3 985 93 10000 6.69 210 07:36 25.02.2022
3553 Clouds -3 983 93 10000 7.2 200 05:45 25.02.2022
3554 Clouds -2 982 86 10000 7.2 210 02:49 25.02.2022
3555 Clouds -1 981 93 10000 8.23 220 22:55 24.02.2022
3556 Clouds 0 980 93 10000 7.72 220 21:51 24.02.2022
3557 Clouds 0 980 93 10000 7.72 220 21:31 24.02.2022
3558 Clouds 0 979 93 5000 10.29 220 20:53 24.02.2022
3559 Clouds -1 979 93 6000 9.77 220 19:38 24.02.2022
3560 Clouds -1 979 93 10000 7.72 220 18:36 24.02.2022
3561 Clouds -1 979 100 10000 7.2 210 18:18 24.02.2022
3562 Clouds 0 978 93 10000 7.2 220 17:33 24.02.2022
3563 Clouds 0 977 93 10000 5.66 230 16:28 24.02.2022
3564 Clouds -1 976 100 10000 4.63 240 15:46 24.02.2022
3565 Snow 0 976 93 1700 3.6 230 14:52 24.02.2022
3566 Snow -1 975 100 1500 2.57 180 14:20 24.02.2022
3567 Snow -1 976 100 600 2.57 170 13:39 24.02.2022
3568 Snow -1 977 93 900 2.57 140 12:27 24.02.2022
3569 Snow -2 979 93 1000 4.63 160 10:39 24.02.2022
3570 Snow -4 981 93 5000 4.12 160 08:56 24.02.2022
3571 Snow -4 982 93 6000 5.66 170 08:38 24.02.2022
3572 Snow -6 986 93 5000 6.69 160 05:52 24.02.2022
3573 Clouds -10 994 92 6000 6.17 160 00:32 24.02.2022
3574 Clouds -12 996 92 4600 5.14 170 22:38 23.02.2022
3575 Clouds -13 997 92 4400 4.63 160 21:34 23.02.2022
3576 Clouds -14 998 85 10000 4.63 150 20:30 23.02.2022
3577 Snow -15 999 85 9000 3.6 140 19:44 23.02.2022
3578 Snow -15 999 85 7000 4.12 160 18:32 23.02.2022
3579 Clouds -15 1000 85 6000 5.14 160 17:21 23.02.2022
3580 Clouds -15 1001 85 10000 2.06 150 14:34 23.02.2022
3581 Clouds -16 1002 78 10000 2.57 200 12:37 23.02.2022
3582 Clouds -17 1002 85 10000 1.54 200 11:23 23.02.2022
3583 Mist -18 1002 78 8000 2.57 200 10:30 23.02.2022
3584 Clouds -19 1001 77 10000 1.03 110 08:57 23.02.2022
3585 Clouds -20 1001 84 7000 2.06 100 07:57 23.02.2022
3586 Clouds -19 1000 84 6000 1.54 40 03:48 23.02.2022
3587 Clear -19 1000 84 10000 1.03 0 00:19 23.02.2022
3588 Clear -19 1000 84 10000 0.51 0 23:35 22.02.2022
3589 Clear -19 999 84 10000 0.51 0 22:31 22.02.2022
3590 Clear -18 999 84 10000 3.09 20 21:48 22.02.2022
3591 Clear -18 999 84 10000 3.09 20 21:25 22.02.2022
3592 Clouds -18 999 84 10000 3.09 350 20:49 22.02.2022
3593 Clouds -18 999 84 10000 3.09 350 20:29 22.02.2022
3594 Clouds -17 999 85 3900 1.54 350 19:34 22.02.2022
3595 Clouds -16 998 85 10000 4.12 360 18:58 22.02.2022
3596 Clouds -15 998 85 10000 3.6 340 17:36 22.02.2022
3597 Clear -15 998 85 10000 3.6 340 17:18 22.02.2022
3598 Clear -15 998 85 10000 3.6 340 16:36 22.02.2022
3599 Clouds -13 998 85 10000 2.57 340 15:37 22.02.2022
3600 Clouds -13 998 92 10000 2.06 320 14:42 22.02.2022
3601 Clouds -14 998 92 10000 2.06 20 11:41 22.02.2022
3602 Fog -15 998 85 1400 0.51 50 10:24 22.02.2022
3603 Mist -17 997 85 9000 2.06 350 07:43 22.02.2022
3604 Mist -17 997 85 9000 2.06 350 07:25 22.02.2022
3605 Clouds -16 996 85 8000 2.57 20 02:51 22.02.2022
3606 Clouds -16 996 85 8000 2.06 20 00:44 22.02.2022
3607 Clouds -16 996 92 10000 2.57 360 22:38 21.02.2022
3608 Clouds -15 995 85 10000 1.54 350 21:24 21.02.2022
3609 Clear -13 995 85 10000 3.6 350 20:19 21.02.2022
3610 Clouds -13 994 85 10000 3.09 10 18:40 21.02.2022
3611 Clear -13 994 85 10000 3.09 360 16:40 21.02.2022
3612 Clouds -13 993 85 10000 1.54 10 14:24 21.02.2022
3613 Clear -11 993 85 10000 0.51 0 13:55 21.02.2022
3614 Clear -11 992 85 10000 1.03 0 12:57 21.02.2022
3615 Clear -11 992 85 10000 1.03 0 12:22 21.02.2022
3616 Fog -13 991 85 1500 2.57 10 10:32 21.02.2022
3617 Clouds -13 990 85 10000 3.6 30 07:52 21.02.2022
3618 Clouds -12 988 92 10000 3.09 360 00:56 21.02.2022
3619 Clouds -10 988 85 10000 3.6 10 22:39 20.02.2022
3620 Clouds -10 988 85 10000 3.6 360 21:51 20.02.2022
3621 Clouds -10 988 85 10000 3.6 360 21:25 20.02.2022
3622 Clouds -10 988 92 10000 3.6 360 20:50 20.02.2022
3623 Clouds -9 988 85 10000 3.09 360 19:59 20.02.2022
3624 Clouds -9 988 92 10000 3.09 360 18:57 20.02.2022
3625 Clouds -9 987 92 10000 3.09 360 18:37 20.02.2022
3626 Clouds -9 987 92 10000 3.09 360 18:37 20.02.2022
3627 Clouds -9 987 92 10000 3.09 360 17:56 20.02.2022
3628 Clouds -8 989 86 10000 4.12 10 17:24 20.02.2022
3629 Clouds -7 987 86 5000 3.6 10 15:29 20.02.2022
3630 Clouds -7 987 93 4000 3.6 10 14:20 20.02.2022
3631 Clouds -7 987 86 10000 2.57 360 12:49 20.02.2022
3632 Clouds -8 986 86 10000 3.6 360 11:56 20.02.2022
3633 Snow -9 986 92 10000 4.63 350 10:21 20.02.2022
3634 Snow -9 985 92 10000 4.63 350 09:51 20.02.2022
3635 Snow -8 984 92 10000 4.12 350 06:30 20.02.2022
3636 Snow -6 983 93 10000 3.6 360 00:33 20.02.2022
3637 Snow -6 983 93 10000 3.6 360 00:33 20.02.2022
3638 Snow -5 982 86 10000 4.63 10 23:39 19.02.2022
3639 Snow -5 982 86 10000 5.14 10 22:24 19.02.2022
3640 Clouds -5 981 93 10000 5.66 10 21:50 19.02.2022
3641 Snow -4 981 86 7000 4.63 10 20:41 19.02.2022
3642 Snow -4 980 86 10000 5.14 10 19:36 19.02.2022
3643 Snow -3 980 80 10000 3.6 10 18:41 19.02.2022
3644 Clouds -3 979 80 10000 4.63 10 17:58 19.02.2022
3645 Clouds -3 979 80 10000 4.63 10 17:23 19.02.2022
3646 Snow -3 978 80 10000 5.14 20 15:59 19.02.2022
3647 Snow -3 978 86 10000 4.12 10 14:55 19.02.2022
3648 Clouds -3 977 86 10000 4.12 20 13:58 19.02.2022
3649 Snow -3 976 86 10000 4.63 30 11:53 19.02.2022
3650 Snow -3 975 86 10000 4.63 20 10:54 19.02.2022
3651 Snow -4 974 93 10000 4.63 20 08:57 19.02.2022
3652 Snow -3 972 86 10000 4.12 20 06:48 19.02.2022
3653 Snow -2 970 86 10000 5.14 30 00:42 19.02.2022
3654 Snow -2 971 86 10000 5.14 30 22:28 18.02.2022
3655 Snow -2 971 86 10000 5.14 30 21:22 18.02.2022
3656 Clouds -2 969 86 10000 4.63 20 20:18 18.02.2022
3657 Snow -3 969 93 9000 5.14 20 19:25 18.02.2022
3658 Clouds -3 969 93 5000 5.66 20 18:29 18.02.2022
3659 Snow -2 968 86 10000 6.17 20 17:56 18.02.2022
3660 Snow -3 968 93 2200 6.17 30 16:19 18.02.2022
3661 Snow -3 968 93 2000 6.69 30 14:19 18.02.2022
3662 Snow -3 968 93 1400 6.69 30 13:45 18.02.2022
3663 Snow -3 968 93 1500 6.69 30 12:48 18.02.2022
3664 Snow -3 968 93 2000 7.72 30 11:56 18.02.2022
3665 Snow -3 968 86 2500 7.72 40 10:42 18.02.2022
3666 Snow -4 969 93 1500 8.75 40 07:20 18.02.2022
3667 Snow -4 969 86 3200 8.75 30 05:43 18.02.2022
3668 Snow -5 970 93 2500 8.23 30 03:47 18.02.2022
3669 Snow -5 973 86 6000 9.77 50 21:56 17.02.2022
3670 Snow -5 973 86 4700 9.26 50 21:33 17.02.2022
3671 Snow -5 973 86 3200 8.75 50 20:42 17.02.2022
3672 Snow -5 974 86 3100 8.75 50 19:54 17.02.2022
3673 Snow -5 974 86 4500 8.23 50 18:57 17.02.2022
3674 Snow -5 975 86 5000 8.75 50 18:18 17.02.2022
3675 Snow -5 976 86 5000 8.23 50 16:43 17.02.2022
3676 Clouds -5 977 86 10000 7.72 60 15:44 17.02.2022
3677 Clouds -5 977 86 10000 8.23 50 14:29 17.02.2022
3678 Snow -5 978 86 10000 6.69 70 12:51 17.02.2022
3679 Snow -6 979 93 6000 7.72 70 11:30 17.02.2022
3680 Snow -6 980 93 5000 7.72 70 09:30 17.02.2022
3681 Snow -6 981 93 10000 7.72 70 06:37 17.02.2022
3682 Snow -8 988 86 10000 7.72 80 23:21 16.02.2022
3683 Clouds -8 988 86 6000 7.72 70 22:20 16.02.2022
3684 Snow -8 990 92 10000 8.23 80 20:19 16.02.2022
3685 Snow -8 991 86 5000 7.72 70 18:43 16.02.2022
3686 Snow -8 991 86 5000 7.2 70 17:53 16.02.2022
3687 Snow -9 993 92 10000 5.14 60 15:58 16.02.2022
3688 Snow -8 994 86 10000 5.66 70 15:20 16.02.2022
3689 Clear -9 995 92 10000 4.12 70 13:31 16.02.2022
3690 Clear -9 995 92 10000 4.12 60 12:20 16.02.2022
3691 Clear -10 996 85 10000 4.63 60 11:31 16.02.2022
3692 Clear -11 996 85 10000 4.12 60 10:34 16.02.2022
3693 Clear -13 996 92 10000 4.12 30 08:24 16.02.2022
3694 Clear -13 997 85 10000 4.63 40 06:43 16.02.2022
3695 Clouds -11 1001 85 10000 4.63 50 23:45 15.02.2022
3696 Clouds -13 1001 92 10000 3.6 50 22:33 15.02.2022
3697 Clear -11 1002 85 10000 3.09 60 21:48 15.02.2022
3698 Clear -11 1002 85 10000 3.6 50 21:29 15.02.2022
3699 Clear -11 1002 85 10000 3.6 60 20:56 15.02.2022
3700 Clear -11 1003 85 10000 3.09 70 19:59 15.02.2022
3701 Clear -11 1003 92 10000 3.6 60 19:21 15.02.2022
3702 Clouds -11 1004 85 10000 4.12 60 18:23 15.02.2022
3703 Clear -12 1004 92 10000 3.09 70 17:50 15.02.2022
3704 Clear -12 1004 92 10000 3.09 70 17:19 15.02.2022
3705 Clear -14 1005 85 10000 3.09 60 15:30 15.02.2022
3706 Clear -16 1006 85 10000 3.09 60 13:28 15.02.2022
3707 Fog -16 1006 85 10000 1.54 80 12:37 15.02.2022
3708 Fog -15 1006 92 10000 1.03 0 11:40 15.02.2022
3709 Fog -17 1005 85 10000 0.51 0 09:47 15.02.2022
3710 Clear -13 1004 92 10000 0.51 150 06:59 15.02.2022
3711 Clear -11 1004 85 10000 3.09 330 05:32 15.02.2022
3712 Clear -15 1002 85 10000 2.06 270 23:33 14.02.2022
3713 Clear -13 1000 78 10000 2.06 300 21:47 14.02.2022
3714 Clear -13 1000 85 10000 2.57 280 20:40 14.02.2022
3715 Clear -14 999 85 10000 2.57 250 19:36 14.02.2022
3716 Clear -13 999 85 10000 2.06 270 18:44 14.02.2022
3717 Clear -12 998 85 10000 3.09 260 18:23 14.02.2022
3718 Clear -12 998 85 10000 3.09 260 17:26 14.02.2022
3719 Clear -12 997 92 10000 3.6 250 16:24 14.02.2022
3720 Clear -11 996 92 10000 3.6 240 14:29 14.02.2022
3721 Clear -11 995 92 10000 3.6 240 13:31 14.02.2022
3722 Clear -11 995 85 10000 3.09 240 12:48 14.02.2022
3723 Clear -12 994 85 10000 2.57 240 11:54 14.02.2022
3724 Clear -13 993 92 10000 3.09 250 10:44 14.02.2022
3725 Clear -15 992 85 10000 2.57 240 08:45 14.02.2022
3726 Clear -14 990 85 10000 3.09 250 07:31 14.02.2022
3727 Clouds -4 985 93 10000 4.12 290 01:18 14.02.2022
3728 Clouds -2 983 100 5000 3.6 190 22:42 13.02.2022
3729 Clouds -2 983 93 2500 4.12 180 22:24 13.02.2022
3730 Clouds -3 983 100 10000 4.63 160 21:32 13.02.2022
3731 Clouds -3 984 100 6000 4.12 160 20:35 13.02.2022
3732 Snow -4 985 93 7000 4.63 150 19:31 13.02.2022
3733 Clouds -4 985 93 10000 4.63 150 18:46 13.02.2022
3734 Clouds -4 986 93 10000 4.63 150 18:26 13.02.2022
3735 Clouds -5 988 93 10000 4.63 140 15:54 13.02.2022
3736 Clouds -6 989 93 10000 5.14 120 15:24 13.02.2022
3737 Clouds -7 990 93 10000 6.17 120 14:22 13.02.2022
3738 Clouds -9 992 92 10000 6.69 100 12:51 13.02.2022
3739 Clouds -11 994 85 10000 5.14 90 11:44 13.02.2022
3740 Clouds -14 996 85 10000 5.14 90 10:33 13.02.2022
3741 Clouds -14 997 85 10000 4.12 90 09:45 13.02.2022
3742 Clouds -13 999 85 1900 3.09 90 07:48 13.02.2022
3743 Clouds -19 1002 84 10000 2.57 100 00:35 13.02.2022
3744 Clouds -17 1002 78 10000 2.57 110 23:42 12.02.2022
3745 Clear -18 1002 84 10000 1.03 160 22:33 12.02.2022
3746 Clouds -18 1001 84 10000 1.54 200 21:30 12.02.2022
3747 Clouds -17 1001 78 10000 1.03 230 20:45 12.02.2022
3748 Clouds -17 1001 85 3400 3.09 250 19:30 12.02.2022
3749 Clouds -17 1000 92 10000 2.06 240 18:53 12.02.2022
3750 Clouds -17 1000 92 10000 2.06 240 18:35 12.02.2022
3751 Clear -18 999 84 10000 1.03 0 17:19 12.02.2022
3752 Clear -14 999 85 10000 2.06 220 16:29 12.02.2022
3753 Clear -15 999 92 10000 1.03 210 15:51 12.02.2022
3754 Clear -13 998 85 10000 0.51 0 14:31 12.02.2022
3755 Clear -11 997 85 10000 0.51 0 13:22 12.02.2022
3756 Clouds -17 997 85 7000 2.06 50 10:42 12.02.2022
3757 Clouds -16 996 85 10000 1.03 0 09:51 12.02.2022
3758 Clear -15 996 100 10000 1.54 210 09:27 12.02.2022
3759 Clear -16 996 85 10000 2.57 210 08:44 12.02.2022
3760 Clear -14 996 92 10000 1.03 250 05:40 12.02.2022
3761 Clear -13 997 92 10000 2.57 250 04:30 12.02.2022
3762 Clear -13 997 92 10000 2.06 250 02:18 12.02.2022
3763 Clear -9 997 92 10000 2.57 270 22:37 11.02.2022
3764 Clear -8 997 86 10000 2.57 260 22:18 11.02.2022
3765 Clear -8 997 86 10000 2.57 260 22:18 11.02.2022
3766 Clear -8 997 92 10000 2.06 270 20:43 11.02.2022
3767 Clouds -7 996 93 10000 2.57 270 19:48 11.02.2022
3768 Clear -7 996 93 10000 2.06 250 19:27 11.02.2022
3769 Clear -7 996 93 10000 2.06 260 18:26 11.02.2022
3770 Clear -6 996 86 10000 2.06 270 17:26 11.02.2022
3771 Clouds -6 995 86 10000 2.57 300 16:26 11.02.2022
3772 Clear -6 994 93 10000 2.06 270 14:44 11.02.2022
3773 Clear -5 994 86 10000 3.09 290 14:23 11.02.2022
3774 Clear -5 994 86 10000 3.09 290 13:59 11.02.2022
3775 Clear -5 994 86 10000 3.09 290 13:39 11.02.2022
3776 Clear -6 992 86 10000 3.09 270 12:19 11.02.2022
3777 Clear -8 991 92 10000 2.57 270 10:24 11.02.2022
3778 Clear -9 990 85 10000 2.57 290 08:49 11.02.2022
3779 Clear -9 989 85 10000 2.57 300 08:27 11.02.2022
3780 Clear -10 989 92 10000 3.09 280 07:22 11.02.2022
3781 Clouds -5 986 93 10000 4.12 310 02:39 11.02.2022
3782 Clouds -5 986 93 10000 4.12 310 02:39 11.02.2022
3783 Clouds -5 985 93 10000 4.63 320 02:18 11.02.2022
3784 Clouds -2 982 93 10000 4.12 330 23:20 10.02.2022
3785 Snow -2 980 100 10000 1.54 360 21:53 10.02.2022
3786 Clouds -2 980 100 4700 2.06 40 21:21 10.02.2022
3787 Clouds -2 979 100 10000 1.54 50 20:45 10.02.2022
3788 Clouds -2 979 100 10000 3.09 130 19:26 10.02.2022
3789 Snow -2 978 100 10000 2.57 140 18:47 10.02.2022
3790 Clouds -2 978 100 5000 4.12 160 17:27 10.02.2022
3791 Clouds -2 979 93 2600 4.12 180 16:55 10.02.2022
3792 Clouds -2 978 93 10000 4.63 180 15:51 10.02.2022
3793 Clouds -2 979 93 10000 5.14 180 15:31 10.02.2022
3794 Clouds -2 979 93 10000 5.66 190 14:49 10.02.2022
3795 Clouds -2 979 93 10000 5.14 180 14:24 10.02.2022
3796 Clouds -3 979 93 10000 4.63 170 13:29 10.02.2022
3797 Clouds -3 979 93 10000 4.63 180 12:50 10.02.2022
3798 Clouds -3 979 93 10000 4.63 180 11:34 10.02.2022
3799 Clouds -4 980 100 10000 5.66 210 10:55 10.02.2022
3800 Clouds -4 980 100 10000 6.69 200 09:59 10.02.2022
3801 Clouds -4 980 93 10000 5.66 200 09:24 10.02.2022
3802 Clouds -3 980 93 3000 4.63 200 07:28 10.02.2022
3803 Clouds -4 981 100 10000 6.17 190 04:58 10.02.2022
3804 Clouds -3 981 93 10000 6.17 200 01:51 10.02.2022
3805 Clouds -3 982 93 10000 6.69 190 00:49 10.02.2022
3806 Clouds -2 982 93 10000 6.69 200 00:28 10.02.2022
3807 Clouds -2 983 93 3500 5.14 200 23:23 09.02.2022
3808 Clouds -2 983 93 10000 5.66 200 22:35 09.02.2022
3809 Clouds -2 983 93 4100 5.14 190 21:51 09.02.2022
3810 Clouds -2 983 93 3200 5.66 190 21:29 09.02.2022
3811 Clouds -2 984 93 10000 6.17 200 20:47 09.02.2022
3812 Clouds -2 984 93 10000 6.17 200 20:27 09.02.2022
3813 Clouds -2 984 93 10000 6.69 200 19:46 09.02.2022
3814 Clouds -2 984 93 10000 6.69 200 19:27 09.02.2022
3815 Clouds -3 985 93 10000 6.69 190 17:37 09.02.2022
3816 Clouds -3 985 100 10000 7.2 190 16:34 09.02.2022
3817 Clouds -2 985 93 10000 6.17 180 15:40 09.02.2022
3818 Clouds -3 986 93 10000 6.69 180 14:28 09.02.2022
3819 Clouds -4 987 93 10000 4.63 180 12:28 09.02.2022
3820 Clouds -4 987 93 10000 4.63 180 12:28 09.02.2022
3821 Clouds -5 987 93 10000 5.66 200 10:51 09.02.2022
3822 Clouds -5 987 93 10000 5.66 200 10:26 09.02.2022
3823 Clouds -5 987 93 10000 5.66 190 09:35 09.02.2022
3824 Clouds -4 987 93 10000 6.69 210 08:59 09.02.2022
3825 Clouds -4 987 93 6000 5.66 200 07:47 09.02.2022
3826 Clouds -4 988 93 2400 3.6 190 05:30 09.02.2022
3827 Clouds -5 988 93 10000 3.09 180 03:50 09.02.2022
3828 Clouds -5 989 93 10000 4.63 170 00:38 09.02.2022
3829 Clouds -5 989 93 10000 3.6 170 23:31 08.02.2022
3830 Clouds -4 989 93 3500 3.6 180 22:46 08.02.2022
3831 Clouds -4 989 93 3700 4.12 170 22:21 08.02.2022
3832 Clouds -4 989 93 3700 4.12 170 22:21 08.02.2022
3833 Snow -4 989 93 6000 4.12 170 21:38 08.02.2022
3834 Snow -4 990 93 2300 4.12 150 21:20 08.02.2022
3835 Snow -4 990 93 7000 3.6 140 20:41 08.02.2022
3836 Snow -4 990 93 6000 3.6 150 19:45 08.02.2022
3837 Clouds -4 991 86 10000 3.6 160 18:34 08.02.2022
3838 Clouds -4 991 86 10000 3.6 150 17:38 08.02.2022
3839 Clouds -3 992 80 10000 3.6 150 16:22 08.02.2022
3840 Clouds -3 992 80 10000 4.63 170 15:29 08.02.2022
3841 Clouds -3 992 86 10000 3.09 160 13:59 08.02.2022
3842 Clouds -3 993 86 10000 4.12 180 12:40 08.02.2022
3843 Clouds -3 993 100 2000 2.57 180 11:20 08.02.2022
3844 Mist -3 994 93 3000 3.09 160 09:59 08.02.2022
3845 Clouds -3 994 93 10000 3.6 140 08:56 08.02.2022
3846 Clouds -3 994 93 10000 3.09 140 07:27 08.02.2022
3847 Clouds -3 995 93 10000 2.57 100 04:40 08.02.2022
3848 Clouds -3 996 93 10000 2.06 100 04:22 08.02.2022
3849 Clouds -3 996 93 10000 2.57 100 03:36 08.02.2022
3850 Clouds -3 996 93 10000 2.57 140 03:18 08.02.2022
3851 Clouds -3 996 93 10000 2.57 140 02:59 08.02.2022
3852 Clouds -3 996 93 10000 3.09 130 02:37 08.02.2022
3853 Clouds -3 996 93 10000 3.09 130 02:18 08.02.2022
3854 Clouds -3 996 93 10000 3.09 120 01:45 08.02.2022
3855 Clouds -3 996 93 10000 3.09 120 01:25 08.02.2022
3856 Clouds -3 996 93 10000 3.09 130 00:55 08.02.2022
3857 Clouds -3 996 93 10000 3.09 130 00:36 08.02.2022
3858 Clouds -2 996 86 10000 3.09 140 23:45 07.02.2022
3859 Clouds -2 996 86 10000 2.57 130 23:18 07.02.2022
3860 Clouds -2 996 86 10000 2.57 130 22:59 07.02.2022
3861 Clouds -3 996 93 10000 1.03 80 22:19 07.02.2022
3862 Clouds -3 995 93 10000 1.54 120 21:51 07.02.2022
3863 Clouds -3 995 93 10000 1.54 120 21:28 07.02.2022
3864 Clouds -3 995 93 10000 2.06 130 20:47 07.02.2022
3865 Clouds -3 995 100 10000 2.06 120 20:29 07.02.2022
3866 Clouds -3 995 100 10000 1.54 80 19:47 07.02.2022
3867 Clouds -3 994 100 10000 1.03 0 18:40 07.02.2022
3868 Clouds -2 994 93 10000 2.06 90 17:33 07.02.2022
3869 Clouds -2 993 93 10000 2.06 110 16:52 07.02.2022
3870 Clouds -2 992 93 10000 2.06 80 15:48 07.02.2022
3871 Clouds -2 991 93 10000 2.57 90 14:19 07.02.2022
3872 Clouds -2 990 93 10000 3.6 100 13:27 07.02.2022
3873 Clouds -2 989 93 10000 3.6 90 12:35 07.02.2022
3874 Clouds -2 989 93 10000 4.12 90 11:40 07.02.2022
3875 Clouds -2 989 93 10000 3.6 100 11:22 07.02.2022
3876 Clouds -2 988 93 10000 3.6 90 10:41 07.02.2022
3877 Clouds -3 988 100 10000 3.6 90 10:22 07.02.2022
3878 Clouds -2 987 93 3000 3.09 80 09:51 07.02.2022
3879 Clouds -2 987 93 10000 3.09 100 09:18 07.02.2022
3880 Clouds -2 985 93 10000 3.6 100 07:44 07.02.2022
3881 Clouds -2 984 93 10000 4.12 110 06:34 07.02.2022
3882 Clouds -3 982 93 10000 5.14 110 04:31 07.02.2022
3883 Clouds -3 982 93 10000 5.14 110 02:37 07.02.2022
3884 Clouds -4 980 93 10000 6.17 90 00:20 07.02.2022
3885 Clouds -4 980 93 10000 6.17 100 23:20 06.02.2022
3886 Clouds -4 980 93 4000 7.2 100 22:41 06.02.2022
3887 Snow -4 980 86 6000 5.66 90 21:38 06.02.2022
3888 Snow -4 980 86 6000 5.66 90 21:20 06.02.2022
3889 Clouds -5 980 93 10000 5.66 90 20:48 06.02.2022
3890 Snow -5 980 93 10000 5.66 90 20:23 06.02.2022
3891 Snow -5 980 86 10000 6.17 90 19:18 06.02.2022
3892 Clouds -5 981 86 10000 6.69 120 18:28 06.02.2022
3893 Clouds -5 981 86 10000 5.66 120 17:30 06.02.2022
3894 Clouds -5 981 86 10000 5.66 130 16:51 06.02.2022
3895 Clouds -5 982 86 10000 5.66 130 15:51 06.02.2022
3896 Clouds -5 982 93 10000 5.14 130 15:28 06.02.2022
3897 Clouds -5 982 93 10000 4.63 130 14:59 06.02.2022
3898 Clouds -5 982 93 10000 5.14 130 13:57 06.02.2022
3899 Clouds -5 982 93 10000 5.14 160 13:20 06.02.2022
3900 Clouds -5 983 93 10000 4.12 130 11:45 06.02.2022
3901 Clouds -5 983 93 10000 3.6 150 10:33 06.02.2022
3902 Clouds -5 983 93 10000 4.12 130 09:29 06.02.2022
3903 Clouds -5 983 93 10000 4.12 140 08:41 06.02.2022
3904 Clouds -5 984 93 10000 5.14 150 06:27 06.02.2022
3905 Clouds -5 984 93 10000 4.63 160 05:27 06.02.2022
3906 Clouds -4 984 93 10000 5.66 160 02:25 06.02.2022
3907 Clouds -5 984 100 10000 5.14 150 00:30 06.02.2022
3908 Clouds -4 984 93 10000 5.14 150 23:27 05.02.2022
3909 Clouds -4 984 93 10000 6.17 160 21:43 05.02.2022
3910 Clouds -5 984 100 10000 6.69 150 20:26 05.02.2022
3911 Clouds -5 984 100 10000 6.17 150 19:51 05.02.2022
3912 Clouds -5 984 100 10000 6.17 150 19:33 05.02.2022
3913 Clouds -5 984 100 10000 6.69 160 18:26 05.02.2022
3914 Clouds -5 984 100 10000 6.69 160 17:33 05.02.2022
3915 Clouds -5 984 93 10000 5.14 160 15:43 05.02.2022
3916 Clouds -5 985 93 10000 5.14 170 15:25 05.02.2022
3917 Clouds -5 984 93 10000 6.17 160 13:22 05.02.2022
3918 Clouds -5 985 93 9000 6.17 160 12:42 05.02.2022
3919 Clouds -6 985 93 10000 5.66 160 10:57 05.02.2022
3920 Clouds -6 985 93 10000 5.66 160 10:38 05.02.2022
3921 Clouds -6 985 93 10000 5.14 160 09:47 05.02.2022
3922 Clouds -6 985 93 10000 5.66 160 08:21 05.02.2022
3923 Clouds -6 985 93 10000 4.63 150 06:58 05.02.2022
3924 Clouds -6 986 93 9000 5.14 160 04:55 05.02.2022
3925 Snow -6 987 93 3400 5.14 150 01:19 05.02.2022
3926 Snow -6 987 93 3700 6.17 150 00:54 05.02.2022
3927 Snow -6 988 86 4200 5.66 150 23:59 04.02.2022
3928 Snow -6 988 86 4200 5.66 150 23:33 04.02.2022
3929 Snow -7 989 93 3700 6.69 150 22:18 04.02.2022
3930 Snow -7 989 86 4400 6.69 140 21:36 04.02.2022
3931 Snow -8 990 92 2100 6.69 140 21:18 04.02.2022
3932 Snow -8 991 92 1700 7.2 130 20:20 04.02.2022
3933 Snow -10 994 85 3100 7.72 120 17:45 04.02.2022
3934 Snow -11 997 85 3900 8.23 110 15:55 04.02.2022
3935 Snow -11 997 85 3900 8.23 110 15:55 04.02.2022
3936 Snow -12 999 92 3100 7.72 120 14:55 04.02.2022
3937 Snow -13 1001 92 5000 6.69 110 13:39 04.02.2022
3938 Snow -13 1002 85 10000 7.2 110 12:43 04.02.2022
3939 Clouds -14 1004 85 10000 6.17 110 11:42 04.02.2022
3940 Clouds -14 1004 85 10000 6.17 110 11:42 04.02.2022
3941 Clouds -15 1005 85 10000 6.17 110 10:36 04.02.2022
3942 Clouds -17 1006 85 8000 4.63 110 08:43 04.02.2022
3943 Clouds -18 1007 84 10000 4.12 110 06:57 04.02.2022
3944 Clouds -18 1009 84 10000 2.57 90 02:48 04.02.2022
3945 Clouds -17 1010 85 6000 2.06 80 01:56 04.02.2022
3946 Clear -17 1010 85 10000 2.57 60 23:29 03.02.2022
3947 Clear -17 1010 85 10000 3.6 70 22:40 03.02.2022
3948 Clear -16 1010 78 10000 3.09 70 21:49 03.02.2022
3949 Clear -16 1010 85 10000 3.09 80 20:39 03.02.2022
3950 Clear -16 1010 85 10000 3.09 80 20:19 03.02.2022
3951 Clear -15 1011 85 10000 3.6 80 19:32 03.02.2022
3952 Clouds -16 1011 85 10000 3.09 60 18:38 03.02.2022
3953 Clear -15 1011 85 10000 3.09 70 17:33 03.02.2022
3954 Clouds -14 1010 85 10000 2.57 70 16:26 03.02.2022
3955 Clouds -13 1011 85 10000 2.57 70 14:45 03.02.2022
3956 Clear -13 1011 92 10000 3.09 70 12:58 03.02.2022
3957 Clouds -13 1010 85 10000 3.6 70 11:22 03.02.2022
3958 Clouds -13 1010 85 3000 3.6 50 08:37 03.02.2022
3959 Clouds -13 1009 85 10000 3.6 30 05:26 03.02.2022
3960 Clouds -10 1009 85 10000 4.63 40 00:32 03.02.2022
3961 Clouds -10 1009 85 10000 4.63 50 23:39 02.02.2022
3962 Clouds -10 1008 92 2700 4.63 50 22:19 02.02.2022
3963 Clouds -11 1008 92 3500 4.12 40 21:34 02.02.2022
3964 Clouds -11 1008 85 5000 3.6 40 20:49 02.02.2022
3965 Clouds -11 1007 92 6000 3.09 40 19:58 02.02.2022
3966 Clouds -11 1007 92 10000 4.12 40 19:27 02.02.2022
3967 Clouds -10 1007 92 5000 4.12 40 18:45 02.02.2022
3968 Clouds -10 1007 92 3200 3.09 40 17:56 02.02.2022
3969 Clouds -11 1006 92 2800 3.09 30 17:19 02.02.2022
3970 Clouds -10 1006 85 10000 2.06 10 16:41 02.02.2022
3971 Clear -11 1005 92 10000 3.09 40 12:57 02.02.2022
3972 Clouds -11 1005 92 10000 2.57 30 12:20 02.02.2022
3973 Clouds -11 1004 92 5000 4.12 30 11:33 02.02.2022
3974 Clouds -12 1004 92 9000 4.12 20 09:47 02.02.2022
3975 Clear -12 1003 92 10000 3.6 40 07:33 02.02.2022
3976 Clouds -12 1001 92 10000 4.12 40 22:51 01.02.2022
3977 Clouds -11 1001 85 10000 4.63 70 21:50 01.02.2022
3978 Clouds -11 1000 85 10000 5.66 60 19:58 01.02.2022
3979 Clouds -13 1000 92 10000 5.66 40 17:43 01.02.2022
3980 Clouds -14 1001 92 6000 5.66 50 16:39 01.02.2022
3981 Clear -18 1001 84 10000 5.14 40 13:56 01.02.2022
3982 Fog -17 1002 85 2000 4.63 50 12:42 01.02.2022
3983 Fog -19 1002 84 1400 5.66 50 11:20 01.02.2022
3984 Clouds -19 1005 84 10000 1.54 360 02:34 01.02.2022
3985 Clear -19 1005 84 10000 3.6 50 23:41 31.01.2022
3986 Clear -18 1005 84 10000 2.57 50 22:57 31.01.2022
3987 Clear -16 1006 85 10000 0.51 0 21:39 31.01.2022
3988 Clear -16 1006 85 10000 1.03 0 20:50 31.01.2022
3989 Clear -16 1006 85 10000 1.03 0 20:27 31.01.2022
3990 Clear -15 1006 85 10000 2.06 360 19:20 31.01.2022
3991 Clear -15 1006 85 10000 0.51 0 18:25 31.01.2022
3992 Clear -16 1006 92 10000 1.03 0 17:26 31.01.2022
3993 Clear -14 1005 85 10000 2.57 10 16:26 31.01.2022
3994 Clouds -15 1006 85 10000 1.03 0 14:54 31.01.2022
3995 Clear -14 1005 85 10000 2.57 350 13:51 31.01.2022
3996 Clear -14 1005 92 10000 4.12 350 12:38 31.01.2022
3997 Clear -15 1005 85 10000 1.03 350 11:47 31.01.2022
3998 Clear -15 1005 85 10000 0.51 0 10:50 31.01.2022
3999 Clouds -16 1005 85 10000 2.57 360 09:59 31.01.2022
4000 Fog -16 1005 85 10000 1.54 330 08:59 31.01.2022
4001 Fog -16 1005 85 10000 1.54 330 08:39 31.01.2022
4002 Clear -16 1005 85 10000 2.57 350 08:20 31.01.2022
4003 Clear -16 1004 85 10000 2.57 360 06:18 31.01.2022
4004 Clear -15 1003 85 10000 3.09 360 00:44 31.01.2022
4005 Clear -15 1003 85 10000 3.6 350 22:38 30.01.2022
4006 Clear -14 1002 85 10000 5.14 350 22:20 30.01.2022
4007 Clear -14 1002 85 10000 4.63 350 21:38 30.01.2022
4008 Clear -14 1002 85 10000 4.63 350 21:18 30.01.2022
4009 Clear -14 1002 85 10000 4.12 350 20:45 30.01.2022
4010 Clear -14 1002 85 10000 3.09 360 20:26 30.01.2022
4011 Clear -14 1001 85 10000 3.09 350 19:24 30.01.2022
4012 Clear -14 1001 92 10000 3.6 360 18:35 30.01.2022
4013 Clouds -15 1001 85 10000 3.09 10 17:53 30.01.2022
4014 Clouds -14 1000 85 10000 4.12 10 17:20 30.01.2022
4015 Clear -15 1000 92 10000 3.09 10 16:37 30.01.2022
4016 Clouds -14 1000 85 10000 4.12 10 16:19 30.01.2022
4017 Clear -13 999 85 10000 4.12 10 15:49 30.01.2022
4018 Clear -13 999 92 10000 4.12 360 15:30 30.01.2022
4019 Clear -12 998 85 10000 3.6 360 14:45 30.01.2022
4020 Clouds -11 997 85 10000 4.63 10 12:46 30.01.2022
4021 Clouds -11 996 92 10000 5.66 20 11:53 30.01.2022
4022 Clouds -10 995 85 10000 4.63 10 10:27 30.01.2022
4023 Clouds -10 995 92 10000 5.14 10 09:48 30.01.2022
4024 Clouds -10 994 85 10000 5.14 20 08:48 30.01.2022
4025 Clouds -13 990 85 10000 7.2 30 05:30 30.01.2022
4026 Clouds -12 986 92 10000 6.69 40 01:55 30.01.2022
4027 Clouds -11 984 92 10000 7.2 40 00:19 30.01.2022
4028 Clouds -10 984 85 10000 6.17 50 22:58 29.01.2022
4029 Clouds -9 983 85 10000 7.2 50 21:46 29.01.2022
4030 Clouds -9 983 92 10000 7.2 50 21:22 29.01.2022
4031 Clouds -9 983 92 10000 6.69 60 20:22 29.01.2022
4032 Clouds -9 983 92 8000 6.17 60 19:33 29.01.2022
4033 Snow -9 983 92 4600 6.17 50 18:51 29.01.2022
4034 Clouds -9 983 92 10000 5.14 60 18:18 29.01.2022
4035 Clouds -9 984 92 8000 6.69 70 17:27 29.01.2022
4036 Snow -10 985 92 4100 5.14 70 15:42 29.01.2022
4037 Clouds -11 986 85 10000 4.12 80 13:58 29.01.2022
4038 Clouds -12 987 92 5000 4.63 80 13:37 29.01.2022
4039 Clouds -12 987 85 2800 4.63 80 13:18 29.01.2022
4040 Clouds -12 989 85 3400 4.12 90 11:40 29.01.2022
4041 Clouds -12 989 85 3400 4.12 90 11:40 29.01.2022
4042 Clouds -13 990 85 2100 4.12 90 10:38 29.01.2022
4043 Clouds -14 992 85 9000 3.09 80 08:36 29.01.2022
4044 Clear -14 996 85 10000 1.03 120 03:25 29.01.2022
4045 Clear -11 998 92 10000 1.54 240 00:32 29.01.2022
4046 Clear -10 999 85 10000 2.57 220 23:32 28.01.2022
4047 Clear -10 999 85 10000 2.57 220 23:32 28.01.2022
4048 Clear -12 999 92 10000 2.06 260 22:47 28.01.2022
4049 Clear -12 999 85 10000 2.06 280 22:19 28.01.2022
4050 Clear -11 1000 92 10000 2.57 260 20:41 28.01.2022
4051 Clear -10 1000 85 10000 2.06 250 19:58 28.01.2022
4052 Clear -9 1000 92 10000 2.06 260 18:52 28.01.2022
4053 Clear -9 1000 85 10000 2.06 270 18:34 28.01.2022
4054 Clear -9 1000 92 10000 2.06 260 16:37 28.01.2022
4055 Clear -8 1000 92 10000 2.57 250 14:58 28.01.2022
4056 Clear -7 1000 93 10000 2.06 240 13:21 28.01.2022
4057 Clouds -7 999 93 10000 2.06 250 11:50 28.01.2022
4058 Snow -7 999 100 4000 0.51 0 10:27 28.01.2022
4059 Snow -7 999 100 3000 0.51 0 09:47 28.01.2022
4060 Clouds -7 998 93 10000 1.54 310 07:42 28.01.2022
4061 Clouds -7 997 93 10000 0.51 0 06:29 28.01.2022
4062 Clouds -7 996 93 10000 1.54 40 03:51 28.01.2022
4063 Clouds -7 996 93 10000 1.54 350 02:27 28.01.2022
4064 Clouds -7 996 93 10000 1.03 340 01:37 28.01.2022
4065 Clouds -7 996 93 10000 1.03 340 01:37 28.01.2022
4066 Clouds -7 995 93 10000 2.06 350 00:42 28.01.2022
4067 Clouds -7 995 93 10000 2.06 30 22:20 27.01.2022
4068 Clouds -7 994 93 10000 2.57 40 21:37 27.01.2022
4069 Clouds -7 997 93 10000 2.57 40 20:59 27.01.2022
4070 Clouds -7 997 93 10000 2.57 40 20:59 27.01.2022
4071 Clouds -7 994 93 10000 2.57 40 19:38 27.01.2022
4072 Clouds -7 994 93 10000 3.6 70 18:19 27.01.2022
4073 Clouds -7 994 93 10000 2.06 70 16:45 27.01.2022
4074 Clouds -7 993 93 5000 3.6 70 13:58 27.01.2022
4075 Clouds -7 993 93 6000 3.09 80 12:49 27.01.2022
4076 Clouds -7 993 93 10000 2.57 80 11:53 27.01.2022
4077 Clouds -7 993 93 10000 3.6 80 09:48 27.01.2022
4078 Clouds -7 993 93 10000 4.12 70 08:40 27.01.2022
4079 Clouds -7 993 93 10000 3.09 90 07:31 27.01.2022
4080 Clouds -7 995 93 10000 2.06 90 03:19 27.01.2022
4081 Clouds -7 996 93 2500 3.6 110 00:23 27.01.2022
4082 Mist -7 997 93 4100 2.57 150 22:27 26.01.2022
4083 Clouds -7 997 93 10000 3.09 150 21:42 26.01.2022
4084 Clouds -7 998 93 7000 4.12 160 20:42 26.01.2022
4085 Clouds -7 998 93 10000 3.6 170 20:24 26.01.2022
4086 Mist -7 998 100 3200 3.6 160 19:28 26.01.2022
4087 Clouds -6 998 93 2600 3.6 150 18:46 26.01.2022
4088 Mist -6 998 93 4300 4.12 160 17:52 26.01.2022
4089 Mist -6 998 93 4300 4.12 160 17:24 26.01.2022
4090 Clouds -5 999 93 5000 4.63 180 16:40 26.01.2022
4091 Clouds -5 999 93 3500 3.6 170 15:50 26.01.2022
4092 Snow -6 999 93 4000 4.12 170 14:23 26.01.2022
4093 Clouds -8 1000 92 8000 2.57 150 11:56 26.01.2022
4094 Fog -9 1000 92 600 2.06 120 10:45 26.01.2022
4095 Fog -11 1001 92 300 3.09 140 09:49 26.01.2022
4096 Clouds -12 1002 92 1500 2.57 110 08:32 26.01.2022
4097 Clouds -10 1003 85 10000 2.06 190 06:20 26.01.2022
4098 Clouds -10 1003 85 10000 2.06 190 06:20 26.01.2022
4099 Clear -10 1005 85 10000 3.09 230 00:18 26.01.2022
4100 Clear -10 1006 85 10000 2.57 230 23:28 25.01.2022
4101 Clear -9 1006 85 10000 2.57 240 22:48 25.01.2022
4102 Clear -10 1006 85 10000 1.54 240 22:18 25.01.2022
4103 Clear -9 1006 85 10000 2.06 260 21:22 25.01.2022
4104 Clear -9 1006 79 10000 2.57 240 20:44 25.01.2022
4105 Clear -9 1006 85 10000 3.6 240 19:53 25.01.2022
4106 Clear -9 1006 85 10000 3.6 240 19:53 25.01.2022
4107 Clear -9 1007 85 10000 3.09 230 18:43 25.01.2022
4108 Clear -9 1007 79 10000 3.09 230 17:45 25.01.2022
4109 Clear -8 1007 79 10000 4.12 230 16:47 25.01.2022
4110 Clear -8 1007 79 10000 4.63 220 16:21 25.01.2022
4111 Clear -8 1007 79 10000 3.6 220 15:38 25.01.2022
4112 Clear -7 1007 73 10000 5.14 230 14:58 25.01.2022
4113 Clear -7 1007 73 10000 2.57 230 13:46 25.01.2022
4114 Clear -6 1007 73 10000 3.6 260 10:58 25.01.2022
4115 Clear -5 1006 68 10000 3.6 290 08:38 25.01.2022
4116 Clear -6 1005 73 10000 2.57 290 07:29 25.01.2022
4117 Clear -6 1004 73 10000 2.57 270 06:49 25.01.2022
4118 Clear -5 1003 73 10000 2.06 270 05:22 25.01.2022
4119 Clear -2 998 86 10000 3.6 270 23:37 24.01.2022
4120 Clear -2 998 93 10000 3.6 290 23:18 24.01.2022
4121 Clouds -2 998 93 10000 2.57 280 22:59 24.01.2022
4122 Clouds -2 998 93 10000 2.57 280 22:41 24.01.2022
4123 Clouds -1 997 86 10000 2.06 260 21:53 24.01.2022
4124 Clouds -1 996 86 10000 4.12 240 21:29 24.01.2022
4125 Clouds 0 997 74 10000 3.6 290 20:30 24.01.2022
4126 Snow 0 997 64 10000 3.6 240 19:50 24.01.2022
4127 Snow 0 997 64 10000 3.6 250 19:24 24.01.2022
4128 Clear -1 997 80 10000 3.6 240 18:18 24.01.2022
4129 Clear -1 997 86 10000 3.6 250 17:24 24.01.2022
4130 Clear -1 997 86 10000 4.12 240 16:52 24.01.2022
4131 Clear 0 996 74 10000 5.14 240 16:19 24.01.2022
4132 Clear 1 996 86 10000 4.63 240 14:38 24.01.2022
4133 Snow 1 995 93 10000 6.69 220 13:24 24.01.2022
4134 Clouds 1 995 93 10000 7.2 230 12:23 24.01.2022
4135 Clouds 2 995 86 10000 9.77 220 10:30 24.01.2022
4136 Clouds 2 995 86 10000 9.77 220 10:30 24.01.2022
4137 Clouds 2 995 86 10000 9.77 220 09:48 24.01.2022
4138 Clouds 3 995 80 10000 9.77 220 08:34 24.01.2022
4139 Clear 4 995 75 10000 10.8 220 06:40 24.01.2022
4140 Clear 4 1000 87 10000 9.26 220 01:31 24.01.2022
4141 Clear 4 1000 87 10000 8.75 220 00:36 24.01.2022
4142 Clear 4 1001 87 10000 8.75 220 23:52 23.01.2022
4143 Clear 3 1001 93 10000 8.23 220 22:32 23.01.2022
4144 Clear 3 1002 87 10000 8.75 220 21:49 23.01.2022
4145 Clear 3 1002 87 10000 8.23 230 21:26 23.01.2022
4146 Clear 3 1003 87 10000 7.72 220 20:44 23.01.2022
4147 Clear 3 1003 93 10000 7.72 210 19:44 23.01.2022
4148 Clear 3 1003 93 10000 7.72 220 18:51 23.01.2022
4149 Clear 2 1004 100 10000 7.2 220 17:49 23.01.2022
4150 Clear 3 1004 93 10000 7.72 230 16:47 23.01.2022
4151 Clear 1 1005 100 10000 7.2 230 14:59 23.01.2022
4152 Clear 1 1005 100 10000 7.2 220 14:25 23.01.2022
4153 Clouds 1 1005 100 10000 6.17 210 12:59 23.01.2022
4154 Clouds 0 1006 100 10000 5.14 220 12:22 23.01.2022
4155 Clouds 0 1006 100 10000 5.14 220 11:59 23.01.2022
4156 Fog 0 1006 100 450 6.17 220 11:19 23.01.2022
4157 Fog 0 1006 100 450 5.14 220 10:27 23.01.2022
4158 Fog 0 1006 100 400 5.14 210 09:51 23.01.2022
4159 Fog 0 1005 100 450 5.66 210 08:54 23.01.2022
4160 Clouds 0 1003 100 600 8.75 220 05:57 23.01.2022
4161 Clouds -3 1005 93 10000 10.8 200 01:52 23.01.2022
4162 Clouds -4 1005 100 10000 10.29 190 01:27 23.01.2022
4163 Clouds -4 1007 100 7000 10.8 200 00:23 23.01.2022
4164 Clouds -4 1007 93 9000 10.8 200 23:57 22.01.2022
4165 Clouds -4 1007 93 9000 10.8 200 22:46 22.01.2022
4166 Clouds -4 1009 93 10000 9.77 200 21:36 22.01.2022
4167 Clouds -5 1010 93 10000 8.75 190 20:21 22.01.2022
4168 Clouds -6 1011 93 7000 10.29 190 18:56 22.01.2022
4169 Clouds -6 1012 93 10000 7.72 190 18:24 22.01.2022
4170 Clouds -7 1012 93 10000 6.17 180 17:40 22.01.2022
4171 Clouds -7 1012 86 10000 6.17 170 16:56 22.01.2022
4172 Clear -9 1013 92 10000 4.12 170 15:53 22.01.2022
4173 Clear -9 1013 92 10000 5.14 160 15:26 22.01.2022
4174 Clear -11 1014 92 10000 5.14 160 13:46 22.01.2022
4175 Clouds -12 1014 85 10000 3.6 150 12:52 22.01.2022
4176 Clear -13 1014 85 10000 3.09 150 12:29 22.01.2022
4177 Clouds -13 1015 85 10000 3.6 170 11:31 22.01.2022
4178 Clouds -12 1015 85 10000 3.09 170 10:29 22.01.2022
4179 Clouds -12 1015 92 2000 2.57 190 09:59 22.01.2022
4180 Clouds -13 1015 92 5000 3.09 160 08:52 22.01.2022
4181 Clouds -13 1016 85 10000 1.54 90 07:39 22.01.2022
4182 Clouds -14 1016 92 10000 0.51 0 04:53 22.01.2022
4183 Clear -12 1017 92 10000 1.03 0 01:35 22.01.2022
4184 Clouds -12 1016 85 10000 3.6 360 23:45 21.01.2022
4185 Clear -11 1016 85 10000 4.12 340 22:28 21.01.2022
4186 Clear -10 1015 85 10000 4.63 340 20:28 21.01.2022
4187 Clear -10 1014 85 10000 5.14 340 18:40 21.01.2022
4188 Clear -9 1013 85 10000 5.14 340 17:31 21.01.2022
4189 Clear -8 1012 79 10000 5.14 340 15:42 21.01.2022
4190 Clear -7 1010 79 10000 4.63 350 13:51 21.01.2022
4191 Clear -7 1010 79 10000 4.63 350 13:51 21.01.2022
4192 Clouds -7 1012 82 10000 5.36 356 12:38 21.01.2022
4193 Clear -6 1007 79 10000 5.14 350 11:28 21.01.2022
4194 Clear -6 1006 79 10000 5.14 350 10:19 21.01.2022
4195 Clear -5 1004 79 10000 5.66 350 08:24 21.01.2022
4196 Clear -5 1002 79 10000 6.69 350 06:57 21.01.2022
4197 Clear -4 994 74 10000 6.17 320 23:36 20.01.2022
4198 Clear -4 994 80 10000 5.66 320 22:24 20.01.2022
4199 Clear -4 994 80 10000 5.14 330 21:43 20.01.2022
4200 Clear -4 993 80 10000 4.12 330 20:43 20.01.2022
4201 Clear -5 991 86 10000 4.12 330 19:20 20.01.2022
4202 Clear -4 991 80 10000 4.63 330 18:50 20.01.2022
4203 Clouds -5 990 86 10000 3.09 310 17:29 20.01.2022
4204 Clouds -6 989 86 10000 3.09 320 15:43 20.01.2022
4205 Snow -8 988 86 10000 2.06 300 15:19 20.01.2022
4206 Clear -8 987 86 10000 1.54 280 13:41 20.01.2022
4207 Clear -7 987 79 10000 2.06 270 12:34 20.01.2022
4208 Clear -7 987 79 10000 3.09 310 11:50 20.01.2022
4209 Clear -7 986 79 10000 2.57 280 10:39 20.01.2022
4210 Clear -6 986 79 10000 2.06 260 09:36 20.01.2022
4211 Clear -5 985 73 10000 5.14 330 07:51 20.01.2022
4212 Clear -2 981 86 10000 4.12 330 00:46 20.01.2022
4213 Clear 0 979 86 10000 5.66 340 22:59 19.01.2022
4214 Clear 1 979 86 10000 4.63 330 22:21 19.01.2022
4215 Clear 1 978 93 10000 3.09 330 21:23 19.01.2022
4216 Clouds 1 978 100 10000 3.09 340 20:46 19.01.2022
4217 Snow 1 977 100 5000 4.12 330 19:42 19.01.2022
4218 Clouds 1 977 100 2600 3.6 240 18:18 19.01.2022
4219 Clouds 1 977 100 6000 4.12 230 17:44 19.01.2022
4220 Clouds 1 976 100 6000 5.14 220 16:47 19.01.2022
4221 Clouds 2 977 93 10000 6.69 220 14:42 19.01.2022
4222 Rain 3 979 93 10000 5.66 210 12:42 19.01.2022
4223 Clouds 2 979 93 10000 6.17 200 11:39 19.01.2022
4224 Clouds 2 980 93 10000 8.75 210 10:20 19.01.2022
4225 Clouds 2 981 93 10000 7.72 210 09:34 19.01.2022
4226 Clear 1 984 93 10000 7.72 230 06:35 19.01.2022
4227 Clouds 0 988 100 10000 4.63 220 02:38 19.01.2022
4228 Clouds -1 992 100 10000 5.14 210 23:19 18.01.2022
4229 Clouds -1 993 93 10000 6.17 210 22:18 18.01.2022
4230 Clouds -2 994 93 10000 6.17 220 20:55 18.01.2022
4231 Clouds -2 995 93 10000 6.69 220 19:54 18.01.2022
4232 Clouds -2 995 93 10000 7.2 220 19:36 18.01.2022
4233 Clouds -3 995 100 10000 7.2 220 18:36 18.01.2022
4234 Clouds -3 997 93 10000 4.63 210 17:57 18.01.2022
4235 Clouds -4 998 100 7000 6.69 210 16:38 18.01.2022
4236 Clouds -4 999 93 10000 7.72 210 15:39 18.01.2022
4237 Clouds -5 999 93 10000 7.2 200 15:19 18.01.2022
4238 Clear -10 1004 85 10000 3.6 220 11:53 18.01.2022
4239 Clear -10 1005 85 10000 2.57 220 10:43 18.01.2022
4240 Clear -10 1007 85 10000 3.09 230 08:49 18.01.2022
4241 Clear -11 1007 85 10000 3.09 240 07:46 18.01.2022
4242 Clear -8 1006 79 10000 2.57 280 02:31 18.01.2022
4243 Clear -7 1003 79 10000 4.12 310 23:22 17.01.2022
4244 Clear -8 1002 79 10000 4.63 310 22:19 17.01.2022
4245 Clear -7 1001 79 10000 4.63 320 21:32 17.01.2022
4246 Clear -7 999 79 10000 4.63 310 19:51 17.01.2022
4247 Clouds -8 998 86 10000 4.63 310 18:29 17.01.2022
4248 Clear -7 996 73 10000 5.66 320 17:24 17.01.2022
4249 Clear -8 994 79 10000 5.66 310 16:27 17.01.2022
4250 Clear -7 992 79 10000 5.66 310 14:59 17.01.2022
4251 Clear -7 992 79 10000 5.66 310 14:33 17.01.2022
4252 Clouds -6 989 73 10000 7.72 320 13:20 17.01.2022
4253 Clouds -7 989 79 10000 6.17 310 12:54 17.01.2022
4254 Clouds -7 987 79 10000 5.66 320 11:48 17.01.2022
4255 Clouds -7 985 79 10000 7.2 330 10:21 17.01.2022
4256 Clouds -6 982 73 10000 8.23 330 08:51 17.01.2022
4257 Clouds -6 980 79 10000 7.2 330 07:22 17.01.2022
4258 Snow -4 966 86 1900 7.72 350 02:23 17.01.2022
4259 Snow -5 961 93 1700 5.66 300 00:53 17.01.2022
4260 Snow -4 962 86 8000 8.23 290 21:26 16.01.2022
4261 Clouds -1 962 86 6000 7.2 260 20:33 16.01.2022
4262 Clouds -1 962 86 6000 7.2 260 20:33 16.01.2022
4263 Snow 1 963 86 10000 7.2 260 18:50 16.01.2022
4264 Snow 1 963 93 9000 7.2 270 17:55 16.01.2022
4265 Snow 1 965 100 3400 7.2 220 16:56 16.01.2022
4266 Snow 1 967 100 2800 8.75 220 15:50 16.01.2022
4267 Snow 1 969 100 3700 8.23 210 14:30 16.01.2022
4268 Clouds 1 971 100 8000 7.72 220 13:33 16.01.2022
4269 Clouds 1 972 93 10000 7.72 210 12:27 16.01.2022
4270 Clouds 1 974 93 10000 5.66 220 11:38 16.01.2022
4271 Snow 0 976 93 10000 6.69 220 10:45 16.01.2022
4272 Snow 0 977 93 10000 7.2 220 09:59 16.01.2022
4273 Snow 0 977 93 10000 5.66 220 09:38 16.01.2022
4274 Clear -1 978 100 10000 5.14 210 09:20 16.01.2022
4275 Clear -2 981 100 10000 5.14 220 07:21 16.01.2022
4276 Clouds -3 989 100 4100 9.77 220 00:36 16.01.2022
4277 Snow -6 994 93 4400 6.17 200 22:55 15.01.2022
4278 Clear -7 996 86 10000 4.12 200 21:22 15.01.2022
4279 Clear -7 997 86 10000 3.6 200 20:45 15.01.2022
4280 Clear -7 998 86 10000 4.12 210 20:22 15.01.2022
4281 Clear -8 999 92 10000 3.6 220 19:27 15.01.2022
4282 Clear -8 1001 92 10000 3.09 220 18:20 15.01.2022
4283 Clear -6 1002 79 10000 2.06 220 16:49 15.01.2022
4284 Clear -6 1003 86 10000 3.09 310 14:38 15.01.2022
4285 Clouds -5 1002 79 10000 3.6 310 12:52 15.01.2022
4286 Clear -4 1001 74 10000 5.14 310 11:32 15.01.2022
4287 Clear -4 1000 80 10000 4.12 300 09:46 15.01.2022
4288 Clear -2 997 80 10000 5.14 310 04:46 15.01.2022
4289 Clear -4 993 86 10000 4.12 320 23:21 14.01.2022
4290 Clear -4 991 86 10000 4.63 320 21:18 14.01.2022
4291 Clear -3 990 86 10000 4.63 330 20:25 14.01.2022
4292 Clear -3 989 86 10000 4.63 330 19:50 14.01.2022
4293 Clear -3 988 86 10000 4.12 320 18:41 14.01.2022
4294 Clear -3 987 86 10000 4.63 320 17:36 14.01.2022
4295 Clear -3 985 86 10000 4.12 320 16:42 14.01.2022
4296 Clear -3 984 86 10000 5.14 310 15:30 14.01.2022
4297 Clear -2 982 80 10000 6.17 320 14:26 14.01.2022
4298 Clear -2 980 80 10000 5.66 310 12:58 14.01.2022
4299 Clear -2 979 74 10000 6.17 320 11:52 14.01.2022
4300 Clouds -3 977 86 10000 5.66 320 10:30 14.01.2022
4301 Clear -5 976 93 10000 4.12 290 08:52 14.01.2022
4302 Clear -5 975 86 10000 4.12 290 07:30 14.01.2022
4303 Clear -5 975 86 10000 2.57 300 02:20 14.01.2022
4304 Clear -7 975 93 10000 1.03 0 23:40 13.01.2022
4305 Clear -5 976 86 10000 3.09 260 21:47 13.01.2022
4306 Clear -5 976 86 10000 3.09 260 21:29 13.01.2022
4307 Clear -5 977 86 10000 2.06 260 19:45 13.01.2022
4308 Clear -5 977 86 10000 2.06 260 19:23 13.01.2022
4309 Clear -5 978 86 10000 3.6 240 18:36 13.01.2022
4310 Clear -4 979 86 10000 5.14 240 16:48 13.01.2022
4311 Clear -3 979 86 10000 4.12 250 15:38 13.01.2022
4312 Clear -3 979 86 10000 4.12 250 15:18 13.01.2022
4313 Clear -3 979 93 10000 4.63 250 13:28 13.01.2022
4314 Clear -3 980 86 10000 3.6 250 10:39 13.01.2022
4315 Clear -2 980 86 10000 5.14 250 09:23 13.01.2022
4316 Clear -2 980 86 10000 4.12 260 08:28 13.01.2022
4317 Clear -1 979 86 10000 4.12 270 07:58 13.01.2022
4318 Clear -1 979 86 10000 4.63 270 07:18 13.01.2022
4319 Clouds -1 979 93 10000 4.12 270 05:20 13.01.2022
4320 Clouds -1 979 93 10000 3.09 250 03:33 13.01.2022
4321 Clear 0 981 86 10000 5.66 230 00:57 13.01.2022
4322 Clouds 0 981 93 10000 6.69 230 23:53 12.01.2022
4323 Clouds 1 981 93 10000 6.17 230 23:32 12.01.2022
4324 Clouds 1 982 93 10000 5.66 230 21:58 12.01.2022
4325 Clouds 1 983 93 10000 7.2 220 21:24 12.01.2022
4326 Snow 1 985 93 10000 7.2 220 20:57 12.01.2022
4327 Clouds 0 985 100 10000 6.69 220 20:19 12.01.2022
4328 Clouds 0 987 100 3500 8.75 220 18:48 12.01.2022
4329 Clouds 0 987 100 8000 8.75 210 17:53 12.01.2022
4330 Clouds 0 990 100 6000 11.32 210 16:42 12.01.2022
4331 Clouds 0 994 100 2400 11.83 210 14:49 12.01.2022
4332 Clouds 0 995 93 10000 12.35 210 13:37 12.01.2022
4333 Clouds 0 996 100 600 13.38 210 12:56 12.01.2022
4334 Clouds -1 1002 100 10000 9.26 210 08:55 12.01.2022
4335 Clouds -1 1004 100 10000 9.26 210 07:55 12.01.2022
4336 Clouds 0 1005 93 10000 9.77 220 07:32 12.01.2022
4337 Clouds -1 1009 100 6000 7.72 210 01:34 12.01.2022
4338 Clouds -1 1011 100 7000 7.2 220 23:25 11.01.2022
4339 Clouds -1 1011 93 6000 8.23 210 22:24 11.01.2022
4340 Clouds -2 1011 93 4400 6.69 200 21:28 11.01.2022
4341 Clouds -2 1012 93 3900 7.2 200 20:36 11.01.2022
4342 Snow -3 1012 100 2600 7.2 200 19:23 11.01.2022
4343 Clouds -4 1013 100 9000 8.75 200 17:46 11.01.2022
4344 Clouds -4 1014 93 8000 8.75 200 16:39 11.01.2022
4345 Clouds -4 1014 93 9000 8.23 200 16:18 11.01.2022
4346 Clouds -5 1015 100 6000 7.2 200 14:48 11.01.2022
4347 Clouds -5 1015 100 6000 7.2 200 14:30 11.01.2022
4348 Clouds -5 1016 93 10000 7.72 200 13:46 11.01.2022
4349 Snow -5 1016 93 10000 7.72 200 13:25 11.01.2022
4350 Clouds -6 1016 93 10000 8.23 190 12:24 11.01.2022
4351 Clouds -7 1018 93 6000 8.75 200 10:26 11.01.2022
4352 Clouds -7 1020 93 4000 6.69 190 07:38 11.01.2022
4353 Clouds -9 1024 92 10000 6.69 190 02:57 11.01.2022
4354 Clouds -11 1026 85 10000 4.12 170 00:24 11.01.2022
4355 Clouds -12 1026 85 10000 2.06 0 23:38 10.01.2022
4356 Clouds -14 1027 85 10000 2.06 160 22:20 10.01.2022
4357 Clouds -14 1027 85 10000 2.06 160 21:56 10.01.2022
4358 Clouds -14 1027 85 10000 1.54 140 21:33 10.01.2022
4359 Clouds -15 1027 85 10000 1.54 140 20:58 10.01.2022
4360 Clouds -15 1027 85 5000 1.54 140 20:29 10.01.2022
4361 Clouds -16 1027 85 10000 1.54 120 19:48 10.01.2022
4362 Snow -16 1027 85 10000 1.54 120 19:23 10.01.2022
4363 Clouds -16 1027 85 10000 1.03 0 18:55 10.01.2022
4364 Clouds -16 1027 85 10000 1.03 0 18:37 10.01.2022
4365 Clouds -17 1026 85 10000 1.03 0 16:48 10.01.2022
4366 Clouds -17 1026 85 7000 2.06 210 16:18 10.01.2022
4367 Clouds -19 1026 84 9000 2.06 240 14:41 10.01.2022
4368 Fog -19 1025 84 500 0.51 0 12:43 10.01.2022
4369 Fog -21 1024 84 1500 1.03 0 11:40 10.01.2022
4370 Fog -20 1024 84 700 2.06 190 10:46 10.01.2022
4371 Fog -21 1023 77 3000 3.09 220 08:59 10.01.2022
4372 Clear -20 1020 84 10000 0.51 0 05:51 10.01.2022
4373 Clear -17 1018 85 10000 1.54 300 01:35 10.01.2022
4374 Clear -17 1017 85 10000 0.51 0 00:44 10.01.2022
4375 Clear -18 1017 84 10000 0.51 0 00:19 10.01.2022
4376 Clear -17 1016 78 10000 1.03 0 22:43 09.01.2022
4377 Clear -18 1015 78 10000 1.54 240 21:47 09.01.2022
4378 Clear -19 1015 77 10000 1.54 250 21:25 09.01.2022
4379 Clear -19 1014 84 10000 2.06 250 20:58 09.01.2022
4380 Clear -19 1014 84 10000 2.06 250 20:39 09.01.2022
4381 Clear -19 1014 77 10000 1.03 0 20:21 09.01.2022
4382 Clear -19 1013 84 10000 1.03 0 19:38 09.01.2022
4383 Clear -19 1013 77 10000 1.54 240 19:18 09.01.2022
4384 Clear -19 1012 84 10000 2.06 270 18:37 09.01.2022
4385 Clear -19 1012 84 10000 1.03 0 17:48 09.01.2022
4386 Clear -18 1012 84 10000 1.03 230 17:29 09.01.2022
4387 Clear -17 1011 85 10000 1.54 280 16:40 09.01.2022
4388 Clear -17 1010 85 10000 2.06 320 15:40 09.01.2022
4389 Clear -18 1010 84 10000 2.06 270 14:50 09.01.2022
4390 Clear -18 1010 84 10000 2.06 280 14:23 09.01.2022
4391 Clear -19 1010 84 10000 1.54 270 13:48 09.01.2022
4392 Clear -17 1008 85 10000 1.03 0 11:56 09.01.2022
4393 Clear -16 1008 85 10000 1.03 280 11:25 09.01.2022
4394 Clear -15 1007 85 10000 1.03 260 09:55 09.01.2022
4395 Clouds -15 1007 85 10000 1.54 240 08:56 09.01.2022
4396 Clouds -15 1005 85 10000 2.57 250 06:56 09.01.2022
4397 Clouds -14 1004 85 3400 3.6 240 01:29 09.01.2022
4398 Clouds -14 1004 92 3200 4.12 230 00:37 09.01.2022
4399 Clouds -14 1004 85 3700 4.63 230 23:31 08.01.2022
4400 Clouds -14 1004 85 3700 4.63 240 22:44 08.01.2022
4401 Clouds -16 1003 85 9000 5.66 230 21:27 08.01.2022
4402 Clouds -16 1004 85 9000 5.14 220 20:43 08.01.2022
4403 Clouds -16 1004 85 10000 5.14 230 20:21 08.01.2022
4404 Clear -16 1004 85 10000 5.14 230 19:22 08.01.2022
4405 Clouds -16 1004 85 10000 4.63 220 17:31 08.01.2022
4406 Clouds -17 1004 85 10000 4.63 220 16:42 08.01.2022
4407 Clear -17 1004 85 10000 5.66 220 15:28 08.01.2022
4408 Clear -16 1004 85 10000 5.66 230 13:57 08.01.2022
4409 Clouds -17 1005 85 10000 4.12 230 11:30 08.01.2022
4410 Clear -17 1005 85 10000 4.12 230 10:33 08.01.2022
4411 Clear -17 1005 85 10000 4.12 230 09:57 08.01.2022
4412 Clear -16 1005 85 10000 4.63 230 09:30 08.01.2022
4413 Clear -16 1006 85 10000 4.12 220 05:51 08.01.2022
4414 Clear -18 1006 84 10000 2.06 250 01:24 08.01.2022
4415 Clouds -14 1009 85 10000 1.54 230 23:30 07.01.2022
4416 Clear -14 1006 85 10000 0.51 0 21:47 07.01.2022
4417 Clear -14 1006 85 10000 1.54 0 20:26 07.01.2022
4418 Clear -14 1006 85 10000 0.51 0 19:26 07.01.2022
4419 Clear -14 1005 85 10000 4.63 350 18:46 07.01.2022
4420 Clear -13 1005 78 10000 5.14 350 18:18 07.01.2022
4421 Clear -13 1005 85 10000 5.66 340 17:23 07.01.2022
4422 Clear -13 1004 85 10000 5.66 340 14:55 07.01.2022
4423 Clear -12 1003 85 10000 5.66 330 13:52 07.01.2022
4424 Clear -11 1002 85 10000 5.14 340 12:50 07.01.2022
4425 Clear -10 1001 85 10000 5.14 340 10:21 07.01.2022
4426 Clouds -11 998 92 10000 5.14 340 02:59 07.01.2022
4427 Clouds -10 998 85 10000 5.14 340 02:22 07.01.2022
4428 Clouds -10 997 85 10000 5.66 340 01:48 07.01.2022
4429 Clouds -10 997 85 10000 5.66 340 01:25 07.01.2022
4430 Clouds -12 997 92 10000 5.14 340 00:29 07.01.2022
4431 Clear -14 996 85 10000 5.14 340 22:33 06.01.2022
4432 Clear -17 995 85 10000 5.14 340 20:43 06.01.2022
4433 Clouds -18 994 84 10000 6.17 350 19:58 06.01.2022
4434 Clouds -18 994 84 10000 6.17 350 19:36 06.01.2022
4435 Clouds -20 993 84 7000 5.14 350 17:51 06.01.2022
4436 Clear -20 993 77 10000 5.66 350 17:19 06.01.2022
4437 Clear -20 993 77 10000 5.14 340 16:22 06.01.2022
4438 Clouds -20 992 77 10000 5.66 350 15:41 06.01.2022
4439 Clear -20 992 77 10000 5.14 340 15:20 06.01.2022
4440 Clear -20 991 84 10000 5.14 340 14:19 06.01.2022
4441 Clouds -19 991 77 10000 5.66 340 13:30 06.01.2022
4442 Clear -19 991 84 10000 5.66 340 12:20 06.01.2022
4443 Clouds -19 990 84 10000 5.14 340 11:29 06.01.2022
4444 Snow -18 990 84 10000 5.14 340 09:50 06.01.2022
4445 Snow -17 988 85 10000 0.51 0 05:55 06.01.2022
4446 Clear -15 988 85 10000 2.57 330 23:56 05.01.2022
4447 Clear -14 988 85 10000 3.09 330 23:21 05.01.2022
4448 Clear -14 988 85 10000 3.09 330 22:41 05.01.2022
4449 Clear -14 988 85 10000 3.09 330 21:59 05.01.2022
4450 Snow -13 987 85 10000 3.09 330 21:22 05.01.2022
4451 Snow -13 991 85 10000 3.09 330 20:30 05.01.2022
4452 Snow -13 987 85 10000 2.57 340 19:29 05.01.2022
4453 Snow -13 986 85 10000 2.57 350 18:20 05.01.2022
4454 Snow -13 986 85 10000 2.57 360 16:56 05.01.2022
4455 Snow -14 986 85 10000 1.54 340 16:18 05.01.2022
4456 Snow -15 985 85 10000 2.06 360 14:54 05.01.2022
4457 Snow -13 985 85 10000 2.06 30 13:33 05.01.2022
4458 Snow -12 985 85 10000 2.06 60 11:59 05.01.2022
4459 Snow -12 985 85 8000 3.09 90 08:21 05.01.2022
4460 Snow -12 985 85 7000 3.6 90 06:37 05.01.2022
4461 Snow -12 985 85 7000 3.6 90 06:37 05.01.2022
4462 Snow -11 987 85 5000 5.66 100 01:20 05.01.2022
4463 Snow -11 987 85 10000 6.17 100 23:41 04.01.2022
4464 Snow -11 988 85 7000 6.69 100 23:19 04.01.2022
4465 Snow -11 988 85 10000 7.2 100 21:36 04.01.2022
4466 Snow -10 989 79 10000 7.72 100 20:27 04.01.2022
4467 Snow -10 990 79 10000 7.72 100 18:35 04.01.2022
4468 Snow -10 991 79 5000 8.23 100 17:19 04.01.2022
4469 Snow -10 991 79 7000 8.23 100 16:31 04.01.2022
4470 Snow -11 992 85 10000 6.17 100 14:58 04.01.2022
4471 Snow -11 992 85 10000 6.17 100 14:37 04.01.2022
4472 Snow -11 993 85 10000 7.2 100 13:55 04.01.2022
4473 Snow -11 994 85 2500 6.17 110 11:44 04.01.2022
4474 Snow -11 994 79 10000 6.69 110 10:18 04.01.2022
4475 Snow -12 995 85 10000 6.17 120 08:36 04.01.2022
4476 Snow -13 995 85 10000 6.17 100 04:24 04.01.2022
4477 Snow -12 997 78 10000 5.14 100 00:42 04.01.2022
4478 Snow -12 997 78 10000 5.14 110 23:44 03.01.2022
4479 Clear -12 997 78 10000 5.14 100 22:21 03.01.2022
4480 Clear -12 997 78 10000 5.66 100 21:38 03.01.2022
4481 Clear -12 998 85 10000 4.12 110 20:34 03.01.2022
4482 Clouds -13 998 85 10000 4.12 90 18:54 03.01.2022
4483 Clouds -13 998 85 10000 4.63 100 18:29 03.01.2022
4484 Clouds -13 998 85 10000 4.63 90 17:20 03.01.2022
4485 Snow -14 998 85 10000 4.12 80 16:28 03.01.2022
4486 Snow -14 1000 85 10000 5.14 90 14:31 03.01.2022
4487 Clouds -14 998 85 10000 5.14 70 12:51 03.01.2022
4488 Clear -14 998 92 10000 4.63 90 11:50 03.01.2022
4489 Clear -14 998 92 10000 4.63 90 10:37 03.01.2022
4490 Clouds -14 998 85 10000 5.14 70 08:54 03.01.2022
4491 Clear -14 998 85 10000 4.12 70 07:51 03.01.2022
4492 Snow -14 1000 85 10000 4.63 80 01:55 03.01.2022
4493 Clear -15 1001 85 10000 5.14 70 23:22 02.01.2022
4494 Clear -15 1001 85 10000 5.14 70 22:55 02.01.2022
4495 Clear -15 1002 85 10000 4.63 80 21:52 02.01.2022
4496 Clear -15 1002 85 10000 5.66 80 20:41 02.01.2022
4497 Clear -14 1002 85 10000 4.63 80 20:22 02.01.2022
4498 Clear -15 1002 85 10000 4.12 80 19:31 02.01.2022
4499 Clear -14 1003 85 10000 5.14 90 18:47 02.01.2022
4500 Clear -15 1003 92 10000 5.66 90 17:56 02.01.2022
4501 Clear -14 1003 85 10000 4.63 90 17:37 02.01.2022
4502 Clear -15 1004 92 10000 4.63 90 17:18 02.01.2022
4503 Clear -15 1005 92 10000 4.12 90 16:26 02.01.2022
4504 Snow -15 1005 85 10000 4.12 80 14:34 02.01.2022
4505 Clear -15 1006 85 10000 4.63 90 12:54 02.01.2022
4506 Clear -15 1007 85 10000 4.12 90 12:22 02.01.2022
4507 Clear -15 1007 85 10000 4.63 80 11:32 02.01.2022
4508 Clouds -14 1008 85 10000 3.6 100 10:46 02.01.2022
4509 Clouds -14 1008 85 10000 3.09 90 09:45 02.01.2022
4510 Clear -13 1010 92 10000 3.6 50 05:21 02.01.2022
4511 Clear -12 1011 85 10000 1.03 0 01:48 02.01.2022
4512 Clear -11 1011 85 10000 4.63 330 23:39 01.01.2022
4513 Clear -10 1011 85 10000 5.66 330 22:57 01.01.2022
4514 Clear -10 1011 85 10000 5.14 330 22:22 01.01.2022
4515 Clear -10 1011 85 10000 5.14 330 21:43 01.01.2022
4516 Clear -10 1011 85 10000 4.12 330 20:55 01.01.2022
4517 Clear -10 1011 85 10000 3.6 320 19:58 01.01.2022
4518 Clear -9 1011 79 10000 4.12 320 19:19 01.01.2022
4519 Clear -10 1011 85 10000 4.63 330 17:58 01.01.2022
4520 Clear -9 1010 79 10000 4.63 310 16:37 01.01.2022
4521 Clear -9 1010 79 10000 4.63 320 16:19 01.01.2022
4522 Clear -10 1010 85 10000 4.12 330 15:26 01.01.2022
4523 Clear -10 1009 85 10000 4.12 310 13:58 01.01.2022
4524 Clear -10 1009 85 10000 4.12 320 12:50 01.01.2022
4525 Clear -10 1008 85 10000 4.63 320 11:56 01.01.2022
4526 Clear -10 1008 85 10000 5.14 330 11:22 01.01.2022
4527 Clear -11 1007 85 10000 5.14 320 10:27 01.01.2022
4528 Clear -11 1007 85 10000 5.14 320 09:45 01.01.2022
4529 Clear -11 1006 85 10000 5.66 320 08:25 01.01.2022
4530 Clear -11 1005 85 10000 5.14 320 07:44 01.01.2022
4531 Clear -11 1005 85 10000 5.66 320 06:47 01.01.2022
4532 Clear -11 1004 85 10000 5.14 320 05:26 01.01.2022
4533 Clear -11 1004 85 10000 6.17 330 04:37 01.01.2022
4534 Clear -11 1002 85 10000 5.14 330 01:28 01.01.2022
4535 Clear -11 1001 85 10000 5.66 330 23:35 31.12.2021
4536 Clear -10 999 85 10000 5.66 330 21:53 31.12.2021
4537 Clear -8 998 86 10000 5.66 330 20:37 31.12.2021
4538 Clear -6 997 86 10000 5.14 340 19:30 31.12.2021
4539 Clear -6 996 86 10000 4.63 350 18:35 31.12.2021
4540 Snow -6 995 86 10000 5.14 350 17:38 31.12.2021
4541 Snow -6 995 93 10000 5.66 350 17:18 31.12.2021
4542 Snow -5 994 93 10000 5.66 360 16:24 31.12.2021
4543 Snow -5 994 93 10000 5.66 360 15:56 31.12.2021
4544 Snow -5 993 86 10000 5.66 360 15:28 31.12.2021
4545 Snow -6 992 93 10000 4.63 350 14:52 31.12.2021
4546 Snow -6 992 93 10000 4.63 350 14:29 31.12.2021
4547 Clouds -6 992 93 10000 4.63 360 13:36 31.12.2021
4548 Snow -6 991 93 6000 5.66 360 12:45 31.12.2021
4549 Snow -6 990 93 5000 5.66 360 11:43 31.12.2021
4550 Snow -6 990 93 5000 5.66 360 11:24 31.12.2021
4551 Snow -5 990 93 8000 4.12 360 10:34 31.12.2021
4552 Snow -5 989 93 3000 5.14 10 09:54 31.12.2021
4553 Snow -4 989 93 3000 4.63 10 09:32 31.12.2021
4554 Snow -4 989 100 2000 3.09 340 08:27 31.12.2021
4555 Snow -4 988 100 2800 2.57 10 07:30 31.12.2021
4556 Snow -2 990 100 4500 3.09 120 23:23 30.12.2021
4557 Snow -2 991 100 3700 3.09 110 22:33 30.12.2021
4558 Snow -2 991 100 3700 3.09 110 22:33 30.12.2021
4559 Snow -2 991 100 3300 2.57 120 21:56 30.12.2021
4560 Snow -2 991 100 4700 2.57 130 21:36 30.12.2021
4561 Snow -2 991 100 4300 3.6 160 20:46 30.12.2021
4562 Snow -1 991 93 4000 3.09 160 20:25 30.12.2021
4563 Snow -1 991 93 3500 3.6 160 19:45 30.12.2021
4564 Snow -1 992 93 4200 3.6 170 18:45 30.12.2021
4565 Snow -1 992 100 3500 3.6 170 18:18 30.12.2021
4566 Snow -1 993 100 3500 3.6 180 16:19 30.12.2021
4567 Snow -1 993 100 2500 3.6 180 15:51 30.12.2021
4568 Snow -1 993 100 8000 5.14 190 14:39 30.12.2021
4569 Snow -1 993 100 2500 6.69 200 13:55 30.12.2021
4570 Snow -1 994 100 2500 5.14 210 12:40 30.12.2021
4571 Snow -2 994 100 2000 6.17 210 10:58 30.12.2021
4572 Snow -2 995 100 1800 8.23 210 09:59 30.12.2021
4573 Snow -2 995 100 1600 7.2 220 08:58 30.12.2021
4574 Snow -3 995 100 1200 7.2 200 06:52 30.12.2021
4575 Snow -3 997 93 7000 5.14 180 03:43 30.12.2021
4576 Clouds -3 998 93 8000 5.14 180 02:47 30.12.2021
4577 Clouds -5 999 100 9000 3.09 160 23:50 29.12.2021
4578 Clouds -5 999 93 8000 3.09 150 23:23 29.12.2021
4579 Clouds -5 1000 93 4000 4.12 160 22:22 29.12.2021
4580 Clouds -5 1000 93 4600 4.12 160 21:43 29.12.2021
4581 Clouds -5 1001 93 5000 2.57 150 20:39 29.12.2021
4582 Snow -6 1001 100 7000 2.57 150 19:50 29.12.2021
4583 Snow -6 1001 93 7000 3.09 150 18:54 29.12.2021
4584 Snow -6 1001 93 10000 3.09 160 17:56 29.12.2021
4585 Snow -6 1002 93 10000 2.06 140 17:28 29.12.2021
4586 Snow -6 1002 93 10000 1.54 130 16:41 29.12.2021
4587 Clouds -6 1002 93 10000 2.57 160 15:59 29.12.2021
4588 Clouds -7 1002 93 10000 2.06 140 14:24 29.12.2021
4589 Snow -7 1003 93 10000 2.06 140 12:39 29.12.2021
4590 Snow -7 1002 93 10000 3.6 160 11:43 29.12.2021
4591 Snow -7 1003 100 10000 2.57 150 09:59 29.12.2021
4592 Snow -6 1003 93 4000 4.12 170 07:52 29.12.2021
4593 Snow -6 1003 93 4000 4.12 170 07:52 29.12.2021
4594 Snow -6 1003 100 5000 4.12 160 06:40 29.12.2021
4595 Snow -5 1003 93 7000 3.6 160 06:22 29.12.2021
4596 Snow -5 1003 93 7000 3.09 160 05:39 29.12.2021
4597 Snow -5 1004 93 4500 5.66 180 02:48 29.12.2021
4598 Snow -4 1004 93 6000 5.14 170 00:23 29.12.2021
4599 Snow -4 1004 93 5000 4.63 170 23:45 28.12.2021
4600 Snow -4 1004 93 10000 4.12 170 22:42 28.12.2021
4601 Snow -4 1005 93 10000 3.6 170 22:24 28.12.2021
4602 Snow -5 1005 100 10000 2.06 160 21:52 28.12.2021
4603 Snow -5 1005 93 10000 3.09 170 20:40 28.12.2021
4604 Snow -6 1005 93 10000 2.57 160 19:31 28.12.2021
4605 Clouds -7 1005 93 10000 2.57 160 18:41 28.12.2021
4606 Snow -8 1005 92 10000 2.06 150 17:59 28.12.2021
4607 Snow -10 1006 92 10000 3.09 120 16:34 28.12.2021
4608 Snow -11 1006 92 5000 4.12 110 15:50 28.12.2021
4609 Snow -12 1006 85 10000 4.63 110 15:22 28.12.2021
4610 Snow -12 1006 85 10000 3.6 110 14:50 28.12.2021
4611 Snow -12 1006 85 5000 3.6 90 14:21 28.12.2021
4612 Snow -13 1006 92 1500 2.57 80 13:42 28.12.2021
4613 Snow -13 1006 92 1500 2.57 80 13:24 28.12.2021
4614 Snow -13 1007 85 1500 2.57 70 12:49 28.12.2021
4615 Fog -15 1007 85 400 3.6 90 11:46 28.12.2021
4616 Clear -17 1007 78 10000 3.6 100 08:53 28.12.2021
4617 Fog -19 1006 84 1500 0.51 90 06:58 28.12.2021
4618 Clear -16 1005 92 10000 2.06 230 00:34 28.12.2021
4619 Clear -15 1005 85 10000 1.54 200 23:24 27.12.2021
4620 Clear -14 1004 85 10000 1.54 210 21:42 27.12.2021
4621 Clear -15 1004 92 10000 1.03 0 21:21 27.12.2021
4622 Clear -15 1004 85 10000 2.06 240 20:24 27.12.2021
4623 Snow -15 1004 85 10000 2.57 230 19:41 27.12.2021
4624 Snow -15 1004 85 10000 2.06 220 18:52 27.12.2021
4625 Clear -16 1003 85 10000 1.54 260 17:49 27.12.2021
4626 Clear -16 1003 85 10000 3.6 250 16:55 27.12.2021
4627 Snow -15 1003 92 10000 3.09 260 15:52 27.12.2021
4628 Clear -15 1003 85 10000 3.09 270 14:33 27.12.2021
4629 Clouds -14 1003 85 10000 3.6 250 13:40 27.12.2021
4630 Clear -15 1002 85 10000 3.09 240 12:40 27.12.2021
4631 Snow -14 1002 85 10000 2.57 240 10:32 27.12.2021
4632 Mist -14 1002 85 1500 3.09 230 09:47 27.12.2021
4633 Mist -13 1002 85 1200 1.54 220 07:50 27.12.2021
4634 Fog -13 1002 92 800 1.03 250 07:29 27.12.2021
4635 Snow -12 1001 85 10000 5.14 350 02:21 27.12.2021
4636 Clouds -11 1000 85 10000 4.63 340 23:58 26.12.2021
4637 Snow -11 1000 85 10000 5.14 340 23:39 26.12.2021
4638 Snow -12 1000 92 4300 5.66 330 22:34 26.12.2021
4639 Clouds -12 999 85 10000 5.14 340 20:59 26.12.2021
4640 Clear -12 999 85 10000 5.14 340 19:47 26.12.2021
4641 Clouds -12 998 92 10000 5.14 330 18:24 26.12.2021
4642 Clouds -11 998 85 10000 5.14 330 17:24 26.12.2021
4643 Clear -12 998 92 10000 5.66 340 14:29 26.12.2021
4644 Clouds -13 998 92 10000 5.66 330 13:41 26.12.2021
4645 Snow -13 997 92 10000 6.17 330 13:20 26.12.2021
4646 Snow -13 998 85 10000 5.66 330 12:33 26.12.2021
4647 Clouds -13 998 85 10000 6.17 330 12:33 26.12.2021
4648 Snow -14 998 85 10000 6.17 330 10:42 26.12.2021
4649 Clear -16 998 85 10000 7.2 330 09:26 26.12.2021
4650 Clear -16 998 85 10000 5.66 330 08:44 26.12.2021
4651 Clear -16 998 85 10000 5.14 340 07:59 26.12.2021
4652 Clear -16 997 85 10000 4.12 360 01:30 26.12.2021
4653 Clear -15 996 85 10000 5.14 10 23:58 25.12.2021
4654 Clear -15 996 85 10000 5.14 10 23:27 25.12.2021
4655 Clear -15 996 85 10000 5.14 360 22:28 25.12.2021
4656 Clear -15 995 85 10000 5.66 350 21:00 25.12.2021
4657 Clear -14 995 85 10000 3.6 350 19:28 25.12.2021
4658 Clear -14 995 85 10000 3.6 350 18:56 25.12.2021
4659 Clear -14 994 78 10000 4.12 10 18:21 25.12.2021
4660 Clear -15 993 85 10000 3.6 20 16:42 25.12.2021
4661 Clear -13 992 78 10000 3.6 10 15:26 25.12.2021
4662 Snow -14 991 85 10000 5.66 20 13:41 25.12.2021
4663 Snow -12 989 85 10000 4.63 30 11:54 25.12.2021
4664 Snow -11 988 79 10000 7.2 40 10:18 25.12.2021
4665 Snow -11 988 79 10000 7.2 50 09:42 25.12.2021
4666 Snow -11 986 92 5000 3.6 350 04:36 25.12.2021
4667 Snow -11 986 85 10000 3.6 340 01:27 25.12.2021
4668 Clear -11 987 85 10000 4.63 340 23:55 24.12.2021
4669 Clouds -11 988 92 10000 4.63 340 20:53 24.12.2021
4670 Snow -10 988 92 10000 4.12 330 19:25 24.12.2021
4671 Snow -8 988 86 10000 5.14 360 18:23 24.12.2021
4672 Snow -8 989 86 10000 5.66 10 16:29 24.12.2021
4673 Snow -8 989 86 5000 5.66 10 15:49 24.12.2021
4674 Snow -7 989 79 7000 5.66 10 15:20 24.12.2021
4675 Snow -8 989 86 10000 5.14 10 14:31 24.12.2021
4676 Snow -8 989 86 10000 4.63 10 13:44 24.12.2021
4677 Snow -8 989 86 10000 6.17 20 12:49 24.12.2021
4678 Snow -8 989 86 10000 6.17 20 12:23 24.12.2021
4679 Snow -8 990 86 10000 5.66 10 11:40 24.12.2021
4680 Snow -9 990 85 10000 5.66 10 11:18 24.12.2021
4681 Clouds -9 990 85 10000 6.69 20 10:33 24.12.2021
4682 Snow -8 989 79 10000 6.69 20 08:36 24.12.2021
4683 Snow -8 989 86 6000 6.69 20 07:58 24.12.2021
4684 Snow -7 988 86 10000 6.17 10 06:18 24.12.2021
4685 Snow -9 987 85 10000 4.12 360 00:20 24.12.2021
4686 Snow -10 987 85 10000 4.12 340 23:33 23.12.2021
4687 Snow -10 987 85 10000 4.63 340 22:44 23.12.2021
4688 Snow -9 987 85 10000 4.63 350 22:22 23.12.2021
4689 Snow -10 987 85 10000 4.63 350 21:39 23.12.2021
4690 Clear -10 987 85 10000 6.17 340 20:22 23.12.2021
4691 Snow -10 987 85 10000 5.66 340 19:27 23.12.2021
4692 Snow -10 987 85 6000 5.14 330 17:58 23.12.2021
4693 Snow -11 987 92 9000 5.66 330 17:18 23.12.2021
4694 Snow -11 988 85 3900 5.66 330 16:26 23.12.2021
4695 Snow -12 988 85 5000 5.66 340 15:32 23.12.2021
4696 Snow -12 988 85 5000 5.66 340 14:56 23.12.2021
4697 Snow -13 988 92 2800 6.17 330 14:38 23.12.2021
4698 Clouds -12 989 85 10000 5.66 340 13:23 23.12.2021
4699 Snow -11 990 85 10000 4.12 340 10:54 23.12.2021
4700 Clouds -12 990 85 10000 5.14 360 09:52 23.12.2021
4701 Clouds -12 990 85 10000 5.14 360 09:32 23.12.2021
4702 Snow -13 990 85 10000 5.66 340 08:25 23.12.2021
4703 Snow -16 992 85 10000 0.51 0 04:39 23.12.2021
4704 Snow -17 998 85 7000 4.12 240 23:43 22.12.2021
4705 Snow -18 1000 84 10000 4.12 250 22:49 22.12.2021
4706 Snow -18 1000 84 10000 4.63 240 21:57 22.12.2021
4707 Snow -18 1002 84 10000 4.63 240 21:30 22.12.2021
4708 Clear -18 1002 84 10000 4.63 240 20:52 22.12.2021
4709 Clear -18 1002 84 10000 4.12 240 20:33 22.12.2021
4710 Clear -17 1004 78 10000 4.12 240 19:35 22.12.2021
4711 Clear -17 1006 85 10000 3.09 260 18:18 22.12.2021
4712 Clear -18 1007 84 10000 3.09 250 17:35 22.12.2021
4713 Clear -18 1010 84 10000 4.63 240 15:46 22.12.2021
4714 Clear -18 1013 84 10000 3.09 240 13:44 22.12.2021
4715 Clear -18 1014 84 10000 3.09 240 12:44 22.12.2021
4716 Clear -17 1017 85 10000 2.57 250 10:48 22.12.2021
4717 Clear -18 1018 84 10000 2.06 250 09:40 22.12.2021
4718 Clear -14 1019 85 10000 1.03 280 07:48 22.12.2021
4719 Clear -15 1020 85 10000 4.12 330 05:51 22.12.2021
4720 Clear -14 1020 85 10000 4.63 330 05:28 22.12.2021
4721 Clear -14 1021 85 10000 5.66 330 04:54 22.12.2021
4722 Clear -14 1021 85 10000 6.17 330 04:30 22.12.2021
4723 Clear -14 1021 85 10000 6.17 330 04:30 22.12.2021
4724 Clear -14 1021 85 10000 5.14 330 03:33 22.12.2021
4725 Clouds -11 1022 79 10000 5.66 340 00:57 22.12.2021
4726 Clouds -12 1022 85 10000 5.14 340 23:32 21.12.2021
4727 Clouds -12 1022 85 10000 5.14 340 22:29 21.12.2021
4728 Clouds -11 1022 79 10000 5.66 340 21:44 21.12.2021
4729 Clouds -11 1022 79 10000 5.66 340 21:23 21.12.2021
4730 Clouds -12 1022 85 10000 5.14 340 20:22 21.12.2021
4731 Clouds -11 1023 79 10000 5.14 340 19:43 21.12.2021
4732 Snow -12 1023 78 10000 5.14 340 19:19 21.12.2021
4733 Clouds -12 1023 78 10000 5.14 340 18:22 21.12.2021
4734 Clear -13 1023 85 10000 5.14 340 17:47 21.12.2021
4735 Clear -13 1023 85 10000 5.14 340 16:35 21.12.2021
4736 Clear -14 1023 85 10000 6.17 340 15:25 21.12.2021
4737 Clear -13 1023 85 10000 6.17 340 13:51 21.12.2021
4738 Clear -13 1023 85 10000 6.17 340 13:31 21.12.2021
4739 Clear -13 1023 85 10000 4.63 340 11:57 21.12.2021
4740 Clear -13 1023 85 10000 5.14 350 10:25 21.12.2021
4741 Clear -13 1023 85 10000 3.6 350 09:27 21.12.2021
4742 Mist -13 1022 92 3000 2.57 10 07:59 21.12.2021
4743 Clouds -12 1023 85 10000 4.12 350 07:29 21.12.2021
4744 Clouds -12 1022 92 10000 3.6 10 06:50 21.12.2021
4745 Clouds -12 1022 92 10000 4.63 350 02:51 21.12.2021
4746 Clear -10 1022 92 10000 3.09 360 23:59 20.12.2021
4747 Clouds -10 1022 85 10000 4.12 10 23:29 20.12.2021
4748 Clear -10 1022 85 10000 4.12 20 22:30 20.12.2021
4749 Clouds -10 1021 85 10000 4.63 30 21:47 20.12.2021
4750 Clouds -10 1021 85 10000 4.63 10 21:23 20.12.2021
4751 Snow -10 1021 85 10000 4.63 360 20:44 20.12.2021
4752 Clear -11 1021 92 10000 5.14 340 19:53 20.12.2021
4753 Clear -11 1021 92 10000 4.63 340 19:31 20.12.2021
4754 Clear -11 1021 85 10000 4.63 340 18:54 20.12.2021
4755 Clear -11 1021 85 10000 4.12 340 17:52 20.12.2021
4756 Clear -12 1020 92 10000 4.12 340 17:25 20.12.2021
4757 Clear -12 1021 92 10000 4.63 330 16:40 20.12.2021
4758 Clear -12 1020 92 10000 4.63 330 15:50 20.12.2021
4759 Clear -12 1020 92 10000 5.14 330 14:43 20.12.2021
4760 Clear -12 1020 85 10000 5.14 330 12:51 20.12.2021
4761 Clear -13 1020 85 10000 6.17 340 11:19 20.12.2021
4762 Clear -14 1020 85 10000 5.66 340 09:47 20.12.2021
4763 Clear -14 1020 85 10000 5.66 340 08:58 20.12.2021
4764 Clear -14 1020 85 10000 5.66 340 08:40 20.12.2021
4765 Clear -13 1020 78 10000 5.14 330 07:49 20.12.2021
4766 Clear -13 1020 85 10000 5.14 330 07:25 20.12.2021
4767 Clear -13 1021 85 10000 5.14 340 03:42 20.12.2021
4768 Clear -12 1021 92 10000 3.6 360 23:51 19.12.2021
4769 Clear -11 1020 92 10000 2.57 30 22:45 19.12.2021
4770 Clouds -10 1019 85 10000 4.12 30 21:49 19.12.2021
4771 Clouds -10 1019 85 10000 4.12 30 21:26 19.12.2021
4772 Snow -9 1018 85 10000 5.14 40 20:30 19.12.2021
4773 Snow -9 1018 92 10000 5.14 40 19:46 19.12.2021
4774 Clouds -9 1017 92 10000 4.12 30 18:58 19.12.2021
4775 Clouds -9 1017 92 10000 4.12 30 18:27 19.12.2021
4776 Clear -8 1016 86 10000 4.63 50 17:49 19.12.2021
4777 Snow -8 1015 86 10000 6.17 40 17:18 19.12.2021
4778 Clear -8 1015 86 10000 4.12 30 16:25 19.12.2021
4779 Clouds -8 1013 92 10000 5.14 50 15:28 19.12.2021
4780 Clouds -8 1013 92 10000 5.14 50 14:57 19.12.2021
4781 Clouds -8 1013 92 10000 8.23 50 14:36 19.12.2021
4782 Clouds -8 1011 92 10000 5.14 40 13:22 19.12.2021
4783 Clouds -7 1010 93 10000 4.63 30 12:33 19.12.2021
4784 Clouds -7 1008 93 10000 4.12 40 11:42 19.12.2021
4785 Clouds -6 1007 86 10000 6.17 50 10:53 19.12.2021
4786 Clouds -6 1007 86 10000 6.17 50 10:23 19.12.2021
4787 Clouds -6 1007 86 10000 6.17 50 10:23 19.12.2021
4788 Snow -6 1004 93 10000 5.14 50 09:26 19.12.2021
4789 Snow -6 1001 93 10000 6.17 60 07:47 19.12.2021
4790 Clouds -3 997 100 3900 4.12 350 02:35 19.12.2021
4791 Clear -3 997 93 10000 4.12 340 00:55 19.12.2021
4792 Clear -3 997 93 10000 4.63 330 23:31 18.12.2021
4793 Clear -3 997 100 10000 5.14 340 22:30 18.12.2021
4794 Clouds -3 997 100 10000 4.63 340 21:54 18.12.2021
4795 Clouds -3 997 100 10000 4.63 340 21:33 18.12.2021
4796 Clouds -3 997 93 10000 5.14 330 20:43 18.12.2021
4797 Clouds -3 997 100 10000 4.63 330 19:50 18.12.2021
4798 Clear -2 997 100 10000 3.09 320 18:26 18.12.2021
4799 Clear -2 997 100 10000 3.6 330 17:50 18.12.2021
4800 Clouds -2 998 100 10000 3.09 330 16:55 18.12.2021
4801 Clouds -2 998 93 10000 3.09 320 16:21 18.12.2021
4802 Clouds -2 998 93 9000 2.06 310 15:25 18.12.2021
4803 Snow -1 999 93 10000 1.03 0 14:19 18.12.2021
4804 Snow -2 1001 93 10000 1.03 0 12:21 18.12.2021
4805 Clear -4 1002 100 10000 2.57 240 10:43 18.12.2021
4806 Clear -4 1002 93 10000 3.09 240 09:32 18.12.2021
4807 Clear -4 1003 100 10000 1.54 210 08:37 18.12.2021
4808 Clouds -4 1004 93 5000 3.6 240 07:42 18.12.2021
4809 Clouds -4 1009 100 700 4.12 230 01:47 18.12.2021
4810 Clouds -4 1010 93 1900 5.66 220 23:56 17.12.2021
4811 Clouds -5 1010 100 10000 5.66 220 23:35 17.12.2021
4812 Snow -5 1013 93 10000 7.2 210 21:50 17.12.2021
4813 Clouds -5 1014 93 10000 5.66 220 20:49 17.12.2021
4814 Snow -5 1014 93 10000 4.12 180 19:58 17.12.2021
4815 Snow -5 1017 93 10000 3.6 200 18:40 17.12.2021
4816 Clouds -5 1017 93 10000 3.6 200 18:18 17.12.2021
4817 Fog -5 1017 100 2200 4.12 200 17:20 17.12.2021
4818 Clouds -5 1019 100 10000 2.57 240 16:28 17.12.2021
4819 Clouds -5 1019 100 2400 1.54 210 15:51 17.12.2021
4820 Snow -5 1019 100 3900 1.03 0 14:43 17.12.2021
4821 Mist -5 1019 100 1200 1.54 90 13:56 17.12.2021
4822 Clouds -5 1019 100 10000 3.09 50 12:38 17.12.2021
4823 Clouds -4 1018 93 10000 4.63 10 10:42 17.12.2021
4824 Clouds -4 1017 93 10000 4.63 10 09:47 17.12.2021
4825 Clouds -4 1016 93 10000 4.12 10 08:43 17.12.2021
4826 Clouds -4 1015 93 10000 4.63 360 08:18 17.12.2021
4827 Clouds -2 1011 100 5000 4.12 350 04:57 17.12.2021
4828 Clear -3 1005 100 10000 4.12 320 00:57 17.12.2021
4829 Clear -4 1004 93 10000 3.09 310 22:44 16.12.2021
4830 Clear -4 1004 93 10000 3.09 310 22:22 16.12.2021
4831 Clear -4 1003 93 10000 2.06 270 21:43 16.12.2021
4832 Clear -4 1002 93 10000 1.54 260 20:42 16.12.2021
4833 Clear -4 1002 93 10000 2.06 300 20:21 16.12.2021
4834 Clear -4 1002 93 10000 2.06 300 20:21 16.12.2021
4835 Clear -5 1001 100 10000 1.54 310 19:27 16.12.2021
4836 Clouds -5 1000 100 10000 2.06 250 18:31 16.12.2021
4837 Clear -4 1000 93 10000 2.06 270 17:36 16.12.2021
4838 Clouds -4 999 93 10000 2.06 280 16:24 16.12.2021
4839 Clear -4 998 93 10000 2.06 270 15:26 16.12.2021
4840 Clear -3 997 93 10000 3.09 320 13:45 16.12.2021
4841 Clear -3 995 93 10000 2.57 330 11:48 16.12.2021
4842 Clouds -3 994 93 10000 3.09 330 11:18 16.12.2021
4843 Clouds -3 994 93 10000 2.06 290 10:39 16.12.2021
4844 Clear -4 994 100 10000 2.57 250 09:42 16.12.2021
4845 Clear -1 991 93 10000 1.54 270 06:23 16.12.2021
4846 Clouds -1 990 100 10000 3.09 250 03:54 16.12.2021
4847 Clouds 0 989 100 3300 4.12 210 23:36 15.12.2021
4848 Clouds 0 989 100 7000 4.63 210 22:49 15.12.2021
4849 Clouds 0 989 100 6000 4.63 220 22:20 15.12.2021
4850 Clouds 0 989 93 10000 4.12 220 21:31 15.12.2021
4851 Clouds 0 989 93 10000 4.63 210 20:36 15.12.2021
4852 Clouds 0 989 93 10000 5.14 220 19:53 15.12.2021
4853 Clouds 0 990 93 10000 4.63 230 18:41 15.12.2021
4854 Clouds 0 990 93 10000 7.2 220 18:18 15.12.2021
4855 Clouds 0 990 93 10000 9.26 220 17:40 15.12.2021
4856 Snow 0 990 93 10000 8.23 220 16:57 15.12.2021
4857 Snow 0 991 100 10000 7.72 210 15:47 15.12.2021
4858 Clouds 0 991 100 10000 6.69 220 15:29 15.12.2021
4859 Clouds 0 992 100 10000 6.69 220 14:44 15.12.2021
4860 Clouds 0 992 100 10000 7.72 210 13:27 15.12.2021
4861 Clouds -1 994 100 4000 6.69 190 10:58 15.12.2021
4862 Snow -1 995 93 2500 6.69 170 09:31 15.12.2021
4863 Snow -1 997 93 10000 7.72 180 07:47 15.12.2021
4864 Clouds -1 1000 100 10000 7.2 200 03:58 15.12.2021
4865 Snow -3 1003 100 10000 3.6 180 23:46 14.12.2021
4866 Snow -2 1003 93 7000 6.69 200 22:52 14.12.2021
4867 Snow -2 1003 93 7000 6.69 200 22:34 14.12.2021
4868 Fog -2 1003 93 1300 3.09 160 21:24 14.12.2021
4869 Clouds -3 1003 100 800 3.09 170 19:44 14.12.2021
4870 Clouds -3 1004 93 800 2.57 160 19:21 14.12.2021
4871 Clouds -3 1004 100 600 2.06 150 18:34 14.12.2021
4872 Clouds -2 1004 93 1100 3.09 190 17:34 14.12.2021
4873 Clouds -3 1004 100 10000 2.57 110 16:43 14.12.2021
4874 Snow -3 1005 100 9000 2.57 110 15:41 14.12.2021
4875 Snow -3 1005 93 10000 3.09 90 13:33 14.12.2021
4876 Snow -3 1005 93 5000 3.09 90 12:27 14.12.2021
4877 Snow -3 1006 93 2500 3.6 90 11:24 14.12.2021
4878 Snow -3 1006 93 2800 3.6 100 10:27 14.12.2021
4879 Snow -3 1006 93 2000 3.09 100 09:53 14.12.2021
4880 Snow -3 1007 93 7000 2.57 140 08:29 14.12.2021
4881 Snow -3 1007 93 6000 2.57 140 07:59 14.12.2021
4882 Clouds -4 1007 100 6000 2.06 160 05:52 14.12.2021
4883 Clouds -3 1009 93 10000 2.06 210 23:39 13.12.2021
4884 Clouds -3 1010 93 10000 2.06 250 21:54 13.12.2021
4885 Clouds -3 1010 93 10000 2.06 250 21:34 13.12.2021
4886 Clouds -3 1010 100 10000 2.06 270 20:50 13.12.2021
4887 Clouds -3 1010 100 10000 1.54 250 19:59 13.12.2021
4888 Clouds -2 1010 93 10000 1.54 260 19:20 13.12.2021
4889 Snow -1 1009 100 2400 1.54 280 17:26 13.12.2021
4890 Snow -1 1010 100 7000 2.06 240 16:20 13.12.2021
4891 Snow -1 1010 100 7000 2.06 240 15:38 13.12.2021
4892 Mist -1 1010 100 2500 2.57 230 13:49 13.12.2021
4893 Mist -1 1010 100 3500 3.09 220 13:18 13.12.2021
4894 Clouds -1 1010 100 3000 4.12 210 12:22 13.12.2021
4895 Clouds -1 1010 100 2500 4.63 210 11:36 13.12.2021
4896 Snow 0 1011 93 2500 4.12 200 10:53 13.12.2021
4897 Snow -1 1011 100 2000 4.12 190 10:21 13.12.2021
4898 Snow -1 1011 100 1200 4.63 190 08:28 13.12.2021
4899 Snow -1 1012 100 10000 4.12 170 05:37 13.12.2021
4900 Fog -2 1013 100 1200 3.6 160 03:31 13.12.2021
4901 Clouds -3 1014 100 4700 4.12 150 23:27 12.12.2021
4902 Clouds -3 1015 93 10000 3.6 160 21:50 12.12.2021
4903 Clouds -3 1015 93 10000 3.6 170 20:45 12.12.2021
4904 Clouds -3 1015 93 1100 3.6 170 19:30 12.12.2021
4905 Clouds -3 1015 93 600 3.6 160 17:46 12.12.2021
4906 Clouds -3 1015 93 1000 3.09 170 16:28 12.12.2021
4907 Clouds -3 1016 93 900 3.09 180 15:51 12.12.2021
4908 Clouds -3 1016 93 1500 3.09 180 15:26 12.12.2021
4909 Mist -3 1016 93 3600 3.09 190 14:37 12.12.2021
4910 Snow -4 1016 100 10000 3.6 170 13:34 12.12.2021
4911 Snow -4 1016 93 10000 4.12 170 12:32 12.12.2021
4912 Snow -4 1016 93 10000 4.12 160 11:44 12.12.2021
4913 Clouds -4 1016 93 7000 4.12 170 11:24 12.12.2021
4914 Snow -4 1016 93 10000 3.6 160 10:32 12.12.2021
4915 Snow -4 1016 93 6000 3.09 160 09:39 12.12.2021
4916 Snow -4 1016 93 10000 3.09 150 08:34 12.12.2021
4917 Snow -4 1016 100 8000 3.09 150 06:20 12.12.2021
4918 Snow -4 1017 100 2500 3.09 160 04:56 12.12.2021
4919 Snow -3 1017 93 10000 3.6 160 03:57 12.12.2021
4920 Mist -3 1018 93 2200 2.57 120 23:48 11.12.2021
4921 Clouds -3 1019 93 1200 2.57 140 22:23 11.12.2021
4922 Fog -3 1018 93 900 2.57 130 21:52 11.12.2021
4923 Fog -3 1018 93 650 2.57 120 21:18 11.12.2021
4924 Clouds -4 1019 100 1100 3.09 120 19:30 11.12.2021
4925 Fog -4 1019 100 1300 2.57 90 18:52 11.12.2021
4926 Clouds -4 1019 100 10000 2.57 120 18:26 11.12.2021
4927 Snow -4 1019 100 10000 2.06 90 17:24 11.12.2021
4928 Snow -4 1019 100 10000 2.57 110 15:55 11.12.2021
4929 Snow -3 1019 93 10000 2.06 140 15:30 11.12.2021
4930 Snow -4 1019 100 4600 3.09 150 12:59 11.12.2021
4931 Snow -4 1019 93 10000 2.57 140 11:26 11.12.2021
4932 Snow -4 1019 93 6000 2.06 170 09:47 11.12.2021
4933 Snow -4 1018 93 4500 3.09 160 08:28 11.12.2021
4934 Snow -6 1017 93 1100 2.57 140 02:29 11.12.2021
4935 Snow -7 1017 93 9000 2.57 120 00:36 11.12.2021
4936 Snow -7 1018 86 10000 2.06 130 23:21 10.12.2021
4937 Snow -7 1018 86 7000 3.09 150 21:57 10.12.2021
4938 Snow -8 1018 92 10000 3.6 160 21:31 10.12.2021
4939 Snow -8 1018 86 7000 4.12 160 19:22 10.12.2021
4940 Clouds -9 1018 85 10000 2.57 160 18:21 10.12.2021
4941 Clear -9 1018 85 10000 6.69 160 16:56 10.12.2021
4942 Clear -9 1018 79 10000 6.69 160 16:28 10.12.2021
4943 Clear -9 1018 79 10000 6.17 160 15:41 10.12.2021
4944 Clear -9 1018 85 10000 6.69 160 15:21 10.12.2021
4945 Clear -9 1018 85 10000 6.17 150 13:52 10.12.2021
4946 Clear -9 1018 85 10000 4.12 150 13:26 10.12.2021
4947 Clear -9 1018 85 10000 3.6 140 12:39 10.12.2021
4948 Clear -10 1018 85 10000 4.12 140 11:29 10.12.2021
4949 Clear -10 1018 85 10000 4.63 150 10:37 10.12.2021
4950 Clear -11 1019 92 10000 4.12 170 08:58 10.12.2021
4951 Clear -11 1019 85 10000 5.14 170 06:56 10.12.2021
4952 Clouds -10 1019 92 10000 4.12 150 02:48 10.12.2021
4953 Clouds -10 1019 92 10000 4.12 150 02:48 10.12.2021
4954 Snow -10 1020 85 10000 4.63 160 00:38 10.12.2021
4955 Clouds -10 1020 92 10000 5.14 160 23:22 09.12.2021
4956 Snow -10 1019 92 10000 4.63 160 22:26 09.12.2021
4957 Snow -10 1019 92 10000 4.12 150 21:59 09.12.2021
4958 Clouds -10 1020 92 10000 5.14 150 21:18 09.12.2021
4959 Snow -10 1020 85 10000 5.14 160 20:22 09.12.2021
4960 Snow -11 1020 92 10000 4.12 140 19:21 09.12.2021
4961 Snow -11 1020 85 10000 4.63 160 18:48 09.12.2021
4962 Snow -12 1021 92 10000 3.09 140 17:52 09.12.2021
4963 Snow -13 1021 92 10000 2.57 160 17:26 09.12.2021
4964 Snow -13 1021 92 10000 2.57 160 16:54 09.12.2021
4965 Clouds -13 1021 85 10000 2.57 150 15:34 09.12.2021
4966 Snow -14 1021 92 10000 4.12 170 14:46 09.12.2021
4967 Snow -13 1021 85 1500 2.57 150 13:23 09.12.2021
4968 Mist -13 1021 85 1100 3.6 170 12:40 09.12.2021
4969 Clouds -15 1021 85 10000 2.06 210 11:24 09.12.2021
4970 Clouds -15 1021 92 10000 1.54 230 09:21 09.12.2021
4971 Clear -14 1021 85 10000 1.54 100 06:44 09.12.2021
4972 Clear -16 1020 85 10000 0.51 0 03:40 09.12.2021
4973 Clouds -14 1020 85 10000 3.09 60 23:43 08.12.2021
4974 Clouds -16 1020 85 10000 1.03 90 23:21 08.12.2021
4975 Clear -15 1020 85 10000 2.57 70 22:47 08.12.2021
4976 Clear -15 1020 85 10000 2.57 80 21:40 08.12.2021
4977 Clear -14 1020 85 10000 2.57 90 20:59 08.12.2021
4978 Clear -13 1020 85 10000 2.57 80 19:58 08.12.2021
4979 Clear -13 1020 85 10000 2.57 80 19:33 08.12.2021
4980 Clear -12 1019 85 10000 3.6 80 18:45 08.12.2021
4981 Clouds -12 1020 85 10000 3.6 80 17:36 08.12.2021
4982 Clouds -12 1020 85 10000 3.6 80 17:36 08.12.2021
4983 Snow -11 1019 85 10000 3.09 70 15:49 08.12.2021
4984 Snow -11 1019 85 10000 3.6 70 15:28 08.12.2021
4985 Snow -11 1019 85 10000 4.12 60 14:30 08.12.2021
4986 Snow -11 1019 85 10000 5.14 60 10:55 08.12.2021
4987 Snow -11 1019 85 10000 5.14 60 10:31 08.12.2021
4988 Snow -11 1019 85 10000 5.14 60 10:31 08.12.2021
4989 Snow -11 1019 85 10000 5.66 60 08:55 08.12.2021
4990 Snow -11 1018 79 10000 6.17 60 07:25 08.12.2021
4991 Snow -13 1019 85 10000 5.66 50 04:24 08.12.2021
4992 Clear -14 1019 78 10000 5.14 70 23:33 07.12.2021
4993 Clear -15 1020 85 10000 4.63 80 21:43 07.12.2021
4994 Clear -15 1020 78 10000 5.14 70 21:23 07.12.2021
4995 Clear -15 1020 78 10000 5.14 70 20:20 07.12.2021
4996 Clear -15 1020 78 10000 4.63 70 18:43 07.12.2021
4997 Clear -15 1020 78 10000 4.63 60 17:48 07.12.2021
4998 Clear -15 1021 78 10000 4.63 60 17:19 07.12.2021
4999 Clear -15 1021 85 10000 4.63 70 16:28 07.12.2021
5000 Clear -16 1021 85 10000 4.63 70 15:23 07.12.2021
5001 Clear -16 1021 85 10000 4.63 70 13:53 07.12.2021
5002 Clear -16 1021 85 10000 4.63 70 12:49 07.12.2021
5003 Clear -16 1021 78 10000 5.66 70 11:27 07.12.2021
5004 Clear -17 1021 85 10000 5.66 70 10:33 07.12.2021
5005 Clear -17 1021 85 10000 4.63 70 07:57 07.12.2021
5006 Clear -18 1021 84 10000 4.12 60 05:59 07.12.2021
5007 Clear -18 1021 84 10000 4.12 60 05:33 07.12.2021
5008 Clear -19 1023 84 10000 3.6 70 23:45 06.12.2021
5009 Clear -16 1023 85 10000 2.57 80 22:44 06.12.2021
5010 Clear -19 1023 84 10000 3.09 70 22:22 06.12.2021
5011 Clear -17 1023 85 10000 3.6 80 21:46 06.12.2021
5012 Clear -18 1023 84 10000 2.57 80 20:33 06.12.2021
5013 Clear -17 1023 85 10000 2.06 80 19:27 06.12.2021
5014 Clouds -18 1024 84 10000 2.57 80 18:59 06.12.2021
5015 Snow -19 1024 84 8000 3.09 60 17:56 06.12.2021
5016 Snow -19 1024 84 8000 3.09 60 17:37 06.12.2021
5017 Mist -18 1024 84 2000 2.57 60 16:22 06.12.2021
5018 Fog -18 1024 84 1100 2.57 60 15:38 06.12.2021
5019 Snow -17 1025 85 2200 2.57 70 13:46 06.12.2021
5020 Clouds -20 1025 77 10000 3.09 60 12:39 06.12.2021
5021 Clear -18 1026 84 10000 1.54 110 10:32 06.12.2021
5022 Snow -16 1026 92 10000 3.6 160 08:45 06.12.2021
5023 Mist -24 1027 77 1400 2.57 70 04:56 06.12.2021
5024 Mist -22 1028 84 4200 2.06 100 22:52 05.12.2021
5025 Clouds -22 1028 84 10000 1.54 90 21:26 05.12.2021
5026 Clouds -22 1028 84 10000 1.54 90 20:59 05.12.2021
5027 Fog -22 1028 84 1100 3.09 100 20:19 05.12.2021
5028 Fog -22 1028 84 4900 2.06 100 19:33 05.12.2021
5029 Snow -21 1028 84 10000 1.03 0 18:41 05.12.2021
5030 Fog -20 1028 84 10000 0.51 0 18:19 05.12.2021
5031 Snow -20 1028 84 10000 1.54 180 17:47 05.12.2021
5032 Snow -21 1028 77 10000 1.03 240 16:45 05.12.2021
5033 Clear -22 1028 84 10000 0.51 0 16:24 05.12.2021
5034 Clear -20 1028 84 10000 2.06 120 14:49 05.12.2021
5035 Clear -20 1027 77 10000 1.54 120 14:30 05.12.2021
5036 Clear -20 1027 77 10000 2.06 120 13:43 05.12.2021
5037 Clear -20 1027 84 10000 2.06 110 12:55 05.12.2021
5038 Clear -22 1027 84 10000 2.06 70 12:29 05.12.2021
5039 Clear -22 1027 84 10000 2.06 90 11:49 05.12.2021
5040 Clear -21 1027 77 10000 2.57 70 10:52 05.12.2021
5041 Clear -21 1027 77 10000 2.57 70 09:58 05.12.2021
5042 Clouds -20 1026 84 10000 2.57 70 07:33 05.12.2021
5043 Clear -17 1024 85 10000 4.12 80 02:25 05.12.2021
5044 Clear -17 1023 85 10000 4.12 60 23:28 04.12.2021
5045 Clear -16 1022 85 10000 3.6 80 21:53 04.12.2021
5046 Clear -16 1022 85 10000 3.6 70 20:50 04.12.2021
5047 Clear -16 1022 85 10000 3.6 70 19:54 04.12.2021
5048 Clear -15 1021 85 10000 3.09 70 19:31 04.12.2021
5049 Clear -15 1020 85 10000 3.09 70 17:58 04.12.2021
5050 Clear -15 1020 85 10000 3.09 70 17:37 04.12.2021
5051 Clear -15 1020 85 10000 4.12 60 16:48 04.12.2021
5052 Clear -15 1020 85 10000 4.12 60 16:30 04.12.2021
5053 Clear -15 1020 85 10000 4.12 60 16:30 04.12.2021
5054 Clear -14 1019 85 10000 4.63 80 14:39 04.12.2021
5055 Snow -14 1018 85 10000 5.14 70 11:46 04.12.2021
5056 Snow -14 1017 85 10000 5.66 70 11:25 04.12.2021
5057 Clear -14 1017 85 10000 5.14 70 10:42 04.12.2021
5058 Clear -13 1016 85 10000 5.14 70 08:45 04.12.2021
5059 Clear -13 1015 85 10000 5.66 70 06:24 04.12.2021
5060 Clear -13 1014 85 10000 5.66 70 04:41 04.12.2021
5061 Clear -10 1012 85 10000 4.63 60 23:49 03.12.2021
5062 Clear -10 1012 85 10000 4.63 60 23:49 03.12.2021
5063 Clear -10 1012 85 10000 4.12 70 22:57 03.12.2021
5064 Clear -9 1011 85 10000 4.63 60 22:38 03.12.2021
5065 Clear -9 1011 85 10000 4.63 50 21:25 03.12.2021
5066 Clear -9 1011 85 10000 4.12 60 20:44 03.12.2021
5067 Clear -9 1010 85 10000 3.6 60 19:36 03.12.2021
5068 Snow -9 1010 85 10000 4.12 60 18:28 03.12.2021
5069 Clear -9 1009 85 10000 4.12 60 17:58 03.12.2021
5070 Clear -9 1008 85 10000 5.66 60 14:23 03.12.2021
5071 Clear -7 1007 79 10000 5.66 50 12:52 03.12.2021
5072 Clouds -7 1007 79 10000 4.63 50 11:25 03.12.2021
5073 Clear -8 1006 86 10000 5.14 50 09:57 03.12.2021
5074 Clear -8 1005 86 10000 5.14 50 08:25 03.12.2021
5075 Clear -8 1005 86 10000 5.66 50 07:38 03.12.2021
5076 Clear -7 1003 86 10000 5.14 40 02:24 03.12.2021
5077 Clouds -8 1003 92 10000 4.12 30 00:47 03.12.2021
5078 Clouds -7 1002 86 10000 4.12 50 23:46 02.12.2021
5079 Clouds -6 1001 86 10000 6.17 30 21:42 02.12.2021
5080 Snow -5 1001 86 10000 6.17 40 20:57 02.12.2021
5081 Clouds -5 1001 86 10000 5.66 50 20:38 02.12.2021
5082 Snow -5 1001 86 10000 6.17 40 19:31 02.12.2021
5083 Snow -4 999 93 7000 6.69 40 17:43 02.12.2021
5084 Snow -3 998 86 10000 7.72 40 15:42 02.12.2021
5085 Snow -4 997 93 6000 8.23 50 14:59 02.12.2021
5086 Snow -4 997 93 6000 8.23 50 14:33 02.12.2021
5087 Snow -4 996 93 5000 8.23 50 12:52 02.12.2021
5088 Snow -4 996 93 7000 7.72 50 12:18 02.12.2021
5089 Snow -4 994 86 2800 9.26 50 09:41 02.12.2021
5090 Snow -4 993 86 2500 8.23 50 08:52 02.12.2021
5091 Snow -4 991 86 6000 6.17 40 04:54 02.12.2021
5092 Snow -6 989 86 6000 5.66 60 00:53 02.12.2021
5093 Snow -6 988 86 7000 6.17 60 23:19 01.12.2021
5094 Snow -6 988 86 6000 6.17 50 22:23 01.12.2021
5095 Snow -6 987 86 4600 5.66 50 20:39 01.12.2021
5096 Snow -7 986 93 8000 4.12 60 19:57 01.12.2021
5097 Snow -7 986 93 8000 4.12 60 19:28 01.12.2021
5098 Snow -6 985 86 4100 4.12 60 17:45 01.12.2021
5099 Snow -7 985 93 7000 2.57 60 16:46 01.12.2021
5100 Snow -7 984 86 4500 3.6 20 14:52 01.12.2021
5101 Snow -8 984 92 6000 3.6 340 13:45 01.12.2021
5102 Snow -8 984 86 3000 3.6 340 12:37 01.12.2021
5103 Snow -9 984 85 6000 5.14 340 10:42 01.12.2021
5104 Snow -10 985 85 2500 5.66 340 09:19 01.12.2021
5105 Snow -11 987 92 2000 5.66 340 08:29 01.12.2021
5106 Snow -11 985 85 2500 6.17 340 07:33 01.12.2021
5107 Snow -11 985 85 2500 6.17 330 06:34 01.12.2021
5108 Snow -11 987 85 3700 6.17 340 03:44 01.12.2021
5109 Snow -10 988 85 7000 5.66 10 00:56 01.12.2021
5110 Snow -10 988 85 5000 5.66 360 23:53 30.11.2021
5111 Snow -10 988 85 5000 5.66 360 23:23 30.11.2021
5112 Snow -10 989 79 6000 6.17 10 21:30 30.11.2021
5113 Snow -10 989 85 6000 6.69 20 20:44 30.11.2021
5114 Snow -10 990 79 9000 6.17 20 19:53 30.11.2021
5115 Snow -10 990 79 7000 5.66 20 19:30 30.11.2021
5116 Snow -11 991 85 6000 5.66 20 18:35 30.11.2021
5117 Snow -13 993 85 7000 5.14 360 16:49 30.11.2021
5118 Snow -13 994 85 7000 4.12 360 15:18 30.11.2021
5119 Snow -13 995 85 6000 5.66 10 14:20 30.11.2021
5120 Clear -14 995 78 10000 5.66 30 13:25 30.11.2021
5121 Clouds -14 996 78 10000 5.66 30 12:45 30.11.2021
5122 Clouds -14 998 85 10000 5.66 20 11:27 30.11.2021
5123 Clouds -15 999 85 10000 5.66 40 10:56 30.11.2021
5124 Clear -15 999 85 10000 5.14 30 10:31 30.11.2021
5125 Clear -15 1001 85 10000 4.12 60 08:52 30.11.2021
5126 Clear -15 1001 85 10000 5.66 50 08:20 30.11.2021
5127 Clouds -16 1001 85 10000 5.14 60 07:47 30.11.2021
5128 Clear -15 1005 85 10000 4.63 70 02:29 30.11.2021
5129 Clear -15 1006 85 10000 3.6 80 01:40 30.11.2021
5130 Clear -14 1006 85 10000 4.12 100 23:57 29.11.2021
5131 Clear -14 1007 85 10000 4.12 120 23:23 29.11.2021
5132 Clear -14 1007 85 10000 4.63 120 22:52 29.11.2021
5133 Clear -14 1007 85 10000 4.63 120 22:32 29.11.2021
5134 Clear -13 1008 85 10000 3.6 130 21:23 29.11.2021
5135 Clear -13 1008 85 10000 3.6 130 20:57 29.11.2021
5136 Clear -13 1008 85 10000 3.6 130 20:29 29.11.2021
5137 Snow -13 1008 85 10000 3.6 130 19:54 29.11.2021
5138 Snow -13 1008 85 10000 3.6 130 19:33 29.11.2021
5139 Clear -12 1009 85 10000 3.6 150 18:48 29.11.2021
5140 Clouds -9 1011 75 10000 3.41 157 17:22 29.11.2021
5141 Clouds -9 1011 75 10000 3.41 157 16:59 29.11.2021
5142 Clouds -9 1011 83 10000 3.5 162 16:29 29.11.2021
5143 Clouds -9 1011 83 10000 3.5 162 15:32 29.11.2021
5144 Clouds -9 1011 90 1129 3.8 167 14:42 29.11.2021
5145 Clouds -9 1011 90 1121 3.8 166 13:32 29.11.2021
5146 Clouds -9 1011 91 3581 3.75 169 12:28 29.11.2021
5147 Snow -9 1011 91 3581 3.75 169 11:34 29.11.2021
5148 Snow -9 1012 92 624 3.6 168 10:32 29.11.2021
5149 Snow -10 1010 92 10000 4.12 160 08:45 29.11.2021
5150 Snow -11 1009 92 10000 3.6 160 05:58 29.11.2021
5151 Snow -12 1009 92 10000 3.6 160 01:38 29.11.2021
5152 Snow -12 1009 85 10000 3.6 160 00:38 29.11.2021
5153 Snow -13 1009 85 10000 2.06 130 23:43 28.11.2021
5154 Snow -13 1009 85 10000 2.06 130 22:42 28.11.2021
5155 Snow -14 1009 92 1800 2.06 140 21:41 28.11.2021
5156 Snow -14 1009 85 10000 2.06 130 20:58 28.11.2021
5157 Snow -14 1009 85 10000 3.09 160 19:55 28.11.2021
5158 Snow -15 1009 85 10000 1.54 150 18:45 28.11.2021
5159 Snow -15 1009 85 10000 2.06 160 18:26 28.11.2021
5160 Snow -15 1008 92 10000 2.57 130 17:49 28.11.2021
5161 Snow -14 1008 85 10000 2.06 160 17:27 28.11.2021
5162 Snow -14 1008 85 3700 2.57 160 16:28 28.11.2021
5163 Snow -14 1008 85 10000 2.06 130 15:52 28.11.2021
5164 Snow -13 1008 85 10000 2.06 120 14:56 28.11.2021
5165 Snow -12 1008 85 10000 3.09 130 14:30 28.11.2021
5166 Snow -11 1008 85 2000 2.06 150 12:55 28.11.2021
5167 Snow -11 1008 92 3900 2.06 160 11:56 28.11.2021
5168 Snow -11 1008 92 2300 2.57 150 10:37 28.11.2021
5169 Snow -10 1008 85 1700 3.09 130 10:18 28.11.2021
5170 Snow -10 1008 85 2000 2.06 120 09:36 28.11.2021
5171 Snow -11 1007 92 10000 3.6 130 05:23 28.11.2021
5172 Snow -14 1008 92 6000 3.09 100 23:23 27.11.2021
5173 Snow -17 1008 85 10000 4.12 60 20:33 27.11.2021
5174 Snow -17 1008 85 10000 4.12 70 18:47 27.11.2021
5175 Snow -16 1008 85 10000 2.57 70 16:31 27.11.2021
5176 Snow -17 1008 78 10000 1.03 0 15:32 27.11.2021
5177 Clear -16 1008 85 10000 3.09 70 13:41 27.11.2021
5178 Clear -16 1007 92 10000 3.6 60 12:27 27.11.2021
5179 Clear -16 1006 85 10000 2.06 70 10:30 27.11.2021
5180 Clear -15 1006 85 10000 3.09 70 09:41 27.11.2021
5181 Clear -14 1005 92 10000 3.6 70 07:44 27.11.2021
5182 Clear -13 1003 85 10000 3.6 60 04:55 27.11.2021
5183 Clear -11 1001 85 10000 4.12 60 00:31 27.11.2021
5184 Clear -11 1000 85 10000 3.6 60 22:52 26.11.2021
5185 Clear -10 1000 85 10000 3.09 60 22:24 26.11.2021
5186 Clear -10 1000 85 10000 4.12 60 21:34 26.11.2021
5187 Clear -10 999 85 10000 3.09 70 20:42 26.11.2021
5188 Clear -10 998 92 10000 4.12 70 19:56 26.11.2021
5189 Clear -10 998 92 10000 4.12 70 19:27 26.11.2021
5190 Clear -10 997 85 10000 5.14 70 17:54 26.11.2021
5191 Clear -10 996 85 10000 5.14 70 17:21 26.11.2021
5192 Clear -9 995 85 10000 6.17 70 15:29 26.11.2021
5193 Clear -9 994 85 10000 4.63 80 13:35 26.11.2021
5194 Snow -8 993 86 2500 5.14 70 11:30 26.11.2021
5195 Snow -8 993 86 2000 6.17 60 10:35 26.11.2021
5196 Snow -8 992 92 2500 5.14 70 08:56 26.11.2021
5197 Snow -8 992 92 2500 6.17 60 08:21 26.11.2021
5198 Snow -8 994 92 2500 5.66 60 07:24 26.11.2021
5199 Snow -7 991 86 10000 5.66 50 06:25 26.11.2021
5200 Snow -8 992 92 10000 4.63 60 03:54 26.11.2021
5201 Snow -8 992 86 10000 4.63 60 01:53 26.11.2021
5202 Snow -12 992 85 10000 3.6 40 22:46 25.11.2021
5203 Clouds -14 992 92 10000 4.63 30 21:24 25.11.2021
5204 Snow -14 993 92 10000 3.09 40 19:55 25.11.2021
5205 Clear -14 993 85 10000 4.12 30 18:45 25.11.2021
5206 Clear -15 993 85 10000 3.09 20 17:41 25.11.2021
5207 Clear -15 993 85 10000 3.6 30 17:18 25.11.2021
5208 Snow -13 994 85 10000 2.57 40 16:30 25.11.2021
5209 Snow -12 995 92 10000 4.12 60 14:59 25.11.2021
5210 Snow -12 996 92 10000 3.6 60 13:25 25.11.2021
5211 Snow -12 996 85 10000 3.6 70 12:20 25.11.2021
5212 Snow -12 997 85 10000 3.09 70 11:48 25.11.2021
5213 Snow -14 998 85 10000 3.09 80 09:25 25.11.2021
5214 Snow -14 1001 85 10000 3.09 60 05:27 25.11.2021
5215 Snow -14 1002 85 10000 3.09 60 02:48 25.11.2021
5216 Clouds -14 1004 85 10000 1.54 350 22:45 24.11.2021
5217 Clouds -14 1004 85 10000 1.54 350 22:23 24.11.2021
5218 Snow -13 1003 85 10000 3.6 10 21:28 24.11.2021
5219 Clouds -14 1004 85 10000 2.06 340 20:42 24.11.2021
5220 Snow -13 1004 85 10000 2.06 330 20:18 24.11.2021
5221 Clouds -13 1004 92 10000 3.09 340 18:30 24.11.2021
5222 Clouds -13 1004 92 10000 3.09 340 18:30 24.11.2021
5223 Snow -13 1003 85 10000 3.09 330 16:53 24.11.2021
5224 Clouds -14 1003 92 10000 3.6 330 15:22 24.11.2021
5225 Clear -15 1003 85 10000 2.06 300 14:42 24.11.2021
5226 Clear -15 1002 92 10000 2.06 260 14:19 24.11.2021
5227 Clear -13 1001 85 10000 3.09 340 11:50 24.11.2021
5228 Clear -13 1001 92 10000 3.6 330 11:20 24.11.2021
5229 Clouds -12 1001 85 10000 3.09 330 10:39 24.11.2021
5230 Clouds -10 999 92 10000 4.63 340 09:40 24.11.2021
5231 Snow -8 997 92 10000 4.12 340 07:42 24.11.2021
5232 Clouds -8 996 92 10000 5.14 350 06:21 24.11.2021
5233 Clouds -5 994 93 10000 4.63 360 03:50 24.11.2021
5234 Snow -3 992 93 2600 2.57 70 23:44 23.11.2021
5235 Clouds -3 992 93 2800 2.57 90 22:39 23.11.2021
5236 Clouds -3 992 93 6000 3.09 80 21:46 23.11.2021
5237 Snow -3 993 93 2300 2.57 50 20:48 23.11.2021
5238 Snow -3 994 93 10000 1.54 60 19:37 23.11.2021
5239 Clouds -3 995 93 10000 2.06 120 18:37 23.11.2021
5240 Clouds -3 995 100 2400 3.09 220 17:57 23.11.2021
5241 Clouds -3 996 93 10000 3.09 210 16:55 23.11.2021
5242 Snow -3 997 93 10000 3.6 220 15:57 23.11.2021
5243 Snow -4 998 100 10000 4.63 210 15:19 23.11.2021
5244 Clouds -5 999 100 10000 3.6 200 13:43 23.11.2021
5245 Snow -9 1003 92 2500 5.14 160 10:41 23.11.2021
5246 Snow -10 1003 85 10000 4.12 160 09:57 23.11.2021
5247 Snow -11 1004 92 10000 3.09 190 08:43 23.11.2021
5248 Clear -14 1006 92 10000 1.03 0 05:57 23.11.2021
5249 Clear -14 1007 92 10000 1.03 180 03:39 23.11.2021
5250 Clear -11 1007 85 10000 2.57 320 23:43 22.11.2021
5251 Clear -11 1007 92 10000 2.06 320 23:20 22.11.2021
5252 Clear -10 1007 92 10000 1.54 300 22:32 22.11.2021
5253 Clouds -11 1006 92 5000 2.06 320 21:45 22.11.2021
5254 Clouds -12 1006 92 10000 2.57 260 21:21 22.11.2021
5255 Clouds -11 1006 85 10000 2.57 240 20:49 22.11.2021
5256 Clouds -11 1006 85 10000 2.57 240 20:49 22.11.2021
5257 Clouds -14 1006 85 10000 1.03 0 19:26 22.11.2021
5258 Clear -11 1005 85 10000 1.54 260 18:50 22.11.2021
5259 Clear -11 1005 85 10000 1.54 240 18:31 22.11.2021
5260 Clear -13 1005 85 10000 0.51 0 16:50 22.11.2021
5261 Clear -11 1005 79 10000 1.54 210 15:39 22.11.2021
5262 Clear -12 1005 92 10000 2.06 220 12:52 22.11.2021
5263 Clear -11 1005 79 10000 1.54 220 11:39 22.11.2021
5264 Clear -13 1005 85 10000 2.06 260 10:27 22.11.2021
5265 Clear -13 1005 85 10000 3.09 260 08:44 22.11.2021
5266 Clear -13 1005 85 10000 3.09 260 08:24 22.11.2021
5267 Clear -9 1004 85 10000 5.14 330 01:43 22.11.2021
5268 Clear -9 1004 85 10000 4.12 320 23:21 21.11.2021
5269 Clear -9 1003 85 10000 4.12 320 22:45 21.11.2021
5270 Clear -9 1003 92 10000 4.12 330 21:22 21.11.2021
5271 Clear -9 1003 85 10000 3.6 320 20:36 21.11.2021
5272 Clear -9 1003 92 10000 4.63 330 19:43 21.11.2021
5273 Clear -9 1003 92 10000 4.63 330 19:43 21.11.2021
5274 Clear -8 1002 86 10000 4.63 330 17:59 21.11.2021
5275 Clear -8 1002 86 10000 4.63 330 17:36 21.11.2021
5276 Clear -7 1001 86 10000 4.63 330 15:21 21.11.2021
5277 Clear -7 1001 86 10000 4.63 330 14:42 21.11.2021
5278 Clear -6 1000 86 10000 4.63 320 13:23 21.11.2021
5279 Clear -6 999 86 10000 4.12 330 12:27 21.11.2021
5280 Clear -6 999 86 10000 5.14 330 11:38 21.11.2021
5281 Clear -6 998 86 10000 4.63 330 10:19 21.11.2021
5282 Clear -6 998 86 10000 4.63 330 09:47 21.11.2021
5283 Clear -6 997 93 10000 4.63 330 08:33 21.11.2021
5284 Clear -6 996 93 10000 5.14 330 07:53 21.11.2021
5285 Clear -6 995 93 10000 4.12 330 06:37 21.11.2021
5286 Clear -6 994 93 10000 5.14 330 05:43 21.11.2021
5287 Clear -6 993 93 10000 5.66 330 03:26 21.11.2021
5288 Clear -5 992 93 10000 5.14 340 02:56 21.11.2021
5289 Clear -5 992 100 10000 5.14 330 02:19 21.11.2021
5290 Clouds -4 991 100 10000 5.14 330 00:50 21.11.2021
5291 Clouds -2 991 93 10000 4.12 330 22:35 20.11.2021
5292 Clouds -2 990 93 10000 4.63 340 21:33 20.11.2021
5293 Snow -3 990 100 10000 3.6 330 20:32 20.11.2021
5294 Snow -3 990 93 10000 4.12 330 18:45 20.11.2021
5295 Snow -3 989 93 6000 4.12 330 18:24 20.11.2021
5296 Clouds -4 989 100 6000 4.63 350 17:22 20.11.2021
5297 Clear -4 988 93 10000 5.14 330 15:23 20.11.2021
5298 Clear -4 987 93 10000 5.66 330 14:39 20.11.2021
5299 Clear -4 987 100 10000 5.14 330 14:20 20.11.2021
5300 Clouds -4 986 93 10000 5.14 330 11:56 20.11.2021
5301 Clear -6 984 93 10000 5.66 330 09:58 20.11.2021
5302 Clear -6 983 93 10000 5.66 330 08:43 20.11.2021
5303 Clouds -7 982 93 10000 5.14 320 06:50 20.11.2021
5304 Clear -8 981 92 10000 4.63 330 05:18 20.11.2021
5305 Clear -8 981 92 10000 3.6 310 04:49 20.11.2021
5306 Clear -8 981 92 10000 3.09 300 00:43 20.11.2021
5307 Clear -7 981 93 10000 3.09 310 23:57 19.11.2021
5308 Clouds -7 981 100 10000 3.09 330 22:54 19.11.2021
5309 Clear -6 981 93 10000 2.06 250 21:29 19.11.2021
5310 Clouds -6 981 93 10000 1.54 290 20:43 19.11.2021
5311 Clear -6 981 100 10000 2.06 270 20:25 19.11.2021
5312 Clouds -5 981 93 10000 2.06 260 19:46 19.11.2021
5313 Clouds -5 981 93 10000 2.57 240 18:48 19.11.2021
5314 Clear -6 981 93 10000 2.06 240 17:45 19.11.2021
5315 Clouds -5 981 93 5000 2.06 250 16:43 19.11.2021
5316 Clouds -5 982 93 10000 2.06 240 15:21 19.11.2021
5317 Clouds -5 983 100 10000 3.09 240 11:44 19.11.2021
5318 Clouds -5 984 93 10000 2.57 230 10:25 19.11.2021
5319 Clouds -5 984 93 10000 3.09 250 08:37 19.11.2021
5320 Clouds -5 985 93 10000 2.06 230 06:29 19.11.2021
5321 Clouds -4 987 93 10000 3.09 250 04:19 19.11.2021
5322 Clouds -2 988 100 10000 2.57 270 23:54 18.11.2021
5323 Clouds -1 989 93 10000 3.09 260 23:18 18.11.2021
5324 Clouds -1 989 100 10000 3.09 270 21:18 18.11.2021
5325 Mist -1 989 100 2500 2.57 250 20:44 18.11.2021
5326 Mist -1 989 100 3300 3.09 240 20:23 18.11.2021
5327 Mist -1 989 100 2500 3.09 240 19:42 18.11.2021
5328 Fog 0 989 100 1700 3.09 290 18:38 18.11.2021
5329 Mist 0 989 100 1500 2.57 260 17:52 18.11.2021
5330 Mist 0 989 100 2200 2.06 270 17:22 18.11.2021
5331 Clouds 0 990 100 1200 3.09 260 16:42 18.11.2021
5332 Fog 1 990 100 700 3.6 240 15:23 18.11.2021
5333 Fog 1 991 100 600 2.06 190 12:56 18.11.2021
5334 Snow 1 991 100 1400 2.57 190 11:44 18.11.2021
5335 Snow 1 992 100 1400 2.57 180 11:26 18.11.2021
5336 Snow 1 992 100 1400 2.57 180 11:26 18.11.2021
5337 Snow 1 992 100 1500 3.09 190 10:35 18.11.2021
5338 Snow 2 993 100 2000 3.09 170 08:44 18.11.2021
5339 Rain 2 994 100 8000 4.12 170 06:49 18.11.2021
5340 Rain 2 994 100 10000 5.14 180 05:46 18.11.2021
5341 Rain 3 997 100 7000 6.69 180 01:27 18.11.2021
5342 Rain 3 997 100 7000 6.69 180 01:27 18.11.2021
5343 Rain 3 998 100 7000 6.69 190 23:46 17.11.2021
5344 Clouds 3 998 100 8000 6.17 180 22:40 17.11.2021
5345 Clouds 3 998 100 8000 6.17 180 22:40 17.11.2021
5346 Clouds 3 999 100 5000 6.17 190 22:19 17.11.2021
5347 Clouds 3 999 100 6000 6.69 180 21:36 17.11.2021
5348 Clouds 4 999 93 5000 7.2 190 20:18 17.11.2021
5349 Clouds 4 1000 100 3500 5.14 180 17:36 17.11.2021
5350 Clouds 3 1001 100 3100 5.66 160 16:28 17.11.2021
5351 Drizzle 3 1003 100 500 4.63 150 13:41 17.11.2021
5352 Fog 3 1003 100 700 5.14 160 12:38 17.11.2021
5353 Rain 3 1004 93 500 4.63 150 11:28 17.11.2021
5354 Rain 2 1005 100 400 4.12 140 09:44 17.11.2021
5355 Drizzle 2 1006 100 900 3.6 150 08:30 17.11.2021
5356 Drizzle 2 1006 100 900 4.12 160 07:41 17.11.2021
5357 Rain 2 1008 100 800 5.14 190 02:49 17.11.2021
5358 Fog 2 1008 100 500 4.12 180 00:42 17.11.2021
5359 Fog 2 1009 100 500 4.63 180 22:37 16.11.2021
5360 Clouds 0 1010 100 1500 2.06 140 20:19 16.11.2021
5361 Clouds 0 1010 100 1000 3.09 170 19:55 16.11.2021
5362 Fog -1 1010 100 600 3.6 160 18:52 16.11.2021
5363 Fog -1 1010 100 600 4.63 160 18:29 16.11.2021
5364 Fog -2 1010 100 900 2.57 150 17:29 16.11.2021
5365 Fog -2 1011 100 900 2.06 120 16:21 16.11.2021
5366 Fog -2 1011 100 1100 2.06 130 15:44 16.11.2021
5367 Fog -2 1011 100 5000 2.57 190 13:49 16.11.2021
5368 Fog -2 1011 100 1200 3.09 210 10:39 16.11.2021
5369 Fog -3 1011 100 600 2.57 240 09:42 16.11.2021
5370 Fog -1 1011 100 200 3.09 240 08:23 16.11.2021
5371 Fog -2 1010 100 200 2.06 230 07:29 16.11.2021
5372 Clouds 1 1008 100 3600 3.6 240 23:54 15.11.2021
5373 Rain 1 1008 100 2300 5.14 230 22:41 15.11.2021
5374 Clouds 1 1007 100 4400 4.63 230 22:20 15.11.2021
5375 Rain 1 1007 100 4300 5.14 220 21:46 15.11.2021
5376 Rain 1 1007 100 10000 5.14 220 21:21 15.11.2021
5377 Rain 1 1008 100 10000 6.69 220 19:39 15.11.2021
5378 Snow 1 1009 93 10000 6.69 220 17:36 15.11.2021
5379 Snow 0 1011 100 10000 6.69 230 15:56 15.11.2021
5380 Snow 0 1011 100 10000 6.69 230 15:36 15.11.2021
5381 Snow 0 1011 100 5000 7.72 230 14:39 15.11.2021
5382 Snow 0 1012 100 1500 7.2 230 12:39 15.11.2021
5383 Snow -2 1015 100 5000 8.23 190 10:33 15.11.2021
5384 Snow -2 1018 93 7000 7.72 190 09:23 15.11.2021
5385 Snow -4 1021 93 10000 5.66 180 07:23 15.11.2021
5386 Clear -7 1029 86 10000 3.09 170 02:34 15.11.2021
5387 Clouds -7 1032 93 10000 1.54 230 22:45 14.11.2021
5388 Clouds -8 1033 86 10000 1.54 250 22:19 14.11.2021
5389 Clear -6 1032 93 10000 3.6 360 19:24 14.11.2021
5390 Clouds -6 1032 93 10000 4.12 350 18:55 14.11.2021
5391 Clouds -6 1032 93 10000 4.12 350 18:37 14.11.2021
5392 Clear -7 1032 93 10000 4.12 350 18:18 14.11.2021
5393 Clear -6 1032 93 10000 3.6 360 17:58 14.11.2021
5394 Clear -6 1032 93 10000 3.6 360 17:40 14.11.2021
5395 Clear -5 1031 93 10000 3.6 330 17:22 14.11.2021
5396 Clear -5 1032 93 10000 4.63 330 16:59 14.11.2021
5397 Clear -5 1032 93 10000 4.63 330 16:40 14.11.2021
5398 Clear -5 1031 93 10000 4.12 330 16:19 14.11.2021
5399 Clear -5 1031 93 10000 3.6 330 15:20 14.11.2021
5400 Clear -5 1030 86 10000 3.09 330 14:45 14.11.2021
5401 Clear -6 1030 100 10000 2.57 310 14:22 14.11.2021
5402 Clear -5 1029 93 10000 2.57 300 13:52 14.11.2021
5403 Clear -4 1029 93 10000 3.09 340 13:27 14.11.2021
5404 Clear -4 1028 93 10000 3.6 330 12:23 14.11.2021
5405 Snow -3 1026 93 10000 3.6 310 11:25 14.11.2021
5406 Snow -4 1026 93 10000 4.12 310 10:37 14.11.2021
5407 Clear -5 1025 93 10000 3.6 310 09:27 14.11.2021
5408 Clear -6 1024 93 10000 2.57 300 08:51 14.11.2021
5409 Clear -8 1022 92 10000 2.57 260 04:47 14.11.2021
5410 Mist -4 1020 93 3900 4.12 240 22:50 13.11.2021
5411 Fog -4 1020 93 1200 4.12 230 21:59 13.11.2021
5412 Fog -4 1020 93 1200 4.12 230 21:32 13.11.2021
5413 Fog -5 1020 100 1600 3.6 230 20:43 13.11.2021
5414 Fog -4 1020 93 1700 2.57 220 18:54 13.11.2021
5415 Fog -4 1020 93 1700 2.57 220 18:32 13.11.2021
5416 Fog -4 1019 93 900 3.09 230 17:34 13.11.2021
5417 Fog -4 1020 93 700 3.09 230 15:53 13.11.2021
5418 Fog -4 1020 100 750 3.09 230 14:43 13.11.2021
5419 Clouds -4 1020 100 750 3.09 220 13:47 13.11.2021
5420 Snow -4 1020 100 10000 3.6 230 12:43 13.11.2021
5421 Snow -3 1019 93 10000 2.06 240 11:46 13.11.2021
5422 Snow -4 1019 100 10000 1.54 220 11:18 13.11.2021
5423 Snow -3 1019 93 2000 1.54 220 10:32 13.11.2021
5424 Snow -3 1019 93 4200 1.03 0 09:45 13.11.2021
5425 Snow -4 1019 100 10000 1.54 240 09:22 13.11.2021
5426 Snow -4 1018 93 10000 1.54 230 08:42 13.11.2021
5427 Snow -4 1018 93 10000 2.06 30 07:47 13.11.2021
5428 Snow -4 1017 93 10000 1.54 60 04:42 13.11.2021
5429 Clouds -4 1016 93 10000 3.09 70 02:59 13.11.2021
5430 Clouds -4 1014 93 10000 3.6 60 23:35 12.11.2021
5431 Clouds -3 1014 93 10000 3.09 70 21:54 12.11.2021
5432 Clear -3 1013 93 10000 3.09 60 20:46 12.11.2021
5433 Snow -3 1012 93 10000 2.57 80 19:32 12.11.2021
5434 Clear -2 1012 93 10000 4.12 50 18:57 12.11.2021
5435 Clear -3 1011 100 10000 4.12 50 18:18 12.11.2021
5436 Clear -3 1011 100 10000 4.12 50 18:18 12.11.2021
5437 Clear -2 1009 93 10000 5.14 60 15:54 12.11.2021
5438 Clouds -2 1007 100 10000 5.66 50 13:27 12.11.2021
5439 Clear -1 1005 86 10000 6.17 50 11:24 12.11.2021
5440 Clear -1 1005 86 10000 6.17 50 11:24 12.11.2021
5441 Clouds -1 1004 93 10000 6.17 50 09:55 12.11.2021
5442 Snow -1 1003 100 10000 5.66 40 08:51 12.11.2021
5443 Snow 0 1000 93 10000 4.63 30 06:35 12.11.2021
5444 Rain 1 996 100 1200 1.54 90 23:55 11.11.2021
5445 Fog 1 996 100 1900 1.54 90 22:49 11.11.2021
5446 Fog 1 995 100 1700 1.03 70 21:57 11.11.2021
5447 Clouds 1 995 100 3400 1.03 0 20:52 11.11.2021
5448 Clouds 0 995 100 10000 3.09 180 19:48 11.11.2021
5449 Clouds 1 994 93 10000 2.06 130 18:25 11.11.2021
5450 Clouds 1 994 93 10000 2.57 180 17:40 11.11.2021
5451 Clear 0 995 100 10000 3.6 230 15:21 11.11.2021
5452 Clear 0 995 100 10000 4.12 230 14:38 11.11.2021
5453 Clouds 0 995 100 10000 4.12 230 14:19 11.11.2021
5454 Clouds 1 995 93 10000 4.12 230 13:35 11.11.2021
5455 Clear 1 995 93 10000 4.12 230 12:23 11.11.2021
5456 Clouds 0 994 93 10000 2.57 230 09:55 11.11.2021
5457 Clear -1 994 100 10000 3.6 240 08:47 11.11.2021
5458 Clouds -1 993 100 10000 3.6 240 06:45 11.11.2021
5459 Clouds 0 993 100 10000 5.14 240 00:38 11.11.2021
5460 Clouds 1 993 93 10000 5.66 230 22:41 10.11.2021
5461 Clouds 1 993 100 10000 5.14 240 21:53 10.11.2021
5462 Clouds 2 993 93 10000 6.69 220 20:55 10.11.2021
5463 Clouds 2 994 100 10000 5.66 230 19:55 10.11.2021
5464 Clouds 2 994 100 10000 5.66 230 19:35 10.11.2021
5465 Rain 3 994 93 10000 5.66 230 17:19 10.11.2021
5466 Snow 2 995 100 10000 6.17 200 15:46 10.11.2021
5467 Clouds 3 996 93 10000 5.14 220 14:24 10.11.2021
5468 Clouds 2 996 100 10000 7.2 210 13:31 10.11.2021
5469 Clouds 2 997 100 10000 6.69 220 11:40 10.11.2021
5470 Clouds 3 997 93 10000 6.17 220 09:18 10.11.2021
5471 Fog 3 997 93 10000 6.69 220 08:40 10.11.2021
5472 Fog 2 998 100 700 6.17 220 06:44 10.11.2021
5473 Fog 2 998 100 450 7.72 210 05:57 10.11.2021
5474 Clouds 1 999 93 8000 5.66 210 01:44 10.11.2021
5475 Snow -2 1002 100 4500 4.63 180 21:59 09.11.2021
5476 Snow -2 1003 93 8000 6.17 170 20:34 09.11.2021
5477 Snow -3 1004 100 2000 6.17 160 19:28 09.11.2021
5478 Snow -3 1005 93 4700 6.69 170 18:47 09.11.2021
5479 Snow -5 1008 93 4300 5.14 160 16:29 09.11.2021
5480 Snow -7 1010 93 3800 5.66 120 14:59 09.11.2021
5481 Snow -7 1012 86 10000 4.63 150 13:25 09.11.2021
5482 Clear -9 1013 92 10000 5.14 120 12:24 09.11.2021
5483 Clear -10 1016 85 10000 4.63 130 10:53 09.11.2021
5484 Fog -10 1017 85 10000 4.12 130 09:43 09.11.2021
5485 Fog -11 1018 92 10000 4.12 130 08:42 09.11.2021
5486 Fog -9 1019 85 10000 2.06 130 06:51 09.11.2021
5487 Clouds -10 1020 92 10000 0.51 0 02:30 09.11.2021
5488 Clouds -9 1020 92 10000 0.51 0 01:50 09.11.2021
5489 Clear -8 1020 86 10000 2.06 340 00:22 09.11.2021
5490 Clouds -9 1019 92 10000 3.6 340 23:28 08.11.2021
5491 Clouds -8 1019 92 10000 4.12 350 22:35 08.11.2021
5492 Clouds -10 1019 85 10000 1.54 350 21:21 08.11.2021
5493 Clear -8 1018 92 10000 3.6 340 20:31 08.11.2021
5494 Clear -8 1017 92 10000 5.14 340 18:57 08.11.2021
5495 Clear -7 1016 86 10000 4.63 330 17:34 08.11.2021
5496 Clear -8 1015 92 10000 5.14 330 15:38 08.11.2021
5497 Clear -7 1014 86 10000 5.14 330 14:55 08.11.2021
5498 Clear -7 1014 86 10000 3.6 320 13:59 08.11.2021
5499 Clear -6 1013 79 10000 2.06 360 12:44 08.11.2021
5500 Clear -7 1012 86 10000 3.09 310 11:28 08.11.2021
5501 Clear -8 1012 86 10000 3.09 280 10:18 08.11.2021
5502 Clear -9 1011 85 10000 3.09 260 08:56 08.11.2021
5503 Clear -10 1011 92 10000 1.03 0 07:47 08.11.2021
5504 Clear -9 1011 85 10000 2.57 240 06:50 08.11.2021
5505 Clear -9 1011 85 10000 3.6 320 03:34 08.11.2021
5506 Clear -7 1010 86 10000 4.12 330 23:51 07.11.2021
5507 Clear -7 1010 86 10000 4.12 340 22:30 07.11.2021
5508 Clear -7 1010 86 10000 4.12 340 21:22 07.11.2021
5509 Clear -7 1009 93 10000 3.6 350 19:55 07.11.2021
5510 Clear -6 1009 93 10000 3.6 350 18:26 07.11.2021
5511 Clear -6 1008 93 10000 3.6 340 17:38 07.11.2021
5512 Clear -5 1008 86 10000 2.57 360 15:55 07.11.2021
5513 Clear -5 1007 86 10000 2.06 30 14:42 07.11.2021
5514 Clear -4 1006 93 10000 3.6 10 13:57 07.11.2021
5515 Clear -3 1006 86 10000 4.12 20 11:54 07.11.2021
5516 Clear -4 1005 93 10000 5.14 30 10:22 07.11.2021
5517 Clear -4 1003 93 10000 4.63 10 08:48 07.11.2021
5518 Snow -1 998 93 10000 6.17 20 02:49 07.11.2021
5519 Snow -1 995 100 7000 4.12 10 23:42 06.11.2021
5520 Snow -1 994 100 5000 4.63 20 22:52 06.11.2021
5521 Snow 0 993 93 10000 4.12 30 21:36 06.11.2021
5522 Snow 0 992 100 10000 2.57 10 20:52 06.11.2021
5523 Snow 0 992 100 6000 2.57 330 19:36 06.11.2021
5524 Snow 0 990 100 9000 2.06 320 17:18 06.11.2021
5525 Clouds 1 990 100 10000 3.09 310 15:39 06.11.2021
5526 Snow 1 990 100 10000 2.57 270 13:39 06.11.2021
5527 Snow 1 989 100 6000 2.06 280 12:36 06.11.2021
5528 Snow 1 989 100 800 2.06 240 09:42 06.11.2021
5529 Snow 1 988 100 1300 2.57 220 07:58 06.11.2021
5530 Rain 1 988 100 550 1.54 260 03:20 06.11.2021
5531 Snow 1 989 100 650 1.03 240 23:38 05.11.2021
5532 Rain 1 989 100 700 1.03 260 22:52 05.11.2021
5533 Fog 1 989 100 750 1.03 250 21:55 05.11.2021
5534 Fog 1 990 100 650 1.03 210 20:20 05.11.2021
5535 Snow 1 990 100 1000 1.03 220 19:49 05.11.2021
5536 Snow 1 991 100 1600 2.06 210 18:41 05.11.2021
5537 Snow 1 992 100 3500 1.54 190 17:31 05.11.2021
5538 Clouds 1 993 100 900 1.03 0 15:48 05.11.2021
5539 Rain 1 995 100 1800 0.51 230 13:58 05.11.2021
5540 Snow 1 997 100 250 1.03 0 11:42 05.11.2021
5541 Snow 1 999 100 250 0.51 100 08:41 05.11.2021
5542 Fog 1 999 100 300 1.03 80 07:39 05.11.2021
5543 Snow 1 1001 100 1100 2.06 70 05:33 05.11.2021
5544 Snow 1 1003 100 1500 2.57 70 02:26 05.11.2021
5545 Snow 1 1003 100 1800 3.6 60 00:52 05.11.2021
5546 Snow 1 1004 100 6000 2.57 50 23:25 04.11.2021
5547 Snow 1 1004 100 10000 2.06 70 22:20 04.11.2021
5548 Snow 1 1005 100 10000 3.09 50 21:43 04.11.2021
5549 Snow 1 1004 100 4300 2.57 50 20:53 04.11.2021
5550 Snow 1 1005 100 7000 2.57 40 20:22 04.11.2021
5551 Snow 1 1005 100 6000 2.06 40 19:47 04.11.2021
5552 Snow 1 1005 100 7000 2.06 40 18:52 04.11.2021
5553 Snow 1 1005 100 8000 2.06 50 18:18 04.11.2021
5554 Snow 1 1005 100 10000 2.57 30 16:53 04.11.2021
5555 Rain 3 1005 93 10000 1.54 40 15:18 04.11.2021
5556 Rain 3 1004 93 5000 1.03 130 12:53 04.11.2021
5557 Rain 3 1004 100 600 1.03 110 09:42 04.11.2021
5558 Fog 3 1004 100 500 1.03 0 08:31 04.11.2021
5559 Fog 3 1004 100 700 1.54 110 07:35 04.11.2021
5560 Rain 3 1004 100 1200 2.06 160 04:47 04.11.2021
5561 Rain 3 1006 100 9000 2.06 160 22:53 03.11.2021
5562 Rain 3 1006 100 10000 2.57 170 21:49 03.11.2021
5563 Rain 3 1006 100 10000 2.57 170 21:30 03.11.2021
5564 Rain 3 1007 100 10000 2.06 160 20:37 03.11.2021
5565 Clouds 4 1007 93 10000 3.09 180 19:58 03.11.2021
5566 Rain 4 1007 93 10000 3.09 170 18:57 03.11.2021
5567 Clouds 4 1007 93 10000 3.09 160 18:25 03.11.2021
5568 Clouds 4 1007 100 7000 2.06 170 17:36 03.11.2021
5569 Clouds 4 1007 100 7000 2.57 160 16:26 03.11.2021
5570 Clouds 4 1007 100 5000 3.09 160 15:44 03.11.2021
5571 Mist 4 1008 100 2800 4.12 160 13:57 03.11.2021
5572 Mist 4 1008 100 1500 3.6 160 11:59 03.11.2021
5573 Drizzle 4 1008 100 1500 3.09 160 11:25 03.11.2021
5574 Drizzle 4 1009 100 1800 3.6 170 10:46 03.11.2021
5575 Drizzle 4 1009 100 2000 3.09 170 09:31 03.11.2021
5576 Clouds 4 1009 100 6000 4.12 170 08:23 03.11.2021
5577 Drizzle 4 1009 100 3500 4.12 170 07:39 03.11.2021
5578 Clouds 5 1008 100 4700 4.63 170 05:35 03.11.2021
5579 Clouds 5 1009 100 10000 4.63 170 02:28 03.11.2021
5580 Clouds 5 1009 100 7000 5.14 180 23:51 02.11.2021
5581 Clouds 5 1009 100 7000 4.12 180 22:46 02.11.2021
5582 Clouds 5 1009 100 7000 5.14 190 21:29 02.11.2021
5583 Clouds 5 1009 100 6000 4.63 180 20:33 02.11.2021
5584 Clouds 6 1009 93 5000 5.66 180 19:51 02.11.2021
5585 Mist 6 1008 100 3700 5.66 190 18:59 02.11.2021
5586 Mist 6 1008 100 4600 5.66 180 17:59 02.11.2021
5587 Mist 6 1008 100 4600 5.66 180 17:38 02.11.2021
5588 Drizzle 6 1008 100 3900 5.66 190 16:30 02.11.2021
5589 Clouds 6 1008 100 8000 5.14 190 15:30 02.11.2021
5590 Clouds 7 1008 93 6000 5.66 200 14:22 02.11.2021
5591 Drizzle 7 1007 93 2000 5.14 190 13:27 02.11.2021
5592 Drizzle 7 1007 93 1800 5.14 190 12:39 02.11.2021
5593 Drizzle 7 1007 93 3000 5.14 190 11:33 02.11.2021
5594 Drizzle 7 1007 93 4000 4.63 190 10:51 02.11.2021
5595 Drizzle 7 1006 93 3000 5.14 180 10:26 02.11.2021
5596 Drizzle 7 1006 93 7000 6.17 170 08:43 02.11.2021
5597 Drizzle 6 1006 100 3000 6.69 170 06:50 02.11.2021
5598 Clouds 6 1007 100 6000 5.66 170 03:34 02.11.2021
5599 Clouds 6 1007 100 6000 5.66 170 03:34 02.11.2021
5600 Fog 6 1007 100 1600 5.14 160 02:18 02.11.2021
5601 Clouds 6 1009 100 10000 4.12 130 22:44 01.11.2021
5602 Fog 6 1009 100 5000 4.12 150 20:52 01.11.2021
5603 Fog 6 1009 100 5000 4.12 150 20:33 01.11.2021
5604 Fog 6 1009 100 1000 3.6 140 19:48 01.11.2021
5605 Fog 6 1009 100 600 3.6 150 18:58 01.11.2021
5606 Clouds 6 1009 100 500 3.6 150 18:20 01.11.2021
5607 Fog 5 1009 100 450 3.09 130 17:19 01.11.2021
5608 Clouds 5 1009 100 450 3.6 120 16:37 01.11.2021
5609 Fog 5 1009 100 400 3.6 120 15:45 01.11.2021
5610 Clouds 5 1009 100 350 3.09 110 15:19 01.11.2021
5611 Clouds 5 1009 100 300 2.57 110 14:41 01.11.2021
5612 Fog 5 1009 100 100 2.57 130 14:19 01.11.2021
5613 Fog 4 1009 100 250 3.09 100 12:59 01.11.2021
5614 Fog 4 1009 100 150 2.57 90 11:40 01.11.2021
5615 Fog 3 1008 100 250 4.12 80 10:22 01.11.2021
5616 Fog 3 1007 100 300 3.09 80 08:26 01.11.2021
5617 Fog 3 1007 100 300 3.6 80 07:47 01.11.2021
5618 Fog 3 1005 100 700 4.12 80 03:55 01.11.2021
5619 Fog 3 1005 100 700 4.12 80 03:36 01.11.2021
5620 Clouds 3 1005 100 700 3.6 70 23:58 31.10.2021
5621 Clouds 3 1005 100 900 3.6 80 21:26 31.10.2021
5622 Fog 2 1006 100 700 2.06 80 20:24 31.10.2021
5623 Fog 2 1006 100 700 3.09 80 18:43 31.10.2021
5624 Fog 2 1006 100 600 2.57 70 18:21 31.10.2021
5625 Fog 2 1006 100 600 3.6 70 16:48 31.10.2021
5626 Fog 2 1007 100 450 3.09 70 14:53 31.10.2021
5627 Fog 2 1008 100 250 1.54 50 12:57 31.10.2021
5628 Fog 2 1007 100 300 2.06 60 11:56 31.10.2021
5629 Fog 1 1007 100 350 2.06 30 10:51 31.10.2021
5630 Fog 2 1007 100 300 1.54 310 09:26 31.10.2021
5631 Fog 2 1007 100 450 2.06 330 08:46 31.10.2021
5632 Fog 5 1003 100 350 2.06 250 02:54 31.10.2021
5633 Rain 5 1002 100 500 3.6 220 23:42 30.10.2021
5634 Rain 5 1002 100 550 4.63 210 21:36 30.10.2021
5635 Fog 5 1002 100 550 5.14 190 21:18 30.10.2021
5636 Clouds 5 1002 100 800 5.66 200 19:35 30.10.2021
5637 Drizzle 5 1003 100 900 5.66 210 17:43 30.10.2021
5638 Clouds 5 1003 100 350 4.12 180 15:30 30.10.2021
5639 Clouds 3 1003 100 450 3.09 130 13:58 30.10.2021
5640 Rain 2 1004 100 350 3.09 130 13:22 30.10.2021
5641 Fog 2 1004 100 400 3.6 120 12:57 30.10.2021
5642 Snow 2 1004 100 700 4.12 110 11:49 30.10.2021
5643 Drizzle 1 1004 100 1000 3.6 90 10:32 30.10.2021
5644 Snow 0 1004 100 1000 3.6 80 08:54 30.10.2021
5645 Clouds -1 1005 100 10000 3.09 80 07:54 30.10.2021
5646 Snow -1 1005 100 1300 3.09 90 05:45 30.10.2021
5647 Fog -1 1005 100 450 2.57 60 01:57 30.10.2021
5648 Fog -1 1004 100 450 1.54 70 22:54 29.10.2021
5649 Fog 0 1004 100 500 0.51 30 22:32 29.10.2021
5650 Fog 1 1003 100 300 2.57 230 20:47 29.10.2021
5651 Fog 1 1002 100 300 2.57 230 20:26 29.10.2021
5652 Fog 2 1001 100 350 1.54 240 18:38 29.10.2021
5653 Fog 2 1001 100 450 3.6 250 17:24 29.10.2021
5654 Fog 3 999 100 250 3.6 220 15:22 29.10.2021
5655 Fog 4 997 100 200 5.66 220 12:26 29.10.2021
5656 Fog 4 997 100 200 6.17 220 10:46 29.10.2021
5657 Fog 4 996 100 300 5.66 210 08:47 29.10.2021
5658 Clouds 4 999 100 450 4.12 200 00:46 29.10.2021
5659 Clouds 4 999 100 500 5.14 220 23:41 28.10.2021
5660 Clouds 4 1000 100 700 6.69 220 22:20 28.10.2021
5661 Clouds 4 1000 100 500 5.14 210 20:57 28.10.2021
5662 Clouds 3 1000 100 800 4.12 190 19:52 28.10.2021
5663 Rain 2 1001 100 1000 4.63 160 18:30 28.10.2021
5664 Rain 1 1001 100 1100 5.14 170 17:19 28.10.2021
5665 Rain 1 1001 100 800 6.69 170 16:24 28.10.2021
5666 Clouds 1 1002 100 4000 5.66 160 14:40 28.10.2021
5667 Clouds 0 1003 100 6000 6.17 150 13:30 28.10.2021
5668 Snow 0 1003 93 2500 6.17 150 12:47 28.10.2021
5669 Snow -1 1004 93 4000 6.17 140 11:19 28.10.2021
5670 Snow -1 1004 93 1000 5.66 130 09:40 28.10.2021
5671 Snow -1 1004 93 1000 5.66 130 09:22 28.10.2021
5672 Snow -2 1004 100 3000 7.2 120 08:35 28.10.2021
5673 Snow -2 1005 93 2500 7.2 120 07:40 28.10.2021
5674 Snow -2 1004 93 8000 5.66 80 00:40 28.10.2021
5675 Snow -2 1003 100 4400 5.14 80 22:36 27.10.2021
5676 Snow -2 1002 93 4500 5.66 70 21:34 27.10.2021
5677 Snow -2 1002 100 10000 5.66 70 20:57 27.10.2021
5678 Snow -2 1002 100 10000 5.66 70 20:38 27.10.2021
5679 Snow -1 1001 93 10000 5.66 70 19:42 27.10.2021
5680 Clouds -1 1001 93 10000 5.66 70 18:54 27.10.2021
5681 Clouds -1 1001 93 10000 4.63 70 16:38 27.10.2021
5682 Clouds -1 1001 93 10000 5.14 70 16:20 27.10.2021
5683 Snow -1 1000 100 10000 3.6 70 15:21 27.10.2021
5684 Clouds -1 1000 93 10000 3.09 60 12:57 27.10.2021
5685 Clouds -1 1000 93 10000 3.6 40 10:59 27.10.2021
5686 -273 0 0 0 0 0 10:01 27.10.2021
5687 Clouds -1 999 93 10000 2.06 10 08:58 27.10.2021
5688 Clouds -1 999 93 10000 2.57 350 07:36 27.10.2021
5689 Snow -1 998 93 10000 2.57 340 05:34 27.10.2021
5690 Clouds -1 998 100 10000 3.09 330 00:58 27.10.2021
5691 Clouds -1 998 100 10000 3.09 330 00:33 27.10.2021
5692 Clouds -1 998 100 10000 3.6 330 23:50 26.10.2021
5693 Clouds 0 997 93 10000 3.6 320 22:39 26.10.2021
5694 Snow 0 997 100 10000 3.09 330 21:59 26.10.2021
5695 Snow 0 997 100 10000 3.6 330 20:51 26.10.2021
5696 Snow 1 997 100 10000 3.09 330 19:33 26.10.2021
5697 Snow 1 997 100 10000 3.09 340 18:52 26.10.2021
5698 Rain 1 997 100 3600 1.54 350 16:57 26.10.2021
5699 Rain 1 997 100 600 2.06 50 14:56 26.10.2021
5700 Fog 1 999 100 400 1.03 70 11:48 26.10.2021
5701 Fog 1 999 100 300 1.03 80 10:33 26.10.2021
5702 Fog 1 999 100 600 1.54 80 07:51 26.10.2021
5703 Fog 1 999 100 700 1.03 90 07:21 26.10.2021
5704 Snow 1 1002 100 1600 3.09 110 23:51 25.10.2021
5705 Clouds 1 1002 93 1400 3.6 120 22:55 25.10.2021
5706 Clouds 0 1003 100 1300 3.09 120 22:20 25.10.2021
5707 Clouds 0 1003 100 2300 3.6 120 21:39 25.10.2021
5708 Clouds 0 1003 100 3600 3.6 120 19:54 25.10.2021
5709 Snow 0 1003 100 3600 3.6 120 19:26 25.10.2021
5710 Snow 0 1003 100 3300 3.09 120 18:59 25.10.2021
5711 Clouds 0 1003 100 3500 3.6 120 18:20 25.10.2021
5712 Snow 0 1004 93 3800 3.6 110 16:20 25.10.2021
5713 Snow 0 1004 93 5000 4.12 110 14:28 25.10.2021
5714 Snow -1 1004 100 10000 4.12 100 12:30 25.10.2021
5715 Snow -1 1005 93 2500 4.12 100 10:23 25.10.2021
5716 Snow -2 1006 100 1500 3.6 90 08:35 25.10.2021
5717 Snow -2 1006 100 2500 4.12 100 06:25 25.10.2021
5718 Snow -3 1011 100 10000 4.12 100 00:58 25.10.2021
5719 Snow -3 1011 100 10000 4.12 100 00:37 25.10.2021
5720 Snow -3 1012 100 8000 4.12 100 23:47 24.10.2021
5721 Snow -3 1012 93 5000 4.12 120 22:44 24.10.2021
5722 Snow -3 1013 93 7000 3.6 120 22:21 24.10.2021
5723 Snow -3 1013 93 7000 2.57 90 21:41 24.10.2021
5724 Snow -4 1014 100 10000 2.57 110 20:42 24.10.2021
5725 Snow -4 1014 100 10000 2.57 110 19:54 24.10.2021
5726 Mist -4 1014 100 1800 2.57 150 18:49 24.10.2021
5727 Clouds -4 1014 93 10000 1.54 70 17:54 24.10.2021
5728 Clouds -5 1015 93 10000 1.54 80 16:48 24.10.2021
5729 Clouds -5 1016 93 10000 2.06 100 15:25 24.10.2021
5730 Clear -6 1016 93 10000 2.06 230 13:49 24.10.2021
5731 Clear -6 1016 93 10000 1.54 230 12:40 24.10.2021
5732 Clouds -8 1016 92 10000 3.6 230 11:37 24.10.2021
5733 Clouds -9 1015 92 10000 3.6 220 10:43 24.10.2021
5734 Clouds -10 1015 92 1200 4.63 220 08:51 24.10.2021
5735 Clouds -9 1015 92 10000 2.06 230 03:30 24.10.2021
5736 Mist -8 1014 92 1900 0.51 260 23:56 23.10.2021
5737 Clear -8 1014 92 10000 2.06 280 22:55 23.10.2021
5738 Clear -7 1013 100 10000 2.57 260 21:21 23.10.2021
5739 Clear -6 1013 93 10000 2.06 280 19:37 23.10.2021
5740 Clear -6 1012 93 10000 2.57 320 18:45 23.10.2021
5741 Clear -6 1012 93 10000 4.12 330 17:46 23.10.2021
5742 Clear -5 1012 86 10000 4.12 330 17:18 23.10.2021
5743 Clear -5 1011 86 10000 3.6 330 15:57 23.10.2021
5744 Clear -4 1010 80 10000 3.09 340 13:35 23.10.2021
5745 Clear -3 998 80 10000 5.66 10 00:45 23.10.2021
5746 Clear -2 997 74 10000 5.14 10 23:36 22.10.2021
5747 Clear -2 994 74 10000 6.69 20 21:29 22.10.2021
5748 Clear -1 991 69 10000 8.23 30 19:29 22.10.2021
5749 Snow -1 990 74 10000 9.26 30 18:25 22.10.2021
5750 Clear 0 988 64 10000 9.26 30 16:30 22.10.2021
5751 Clouds 0 986 69 10000 10.8 40 14:44 22.10.2021
5752 Clouds 0 983 74 10000 13.38 50 12:41 22.10.2021
5753 Clouds 0 983 74 10000 13.38 50 12:41 22.10.2021
5754 Snow 1 982 74 10000 10.8 50 10:56 22.10.2021
5755 Clouds 0 982 80 10000 10.8 40 09:57 22.10.2021
5756 Clouds 0 981 80 10000 11.32 50 09:32 22.10.2021
5757 Clouds 0 980 74 10000 9.26 60 07:30 22.10.2021
5758 Clouds 0 979 74 10000 9.26 60 06:46 22.10.2021
5759 Clouds -1 979 86 10000 8.23 60 00:40 22.10.2021
5760 Clouds -1 979 86 10000 7.72 60 23:49 21.10.2021
5761 Snow -1 979 86 10000 7.2 60 22:43 21.10.2021
5762 Snow -1 979 86 10000 8.23 50 21:28 21.10.2021
5763 Clouds -1 979 86 10000 6.69 60 20:21 21.10.2021
5764 Snow -1 978 93 10000 6.69 60 19:49 21.10.2021
5765 Snow -1 978 93 10000 6.17 60 19:20 21.10.2021
5766 Snow -1 978 93 10000 6.69 50 18:30 21.10.2021
5767 Clouds -1 978 93 10000 6.17 50 17:50 21.10.2021
5768 Clouds 0 978 86 10000 6.17 50 16:40 21.10.2021
5769 Clouds 0 978 86 10000 5.66 50 15:22 21.10.2021
5770 Clouds 0 977 86 10000 6.69 40 14:50 21.10.2021
5771 Clouds 0 977 80 10000 6.69 50 13:39 21.10.2021
5772 Clouds 0 976 80 10000 7.2 40 11:47 21.10.2021
5773 Clouds -1 974 93 10000 8.75 40 09:26 21.10.2021
5774 Snow -1 974 93 10000 5.66 40 07:33 21.10.2021
5775 Snow -1 973 86 10000 7.2 50 05:33 21.10.2021
5776 Snow -2 975 100 3100 7.2 70 00:22 21.10.2021
5777 Snow -2 977 100 1700 7.72 70 22:22 20.10.2021
5778 Snow -2 977 100 2200 7.2 80 21:46 20.10.2021
5779 Snow -1 978 93 2100 7.2 80 20:57 20.10.2021
5780 Snow -1 978 93 1900 7.72 80 20:37 20.10.2021
5781 Snow -1 979 93 2400 7.2 90 19:59 20.10.2021
5782 Snow -1 980 93 3400 7.2 90 18:59 20.10.2021
5783 Snow -1 980 93 2600 7.72 90 18:29 20.10.2021
5784 Snow -1 984 93 2400 7.2 100 15:54 20.10.2021
5785 Snow -2 990 93 1300 7.2 100 12:50 20.10.2021
5786 Snow -3 997 93 1500 7.2 90 09:50 20.10.2021
5787 Clear -4 1004 93 10000 4.63 120 05:28 20.10.2021
5788 Clear -4 1011 86 10000 3.09 110 00:53 20.10.2021
5789 Clear -4 1011 86 10000 3.09 110 00:28 20.10.2021
5790 Clear -4 1013 86 10000 0.51 140 22:21 19.10.2021
5791 Clear -5 1014 93 10000 1.03 90 21:28 19.10.2021
5792 Clear -4 1014 86 10000 2.06 330 20:26 19.10.2021
5793 Clear -4 1014 80 10000 2.06 320 19:46 19.10.2021
5794 Clear -4 1014 80 10000 2.06 320 19:23 19.10.2021
5795 Clear -4 1015 80 10000 1.03 270 18:23 19.10.2021
5796 Clouds -1 1018 68 10000 1.26 333 16:25 19.10.2021
5797 Clear -1 1017 69 10000 1.54 270 15:25 19.10.2021
5798 Clear -1 1017 69 10000 2.57 310 14:31 19.10.2021
5799 Clear -1 1017 69 10000 2.57 310 13:49 19.10.2021
5800 Clear -2 1017 74 10000 3.09 320 11:37 19.10.2021
5801 Clear -3 1017 80 10000 3.6 330 10:39 19.10.2021
5802 Clouds -4 1017 86 10000 4.12 330 08:59 19.10.2021
5803 Clouds -4 1017 86 10000 3.6 340 07:56 19.10.2021
5804 Clear -2 1015 80 10000 4.12 320 00:27 19.10.2021
5805 Clear -2 1015 80 10000 4.12 320 23:56 18.10.2021
5806 Clear -1 1015 74 10000 4.63 330 23:20 18.10.2021
5807 Clear -1 1015 74 10000 4.63 330 22:54 18.10.2021
5808 Clear -1 1015 80 10000 5.14 330 21:54 18.10.2021
5809 Clear -1 1014 80 10000 4.12 340 20:42 18.10.2021
5810 Clear 0 1014 74 10000 4.63 340 20:20 18.10.2021
5811 Clear 0 1014 74 10000 4.12 340 19:30 18.10.2021
5812 Clear 0 1014 74 10000 4.12 340 18:58 18.10.2021
5813 Clouds 1 1012 69 10000 4.63 340 15:56 18.10.2021
5814 Clouds 2 1011 64 10000 4.63 360 14:30 18.10.2021
5815 Clouds 2 1008 69 10000 7.2 350 11:20 18.10.2021
5816 Clouds 1 1007 80 10000 5.14 360 09:42 18.10.2021
5817 Clouds 2 1002 86 10000 5.66 340 05:32 18.10.2021
5818 Clouds 3 997 93 10000 5.66 340 23:51 17.10.2021
5819 Clouds 3 995 93 10000 5.66 340 21:59 17.10.2021
5820 Clouds 3 995 93 10000 6.17 340 21:40 17.10.2021
5821 Clouds 3 994 93 10000 5.66 340 20:42 17.10.2021
5822 Rain 2 993 100 10000 5.66 330 19:44 17.10.2021
5823 Rain 2 993 100 10000 5.66 330 19:25 17.10.2021
5824 Clouds 2 993 96 1427 5.41 344 18:28 17.10.2021
5825 Mist 3 990 100 3300 4.63 340 15:56 17.10.2021
5826 Clouds 4 989 93 6000 4.63 340 14:35 17.10.2021
5827 Clouds 4 988 93 10000 5.14 340 13:56 17.10.2021
5828 Clouds 3 987 100 10000 5.14 330 12:38 17.10.2021
5829 Rain 2 986 100 10000 4.63 330 10:45 17.10.2021
5830 Snow 2 985 93 9000 4.12 330 09:48 17.10.2021
5831 Snow 1 984 100 3300 4.12 330 07:42 17.10.2021
5832 Rain 2 982 100 5000 4.63 320 01:44 17.10.2021
5833 Rain 2 982 100 10000 4.63 330 00:27 17.10.2021
5834 Snow 2 982 100 10000 4.63 330 22:35 16.10.2021
5835 Rain 3 981 100 5000 4.63 340 20:36 16.10.2021
5836 Clouds 5 981 93 10000 3.09 360 19:56 16.10.2021
5837 Rain 5 981 93 10000 3.09 360 19:37 16.10.2021
5838 Clouds 5 981 93 10000 3.6 10 19:18 16.10.2021
5839 Clouds 5 980 93 10000 2.57 10 18:42 16.10.2021
5840 Clouds 4 980 100 6000 1.03 0 18:20 16.10.2021
5841 Rain 4 980 100 8000 1.54 110 17:29 16.10.2021
5842 Clouds 5 979 100 10000 3.6 10 15:39 16.10.2021
5843 Clouds 6 978 93 10000 4.63 50 12:44 16.10.2021
5844 Clouds 5 978 100 2600 3.6 70 10:51 16.10.2021
5845 Rain 4 978 100 10000 5.14 60 08:54 16.10.2021
5846 Clouds 6 983 100 3900 4.63 90 01:27 16.10.2021
5847 Clouds 7 984 93 5000 4.63 110 23:59 15.10.2021
5848 Clouds 7 984 93 5000 4.63 110 23:25 15.10.2021
5849 Rain 7 985 93 7000 4.63 110 22:20 15.10.2021
5850 Clouds 7 985 93 10000 4.12 110 21:32 15.10.2021
5851 Rain 7 986 93 9000 4.12 110 20:52 15.10.2021
5852 Rain 7 986 93 10000 4.12 120 20:18 15.10.2021
5853 Rain 7 987 93 10000 4.12 130 18:45 15.10.2021
5854 Rain 7 987 100 10000 4.12 150 17:59 15.10.2021
5855 Rain 7 988 100 10000 4.63 170 15:45 15.10.2021
5856 Rain 8 988 93 10000 5.66 180 13:39 15.10.2021
5857 Rain 7 988 100 5000 6.69 170 11:46 15.10.2021
5858 Rain 7 988 100 10000 6.69 170 10:58 15.10.2021
5859 Rain 7 988 100 10000 6.69 170 10:19 15.10.2021
5860 Rain 6 989 100 5000 6.17 180 06:57 15.10.2021
5861 Rain 6 991 93 10000 7.2 180 02:21 15.10.2021
5862 Rain 5 992 100 10000 7.72 180 00:22 15.10.2021
5863 Rain 4 993 100 5000 6.69 180 22:52 14.10.2021
5864 Clouds 3 994 93 10000 7.72 170 21:46 14.10.2021
5865 Rain 2 995 100 10000 7.72 160 20:55 14.10.2021
5866 Snow 2 995 100 10000 8.23 160 20:19 14.10.2021
5867 Rain 2 996 100 10000 7.2 150 19:42 14.10.2021
5868 Rain 2 999 100 10000 6.69 140 17:39 14.10.2021
5869 Rain 2 999 100 10000 6.69 140 17:39 14.10.2021
5870 Clouds 2 1000 93 10000 6.17 140 16:56 14.10.2021
5871 Snow 2 1001 93 10000 6.69 140 16:21 14.10.2021
5872 Clouds 1 1003 100 10000 5.14 150 14:44 14.10.2021
5873 Fog 1 1004 100 3000 4.63 150 14:24 14.10.2021
5874 Fog 1 1005 100 700 4.63 160 11:56 14.10.2021
5875 Fog 1 1006 100 600 4.12 160 10:43 14.10.2021
5876 Clouds 0 1007 94 10000 2.32 163 07:39 14.10.2021
5877 Clouds -1 1008 92 10000 1.87 173 03:51 14.10.2021
5878 Clouds -1 1009 92 10000 1.7 199 00:31 14.10.2021
5879 Fog -1 1008 100 700 1.03 200 22:32 13.10.2021
5880 Fog 0 1008 100 650 1.54 240 21:34 13.10.2021
5881 Clouds 0 1010 89 10000 1.3 207 20:23 13.10.2021
5882 Clouds 0 1008 100 10000 1.54 210 19:19 13.10.2021
5883 Clouds 0 1008 100 10000 1.03 0 18:37 13.10.2021
5884 Clouds 4 1008 87 10000 2.06 240 15:53 13.10.2021
5885 Clear 4 1008 87 10000 2.06 250 14:46 13.10.2021
5886 Fog 4 1008 81 10000 1.54 230 14:22 13.10.2021
5887 Clouds 3 1008 93 10000 1.03 0 12:23 13.10.2021
5888 Fog 3 1008 87 10000 1.54 310 11:35 13.10.2021
5889 Fog 0 1008 93 10000 1.03 0 08:57 13.10.2021
5890 Fog -1 1007 100 10000 1.54 280 07:43 13.10.2021
5891 Clear 1 1006 93 10000 3.09 320 02:30 13.10.2021
5892 Clear 2 1005 93 10000 4.12 330 01:47 13.10.2021
5893 Clear 3 1005 93 10000 2.06 310 23:31 12.10.2021
5894 Clear 3 1004 100 10000 2.06 280 22:47 12.10.2021
5895 Clear 3 1004 100 10000 1.54 270 22:23 12.10.2021
5896 Clear 4 1003 100 10000 1.54 280 20:48 12.10.2021
5897 Clouds 4 1003 100 6000 1.54 260 20:19 12.10.2021
5898 Clouds 5 1003 93 10000 1.54 280 18:57 12.10.2021
5899 Clouds 5 1002 100 10000 3.09 290 18:18 12.10.2021
5900 Rain 5 1001 100 10000 2.57 310 16:44 12.10.2021
5901 Rain 5 1001 100 10000 2.57 310 16:18 12.10.2021
5902 Rain 5 1000 93 10000 3.6 310 14:46 12.10.2021
5903 Rain 5 1000 93 10000 3.6 320 13:44 12.10.2021
5904 Rain 5 999 93 10000 4.63 320 12:40 12.10.2021
5905 Clouds 5 999 93 10000 3.09 320 10:20 12.10.2021
5906 Drizzle 5 999 93 7000 2.06 310 08:44 12.10.2021
5907 Drizzle 5 998 93 10000 2.06 290 07:54 12.10.2021
5908 Clouds 5 999 93 10000 1.54 260 05:31 12.10.2021
5909 Clouds 5 999 93 10000 2.57 250 04:33 12.10.2021
5910 Clouds 5 999 87 10000 3.6 260 01:28 12.10.2021
5911 Clouds 5 999 93 10000 3.6 240 23:41 11.10.2021
5912 Clouds 5 999 93 10000 2.57 240 22:59 11.10.2021
5913 Clouds 6 999 93 10000 4.63 240 21:46 11.10.2021
5914 Clouds 6 999 93 10000 4.63 240 21:46 11.10.2021
5915 Clouds 7 999 100 10000 6.17 220 21:18 11.10.2021
5916 Clouds 7 999 100 8000 4.63 230 19:46 11.10.2021
5917 Clouds 7 999 100 10000 5.66 210 18:43 11.10.2021
5918 Clouds 7 999 100 10000 5.66 220 17:54 11.10.2021
5919 Clouds 7 999 100 10000 7.72 220 16:39 11.10.2021
5920 Clouds 8 998 93 2400 8.23 220 15:51 11.10.2021
5921 Clouds 8 998 93 2400 8.23 220 15:23 11.10.2021
5922 Clouds 8 998 100 2700 8.75 210 14:42 11.10.2021
5923 Drizzle 8 997 100 3000 8.75 200 13:37 11.10.2021
5924 Drizzle 9 997 100 3000 6.69 190 11:51 11.10.2021
5925 Drizzle 9 997 100 3000 5.14 180 10:34 11.10.2021
5926 Drizzle 9 998 93 10000 6.69 190 09:37 11.10.2021
5927 Clouds 10 998 93 10000 8.75 200 07:27 11.10.2021
5928 Rain 9 1005 100 8000 4.63 180 01:40 11.10.2021
5929 Rain 9 1005 100 3100 5.14 190 00:48 11.10.2021
5930 Rain 9 1006 100 3000 5.66 190 00:23 11.10.2021
5931 Clouds 9 1007 100 750 3.6 180 21:54 10.10.2021
5932 Clouds 9 1007 100 1700 4.12 180 21:32 10.10.2021
5933 Clouds 9 1008 100 1200 3.6 190 20:43 10.10.2021
5934 Rain 10 1008 100 700 4.12 200 20:21 10.10.2021
5935 Clouds 10 1008 100 700 4.12 200 19:59 10.10.2021
5936 Fog 10 1008 100 500 4.63 190 19:35 10.10.2021
5937 Fog 10 1009 100 500 4.12 220 18:35 10.10.2021
5938 Fog 11 1009 100 400 5.14 210 16:46 10.10.2021
5939 Fog 11 1010 100 1400 5.14 210 15:44 10.10.2021
5940 Fog 11 1010 100 1100 5.66 220 13:53 10.10.2021
5941 Fog 11 1010 100 500 5.66 220 13:32 10.10.2021
5942 Fog 11 1011 100 800 5.66 220 12:33 10.10.2021
5943 Fog 10 1011 100 250 6.17 220 10:43 10.10.2021
5944 Clouds 10 1011 100 300 7.72 220 09:29 10.10.2021
5945 Clouds 10 1011 100 400 6.17 220 08:53 10.10.2021
5946 Clouds 10 1012 100 450 8.23 210 06:54 10.10.2021
5947 Clouds 7 1016 100 1100 4.63 170 02:38 10.10.2021
5948 Rain 7 1018 100 2300 3.6 180 00:55 10.10.2021
5949 Fog 8 1019 100 550 3.09 190 23:52 09.10.2021
5950 Fog 7 1020 100 550 3.09 210 22:45 09.10.2021
5951 Fog 7 1021 100 900 3.6 220 21:38 09.10.2021
5952 Mist 7 1021 100 2700 3.6 230 21:19 09.10.2021
5953 Clouds 8 1022 93 10000 4.63 230 19:43 09.10.2021
5954 Clouds 8 1022 100 10000 4.63 230 18:57 09.10.2021
5955 Clouds 8 1022 100 10000 4.63 230 18:32 09.10.2021
5956 Clouds 8 1023 100 1900 2.57 210 16:29 09.10.2021
5957 Clouds 8 1023 100 1900 2.57 210 16:29 09.10.2021
5958 Clouds 8 1023 100 1900 2.57 210 16:28 09.10.2021
5959 Clouds 8 1023 100 1900 2.57 210 16:28 09.10.2021
5960 Mist 7 1024 100 2800 3.6 230 14:57 09.10.2021
5961 Fog 7 1024 100 1500 4.12 230 13:41 09.10.2021
5962 Fog 6 1024 100 400 3.6 210 12:38 09.10.2021
5963 Fog 6 1025 100 550 3.6 220 11:43 09.10.2021
5964 Fog 6 1025 100 900 3.6 210 10:41 09.10.2021
5965 Mist 6 1025 100 2600 2.57 230 09:35 09.10.2021
5966 Clouds 6 1025 100 10000 2.06 240 08:28 09.10.2021
5967 Fog 5 1024 100 600 1.54 220 07:37 09.10.2021
5968 Fog 5 1024 100 1600 1.54 250 05:28 09.10.2021
5969 Fog 5 1023 100 800 1.03 100 02:49 09.10.2021
5970 Fog 5 1023 100 550 1.03 0 02:21 09.10.2021
5971 Clouds 5 1023 100 1000 3.09 100 23:36 08.10.2021
5972 Clouds 5 1024 99 10000 1.23 99 22:53 08.10.2021
5973 Drizzle 4 1023 100 1100 3.6 100 21:50 08.10.2021
5974 Clouds 4 1024 100 1800 4.12 100 20:36 08.10.2021
5975 Rain 3 1024 100 2300 4.12 90 18:50 08.10.2021
5976 Rain 3 1026 100 2400 4.12 90 17:27 08.10.2021
5977 Rain 3 1026 93 10000 5.14 90 16:48 08.10.2021
5978 Rain 3 1026 93 10000 5.14 90 16:22 08.10.2021
5979 Snow 2 1028 93 5000 3.6 130 13:50 08.10.2021
5980 Rain 3 1028 87 10000 3.09 90 12:41 08.10.2021
5981 Clouds 3 1029 93 10000 3.09 120 11:31 08.10.2021
5982 Fog 3 1029 93 10000 2.57 110 10:32 08.10.2021
5983 Fog 2 1029 93 10000 0.51 0 06:53 08.10.2021
5984 Clear 2 1024 93 10000 3.6 330 23:31 07.10.2021
5985 Clear 2 1024 93 10000 3.6 330 22:57 07.10.2021
5986 Clear 3 1022 93 10000 2.57 340 21:33 07.10.2021
5987 Clear 3 1021 93 10000 2.57 350 20:49 07.10.2021
5988 Clouds 4 1020 93 10000 3.09 360 19:39 07.10.2021
5989 Clouds 4 1019 93 10000 4.12 350 18:59 07.10.2021
5990 Clouds 6 1016 93 10000 5.66 330 17:38 07.10.2021
5991 Clouds 8 1014 93 10000 3.6 300 16:42 07.10.2021
5992 Clouds 9 1012 100 10000 4.12 260 14:57 07.10.2021
5993 Clouds 10 1010 100 10000 6.69 230 13:44 07.10.2021
5994 Rain 10 1010 100 10000 6.69 220 13:20 07.10.2021
5995 Rain 10 1010 100 10000 6.69 220 13:20 07.10.2021
5996 Rain 10 1010 100 10000 7.2 210 11:48 07.10.2021
5997 Rain 10 1010 100 4000 7.72 210 10:48 07.10.2021
5998 Rain 10 1010 100 4000 7.72 210 10:48 07.10.2021
5999 Drizzle 10 1010 100 4000 7.72 210 10:48 07.10.2021
6000 Drizzle 10 1010 100 2500 6.69 210 09:51 07.10.2021
6001 Drizzle 10 1010 100 2000 7.72 200 08:55 07.10.2021
6002 Drizzle 10 1011 100 3500 7.2 210 08:25 07.10.2021
6003 Drizzle 11 1011 93 3000 7.2 210 07:40 07.10.2021
6004 Drizzle 11 1011 93 7000 7.2 210 06:47 07.10.2021
6005 Rain 9 1014 100 6000 3.09 160 00:59 07.10.2021
6006 Clouds 9 1015 100 10000 3.6 200 23:30 06.10.2021
6007 Rain 9 1015 100 9000 3.09 190 22:40 06.10.2021
6008 Rain 9 1015 100 10000 3.6 210 21:40 06.10.2021
6009 Rain 9 1016 100 9000 2.57 180 20:33 06.10.2021
6010 Rain 9 1016 100 9000 3.6 160 19:23 06.10.2021
6011 Rain 9 1017 100 10000 3.09 160 17:41 06.10.2021
6012 Rain 10 1018 100 10000 3.6 170 15:44 06.10.2021
6013 Rain 10 1018 100 9000 3.09 180 14:53 06.10.2021
6014 Clouds 10 1018 100 10000 4.12 190 13:25 06.10.2021
6015 Drizzle 10 1018 100 5000 5.14 200 12:47 06.10.2021
6016 Drizzle 10 1018 100 10000 6.17 200 12:26 06.10.2021
6017 Drizzle 10 1018 100 9000 6.17 200 11:35 06.10.2021
6018 Drizzle 10 1018 100 9000 6.17 200 11:35 06.10.2021
6019 Drizzle 10 1018 93 6000 6.17 200 09:40 06.10.2021
6020 Drizzle 10 1018 93 8000 5.66 200 08:59 06.10.2021
6021 Drizzle 10 1018 93 9000 5.14 210 08:30 06.10.2021
6022 Drizzle 9 1017 100 6000 6.17 210 06:18 06.10.2021
6023 Clouds 9 1017 100 4300 8.23 220 02:19 06.10.2021
6024 Clouds 9 1016 100 10000 7.72 210 00:24 06.10.2021
6025 Clouds 10 1016 93 10000 7.72 220 23:51 05.10.2021
6026 Clouds 10 1016 93 10000 7.72 220 23:30 05.10.2021
6027 Clouds 10 1015 93 10000 7.72 220 22:31 05.10.2021
6028 Clouds 10 1015 93 10000 9.26 220 21:57 05.10.2021
6029 Clouds 11 1015 87 10000 8.75 210 21:20 05.10.2021
6030 Clouds 10 1015 100 10000 7.2 220 20:26 05.10.2021
6031 Clouds 10 1014 100 5000 8.75 210 19:50 05.10.2021
6032 Clouds 10 1014 100 5000 8.75 210 19:23 05.10.2021
6033 Clouds 10 1014 93 10000 7.72 200 18:20 05.10.2021
6034 Clouds 10 1014 100 2500 7.2 200 15:28 05.10.2021
6035 Clouds 10 1015 93 10000 7.2 200 13:49 05.10.2021
6036 Clouds 10 1015 93 10000 7.2 190 13:22 05.10.2021
6037 Clouds 10 1015 93 10000 7.2 200 12:33 05.10.2021
6038 Clouds 10 1015 93 10000 6.69 200 11:41 05.10.2021
6039 Clouds 10 1014 93 10000 6.17 210 10:34 05.10.2021
6040 Rain 10 1013 100 8000 4.12 190 06:59 05.10.2021
6041 Clouds 10 1014 100 10000 6.17 180 01:28 05.10.2021
6042 Drizzle 11 1015 93 8000 6.69 180 22:53 04.10.2021
6043 Drizzle 11 1014 93 4600 8.23 180 21:23 04.10.2021
6044 Rain 11 1014 93 10000 7.2 180 18:48 04.10.2021
6045 Rain 11 1014 87 10000 6.17 190 16:55 04.10.2021
6046 Rain 11 1014 87 10000 6.69 180 15:32 04.10.2021
6047 Rain 12 1014 76 10000 7.72 190 14:45 04.10.2021
6048 Rain 13 1013 66 10000 8.75 190 13:58 04.10.2021
6049 Rain 13 1013 66 10000 8.75 190 13:31 04.10.2021
6050 Rain 13 1013 66 10000 9.77 190 12:38 04.10.2021
6051 Clouds 13 1013 66 10000 9.77 180 11:33 04.10.2021
6052 Clouds 12 1013 71 10000 7.72 180 10:44 04.10.2021
6053 Clouds 11 1013 76 10000 7.72 170 09:33 04.10.2021
6054 Clouds 10 1014 81 10000 5.14 160 07:53 04.10.2021
6055 Clouds 10 1016 81 10000 6.17 160 03:44 04.10.2021
6056 Clouds 10 1018 76 10000 6.69 160 22:48 03.10.2021
6057 Clear 10 1018 76 10000 7.2 160 21:52 03.10.2021
6058 Clear 10 1018 76 10000 7.2 160 21:52 03.10.2021
6059 Clear 10 1019 76 10000 6.17 150 21:29 03.10.2021
6060 Clear 10 1019 76 10000 5.66 150 20:43 03.10.2021
6061 Clear 10 1019 76 10000 5.14 150 19:33 03.10.2021
6062 Clear 11 1020 71 10000 4.63 140 18:29 03.10.2021
6063 Clear 11 1020 71 10000 4.63 140 18:29 03.10.2021
6064 Clear 12 1020 66 10000 4.63 150 17:31 03.10.2021
6065 Clear 13 1021 62 10000 7.2 160 14:49 03.10.2021
6066 Clear 13 1021 62 10000 7.72 170 14:28 03.10.2021
6067 Clear 13 1021 62 10000 6.69 170 13:35 03.10.2021
6068 Clear 13 1022 62 10000 6.69 160 12:43 03.10.2021
6069 Clouds 10 1023 81 10000 4.12 150 10:57 03.10.2021
6070 Clouds 8 1023 93 10000 4.12 160 09:34 03.10.2021
6071 Clouds 6 1023 93 10000 3.6 150 03:36 03.10.2021
6072 Clouds 8 1023 81 10000 4.63 170 22:46 02.10.2021
6073 Clouds 10 1022 76 10000 5.66 170 21:30 02.10.2021
6074 Clouds 11 1022 76 10000 4.63 160 19:54 02.10.2021
6075 Clouds 11 1021 76 10000 4.63 160 18:56 02.10.2021
6076 Clouds 11 1021 81 10000 4.63 170 18:18 02.10.2021
6077 Clouds 11 1021 76 10000 5.14 180 17:36 02.10.2021
6078 Clouds 11 1021 76 10000 6.17 190 15:53 02.10.2021
6079 Clouds 6 1025 87 10000 2.57 140 06:59 01.10.2021
6080 Clouds 8 1028 81 10000 2.57 180 15:37 30.09.2021
6081 Clouds 8 1029 81 10000 1.54 160 13:51 30.09.2021
6082 Clouds 7 1030 87 10000 2.06 140 11:38 30.09.2021
6083 Clouds 7 1030 87 10000 2.06 140 10:44 30.09.2021
6084 Clouds 6 1030 93 10000 2.57 170 09:41 30.09.2021
6085 Clouds 6 1030 93 10000 3.09 130 08:29 30.09.2021
6086 Clouds 6 1030 93 10000 2.57 120 07:34 30.09.2021
6087 Clouds 7 1031 81 10000 2.57 170 05:18 30.09.2021
6088 Clouds 7 1031 93 10000 1.54 170 01:20 30.09.2021
6089 Clouds 7 1031 93 10000 2.57 210 00:18 30.09.2021
6090 Clouds 7 1032 93 10000 3.6 220 22:31 29.09.2021
6091 Clouds 7 1032 93 10000 2.57 220 21:24 29.09.2021
6092 Clouds 7 1032 93 10000 4.63 220 20:26 29.09.2021
6093 Clouds 7 1032 93 10000 3.09 220 19:50 29.09.2021
6094 Clouds 8 1032 87 10000 3.09 220 18:45 29.09.2021
6095 Clouds 9 1032 87 10000 3.09 230 17:38 29.09.2021
6096 Clouds 10 1032 81 10000 2.57 230 16:47 29.09.2021
6097 Clouds 10 1032 81 10000 2.57 220 15:55 29.09.2021
6098 Clouds 10 1032 81 10000 3.09 210 14:39 29.09.2021
6099 Clouds 9 1033 87 10000 3.09 200 13:42 29.09.2021
6100 Clouds 9 1033 87 10000 2.57 200 12:58 29.09.2021
6101 Clouds 8 1033 87 10000 1.54 210 11:55 29.09.2021
6102 Fog 8 1033 87 10000 1.54 160 10:47 29.09.2021
6103 Fog 7 1033 87 10000 3.09 160 09:50 29.09.2021
6104 Fog 6 1033 93 10000 2.06 160 09:18 29.09.2021
6105 Fog 5 1033 93 10000 1.03 0 07:31 29.09.2021
6106 Clouds 6 1033 93 10000 1.54 190 03:39 29.09.2021
6107 Clear 6 1032 100 10000 2.57 220 23:26 28.09.2021
6108 Clear 7 1032 87 10000 3.09 210 22:23 28.09.2021
6109 Clear 8 1032 87 10000 3.09 220 21:37 28.09.2021
6110 Clear 8 1031 87 10000 2.57 240 20:36 28.09.2021
6111 Clear 9 1031 81 10000 3.09 220 19:43 28.09.2021
6112 Clear 10 1031 76 10000 3.6 220 18:45 28.09.2021
6113 Clear 12 1031 66 10000 4.12 220 17:54 28.09.2021
6114 Clear 15 1031 58 10000 6.17 210 15:56 28.09.2021
6115 Clear 14 1031 67 10000 5.14 200 13:44 28.09.2021
6116 Clear 14 1031 67 10000 4.12 200 12:47 28.09.2021
6117 Clear 13 1031 71 10000 4.63 210 12:19 28.09.2021
6118 Clear 13 1031 71 10000 3.6 210 11:45 28.09.2021
6119 Clear 11 1031 76 10000 2.57 150 10:55 28.09.2021
6120 Clear 9 1030 87 10000 3.6 140 09:53 28.09.2021
6121 Clear 9 1030 81 10000 3.09 140 08:57 28.09.2021
6122 Clear 8 1030 81 10000 3.09 140 08:34 28.09.2021
6123 Clear 7 1030 81 10000 2.06 190 06:51 28.09.2021
6124 Clear 8 1030 76 10000 3.09 210 05:27 28.09.2021
6125 Clear 8 1030 81 10000 3.6 210 01:22 28.09.2021
6126 Clear 9 1029 81 10000 3.6 200 00:24 28.09.2021
6127 Clear 9 1029 81 10000 4.63 200 23:31 27.09.2021
6128 Clear 9 1029 87 10000 4.63 200 22:46 27.09.2021
6129 Clear 10 1029 87 10000 3.6 190 21:44 27.09.2021
6130 Clear 10 1029 87 10000 4.12 190 20:39 27.09.2021
6131 Clear 11 1028 81 10000 4.12 180 19:50 27.09.2021
6132 Clear 11 1028 87 10000 4.63 190 19:23 27.09.2021
6133 Clear 12 1028 82 10000 4.12 190 18:31 27.09.2021
6134 Clear 13 1028 76 10000 3.6 190 17:28 27.09.2021
6135 Clear 14 1028 71 10000 4.12 200 16:41 27.09.2021
6136 Clear 14 1027 71 10000 4.12 210 15:43 27.09.2021
6137 Clear 12 1027 82 10000 4.63 210 14:43 27.09.2021
6138 Clouds 12 1027 82 10000 4.63 190 13:31 27.09.2021
6139 Clouds 10 1026 87 10000 4.12 220 11:20 27.09.2021
6140 Clouds 9 1026 57 10000 3.09 180 09:53 27.09.2021
6141 Mist 8 1025 100 1500 3.6 180 08:40 27.09.2021
6142 Clouds 7 1023 100 6000 3.09 190 05:21 27.09.2021
6143 Clouds 7 1022 93 6000 3.6 180 02:59 27.09.2021
6144 Clouds 6 1020 100 10000 3.6 190 22:32 26.09.2021
6145 Clear 6 1020 93 10000 4.12 190 21:49 26.09.2021
6146 Clouds 7 1020 93 10000 5.66 210 20:52 26.09.2021
6147 Clouds 7 1019 93 10000 5.14 210 20:20 26.09.2021
6148 Clear 7 1020 93 10000 4.63 210 19:38 26.09.2021
6149 Clear 7 1019 93 10000 5.66 190 18:45 26.09.2021
6150 Clear 8 1019 87 10000 6.17 200 17:50 26.09.2021
6151 Clear 8 1018 87 10000 5.66 210 17:21 26.09.2021
6152 Clear 9 1018 87 10000 3.6 210 16:30 26.09.2021
6153 Clear 9 1018 87 10000 4.12 220 15:57 26.09.2021
6154 Clear 10 1017 81 10000 3.6 180 14:46 26.09.2021
6155 Clouds 9 1017 87 10000 3.09 190 13:54 26.09.2021
6156 Clouds 8 1017 93 10000 2.57 230 12:56 26.09.2021
6157 Fog 5 1016 100 250 3.09 210 11:59 26.09.2021
6158 Fog 5 1016 100 250 3.09 210 11:37 26.09.2021
6159 Fog 5 1015 100 250 2.06 220 10:23 26.09.2021
6160 Fog 4 1014 100 250 1.54 210 08:55 26.09.2021
6161 Fog 4 1009 100 4200 1.54 350 03:26 26.09.2021
6162 Fog 6 1005 100 700 1.54 300 00:21 26.09.2021
6163 Mist 6 1005 100 2300 1.54 300 23:23 25.09.2021
6164 Drizzle 7 1004 93 4100 1.54 250 22:37 25.09.2021
6165 Clouds 7 1003 93 10000 1.54 230 21:55 25.09.2021
6166 Clouds 7 1003 93 10000 1.54 230 21:30 25.09.2021
6167 Clouds 7 1002 93 10000 0.51 0 20:45 25.09.2021
6168 Clouds 7 1000 100 5000 0.51 0 18:47 25.09.2021
6169 Clouds 7 1000 100 10000 1.54 130 17:47 25.09.2021
6170 Rain 8 998 87 10000 2.57 120 15:41 25.09.2021
6171 Drizzle 8 996 87 10000 3.09 150 13:57 25.09.2021
6172 Drizzle 8 996 87 10000 3.09 150 13:27 25.09.2021
6173 Rain 7 996 65 10000 4.12 150 11:54 25.09.2021
6174 Rain 8 995 81 10000 3.09 140 10:33 25.09.2021
6175 Clouds 8 994 81 10000 4.12 130 09:26 25.09.2021
6176 Clouds 7 994 93 10000 4.63 130 07:52 25.09.2021
6177 Clouds 7 994 93 10000 4.63 120 05:19 25.09.2021
6178 Clouds 8 996 93 10000 4.63 130 23:45 24.09.2021
6179 Clouds 8 997 93 10000 4.63 120 21:41 24.09.2021
6180 Clouds 8 997 93 10000 4.63 120 20:33 24.09.2021
6181 Clouds 8 997 93 10000 4.63 120 19:45 24.09.2021
6182 Clouds 8 998 93 10000 4.12 120 18:32 24.09.2021
6183 Clouds 8 998 100 10000 4.63 120 17:53 24.09.2021
6184 Clouds 9 998 93 10000 4.12 130 17:35 24.09.2021
6185 Clouds 10 998 81 10000 3.6 120 16:45 24.09.2021
6186 Clouds 10 1000 81 10000 3.09 140 13:55 24.09.2021
6187 Clouds 10 1000 76 10000 4.63 150 12:45 24.09.2021
6188 Clouds 10 1000 76 10000 4.63 150 12:26 24.09.2021
6189 Clouds 9 1000 87 10000 4.12 140 11:28 24.09.2021
6190 Clouds 8 1000 93 10000 3.6 130 10:24 24.09.2021
6191 Clouds 7 1000 93 10000 3.6 130 08:24 24.09.2021
6192 Clouds 6 1000 100 10000 4.12 120 07:32 24.09.2021
6193 Clouds 6 1000 100 10000 5.66 120 06:32 24.09.2021
6194 Clouds 6 1000 93 10000 4.12 110 04:53 24.09.2021
6195 Clouds 8 1000 76 10000 4.12 140 22:45 23.09.2021
6196 Clouds 7 1000 87 10000 5.37 140 21:59 23.09.2021
6197 Clouds 8 999 70 10000 5.14 140 21:38 23.09.2021
6198 Clouds 8 999 70 10000 5.14 150 20:32 23.09.2021
6199 Clouds 5 999 75 10000 4.12 110 18:56 23.09.2021
6200 Clear 7 1000 70 10000 6.69 130 17:18 23.09.2021
6201 Clouds 7 1000 75 10000 7.2 140 15:20 23.09.2021
6202 Clouds 7 1000 75 10000 7.2 140 14:58 23.09.2021
6203 Clouds 8 1001 70 10000 5.66 140 13:40 23.09.2021
6204 Clouds 8 1002 65 10000 5.66 150 13:18 23.09.2021
6205 Clear 8 1002 65 10000 5.14 140 12:46 23.09.2021
6206 Clear 7 1002 70 10000 5.14 140 12:21 23.09.2021
6207 Clouds 6 1003 75 10000 6.69 140 10:42 23.09.2021
6208 Clouds 6 1003 81 10000 6.17 140 10:19 23.09.2021
6209 Clouds 6 1003 81 10000 6.17 140 10:19 23.09.2021
6210 Clouds 6 1004 81 10000 6.17 150 09:47 23.09.2021
6211 Clouds 5 1005 81 10000 5.66 130 06:32 23.09.2021
6212 Clouds 7 1011 70 10000 5.14 180 00:28 23.09.2021
6213 Clouds 7 1012 70 10000 5.14 180 22:54 22.09.2021
6214 Clouds 7 1012 70 10000 5.14 180 22:22 22.09.2021
6215 Clouds 7 1013 70 10000 5.66 170 21:44 22.09.2021
6216 Clouds 7 1013 70 10000 6.69 180 20:58 22.09.2021
6217 Clear 7 1013 70 10000 6.17 180 20:27 22.09.2021
6218 Clouds 7 1014 70 10000 6.17 170 19:27 22.09.2021
6219 Rain 7 1014 70 10000 5.66 170 18:35 22.09.2021
6220 Rain 6 1016 71 10000 5.19 179 17:33 22.09.2021
6221 Clouds 7 1017 66 10000 5.4 185 15:52 22.09.2021
6222 Rain 7 1017 70 10000 7.2 180 14:29 22.09.2021
6223 Rain 7 1018 70 10000 6.69 180 13:19 22.09.2021
6224 Clouds 5 1020 75 10000 6.17 180 11:20 22.09.2021
6225 Clouds 3 1020 87 10000 5.14 160 09:32 22.09.2021
6226 Clear 1 1021 93 10000 4.63 160 08:45 22.09.2021
6227 Clouds 1 1021 93 10000 5.14 160 07:35 22.09.2021
6228 Clouds 0 1021 93 10000 4.12 170 06:51 22.09.2021
6229 Clouds 0 1021 93 10000 3.6 120 05:48 22.09.2021
6230 Clouds 1 1022 93 10000 2.57 130 04:54 22.09.2021
6231 Clouds 1 1022 93 10000 3.6 130 03:23 22.09.2021
6232 Clouds 4 1024 81 10000 3.09 150 23:54 21.09.2021
6233 Clouds 4 1024 81 10000 2.57 140 22:26 21.09.2021
6234 Clouds 1 1025 94 10000 1.93 163 20:43 21.09.2021
6235 Clouds 4 1024 75 10000 2.57 190 19:36 21.09.2021
6236 Clouds 4 1024 75 10000 2.57 190 19:18 21.09.2021
6237 Clouds 5 1024 70 10000 3.6 180 16:48 21.09.2021
6238 Clouds 5 1024 65 10000 5.14 190 15:56 21.09.2021
6239 Clouds 5 1024 70 10000 4.12 170 14:59 21.09.2021
6240 Clouds 5 1024 70 10000 4.63 170 14:21 21.09.2021
6241 Clouds 5 1024 70 10000 4.12 180 13:39 21.09.2021
6242 Clouds 5 1024 65 10000 5.66 170 12:44 21.09.2021
6243 Clouds 5 1025 70 10000 4.63 170 10:43 21.09.2021
6244 Clouds 5 1025 75 10000 3.6 150 09:22 21.09.2021
6245 Clouds 4 1025 81 10000 3.6 140 07:38 21.09.2021
6246 Clouds 4 1026 81 10000 3.6 140 05:18 21.09.2021
6247 Clouds 5 1029 75 10000 3.09 150 23:19 20.09.2021
6248 Clouds 5 1030 75 10000 3.09 170 21:43 20.09.2021
6249 Clouds 5 1030 75 10000 2.57 160 21:25 20.09.2021
6250 Clouds 5 1030 75 10000 2.06 180 19:49 20.09.2021
6251 Clouds 5 1030 70 10000 2.57 180 18:36 20.09.2021
6252 Clouds 7 1031 61 10000 3.09 160 17:25 20.09.2021
6253 Clouds 7 1031 61 10000 4.12 160 16:26 20.09.2021
6254 Clouds 7 1032 61 10000 3.6 160 15:36 20.09.2021
6255 Clouds 8 1032 57 10000 3.6 150 14:38 20.09.2021
6256 Clouds 7 1033 61 10000 3.09 170 12:44 20.09.2021
6257 Clouds 7 1033 61 10000 3.09 170 12:24 20.09.2021
6258 Clouds 7 1033 61 10000 3.09 180 10:56 20.09.2021
6259 Clouds 6 1034 70 10000 4.12 140 09:51 20.09.2021
6260 Clouds 6 1034 70 10000 4.12 140 09:32 20.09.2021
6261 Clouds 5 1034 81 10000 3.09 140 08:47 20.09.2021
6262 Clouds 5 1034 81 10000 2.57 140 06:22 20.09.2021
6263 Clouds 5 1034 81 10000 2.57 140 06:22 20.09.2021
6264 Clouds 5 1034 81 10000 2.57 140 06:22 20.09.2021
6265 Clouds 6 1033 65 10000 2.57 140 22:58 19.09.2021
6266 Clouds 7 1033 65 10000 1.54 150 21:50 19.09.2021
6267 Clouds 7 1032 65 10000 1.54 150 20:59 19.09.2021
6268 Clouds 7 1032 70 10000 2.57 140 19:59 19.09.2021
6269 Clouds 7 1032 70 10000 2.06 170 18:53 19.09.2021
6270 Clouds 7 1032 70 10000 2.06 170 18:53 19.09.2021
6271 Clouds 8 1032 65 10000 2.57 150 17:42 19.09.2021
6272 Clouds 8 1032 65 10000 3.09 180 16:35 19.09.2021
6273 Clear 9 1032 61 10000 3.6 190 15:31 19.09.2021
6274 Clouds 9 1032 61 10000 4.12 180 14:49 19.09.2021
6275 Clouds 8 1032 65 10000 4.12 170 13:57 19.09.2021
6276 Clouds 8 1032 76 10000 4.12 160 12:56 19.09.2021
6277 Clouds 8 1032 81 10000 2.57 160 11:49 19.09.2021
6278 Clouds 8 1032 81 10000 2.57 160 11:22 19.09.2021
6279 Clouds 7 1031 81 10000 2.57 150 09:51 19.09.2021
6280 Clouds 7 1031 81 10000 2.57 150 09:23 19.09.2021
6281 Clouds 5 1030 87 10000 2.57 130 06:48 19.09.2021
6282 Clouds 6 1029 81 10000 1.54 140 00:48 19.09.2021
6283 Clouds 6 1029 81 10000 2.57 130 22:58 18.09.2021
6284 Clouds 6 1029 87 10000 2.57 150 21:56 18.09.2021
6285 Clouds 6 1029 87 10000 2.57 150 20:46 18.09.2021
6286 Clouds 7 1029 81 10000 2.06 180 19:42 18.09.2021
6287 Clouds 7 1029 81 10000 2.06 180 19:22 18.09.2021
6288 Clouds 7 1029 81 10000 2.06 170 18:52 18.09.2021
6289 Clouds 7 1029 81 10000 1.54 160 18:29 18.09.2021
6290 Clouds 7 1029 87 10000 3.09 230 16:34 18.09.2021
6291 Clouds 9 1029 57 10000 4.12 190 13:51 18.09.2021
6292 Clouds 9 1029 57 10000 3.09 170 13:31 18.09.2021
6293 Clouds 8 1029 70 10000 2.06 150 12:51 18.09.2021
6294 Clouds 7 1029 75 10000 2.06 160 11:42 18.09.2021
6295 Clouds 7 1029 75 10000 2.57 160 10:38 18.09.2021
6296 Clouds 7 1029 75 10000 2.57 160 09:55 18.09.2021
6297 Clouds 6 1029 81 10000 2.06 160 09:22 18.09.2021
6298 Rain 5 1029 87 10000 2.57 140 07:36 18.09.2021
6299 Clouds 5 1030 75 10000 0.96 223 00:42 18.09.2021
6300 Clouds 4 1030 76 10000 1.09 205 23:53 17.09.2021
6301 Clouds 4 1030 76 10000 1.26 186 22:42 17.09.2021
6302 Clouds 5 1029 76 10000 1.37 179 22:21 17.09.2021
6303 Clouds 5 1028 81 10000 1.03 0 21:27 17.09.2021
6304 Clouds 5 1028 81 10000 1.03 360 19:29 17.09.2021
6305 Clouds 6 1028 70 10000 0 0 17:55 17.09.2021
6306 Clouds 6 1028 70 10000 2.06 250 16:27 17.09.2021
6307 Clouds 6 1028 70 10000 2.06 160 14:24 17.09.2021
6308 Clouds 5 1028 75 10000 2.57 130 11:30 17.09.2021
6309 Clouds 5 1028 70 10000 1.03 0 09:24 17.09.2021
6310 Clouds 4 1027 81 10000 1.54 90 07:35 17.09.2021
6311 Clouds 4 1026 81 10000 1.54 80 03:58 17.09.2021
6312 Clouds 5 1025 75 10000 2.06 80 23:36 16.09.2021
6313 Clouds 5 1025 81 10000 1.54 60 22:33 16.09.2021
6314 Clouds 5 1025 75 10000 2.06 90 21:52 16.09.2021
6315 Clouds 5 1025 81 10000 2.06 90 21:27 16.09.2021
6316 Clouds 5 1024 87 10000 1.54 110 20:24 16.09.2021
6317 Clouds 6 1024 81 4300 2.06 40 18:24 16.09.2021
6318 Clouds 7 1024 75 10000 1.03 100 17:54 16.09.2021
6319 Clouds 7 1024 75 10000 1.54 100 14:59 16.09.2021
6320 Clouds 7 1024 70 10000 1.03 0 14:26 16.09.2021
6321 Clouds 7 1024 75 10000 1.54 310 12:52 16.09.2021
6322 Clouds 6 1024 81 10000 1.03 0 12:29 16.09.2021
6323 Clouds 6 1024 81 10000 1.03 0 11:28 16.09.2021
6324 Clouds 5 1024 93 10000 1.03 0 10:34 16.09.2021
6325 Clouds 5 1024 93 10000 0.51 180 09:58 16.09.2021
6326 Clouds 4 1024 100 10000 1.54 100 08:42 16.09.2021
6327 Clouds 4 1023 93 10000 1.54 40 07:36 16.09.2021
6328 Clouds 4 1023 93 10000 1.54 30 06:47 16.09.2021
6329 Clouds 4 1023 93 10000 2.06 30 05:40 16.09.2021
6330 Clouds 5 1023 87 10000 1.54 10 01:41 16.09.2021
6331 Clouds 5 1023 87 10000 1.54 10 23:47 15.09.2021
6332 Clouds 5 1022 87 10000 1.03 0 22:47 15.09.2021
6333 Clouds 5 1022 87 10000 2.06 30 21:48 15.09.2021
6334 Clouds 5 1022 87 10000 2.06 30 21:29 15.09.2021
6335 Clouds 6 1022 81 10000 1.54 20 20:22 15.09.2021
6336 Clouds 6 1022 81 10000 1.54 330 19:27 15.09.2021
6337 Clouds 7 1022 75 10000 1.03 0 18:20 15.09.2021
6338 Clouds 7 1021 70 10000 1.54 20 16:59 15.09.2021
6339 Clouds 7 1021 70 10000 2.57 30 15:46 15.09.2021
6340 Clouds 7 1021 70 10000 2.06 50 14:45 15.09.2021
6341 Clouds 7 1021 70 10000 2.06 50 14:45 15.09.2021
6342 Clouds 7 1021 70 10000 2.06 40 13:52 15.09.2021
6343 Clouds 6 1021 75 10000 2.06 70 13:30 15.09.2021
6344 Clouds 6 1021 75 10000 3.09 50 12:48 15.09.2021
6345 Clouds 6 1021 70 10000 2.06 20 11:52 15.09.2021
6346 Clouds 6 1021 70 10000 2.06 20 11:52 15.09.2021
6347 Clouds 7 1021 75 10000 2.57 30 11:31 15.09.2021
6348 Clouds 6 1021 81 10000 3.09 40 10:55 15.09.2021
6349 Clouds 5 1021 87 10000 2.06 360 09:29 15.09.2021
6350 Clouds 4 1020 87 10000 3.09 20 07:48 15.09.2021
6351 Clouds 4 1018 87 10000 4.63 30 04:24 15.09.2021
6352 Clouds 5 1015 93 10000 4.12 20 22:59 14.09.2021
6353 Clouds 5 1014 93 10000 3.6 360 21:40 14.09.2021
6354 Clouds 5 1014 93 10000 3.6 10 20:38 14.09.2021
6355 Clouds 6 1013 87 10000 4.12 10 19:41 14.09.2021
6356 Clear 6 1012 93 10000 3.09 350 17:40 14.09.2021
6357 Clear 6 1012 93 10000 3.09 350 17:40 14.09.2021
6358 Clouds 6 1011 93 10000 4.12 360 16:58 14.09.2021
6359 Rain 5 1010 93 10000 4.63 10 15:30 14.09.2021
6360 Rain 5 1009 93 10000 5.14 30 14:31 14.09.2021
6361 Rain 4 1008 93 8000 4.63 20 11:52 14.09.2021
6362 Rain 3 1007 93 10000 4.63 20 10:54 14.09.2021
6363 Snow 2 1006 100 6000 4.12 360 09:50 14.09.2021
6364 Snow 1 1005 100 1800 5.14 340 08:39 14.09.2021
6365 Snow 2 1004 93 2500 5.14 350 06:23 14.09.2021
6366 Rain 5 1001 75 10000 4.12 350 23:54 13.09.2021
6367 Clouds 4 999 100 10000 4.63 340 22:46 13.09.2021
6368 Clouds 4 999 100 10000 4.63 340 22:23 13.09.2021
6369 Clouds 4 999 93 10000 4.63 350 21:45 13.09.2021
6370 Rain 4 998 93 10000 4.63 360 20:48 13.09.2021
6371 Rain 4 997 100 10000 5.66 330 18:46 13.09.2021
6372 Rain 4 996 100 10000 6.17 320 17:42 13.09.2021
6373 Rain 4 996 100 10000 5.66 310 16:50 13.09.2021
6374 Rain 4 996 100 10000 5.66 310 15:22 13.09.2021
6375 Rain 5 995 93 10000 5.66 320 11:55 13.09.2021
6376 Rain 5 996 93 10000 6.17 310 10:58 13.09.2021
6377 Drizzle 8 996 100 2000 4.12 320 09:35 13.09.2021
6378 Clouds 9 998 93 10000 3.09 20 04:38 13.09.2021
6379 Clouds 9 1002 93 10000 3.09 70 22:59 12.09.2021
6380 Clouds 10 1003 87 10000 3.09 70 22:25 12.09.2021
6381 Rain 10 1003 87 10000 2.57 70 21:34 12.09.2021
6382 Clouds 10 1004 87 10000 2.57 90 20:28 12.09.2021
6383 Clouds 10 1005 87 10000 1.03 0 19:49 12.09.2021
6384 Clear 11 1005 81 10000 1.54 120 19:19 12.09.2021
6385 Clouds 12 1005 76 10000 3.09 80 18:19 12.09.2021
6386 Clouds 12 1006 76 10000 3.6 80 16:30 12.09.2021
6387 Clouds 12 1008 71 10000 2.57 50 14:50 12.09.2021
6388 Clear 10 1009 76 10000 2.57 80 12:47 12.09.2021
6389 Clouds 8 1010 81 10000 2.06 80 10:35 12.09.2021
6390 Clouds 5 1010 87 10000 3.09 60 08:40 12.09.2021
6391 Clouds 5 1011 81 10000 2.06 70 07:39 12.09.2021
6392 Clear 6 1014 65 10000 3.09 80 00:48 12.09.2021
6393 Clear 7 1014 61 10000 3.6 110 23:18 11.09.2021
6394 Clear 8 1014 53 10000 2.57 100 21:40 11.09.2021
6395 Clear 9 1015 57 10000 2.57 110 19:55 11.09.2021
6396 Clear 11 1015 50 10000 1.54 80 18:30 11.09.2021
6397 Clear 12 1015 43 10000 1.54 100 17:29 11.09.2021
6398 Clear 13 1015 43 10000 2.06 60 15:38 11.09.2021
6399 Clear 12 1015 46 10000 1.03 0 13:25 11.09.2021
6400 Clear 11 1015 53 10000 3.09 60 11:45 11.09.2021
6401 Clear 10 1015 61 10000 3.09 60 10:40 11.09.2021
6402 Clear 8 1015 70 10000 4.12 50 08:54 11.09.2021
6403 Clear 5 1014 93 10000 2.57 30 07:44 11.09.2021
6404 Clouds 5 1013 93 10000 2.57 350 04:23 11.09.2021
6405 Clear 7 1013 87 10000 2.06 240 22:43 10.09.2021
6406 Clear 7 1013 87 10000 2.57 230 21:57 10.09.2021
6407 Clear 7 1013 87 10000 3.6 230 21:38 10.09.2021
6408 Clouds 10 1013 66 10000 3.09 220 19:32 10.09.2021
6409 Clear 13 1013 50 10000 2.06 260 17:58 10.09.2021
6410 Clear 14 1013 47 10000 4.12 240 16:28 10.09.2021
6411 Clouds 13 1014 47 10000 3.6 240 13:29 10.09.2021
6412 Clouds 11 1015 57 10000 2.57 280 10:52 10.09.2021
6413 Clear 6 1014 87 10000 1.54 250 07:52 10.09.2021
6414 Clouds 5 1014 87 10000 1.54 290 07:21 10.09.2021
6415 Clear 7 1011 75 10000 2.57 310 00:24 10.09.2021
6416 Clear 9 1010 71 10000 1.54 270 21:49 09.09.2021
6417 Clear 9 1009 71 10000 1.54 270 20:48 09.09.2021
6418 Clear 9 1010 57 10000 1.54 270 20:27 09.09.2021
6419 Clear 10 1008 66 10000 1.54 300 18:46 09.09.2021
6420 Clear 12 1008 58 10000 3.09 310 17:47 09.09.2021
6421 Clear 12 1007 58 10000 3.6 280 16:28 09.09.2021
6422 Clear 13 1007 54 10000 4.12 280 15:24 09.09.2021
6423 Clouds 12 1006 58 10000 3.6 280 12:23 09.09.2021
6424 Clouds 11 1005 62 10000 4.12 300 11:22 09.09.2021
6425 Clouds 11 1005 62 10000 4.12 300 11:22 09.09.2021
6426 Clouds 9 1005 76 10000 2.06 260 09:34 09.09.2021
6427 Clear 6 1004 87 10000 2.06 260 07:43 09.09.2021
6428 Clear 5 1004 87 10000 2.06 310 05:40 09.09.2021
6429 Clear 8 1002 81 10000 2.06 340 23:54 08.09.2021
6430 Clear 9 1001 76 10000 2.57 290 21:47 08.09.2021
6431 Clear 10 1000 71 10000 3.6 300 20:37 08.09.2021
6432 Clear 11 999 66 10000 5.14 300 19:46 08.09.2021
6433 Clear 13 999 62 10000 5.66 310 18:47 08.09.2021
6434 Clear 13 998 71 10000 4.12 310 17:59 08.09.2021
6435 Clear 14 998 67 10000 4.63 300 17:39 08.09.2021
6436 Clouds 15 997 77 10000 3.09 300 14:57 08.09.2021
6437 Clouds 11 997 100 10000 2.57 260 13:25 08.09.2021
6438 Clouds 10 996 100 10000 3.6 220 12:41 08.09.2021
6439 Clouds 10 996 100 10000 3.09 220 12:21 08.09.2021
6440 Clouds 10 997 93 10000 2.57 240 11:23 08.09.2021
6441 Rain 9 997 100 10000 3.6 240 10:29 08.09.2021
6442 Rain 9 997 100 10000 2.57 220 09:36 08.09.2021
6443 Clouds 9 997 93 10000 2.57 230 07:43 08.09.2021
6444 Clouds 10 998 93 10000 4.12 270 05:46 08.09.2021
6445 Clouds 12 998 100 500 3.09 230 22:51 07.09.2021
6446 Fog 12 999 100 450 3.09 230 22:19 07.09.2021
6447 Clouds 12 999 93 4200 4.12 210 20:37 07.09.2021
6448 Rain 12 1001 93 10000 4.63 210 18:49 07.09.2021
6449 Rain 12 1001 93 10000 4.63 210 18:24 07.09.2021
6450 Rain 12 1002 93 4800 6.17 210 16:56 07.09.2021
6451 Clouds 15 1003 72 10000 5.66 220 15:43 07.09.2021
6452 Clear 15 1004 72 10000 5.66 220 14:44 07.09.2021
6453 Clouds 14 1005 71 10000 4.63 220 12:45 07.09.2021
6454 Clouds 14 1005 71 10000 4.63 220 12:45 07.09.2021
6455 Clouds 14 1005 71 10000 4.63 220 12:45 07.09.2021
6456 Clouds 13 1006 71 10000 5.14 230 11:51 07.09.2021
6457 Clear 12 1006 76 10000 3.6 210 10:43 07.09.2021
6458 Fog 9 1007 93 10000 3.09 210 08:39 07.09.2021
6459 Fog 8 1008 100 10000 2.57 230 07:44 07.09.2021
6460 Fog 9 1009 93 800 2.06 130 05:41 07.09.2021
6461 Clouds 9 1010 100 10000 1.03 0 02:38 07.09.2021
6462 Clouds 10 1011 93 10000 1.54 250 00:52 07.09.2021
6463 Clouds 9 1011 100 10000 2.06 320 23:35 06.09.2021
6464 Clear 9 1011 100 10000 1.54 300 22:54 06.09.2021
6465 Clear 10 1011 93 10000 2.06 330 22:35 06.09.2021
6466 Clouds 11 1012 93 10000 1.03 330 21:25 06.09.2021
6467 Clouds 12 1012 82 10000 1.54 320 19:31 06.09.2021
6468 Clouds 12 1012 82 10000 2.57 330 18:50 06.09.2021
6469 Clouds 12 1012 82 10000 2.57 330 18:24 06.09.2021
6470 Clouds 13 1012 76 10000 3.09 300 17:36 06.09.2021
6471 Clouds 15 1013 58 10000 2.06 260 15:52 06.09.2021
6472 Clouds 15 1013 62 10000 3.09 310 13:48 06.09.2021
6473 Clouds 14 1013 62 10000 3.09 300 12:47 06.09.2021
6474 Clouds 11 1014 76 10000 1.54 250 10:48 06.09.2021
6475 Clouds 9 1014 81 10000 2.06 250 08:35 06.09.2021
6476 Clear 6 1015 93 10000 2.57 260 04:48 06.09.2021
6477 Clear 7 1016 81 10000 1.54 220 23:37 05.09.2021
6478 Clear 8 1016 76 10000 1.54 280 22:50 05.09.2021
6479 Clear 8 1016 76 10000 1.54 240 21:58 05.09.2021
6480 Clear 8 1016 76 10000 1.54 290 21:31 05.09.2021
6481 Clear 8 1017 76 10000 2.57 300 21:30 05.09.2021
6482 Clear 10 1017 66 10000 1.54 250 20:21 05.09.2021
6483 Clear 11 1017 57 10000 1.03 290 18:42 05.09.2021
6484 Clear 12 1017 54 10000 1.54 300 17:31 05.09.2021
6485 Clear 12 1017 54 10000 1.54 300 17:30 05.09.2021
6486 Clouds 12 1017 50 10000 3.6 290 15:27 05.09.2021
6487 Clouds 11 1017 53 10000 2.57 310 14:19 05.09.2021
6488 Clouds 11 1019 53 10000 3.6 300 12:26 05.09.2021
6489 Clear 9 1018 61 10000 2.57 280 10:48 05.09.2021
6490 Clear 9 1018 61 10000 2.57 280 10:23 05.09.2021
6491 Clear 6 1018 75 10000 1.54 340 09:21 05.09.2021
6492 Clear 4 1018 81 10000 2.57 330 07:43 05.09.2021
6493 Clear 4 1017 81 10000 3.09 330 00:48 05.09.2021
6494 Clear 4 1017 81 10000 3.09 330 00:22 05.09.2021
6495 Clear 4 1017 81 10000 3.09 330 00:22 05.09.2021
6496 Clear 4 1017 75 10000 2.06 310 23:32 04.09.2021
6497 Clear 4 1017 75 10000 2.57 330 22:35 04.09.2021
6498 Clear 4 1017 75 10000 2.06 330 21:55 04.09.2021
6499 Clouds 7 1016 56 10000 3.09 340 19:41 04.09.2021
6500 Clear 9 1016 49 10000 4.12 340 18:39 04.09.2021
6501 Clear 9 1015 46 10000 4.63 310 15:54 04.09.2021
6502 Clouds 9 1015 53 10000 5.66 320 12:48 04.09.2021
6503 Clear 7 1014 65 10000 4.12 340 11:19 04.09.2021
6504 Clear 4 1015 81 10000 5.14 350 08:58 04.09.2021
6505 Clear 3 1011 80 10000 5.66 330 04:50 04.09.2021
6506 Clear 4 1010 81 10000 5.66 340 00:24 04.09.2021
6507 Clear 5 1009 81 10000 6.17 330 23:31 03.09.2021
6508 Clear 6 1009 81 10000 4.63 330 21:53 03.09.2021
6509 Clear 6 1008 81 10000 4.63 340 21:33 03.09.2021
6510 Clear 7 1008 75 10000 5.14 340 20:41 03.09.2021
6511 Clouds 8 1007 65 10000 5.14 340 19:46 03.09.2021
6512 Clear 8 1007 70 10000 6.17 340 18:55 03.09.2021
6513 Clouds 9 1007 71 10000 7.2 340 17:40 03.09.2021
6514 Clouds 9 1006 71 10000 6.17 350 16:23 03.09.2021
6515 Clouds 10 1005 57 10000 7.2 350 14:47 03.09.2021
6516 Clouds 8 1004 81 10000 8.23 330 11:56 03.09.2021
6517 Rain 7 1004 87 10000 7.2 330 10:22 03.09.2021
6518 Clouds 7 1003 75 10000 7.2 330 08:39 03.09.2021
6519 Clouds 6 1003 81 10000 6.69 330 07:37 03.09.2021
6520 Clear 4 1003 93 10000 3.6 340 00:24 03.09.2021
6521 Clear 5 1003 93 10000 3.09 330 22:54 02.09.2021
6522 Clear 5 1003 93 10000 2.57 360 21:19 02.09.2021
6523 Rain 7 1003 81 9000 4.12 360 19:24 02.09.2021
6524 Clouds 10 1003 61 10000 4.12 350 17:30 02.09.2021
6525 Clear 10 1004 61 10000 3.09 300 15:48 02.09.2021
6526 Clouds 10 1005 61 10000 3.09 310 13:51 02.09.2021
6527 Clouds 9 1006 66 10000 4.12 300 12:21 02.09.2021
6528 Clouds 9 1006 66 10000 3.09 300 11:33 02.09.2021
6529 Clouds 8 1006 70 10000 4.63 330 09:30 02.09.2021
6530 Clouds 7 1007 75 10000 4.63 310 07:45 02.09.2021
6531 Clear 7 1007 75 10000 3.09 310 06:57 02.09.2021
6532 Clear 6 1009 81 10000 3.09 320 02:44 02.09.2021
6533 Clear 6 1009 81 10000 3.09 310 01:53 02.09.2021
6534 Clear 6 1009 81 10000 3.09 320 01:18 02.09.2021
6535 Clear 7 1009 75 10000 3.6 320 23:34 01.09.2021
6536 Clouds 7 1009 75 10000 3.09 320 22:34 01.09.2021
6537 Clear 8 1009 70 10000 3.6 320 21:33 01.09.2021
6538 Clear 9 1008 71 10000 3.09 310 19:55 01.09.2021
6539 Clouds 12 1008 58 10000 4.12 310 17:58 01.09.2021
6540 Clouds 11 1008 62 10000 6.17 290 17:18 01.09.2021
6541 Clouds 11 1008 62 10000 4.12 300 16:46 01.09.2021
6542 Clear 12 1008 54 10000 6.17 320 15:23 01.09.2021
6543 Clouds 11 1007 57 10000 5.66 320 11:48 01.09.2021
6544 Clouds 12 1007 58 10000 5.14 320 10:42 01.09.2021
6545 Clear 10 1007 66 10000 5.14 310 08:46 01.09.2021
6546 Clear 7 1008 81 10000 2.57 300 07:50 01.09.2021
6547 Clear 9 1009 76 10000 2.06 290 23:41 31.08.2021
6548 Clear 9 1009 76 10000 2.57 310 22:24 31.08.2021
6549 Clear 10 1009 81 10000 1.54 280 20:34 31.08.2021
6550 Clouds 11 1009 81 10000 1.54 340 19:43 31.08.2021
6551 Rain 11 1009 81 10000 1.54 230 17:53 31.08.2021
6552 Rain 12 1009 76 10000 1.03 0 17:27 31.08.2021
6553 Rain 12 1010 71 10000 6.69 340 16:41 31.08.2021
6554 Clouds 13 1010 66 10000 3.09 240 15:56 31.08.2021
6555 Clouds 16 1011 55 10000 4.63 270 12:54 31.08.2021
6556 Clouds 16 1012 51 10000 3.09 280 11:20 31.08.2021
6557 Clouds 16 1013 51 10000 2.57 270 10:44 31.08.2021
6558 Clear 14 1013 62 10000 2.57 300 09:42 31.08.2021
6559 Clear 12 1014 82 10000 2.57 330 07:57 31.08.2021
6560 Clear 11 1015 93 10000 2.06 260 05:57 31.08.2021
6561 Clouds 13 1017 76 10000 3.6 220 23:37 30.08.2021
6562 Clouds 13 1018 76 10000 4.12 210 22:54 30.08.2021
6563 Clear 14 1018 71 10000 3.6 220 21:41 30.08.2021
6564 Clear 15 1019 67 10000 4.12 220 20:42 30.08.2021
6565 Clear 15 1019 67 10000 3.6 220 19:54 30.08.2021
6566 Clear 15 1019 67 10000 3.6 220 19:24 30.08.2021
6567 Clear 18 1019 55 10000 4.63 220 17:51 30.08.2021
6568 Clear 18 1020 51 10000 4.63 220 16:29 30.08.2021
6569 Clear 19 1020 52 10000 4.63 210 15:50 30.08.2021
6570 Clouds 19 1021 48 10000 4.63 230 14:24 30.08.2021
6571 Clouds 19 1021 48 10000 4.63 210 13:21 30.08.2021
6572 Clouds 19 1022 52 10000 3.6 220 11:29 30.08.2021
6573 Clear 9 1023 81 10000 0.51 0 04:57 30.08.2021
6574 Clear 13 1023 66 10000 2.57 150 21:57 29.08.2021
6575 Clear 14 1023 62 10000 2.06 120 20:54 29.08.2021
6576 Clear 16 1023 55 10000 2.06 110 19:28 29.08.2021
6577 Clear 16 1023 58 10000 1.54 340 18:25 29.08.2021
6578 Clouds 18 1023 45 10000 1.03 0 15:58 29.08.2021
6579 Clouds 17 1023 51 10000 2.57 80 14:28 29.08.2021
6580 Clouds 18 1023 48 10000 1.03 0 13:55 29.08.2021
6581 Clouds 18 1023 48 10000 1.03 0 13:55 29.08.2021
6582 Clouds 17 1023 55 10000 2.06 20 12:57 29.08.2021
6583 Clear 17 1024 55 10000 1.54 40 11:59 29.08.2021
6584 Clear 16 1024 55 10000 1.03 0 11:40 29.08.2021
6585 Clear 15 1024 62 10000 1.54 50 10:46 29.08.2021
6586 Clear 15 1025 38 10000 1.54 50 10:28 29.08.2021
6587 Clear 13 1024 71 10000 1.54 90 09:29 29.08.2021
6588 Clouds 9 1024 87 10000 3.6 40 04:18 29.08.2021
6589 Clear 13 1024 71 10000 2.57 360 22:43 28.08.2021
6590 Clear 15 1024 67 10000 2.06 350 20:31 28.08.2021
6591 Clear 16 1024 63 10000 2.06 340 19:19 28.08.2021
6592 Clear 17 1024 55 10000 1.54 340 18:22 28.08.2021
6593 Clouds 18 1024 51 10000 2.57 360 17:45 28.08.2021
6594 Clouds 18 1025 51 10000 2.57 320 16:21 28.08.2021
6595 Clear 18 1025 51 10000 2.06 0 14:43 28.08.2021
6596 Clear 18 1025 51 10000 2.06 310 13:47 28.08.2021
6597 Clear 16 1025 58 10000 2.57 270 12:47 28.08.2021
6598 Clear 16 1025 58 10000 2.57 270 12:24 28.08.2021
6599 Clear 14 1026 62 10000 2.57 340 10:45 28.08.2021
6600 Clear 13 1026 76 10000 1.54 280 09:33 28.08.2021
6601 Clear 7 1026 93 10000 2.06 240 07:25 28.08.2021
6602 Clear 9 1027 87 10000 3.09 230 22:50 27.08.2021
6603 Clear 10 1027 81 10000 2.57 230 21:26 27.08.2021
6604 Clear 12 1027 76 10000 3.09 230 20:35 27.08.2021
6605 Clear 14 1027 62 10000 3.09 220 19:29 27.08.2021
6606 Clear 15 1027 58 10000 3.6 220 18:38 27.08.2021
6607 Clear 16 1028 55 10000 4.63 210 17:30 27.08.2021
6608 Clear 16 1028 51 10000 4.63 220 16:28 27.08.2021
6609 Clear 16 1029 51 10000 4.63 210 14:44 27.08.2021
6610 Clear 15 1030 54 10000 4.12 210 12:55 27.08.2021
6611 Clear 14 1030 58 10000 4.12 220 11:38 27.08.2021
6612 Clear 12 1031 66 10000 4.63 210 10:45 27.08.2021
6613 Clear 10 1031 71 10000 3.6 210 09:51 27.08.2021
6614 Clear 9 1031 76 10000 2.57 220 08:48 27.08.2021
6615 Clear 7 1031 81 10000 2.57 160 07:39 27.08.2021
6616 Clear 6 1031 87 10000 1.03 0 05:31 27.08.2021
6617 Clear 8 1030 76 10000 2.06 140 00:36 27.08.2021
6618 Clear 8 1030 76 10000 2.06 160 23:19 26.08.2021
6619 Clear 9 1030 71 10000 2.57 160 22:19 26.08.2021
6620 Clear 10 1029 66 10000 1.54 100 20:44 26.08.2021
6621 Clear 13 1029 54 10000 2.06 120 18:53 26.08.2021
6622 Clear 14 1029 47 10000 2.57 60 17:45 26.08.2021
6623 Clear 14 1028 50 10000 2.57 90 16:35 26.08.2021
6624 Clouds 13 1028 50 10000 2.06 130 15:55 26.08.2021
6625 Clouds 13 1028 50 10000 4.63 140 13:48 26.08.2021
6626 Clouds 12 1028 54 10000 4.63 140 12:54 26.08.2021
6627 Clouds 11 1028 57 10000 4.63 110 12:30 26.08.2021
6628 Clouds 11 1028 62 10000 4.63 70 10:21 26.08.2021
6629 Clouds 10 1027 71 10000 4.63 90 08:34 26.08.2021
6630 Clouds 8 1026 87 10000 3.6 60 06:18 26.08.2021
6631 Clouds 8 1022 70 10000 4.12 50 22:50 25.08.2021
6632 Clouds 8 1022 70 10000 4.12 50 22:32 25.08.2021
6633 Clouds 8 1021 70 10000 4.12 60 21:42 25.08.2021
6634 Clouds 9 1021 66 10000 3.09 60 20:46 25.08.2021
6635 Clouds 9 1020 66 10000 4.12 80 20:27 25.08.2021
6636 Clouds 9 1019 71 10000 4.12 70 18:42 25.08.2021
6637 Clouds 10 1018 57 10000 6.69 80 17:31 25.08.2021
6638 Clouds 10 1017 61 10000 6.17 80 15:44 25.08.2021
6639 Clouds 10 1016 61 10000 6.17 80 14:48 25.08.2021
6640 Clouds 10 1016 61 10000 6.17 80 14:26 25.08.2021
6641 Clouds 10 1015 57 10000 8.23 80 12:56 25.08.2021
6642 Clouds 10 1015 57 10000 7.72 70 11:26 25.08.2021
6643 Clouds 9 1014 66 10000 7.2 90 10:40 25.08.2021
6644 Clouds 10 1013 61 10000 6.69 90 09:51 25.08.2021
6645 Clouds 9 1013 71 10000 7.2 90 08:42 25.08.2021
6646 Clouds 9 1012 66 10000 6.17 90 08:21 25.08.2021
6647 Clouds 8 1012 81 10000 3.6 90 03:49 25.08.2021
6648 Clouds 8 1014 81 10000 3.6 120 23:42 24.08.2021
6649 Clear 9 1016 76 10000 3.6 160 21:48 24.08.2021
6650 Clear 10 1017 71 10000 2.57 170 20:46 24.08.2021
6651 Clear 11 1018 66 10000 2.57 160 19:45 24.08.2021
6652 Clouds 13 1019 54 10000 5.14 170 17:58 24.08.2021
6653 Clear 13 1020 54 10000 4.63 200 17:27 24.08.2021
6654 Clear 14 1021 47 10000 4.12 200 16:41 24.08.2021
6655 Clear 14 1023 54 10000 3.6 220 14:28 24.08.2021
6656 Clouds 13 1024 54 10000 2.57 210 13:24 24.08.2021
6657 Clear 10 1026 71 10000 2.06 240 11:38 24.08.2021
6658 Clear 9 1026 71 10000 2.57 220 10:48 24.08.2021
6659 Clear 9 1026 71 10000 2.57 210 10:26 24.08.2021
6660 Fog 7 1027 81 10000 2.06 210 08:49 24.08.2021
6661 Fog 5 1028 87 10000 0.51 260 06:36 24.08.2021
6662 Clear 3 1027 93 10000 0.51 0 04:40 24.08.2021
6663 Clear 5 1027 87 10000 2.57 350 00:28 24.08.2021
6664 Clear 6 1027 75 10000 3.09 20 22:52 23.08.2021
6665 Clear 6 1027